<?xml version="1.0" encoding="UTF-8" standalone="no" ?>
<gpx xmlns="http://www.topografix.com/GPX/1/1" xmlns:xsi="http://www.w3.org/2001/XMLSchema-instance" xsi:schemaLocation="http://www.topografix.com/GPX/1/1 http://www.topografix.com/GPX/1/1/gpx.xsd" version="1.1" creator="VisuGPX - https://www.visugpx.com">
  <metadata>
    <name>Les cimes de Julienas</name>
    <desc><![CDATA[Fait le 11 novembre 2012 avec les GR69]]></desc>
  </metadata>
  <trk>
    <name><![CDATA[2012-11-11T07:48:57Z]]></name>
    <trkseg>
      <trkpt lat="46.23412" lon="4.71317">
        <ele>261</ele>
        <time>2012-11-11T07:48:57Z</time>
      </trkpt>
      <trkpt lat="46.23413" lon="4.71315">
        <ele>261</ele>
        <time>2012-11-11T07:48:58Z</time>
      </trkpt>
      <trkpt lat="46.23415" lon="4.71311">
        <ele>261</ele>
        <time>2012-11-11T07:49:00Z</time>
      </trkpt>
      <trkpt lat="46.23418" lon="4.71305">
        <ele>265</ele>
        <time>2012-11-11T07:49:02Z</time>
      </trkpt>
      <trkpt lat="46.23424" lon="4.71294">
        <ele>265</ele>
        <time>2012-11-11T07:49:05Z</time>
      </trkpt>
      <trkpt lat="46.23435" lon="4.71279">
        <ele>265</ele>
        <time>2012-11-11T07:49:10Z</time>
      </trkpt>
      <trkpt lat="46.23438" lon="4.71273">
        <ele>265</ele>
        <time>2012-11-11T07:49:12Z</time>
      </trkpt>
      <trkpt lat="46.23447" lon="4.71252">
        <ele>266</ele>
        <time>2012-11-11T07:49:19Z</time>
      </trkpt>
      <trkpt lat="46.23449" lon="4.71247">
        <ele>267</ele>
        <time>2012-11-11T07:49:22Z</time>
      </trkpt>
      <trkpt lat="46.23449" lon="4.71244">
        <ele>267</ele>
        <time>2012-11-11T07:49:24Z</time>
      </trkpt>
      <trkpt lat="46.23452" lon="4.71238">
        <ele>267</ele>
        <time>2012-11-11T07:49:27Z</time>
      </trkpt>
      <trkpt lat="46.23453" lon="4.71233">
        <ele>267</ele>
        <time>2012-11-11T07:49:29Z</time>
      </trkpt>
      <trkpt lat="46.23454" lon="4.7122">
        <ele>267</ele>
        <time>2012-11-11T07:49:35Z</time>
      </trkpt>
      <trkpt lat="46.23457" lon="4.71208">
        <ele>267</ele>
        <time>2012-11-11T07:49:42Z</time>
      </trkpt>
      <trkpt lat="46.23458" lon="4.71205">
        <ele>267</ele>
        <time>2012-11-11T07:49:44Z</time>
      </trkpt>
      <trkpt lat="46.23458" lon="4.712">
        <ele>268</ele>
        <time>2012-11-11T07:49:46Z</time>
      </trkpt>
      <trkpt lat="46.23462" lon="4.71194">
        <ele>268</ele>
        <time>2012-11-11T07:49:52Z</time>
      </trkpt>
      <trkpt lat="46.23463" lon="4.71185">
        <ele>268</ele>
        <time>2012-11-11T07:49:58Z</time>
      </trkpt>
      <trkpt lat="46.23464" lon="4.71183">
        <ele>268</ele>
        <time>2012-11-11T07:49:59Z</time>
      </trkpt>
      <trkpt lat="46.23465" lon="4.71172">
        <ele>268</ele>
        <time>2012-11-11T07:50:04Z</time>
      </trkpt>
      <trkpt lat="46.23466" lon="4.71155">
        <ele>268</ele>
        <time>2012-11-11T07:50:10Z</time>
      </trkpt>
      <trkpt lat="46.23463" lon="4.71134">
        <ele>267</ele>
        <time>2012-11-11T07:50:16Z</time>
      </trkpt>
      <trkpt lat="46.23465" lon="4.71109">
        <ele>267</ele>
        <time>2012-11-11T07:50:22Z</time>
      </trkpt>
      <trkpt lat="46.23469" lon="4.71085">
        <ele>267</ele>
        <time>2012-11-11T07:50:27Z</time>
      </trkpt>
      <trkpt lat="46.23469" lon="4.71081">
        <ele>265</ele>
        <time>2012-11-11T07:50:28Z</time>
      </trkpt>
      <trkpt lat="46.2347" lon="4.71057">
        <ele>264</ele>
        <time>2012-11-11T07:50:33Z</time>
      </trkpt>
      <trkpt lat="46.23472" lon="4.71045">
        <ele>263</ele>
        <time>2012-11-11T07:50:35Z</time>
      </trkpt>
      <trkpt lat="46.23476" lon="4.71033">
        <ele>263</ele>
        <time>2012-11-11T07:50:37Z</time>
      </trkpt>
      <trkpt lat="46.23478" lon="4.71025">
        <ele>263</ele>
        <time>2012-11-11T07:50:38Z</time>
      </trkpt>
      <trkpt lat="46.23487" lon="4.70978">
        <ele>260</ele>
        <time>2012-11-11T07:50:43Z</time>
      </trkpt>
      <trkpt lat="46.23498" lon="4.70919">
        <ele>259</ele>
        <time>2012-11-11T07:50:48Z</time>
      </trkpt>
      <trkpt lat="46.23501" lon="4.70908">
        <ele>260</ele>
        <time>2012-11-11T07:50:49Z</time>
      </trkpt>
      <trkpt lat="46.23516" lon="4.70868">
        <ele>260</ele>
        <time>2012-11-11T07:50:53Z</time>
      </trkpt>
      <trkpt lat="46.23523" lon="4.70851">
        <ele>259</ele>
        <time>2012-11-11T07:50:55Z</time>
      </trkpt>
      <trkpt lat="46.23537" lon="4.70816">
        <ele>257</ele>
        <time>2012-11-11T07:50:59Z</time>
      </trkpt>
      <trkpt lat="46.23539" lon="4.70807">
        <ele>257</ele>
        <time>2012-11-11T07:51:00Z</time>
      </trkpt>
      <trkpt lat="46.23544" lon="4.70787">
        <ele>256</ele>
        <time>2012-11-11T07:51:02Z</time>
      </trkpt>
      <trkpt lat="46.23547" lon="4.70766">
        <ele>256</ele>
        <time>2012-11-11T07:51:04Z</time>
      </trkpt>
      <trkpt lat="46.23551" lon="4.70721">
        <ele>254</ele>
        <time>2012-11-11T07:51:08Z</time>
      </trkpt>
      <trkpt lat="46.23551" lon="4.70709">
        <ele>253</ele>
        <time>2012-11-11T07:51:09Z</time>
      </trkpt>
      <trkpt lat="46.23548" lon="4.70673">
        <ele>253</ele>
        <time>2012-11-11T07:51:12Z</time>
      </trkpt>
      <trkpt lat="46.23543" lon="4.70651">
        <ele>252</ele>
        <time>2012-11-11T07:51:14Z</time>
      </trkpt>
      <trkpt lat="46.23531" lon="4.70612">
        <ele>252</ele>
        <time>2012-11-11T07:51:18Z</time>
      </trkpt>
      <trkpt lat="46.23522" lon="4.70597">
        <ele>253</ele>
        <time>2012-11-11T07:51:20Z</time>
      </trkpt>
      <trkpt lat="46.23513" lon="4.70587">
        <ele>253</ele>
        <time>2012-11-11T07:51:22Z</time>
      </trkpt>
      <trkpt lat="46.23508" lon="4.70582">
        <ele>254</ele>
        <time>2012-11-11T07:51:23Z</time>
      </trkpt>
      <trkpt lat="46.23489" lon="4.70571">
        <ele>256</ele>
        <time>2012-11-11T07:51:27Z</time>
      </trkpt>
      <trkpt lat="46.23476" lon="4.70566">
        <ele>257</ele>
        <time>2012-11-11T07:51:30Z</time>
      </trkpt>
      <trkpt lat="46.23467" lon="4.70566">
        <ele>257</ele>
        <time>2012-11-11T07:51:32Z</time>
      </trkpt>
      <trkpt lat="46.23453" lon="4.70571">
        <ele>258</ele>
        <time>2012-11-11T07:51:35Z</time>
      </trkpt>
      <trkpt lat="46.23449" lon="4.70573">
        <ele>258</ele>
        <time>2012-11-11T07:51:36Z</time>
      </trkpt>
      <trkpt lat="46.23441" lon="4.70579">
        <ele>258</ele>
        <time>2012-11-11T07:51:38Z</time>
      </trkpt>
      <trkpt lat="46.2342" lon="4.70598">
        <ele>256</ele>
        <time>2012-11-11T07:51:44Z</time>
      </trkpt>
      <trkpt lat="46.23414" lon="4.70601">
        <ele>257</ele>
        <time>2012-11-11T07:51:46Z</time>
      </trkpt>
      <trkpt lat="46.23407" lon="4.70602">
        <ele>257</ele>
        <time>2012-11-11T07:51:49Z</time>
      </trkpt>
      <trkpt lat="46.23392" lon="4.70593">
        <ele>257</ele>
        <time>2012-11-11T07:51:55Z</time>
      </trkpt>
      <trkpt lat="46.23385" lon="4.70578">
        <ele>260</ele>
        <time>2012-11-11T07:52:00Z</time>
      </trkpt>
      <trkpt lat="46.2338" lon="4.7057">
        <ele>260</ele>
        <time>2012-11-11T07:52:03Z</time>
      </trkpt>
      <trkpt lat="46.23365" lon="4.70541">
        <ele>261</ele>
        <time>2012-11-11T07:52:13Z</time>
      </trkpt>
      <trkpt lat="46.23363" lon="4.70536">
        <ele>261</ele>
        <time>2012-11-11T07:52:15Z</time>
      </trkpt>
      <trkpt lat="46.23363" lon="4.70523">
        <ele>261</ele>
        <time>2012-11-11T07:52:19Z</time>
      </trkpt>
      <trkpt lat="46.23373" lon="4.70509">
        <ele>261</ele>
        <time>2012-11-11T07:52:24Z</time>
      </trkpt>
      <trkpt lat="46.23384" lon="4.70498">
        <ele>264</ele>
        <time>2012-11-11T07:52:28Z</time>
      </trkpt>
      <trkpt lat="46.23396" lon="4.70488">
        <ele>264</ele>
        <time>2012-11-11T07:52:32Z</time>
      </trkpt>
      <trkpt lat="46.23413" lon="4.70471">
        <ele>264</ele>
        <time>2012-11-11T07:52:39Z</time>
      </trkpt>
      <trkpt lat="46.23415" lon="4.70468">
        <ele>264</ele>
        <time>2012-11-11T07:52:40Z</time>
      </trkpt>
      <trkpt lat="46.23432" lon="4.70449">
        <ele>264</ele>
        <time>2012-11-11T07:52:47Z</time>
      </trkpt>
      <trkpt lat="46.23445" lon="4.70434">
        <ele>265</ele>
        <time>2012-11-11T07:52:52Z</time>
      </trkpt>
      <trkpt lat="46.23454" lon="4.70419">
        <ele>265</ele>
        <time>2012-11-11T07:52:56Z</time>
      </trkpt>
      <trkpt lat="46.2347" lon="4.70394">
        <ele>267</ele>
        <time>2012-11-11T07:53:03Z</time>
      </trkpt>
      <trkpt lat="46.23482" lon="4.70376">
        <ele>268</ele>
        <time>2012-11-11T07:53:08Z</time>
      </trkpt>
      <trkpt lat="46.23495" lon="4.70354">
        <ele>269</ele>
        <time>2012-11-11T07:53:14Z</time>
      </trkpt>
      <trkpt lat="46.23507" lon="4.70332">
        <ele>271</ele>
        <time>2012-11-11T07:53:20Z</time>
      </trkpt>
      <trkpt lat="46.23518" lon="4.70311">
        <ele>272</ele>
        <time>2012-11-11T07:53:26Z</time>
      </trkpt>
      <trkpt lat="46.23521" lon="4.70305">
        <ele>273</ele>
        <time>2012-11-11T07:53:28Z</time>
      </trkpt>
      <trkpt lat="46.2354" lon="4.70271">
        <ele>274</ele>
        <time>2012-11-11T07:53:39Z</time>
      </trkpt>
      <trkpt lat="46.23542" lon="4.70269">
        <ele>274</ele>
        <time>2012-11-11T07:53:40Z</time>
      </trkpt>
      <trkpt lat="46.2356" lon="4.70245">
        <ele>276</ele>
        <time>2012-11-11T07:53:49Z</time>
      </trkpt>
      <trkpt lat="46.23569" lon="4.70233">
        <ele>277</ele>
        <time>2012-11-11T07:53:53Z</time>
      </trkpt>
      <trkpt lat="46.23577" lon="4.70222">
        <ele>277</ele>
        <time>2012-11-11T07:53:57Z</time>
      </trkpt>
      <trkpt lat="46.23595" lon="4.70197">
        <ele>279</ele>
        <time>2012-11-11T07:54:05Z</time>
      </trkpt>
      <trkpt lat="46.23597" lon="4.70194">
        <ele>279</ele>
        <time>2012-11-11T07:54:06Z</time>
      </trkpt>
      <trkpt lat="46.23613" lon="4.7017">
        <ele>279</ele>
        <time>2012-11-11T07:54:15Z</time>
      </trkpt>
      <trkpt lat="46.23617" lon="4.70163">
        <ele>280</ele>
        <time>2012-11-11T07:54:18Z</time>
      </trkpt>
      <trkpt lat="46.23616" lon="4.70158">
        <ele>280</ele>
        <time>2012-11-11T07:54:20Z</time>
      </trkpt>
      <trkpt lat="46.23615" lon="4.70156">
        <ele>280</ele>
        <time>2012-11-11T07:54:21Z</time>
      </trkpt>
      <trkpt lat="46.23612" lon="4.70151">
        <ele>280</ele>
        <time>2012-11-11T07:54:23Z</time>
      </trkpt>
      <trkpt lat="46.23607" lon="4.70147">
        <ele>280</ele>
        <time>2012-11-11T07:54:25Z</time>
      </trkpt>
      <trkpt lat="46.23594" lon="4.70131">
        <ele>280</ele>
        <time>2012-11-11T07:54:32Z</time>
      </trkpt>
      <trkpt lat="46.23594" lon="4.70127">
        <ele>280</ele>
        <time>2012-11-11T07:54:33Z</time>
      </trkpt>
      <trkpt lat="46.23598" lon="4.70119">
        <ele>280</ele>
        <time>2012-11-11T07:54:36Z</time>
      </trkpt>
      <trkpt lat="46.23599" lon="4.70117">
        <ele>280</ele>
        <time>2012-11-11T07:54:37Z</time>
      </trkpt>
      <trkpt lat="46.23609" lon="4.70101">
        <ele>280</ele>
        <time>2012-11-11T07:54:42Z</time>
      </trkpt>
      <trkpt lat="46.23623" lon="4.70078">
        <ele>282</ele>
        <time>2012-11-11T07:54:50Z</time>
      </trkpt>
      <trkpt lat="46.23625" lon="4.70075">
        <ele>282</ele>
        <time>2012-11-11T07:54:51Z</time>
      </trkpt>
      <trkpt lat="46.23633" lon="4.70057">
        <ele>282</ele>
        <time>2012-11-11T07:54:57Z</time>
      </trkpt>
      <trkpt lat="46.23624" lon="4.7005">
        <ele>282</ele>
        <time>2012-11-11T07:55:01Z</time>
      </trkpt>
      <trkpt lat="46.23615" lon="4.70044">
        <ele>282</ele>
        <time>2012-11-11T07:55:04Z</time>
      </trkpt>
      <trkpt lat="46.23601" lon="4.70035">
        <ele>282</ele>
        <time>2012-11-11T07:55:08Z</time>
      </trkpt>
      <trkpt lat="46.2358" lon="4.70023">
        <ele>279</ele>
        <time>2012-11-11T07:55:13Z</time>
      </trkpt>
      <trkpt lat="46.23572" lon="4.70017">
        <ele>279</ele>
        <time>2012-11-11T07:55:15Z</time>
      </trkpt>
      <trkpt lat="46.23544" lon="4.7">
        <ele>279</ele>
        <time>2012-11-11T07:55:22Z</time>
      </trkpt>
      <trkpt lat="46.23537" lon="4.69995">
        <ele>279</ele>
        <time>2012-11-11T07:55:24Z</time>
      </trkpt>
      <trkpt lat="46.23515" lon="4.6998">
        <ele>278</ele>
        <time>2012-11-11T07:55:30Z</time>
      </trkpt>
      <trkpt lat="46.23511" lon="4.69978">
        <ele>278</ele>
        <time>2012-11-11T07:55:31Z</time>
      </trkpt>
      <trkpt lat="46.23503" lon="4.69972">
        <ele>278</ele>
        <time>2012-11-11T07:55:33Z</time>
      </trkpt>
      <trkpt lat="46.23494" lon="4.69958">
        <ele>276</ele>
        <time>2012-11-11T07:55:36Z</time>
      </trkpt>
      <trkpt lat="46.23494" lon="4.69941">
        <ele>276</ele>
        <time>2012-11-11T07:55:39Z</time>
      </trkpt>
      <trkpt lat="46.23497" lon="4.69938">
        <ele>276</ele>
        <time>2012-11-11T07:55:40Z</time>
      </trkpt>
      <trkpt lat="46.23503" lon="4.69936">
        <ele>278</ele>
        <time>2012-11-11T07:55:42Z</time>
      </trkpt>
      <trkpt lat="46.2352" lon="4.69923">
        <ele>278</ele>
        <time>2012-11-11T07:55:48Z</time>
      </trkpt>
      <trkpt lat="46.23527" lon="4.6991">
        <ele>280</ele>
        <time>2012-11-11T07:55:52Z</time>
      </trkpt>
      <trkpt lat="46.2353" lon="4.69903">
        <ele>280</ele>
        <time>2012-11-11T07:55:54Z</time>
      </trkpt>
      <trkpt lat="46.23533" lon="4.69886">
        <ele>281</ele>
        <time>2012-11-11T07:55:59Z</time>
      </trkpt>
      <trkpt lat="46.23537" lon="4.69871">
        <ele>281</ele>
        <time>2012-11-11T07:56:04Z</time>
      </trkpt>
      <trkpt lat="46.23543" lon="4.6986">
        <ele>282</ele>
        <time>2012-11-11T07:56:08Z</time>
      </trkpt>
      <trkpt lat="46.23549" lon="4.69849">
        <ele>282</ele>
        <time>2012-11-11T07:56:12Z</time>
      </trkpt>
      <trkpt lat="46.23556" lon="4.69835">
        <ele>283</ele>
        <time>2012-11-11T07:56:18Z</time>
      </trkpt>
      <trkpt lat="46.23565" lon="4.69816">
        <ele>286</ele>
        <time>2012-11-11T07:56:27Z</time>
      </trkpt>
      <trkpt lat="46.23574" lon="4.69797">
        <ele>287</ele>
        <time>2012-11-11T07:56:36Z</time>
      </trkpt>
      <trkpt lat="46.2358" lon="4.69785">
        <ele>288</ele>
        <time>2012-11-11T07:56:42Z</time>
      </trkpt>
      <trkpt lat="46.23587" lon="4.69773">
        <ele>291</ele>
        <time>2012-11-11T07:56:49Z</time>
      </trkpt>
      <trkpt lat="46.23589" lon="4.69769">
        <ele>291</ele>
        <time>2012-11-11T07:56:51Z</time>
      </trkpt>
      <trkpt lat="46.23596" lon="4.69754">
        <ele>292</ele>
        <time>2012-11-11T07:56:59Z</time>
      </trkpt>
      <trkpt lat="46.23601" lon="4.69739">
        <ele>295</ele>
        <time>2012-11-11T07:57:06Z</time>
      </trkpt>
      <trkpt lat="46.23602" lon="4.69725">
        <ele>295</ele>
        <time>2012-11-11T07:57:12Z</time>
      </trkpt>
      <trkpt lat="46.23602" lon="4.69718">
        <ele>296</ele>
        <time>2012-11-11T07:57:15Z</time>
      </trkpt>
      <trkpt lat="46.23601" lon="4.69702">
        <ele>296</ele>
        <time>2012-11-11T07:57:22Z</time>
      </trkpt>
      <trkpt lat="46.23598" lon="4.69689">
        <ele>297</ele>
        <time>2012-11-11T07:57:28Z</time>
      </trkpt>
      <trkpt lat="46.2359" lon="4.69681">
        <ele>297</ele>
        <time>2012-11-11T07:57:34Z</time>
      </trkpt>
      <trkpt lat="46.23588" lon="4.69679">
        <ele>297</ele>
        <time>2012-11-11T07:57:35Z</time>
      </trkpt>
      <trkpt lat="46.23585" lon="4.69675">
        <ele>298</ele>
        <time>2012-11-11T07:57:38Z</time>
      </trkpt>
      <trkpt lat="46.23583" lon="4.69671">
        <ele>297</ele>
        <time>2012-11-11T07:57:40Z</time>
      </trkpt>
      <trkpt lat="46.23584" lon="4.69658">
        <ele>299</ele>
        <time>2012-11-11T07:57:46Z</time>
      </trkpt>
      <trkpt lat="46.2359" lon="4.69639">
        <ele>302</ele>
        <time>2012-11-11T07:57:56Z</time>
      </trkpt>
      <trkpt lat="46.23592" lon="4.69633">
        <ele>302</ele>
        <time>2012-11-11T07:57:59Z</time>
      </trkpt>
      <trkpt lat="46.23597" lon="4.6962">
        <ele>303</ele>
        <time>2012-11-11T07:58:06Z</time>
      </trkpt>
      <trkpt lat="46.23601" lon="4.69604">
        <ele>304</ele>
        <time>2012-11-11T07:58:14Z</time>
      </trkpt>
      <trkpt lat="46.23605" lon="4.69591">
        <ele>304</ele>
        <time>2012-11-11T07:58:21Z</time>
      </trkpt>
      <trkpt lat="46.23607" lon="4.69585">
        <ele>304</ele>
        <time>2012-11-11T07:58:24Z</time>
      </trkpt>
      <trkpt lat="46.2361" lon="4.69577">
        <ele>309</ele>
        <time>2012-11-11T07:58:28Z</time>
      </trkpt>
      <trkpt lat="46.23615" lon="4.69562">
        <ele>310</ele>
        <time>2012-11-11T07:58:36Z</time>
      </trkpt>
      <trkpt lat="46.2362" lon="4.69541">
        <ele>311</ele>
        <time>2012-11-11T07:58:45Z</time>
      </trkpt>
      <trkpt lat="46.2362" lon="4.69537">
        <ele>311</ele>
        <time>2012-11-11T07:58:47Z</time>
      </trkpt>
      <trkpt lat="46.2362" lon="4.69517">
        <ele>312</ele>
        <time>2012-11-11T07:58:55Z</time>
      </trkpt>
      <trkpt lat="46.23619" lon="4.69494">
        <ele>316</ele>
        <time>2012-11-11T07:59:05Z</time>
      </trkpt>
      <trkpt lat="46.23618" lon="4.69485">
        <ele>317</ele>
        <time>2012-11-11T07:59:09Z</time>
      </trkpt>
      <trkpt lat="46.23618" lon="4.69477">
        <ele>317</ele>
        <time>2012-11-11T07:59:13Z</time>
      </trkpt>
      <trkpt lat="46.23613" lon="4.69466">
        <ele>317</ele>
        <time>2012-11-11T07:59:18Z</time>
      </trkpt>
      <trkpt lat="46.23605" lon="4.69455">
        <ele>317</ele>
        <time>2012-11-11T07:59:26Z</time>
      </trkpt>
      <trkpt lat="46.23599" lon="4.69442">
        <ele>318</ele>
        <time>2012-11-11T07:59:34Z</time>
      </trkpt>
      <trkpt lat="46.23599" lon="4.6944">
        <ele>318</ele>
        <time>2012-11-11T07:59:35Z</time>
      </trkpt>
      <trkpt lat="46.23605" lon="4.69425">
        <ele>318</ele>
        <time>2012-11-11T07:59:44Z</time>
      </trkpt>
      <trkpt lat="46.23612" lon="4.69411">
        <ele>322</ele>
        <time>2012-11-11T07:59:53Z</time>
      </trkpt>
      <trkpt lat="46.2362" lon="4.694">
        <ele>323</ele>
        <time>2012-11-11T08:00:01Z</time>
      </trkpt>
      <trkpt lat="46.23621" lon="4.69399">
        <ele>323</ele>
        <time>2012-11-11T08:00:02Z</time>
      </trkpt>
      <trkpt lat="46.2363" lon="4.69387">
        <ele>324</ele>
        <time>2012-11-11T08:00:11Z</time>
      </trkpt>
      <trkpt lat="46.2364" lon="4.69374">
        <ele>325</ele>
        <time>2012-11-11T08:00:22Z</time>
      </trkpt>
      <trkpt lat="46.23647" lon="4.69365">
        <ele>326</ele>
        <time>2012-11-11T08:00:29Z</time>
      </trkpt>
      <trkpt lat="46.23648" lon="4.69364">
        <ele>327</ele>
        <time>2012-11-11T08:00:30Z</time>
      </trkpt>
      <trkpt lat="46.23658" lon="4.69351">
        <ele>328</ele>
        <time>2012-11-11T08:00:41Z</time>
      </trkpt>
      <trkpt lat="46.23665" lon="4.69342">
        <ele>331</ele>
        <time>2012-11-11T08:00:48Z</time>
      </trkpt>
      <trkpt lat="46.23672" lon="4.69337">
        <ele>333</ele>
        <time>2012-11-11T08:00:54Z</time>
      </trkpt>
      <trkpt lat="46.23675" lon="4.69338">
        <ele>334</ele>
        <time>2012-11-11T08:00:57Z</time>
      </trkpt>
      <trkpt lat="46.23677" lon="4.69339">
        <ele>334</ele>
        <time>2012-11-11T08:00:58Z</time>
      </trkpt>
      <trkpt lat="46.23678" lon="4.69343">
        <ele>334</ele>
        <time>2012-11-11T08:01:00Z</time>
      </trkpt>
      <trkpt lat="46.23683" lon="4.69348">
        <ele>334</ele>
        <time>2012-11-11T08:01:04Z</time>
      </trkpt>
      <trkpt lat="46.23685" lon="4.69349">
        <ele>334</ele>
        <time>2012-11-11T08:01:06Z</time>
      </trkpt>
      <trkpt lat="46.23694" lon="4.69357">
        <ele>335</ele>
        <time>2012-11-11T08:01:14Z</time>
      </trkpt>
      <trkpt lat="46.23701" lon="4.69365">
        <ele>335</ele>
        <time>2012-11-11T08:01:20Z</time>
      </trkpt>
      <trkpt lat="46.23704" lon="4.6937">
        <ele>335</ele>
        <time>2012-11-11T08:01:23Z</time>
      </trkpt>
      <trkpt lat="46.23711" lon="4.6938">
        <ele>335</ele>
        <time>2012-11-11T08:01:29Z</time>
      </trkpt>
      <trkpt lat="46.23722" lon="4.69397">
        <ele>335</ele>
        <time>2012-11-11T08:01:38Z</time>
      </trkpt>
      <trkpt lat="46.23729" lon="4.69404">
        <ele>335</ele>
        <time>2012-11-11T08:01:45Z</time>
      </trkpt>
      <trkpt lat="46.23731" lon="4.69404">
        <ele>335</ele>
        <time>2012-11-11T08:01:46Z</time>
      </trkpt>
      <trkpt lat="46.23734" lon="4.69402">
        <ele>335</ele>
        <time>2012-11-11T08:01:48Z</time>
      </trkpt>
      <trkpt lat="46.23736" lon="4.69398">
        <ele>336</ele>
        <time>2012-11-11T08:01:50Z</time>
      </trkpt>
      <trkpt lat="46.23743" lon="4.69389">
        <ele>336</ele>
        <time>2012-11-11T08:01:56Z</time>
      </trkpt>
      <trkpt lat="46.23752" lon="4.69378">
        <ele>342</ele>
        <time>2012-11-11T08:02:05Z</time>
      </trkpt>
      <trkpt lat="46.23759" lon="4.69371">
        <ele>343</ele>
        <time>2012-11-11T08:02:12Z</time>
      </trkpt>
      <trkpt lat="46.23765" lon="4.69363">
        <ele>343</ele>
        <time>2012-11-11T08:02:19Z</time>
      </trkpt>
      <trkpt lat="46.23774" lon="4.69354">
        <ele>344</ele>
        <time>2012-11-11T08:02:28Z</time>
      </trkpt>
      <trkpt lat="46.23781" lon="4.69344">
        <ele>345</ele>
        <time>2012-11-11T08:02:36Z</time>
      </trkpt>
      <trkpt lat="46.23786" lon="4.69337">
        <ele>345</ele>
        <time>2012-11-11T08:02:41Z</time>
      </trkpt>
      <trkpt lat="46.23789" lon="4.69332">
        <ele>349</ele>
        <time>2012-11-11T08:02:44Z</time>
      </trkpt>
      <trkpt lat="46.23794" lon="4.69323">
        <ele>350</ele>
        <time>2012-11-11T08:02:51Z</time>
      </trkpt>
      <trkpt lat="46.238" lon="4.69314">
        <ele>351</ele>
        <time>2012-11-11T08:02:58Z</time>
      </trkpt>
      <trkpt lat="46.23805" lon="4.69305">
        <ele>351</ele>
        <time>2012-11-11T08:03:05Z</time>
      </trkpt>
      <trkpt lat="46.2381" lon="4.69297">
        <ele>351</ele>
        <time>2012-11-11T08:03:11Z</time>
      </trkpt>
      <trkpt lat="46.23812" lon="4.69294">
        <ele>352</ele>
        <time>2012-11-11T08:03:14Z</time>
      </trkpt>
      <trkpt lat="46.23818" lon="4.69283">
        <ele>353</ele>
        <time>2012-11-11T08:03:22Z</time>
      </trkpt>
      <trkpt lat="46.23823" lon="4.69277">
        <ele>353</ele>
        <time>2012-11-11T08:03:27Z</time>
      </trkpt>
      <trkpt lat="46.23824" lon="4.69277">
        <ele>353</ele>
        <time>2012-11-11T08:03:28Z</time>
      </trkpt>
      <trkpt lat="46.23829" lon="4.69289">
        <ele>353</ele>
        <time>2012-11-11T08:03:34Z</time>
      </trkpt>
      <trkpt lat="46.23832" lon="4.69294">
        <ele>352</ele>
        <time>2012-11-11T08:03:37Z</time>
      </trkpt>
      <trkpt lat="46.23837" lon="4.69299">
        <ele>356</ele>
        <time>2012-11-11T08:03:41Z</time>
      </trkpt>
      <trkpt lat="46.23847" lon="4.69303">
        <ele>356</ele>
        <time>2012-11-11T08:03:47Z</time>
      </trkpt>
      <trkpt lat="46.23855" lon="4.693">
        <ele>357</ele>
        <time>2012-11-11T08:03:53Z</time>
      </trkpt>
      <trkpt lat="46.2386" lon="4.69289">
        <ele>357</ele>
        <time>2012-11-11T08:03:59Z</time>
      </trkpt>
      <trkpt lat="46.23862" lon="4.69285">
        <ele>357</ele>
        <time>2012-11-11T08:04:01Z</time>
      </trkpt>
      <trkpt lat="46.23866" lon="4.69273">
        <ele>358</ele>
        <time>2012-11-11T08:04:08Z</time>
      </trkpt>
      <trkpt lat="46.2387" lon="4.69261">
        <ele>358</ele>
        <time>2012-11-11T08:04:14Z</time>
      </trkpt>
      <trkpt lat="46.23876" lon="4.69247">
        <ele>362</ele>
        <time>2012-11-11T08:04:22Z</time>
      </trkpt>
      <trkpt lat="46.23879" lon="4.6924">
        <ele>362</ele>
        <time>2012-11-11T08:04:26Z</time>
      </trkpt>
      <trkpt lat="46.23881" lon="4.6923">
        <ele>362</ele>
        <time>2012-11-11T08:04:30Z</time>
      </trkpt>
      <trkpt lat="46.23887" lon="4.69218">
        <ele>363</ele>
        <time>2012-11-11T08:04:37Z</time>
      </trkpt>
      <trkpt lat="46.23892" lon="4.69202">
        <ele>363</ele>
        <time>2012-11-11T08:04:45Z</time>
      </trkpt>
      <trkpt lat="46.23894" lon="4.69193">
        <ele>364</ele>
        <time>2012-11-11T08:04:49Z</time>
      </trkpt>
      <trkpt lat="46.23896" lon="4.69187">
        <ele>364</ele>
        <time>2012-11-11T08:04:52Z</time>
      </trkpt>
      <trkpt lat="46.23901" lon="4.69171">
        <ele>365</ele>
        <time>2012-11-11T08:04:59Z</time>
      </trkpt>
      <trkpt lat="46.23908" lon="4.69151">
        <ele>365</ele>
        <time>2012-11-11T08:05:07Z</time>
      </trkpt>
      <trkpt lat="46.2391" lon="4.69146">
        <ele>365</ele>
        <time>2012-11-11T08:05:09Z</time>
      </trkpt>
      <trkpt lat="46.23916" lon="4.69126">
        <ele>365</ele>
        <time>2012-11-11T08:05:16Z</time>
      </trkpt>
      <trkpt lat="46.23925" lon="4.69101">
        <ele>368</ele>
        <time>2012-11-11T08:05:25Z</time>
      </trkpt>
      <trkpt lat="46.23926" lon="4.69098">
        <ele>368</ele>
        <time>2012-11-11T08:05:26Z</time>
      </trkpt>
      <trkpt lat="46.23935" lon="4.69076">
        <ele>369</ele>
        <time>2012-11-11T08:05:35Z</time>
      </trkpt>
      <trkpt lat="46.23939" lon="4.69062">
        <ele>370</ele>
        <time>2012-11-11T08:05:41Z</time>
      </trkpt>
      <trkpt lat="46.2394" lon="4.69062">
        <ele>370</ele>
        <time>2012-11-11T08:05:51Z</time>
      </trkpt>
      <trkpt lat="46.23945" lon="4.69062">
        <ele>370</ele>
        <time>2012-11-11T08:06:46Z</time>
      </trkpt>
      <trkpt lat="46.23946" lon="4.69061">
        <ele>370</ele>
        <time>2012-11-11T08:06:47Z</time>
      </trkpt>
      <trkpt lat="46.23954" lon="4.6905">
        <ele>370</ele>
        <time>2012-11-11T08:06:52Z</time>
      </trkpt>
      <trkpt lat="46.23974" lon="4.69029">
        <ele>371</ele>
        <time>2012-11-11T08:07:00Z</time>
      </trkpt>
      <trkpt lat="46.23976" lon="4.69027">
        <ele>371</ele>
        <time>2012-11-11T08:07:01Z</time>
      </trkpt>
      <trkpt lat="46.23993" lon="4.69008">
        <ele>373</ele>
        <time>2012-11-11T08:07:08Z</time>
      </trkpt>
      <trkpt lat="46.23999" lon="4.68993">
        <ele>374</ele>
        <time>2012-11-11T08:07:12Z</time>
      </trkpt>
      <trkpt lat="46.24005" lon="4.68978">
        <ele>375</ele>
        <time>2012-11-11T08:07:16Z</time>
      </trkpt>
      <trkpt lat="46.24017" lon="4.6895">
        <ele>375</ele>
        <time>2012-11-11T08:07:24Z</time>
      </trkpt>
      <trkpt lat="46.24018" lon="4.68946">
        <ele>376</ele>
        <time>2012-11-11T08:07:25Z</time>
      </trkpt>
      <trkpt lat="46.24027" lon="4.68926">
        <ele>376</ele>
        <time>2012-11-11T08:07:31Z</time>
      </trkpt>
      <trkpt lat="46.24035" lon="4.68916">
        <ele>379</ele>
        <time>2012-11-11T08:07:37Z</time>
      </trkpt>
      <trkpt lat="46.24041" lon="4.68905">
        <ele>379</ele>
        <time>2012-11-11T08:07:43Z</time>
      </trkpt>
      <trkpt lat="46.24051" lon="4.68886">
        <ele>379</ele>
        <time>2012-11-11T08:07:51Z</time>
      </trkpt>
      <trkpt lat="46.2406" lon="4.68867">
        <ele>380</ele>
        <time>2012-11-11T08:07:59Z</time>
      </trkpt>
      <trkpt lat="46.24064" lon="4.68861">
        <ele>381</ele>
        <time>2012-11-11T08:08:02Z</time>
      </trkpt>
      <trkpt lat="46.24068" lon="4.68853">
        <ele>381</ele>
        <time>2012-11-11T08:08:06Z</time>
      </trkpt>
      <trkpt lat="46.24078" lon="4.68836">
        <ele>384</ele>
        <time>2012-11-11T08:08:16Z</time>
      </trkpt>
      <trkpt lat="46.24087" lon="4.68822">
        <ele>386</ele>
        <time>2012-11-11T08:08:24Z</time>
      </trkpt>
      <trkpt lat="46.24088" lon="4.68821">
        <ele>386</ele>
        <time>2012-11-11T08:08:25Z</time>
      </trkpt>
      <trkpt lat="46.24099" lon="4.68807">
        <ele>387</ele>
        <time>2012-11-11T08:08:34Z</time>
      </trkpt>
      <trkpt lat="46.24106" lon="4.688">
        <ele>388</ele>
        <time>2012-11-11T08:08:39Z</time>
      </trkpt>
      <trkpt lat="46.24116" lon="4.68786">
        <ele>389</ele>
        <time>2012-11-11T08:08:47Z</time>
      </trkpt>
      <trkpt lat="46.24117" lon="4.68784">
        <ele>389</ele>
        <time>2012-11-11T08:08:48Z</time>
      </trkpt>
      <trkpt lat="46.24125" lon="4.68774">
        <ele>389</ele>
        <time>2012-11-11T08:08:55Z</time>
      </trkpt>
      <trkpt lat="46.24136" lon="4.68765">
        <ele>390</ele>
        <time>2012-11-11T08:09:03Z</time>
      </trkpt>
      <trkpt lat="46.24146" lon="4.68757">
        <ele>391</ele>
        <time>2012-11-11T08:09:11Z</time>
      </trkpt>
      <trkpt lat="46.24149" lon="4.68755">
        <ele>391</ele>
        <time>2012-11-11T08:09:13Z</time>
      </trkpt>
      <trkpt lat="46.24159" lon="4.68748">
        <ele>395</ele>
        <time>2012-11-11T08:09:20Z</time>
      </trkpt>
      <trkpt lat="46.24166" lon="4.68742">
        <ele>395</ele>
        <time>2012-11-11T08:09:27Z</time>
      </trkpt>
      <trkpt lat="46.24176" lon="4.68735">
        <ele>398</ele>
        <time>2012-11-11T08:09:35Z</time>
      </trkpt>
      <trkpt lat="46.24179" lon="4.68733">
        <ele>399</ele>
        <time>2012-11-11T08:09:38Z</time>
      </trkpt>
      <trkpt lat="46.24185" lon="4.68729">
        <ele>399</ele>
        <time>2012-11-11T08:09:43Z</time>
      </trkpt>
      <trkpt lat="46.24193" lon="4.68722">
        <ele>400</ele>
        <time>2012-11-11T08:09:51Z</time>
      </trkpt>
      <trkpt lat="46.24205" lon="4.68718">
        <ele>401</ele>
        <time>2012-11-11T08:10:00Z</time>
      </trkpt>
      <trkpt lat="46.24213" lon="4.68713">
        <ele>401</ele>
        <time>2012-11-11T08:10:07Z</time>
      </trkpt>
      <trkpt lat="46.24223" lon="4.68708">
        <ele>402</ele>
        <time>2012-11-11T08:10:15Z</time>
      </trkpt>
      <trkpt lat="46.24236" lon="4.68701">
        <ele>403</ele>
        <time>2012-11-11T08:10:25Z</time>
      </trkpt>
      <trkpt lat="46.24243" lon="4.68691">
        <ele>404</ele>
        <time>2012-11-11T08:10:32Z</time>
      </trkpt>
      <trkpt lat="46.24244" lon="4.6869">
        <ele>405</ele>
        <time>2012-11-11T08:10:33Z</time>
      </trkpt>
      <trkpt lat="46.2425" lon="4.68678">
        <ele>409</ele>
        <time>2012-11-11T08:10:40Z</time>
      </trkpt>
      <trkpt lat="46.24251" lon="4.68676">
        <ele>409</ele>
        <time>2012-11-11T08:10:41Z</time>
      </trkpt>
      <trkpt lat="46.24253" lon="4.68671">
        <ele>409</ele>
        <time>2012-11-11T08:10:45Z</time>
      </trkpt>
      <trkpt lat="46.2426" lon="4.68666">
        <ele>413</ele>
        <time>2012-11-11T08:10:52Z</time>
      </trkpt>
      <trkpt lat="46.24261" lon="4.68666">
        <ele>413</ele>
        <time>2012-11-11T08:10:58Z</time>
      </trkpt>
      <trkpt lat="46.24263" lon="4.68668">
        <ele>409</ele>
        <time>2012-11-11T08:11:12Z</time>
      </trkpt>
      <trkpt lat="46.24267" lon="4.68673">
        <ele>409</ele>
        <time>2012-11-11T08:11:15Z</time>
      </trkpt>
      <trkpt lat="46.24269" lon="4.68675">
        <ele>409</ele>
        <time>2012-11-11T08:11:16Z</time>
      </trkpt>
      <trkpt lat="46.24282" lon="4.68687">
        <ele>409</ele>
        <time>2012-11-11T08:11:20Z</time>
      </trkpt>
      <trkpt lat="46.24289" lon="4.68694">
        <ele>408</ele>
        <time>2012-11-11T08:11:22Z</time>
      </trkpt>
      <trkpt lat="46.243" lon="4.68707">
        <ele>408</ele>
        <time>2012-11-11T08:11:25Z</time>
      </trkpt>
      <trkpt lat="46.24319" lon="4.68726">
        <ele>407</ele>
        <time>2012-11-11T08:11:31Z</time>
      </trkpt>
      <trkpt lat="46.24328" lon="4.68733">
        <ele>407</ele>
        <time>2012-11-11T08:11:34Z</time>
      </trkpt>
      <trkpt lat="46.24334" lon="4.68732">
        <ele>408</ele>
        <time>2012-11-11T08:11:36Z</time>
      </trkpt>
      <trkpt lat="46.24341" lon="4.68726">
        <ele>408</ele>
        <time>2012-11-11T08:11:40Z</time>
      </trkpt>
      <trkpt lat="46.24342" lon="4.68725">
        <ele>408</ele>
        <time>2012-11-11T08:11:41Z</time>
      </trkpt>
      <trkpt lat="46.24355" lon="4.6871">
        <ele>409</ele>
        <time>2012-11-11T08:11:48Z</time>
      </trkpt>
      <trkpt lat="46.24365" lon="4.68701">
        <ele>409</ele>
        <time>2012-11-11T08:11:53Z</time>
      </trkpt>
      <trkpt lat="46.24368" lon="4.68697">
        <ele>410</ele>
        <time>2012-11-11T08:11:55Z</time>
      </trkpt>
      <trkpt lat="46.2438" lon="4.68683">
        <ele>410</ele>
        <time>2012-11-11T08:12:03Z</time>
      </trkpt>
      <trkpt lat="46.24391" lon="4.68667">
        <ele>410</ele>
        <time>2012-11-11T08:12:12Z</time>
      </trkpt>
      <trkpt lat="46.24393" lon="4.68666">
        <ele>417</ele>
        <time>2012-11-11T08:12:13Z</time>
      </trkpt>
      <trkpt lat="46.24405" lon="4.68648">
        <ele>417</ele>
        <time>2012-11-11T08:12:23Z</time>
      </trkpt>
      <trkpt lat="46.24413" lon="4.68632">
        <ele>419</ele>
        <time>2012-11-11T08:12:31Z</time>
      </trkpt>
      <trkpt lat="46.24415" lon="4.68626">
        <ele>420</ele>
        <time>2012-11-11T08:12:34Z</time>
      </trkpt>
      <trkpt lat="46.24418" lon="4.68615">
        <ele>416</ele>
        <time>2012-11-11T08:12:39Z</time>
      </trkpt>
      <trkpt lat="46.24424" lon="4.68602">
        <ele>418</ele>
        <time>2012-11-11T08:12:45Z</time>
      </trkpt>
      <trkpt lat="46.24431" lon="4.68586">
        <ele>420</ele>
        <time>2012-11-11T08:12:52Z</time>
      </trkpt>
      <trkpt lat="46.24434" lon="4.6858">
        <ele>426</ele>
        <time>2012-11-11T08:12:55Z</time>
      </trkpt>
      <trkpt lat="46.24437" lon="4.68573">
        <ele>426</ele>
        <time>2012-11-11T08:12:59Z</time>
      </trkpt>
      <trkpt lat="46.24442" lon="4.68565">
        <ele>426</ele>
        <time>2012-11-11T08:13:04Z</time>
      </trkpt>
      <trkpt lat="46.24445" lon="4.68562">
        <ele>426</ele>
        <time>2012-11-11T08:13:06Z</time>
      </trkpt>
      <trkpt lat="46.24447" lon="4.68559">
        <ele>426</ele>
        <time>2012-11-11T08:13:08Z</time>
      </trkpt>
      <trkpt lat="46.24451" lon="4.68553">
        <ele>426</ele>
        <time>2012-11-11T08:13:12Z</time>
      </trkpt>
      <trkpt lat="46.24456" lon="4.68542">
        <ele>426</ele>
        <time>2012-11-11T08:13:18Z</time>
      </trkpt>
      <trkpt lat="46.24457" lon="4.6854">
        <ele>426</ele>
        <time>2012-11-11T08:13:19Z</time>
      </trkpt>
      <trkpt lat="46.24463" lon="4.68532">
        <ele>426</ele>
        <time>2012-11-11T08:13:25Z</time>
      </trkpt>
      <trkpt lat="46.24469" lon="4.68524">
        <ele>427</ele>
        <time>2012-11-11T08:13:31Z</time>
      </trkpt>
      <trkpt lat="46.24474" lon="4.68516">
        <ele>427</ele>
        <time>2012-11-11T08:13:36Z</time>
      </trkpt>
      <trkpt lat="46.24475" lon="4.68514">
        <ele>427</ele>
        <time>2012-11-11T08:13:37Z</time>
      </trkpt>
      <trkpt lat="46.24481" lon="4.68505">
        <ele>427</ele>
        <time>2012-11-11T08:13:43Z</time>
      </trkpt>
      <trkpt lat="46.24481" lon="4.68503">
        <ele>427</ele>
        <time>2012-11-11T08:13:44Z</time>
      </trkpt>
      <trkpt lat="46.24488" lon="4.68494">
        <ele>432</ele>
        <time>2012-11-11T08:13:50Z</time>
      </trkpt>
      <trkpt lat="46.24495" lon="4.68481">
        <ele>434</ele>
        <time>2012-11-11T08:13:57Z</time>
      </trkpt>
      <trkpt lat="46.24502" lon="4.68463">
        <ele>429</ele>
        <time>2012-11-11T08:14:04Z</time>
      </trkpt>
      <trkpt lat="46.24505" lon="4.68457">
        <ele>429</ele>
        <time>2012-11-11T08:14:06Z</time>
      </trkpt>
      <trkpt lat="46.24514" lon="4.68432">
        <ele>433</ele>
        <time>2012-11-11T08:14:15Z</time>
      </trkpt>
      <trkpt lat="46.2452" lon="4.68417">
        <ele>440</ele>
        <time>2012-11-11T08:14:21Z</time>
      </trkpt>
      <trkpt lat="46.24522" lon="4.68411">
        <ele>440</ele>
        <time>2012-11-11T08:14:23Z</time>
      </trkpt>
      <trkpt lat="46.2453" lon="4.68389">
        <ele>440</ele>
        <time>2012-11-11T08:14:31Z</time>
      </trkpt>
      <trkpt lat="46.24535" lon="4.68377">
        <ele>441</ele>
        <time>2012-11-11T08:14:36Z</time>
      </trkpt>
      <trkpt lat="46.24537" lon="4.68369">
        <ele>441</ele>
        <time>2012-11-11T08:14:39Z</time>
      </trkpt>
      <trkpt lat="46.24541" lon="4.6836">
        <ele>441</ele>
        <time>2012-11-11T08:14:43Z</time>
      </trkpt>
      <trkpt lat="46.24546" lon="4.68348">
        <ele>442</ele>
        <time>2012-11-11T08:14:49Z</time>
      </trkpt>
      <trkpt lat="46.24554" lon="4.68328">
        <ele>447</ele>
        <time>2012-11-11T08:15:00Z</time>
      </trkpt>
      <trkpt lat="46.24556" lon="4.68323">
        <ele>447</ele>
        <time>2012-11-11T08:15:03Z</time>
      </trkpt>
      <trkpt lat="46.2456" lon="4.68316">
        <ele>447</ele>
        <time>2012-11-11T08:15:07Z</time>
      </trkpt>
      <trkpt lat="46.24567" lon="4.683">
        <ele>448</ele>
        <time>2012-11-11T08:15:16Z</time>
      </trkpt>
      <trkpt lat="46.24573" lon="4.68289">
        <ele>449</ele>
        <time>2012-11-11T08:15:22Z</time>
      </trkpt>
      <trkpt lat="46.24578" lon="4.6828">
        <ele>449</ele>
        <time>2012-11-11T08:15:28Z</time>
      </trkpt>
      <trkpt lat="46.24579" lon="4.68278">
        <ele>450</ele>
        <time>2012-11-11T08:15:29Z</time>
      </trkpt>
      <trkpt lat="46.24586" lon="4.68266">
        <ele>450</ele>
        <time>2012-11-11T08:15:36Z</time>
      </trkpt>
      <trkpt lat="46.24594" lon="4.68254">
        <ele>451</ele>
        <time>2012-11-11T08:15:43Z</time>
      </trkpt>
      <trkpt lat="46.24602" lon="4.68244">
        <ele>456</ele>
        <time>2012-11-11T08:15:51Z</time>
      </trkpt>
      <trkpt lat="46.24603" lon="4.68241">
        <ele>456</ele>
        <time>2012-11-11T08:15:53Z</time>
      </trkpt>
      <trkpt lat="46.24605" lon="4.68237">
        <ele>456</ele>
        <time>2012-11-11T08:15:55Z</time>
      </trkpt>
      <trkpt lat="46.24606" lon="4.68233">
        <ele>457</ele>
        <time>2012-11-11T08:15:57Z</time>
      </trkpt>
      <trkpt lat="46.24609" lon="4.68219">
        <ele>457</ele>
        <time>2012-11-11T08:16:05Z</time>
      </trkpt>
      <trkpt lat="46.24613" lon="4.68206">
        <ele>458</ele>
        <time>2012-11-11T08:16:13Z</time>
      </trkpt>
      <trkpt lat="46.24619" lon="4.68195">
        <ele>459</ele>
        <time>2012-11-11T08:16:21Z</time>
      </trkpt>
      <trkpt lat="46.24624" lon="4.68184">
        <ele>459</ele>
        <time>2012-11-11T08:16:28Z</time>
      </trkpt>
      <trkpt lat="46.2462" lon="4.68174">
        <ele>459</ele>
        <time>2012-11-11T08:16:35Z</time>
      </trkpt>
      <trkpt lat="46.24614" lon="4.68168">
        <ele>459</ele>
        <time>2012-11-11T08:16:42Z</time>
      </trkpt>
      <trkpt lat="46.24612" lon="4.68168">
        <ele>458</ele>
        <time>2012-11-11T08:16:48Z</time>
      </trkpt>
      <trkpt lat="46.24611" lon="4.68167">
        <ele>460</ele>
        <time>2012-11-11T08:17:33Z</time>
      </trkpt>
      <trkpt lat="46.24611" lon="4.68167">
        <ele>458</ele>
        <time>2012-11-11T08:18:19Z</time>
      </trkpt>
      <trkpt lat="46.24611" lon="4.68167">
        <ele>458</ele>
        <time>2012-11-11T08:18:21Z</time>
      </trkpt>
      <trkpt lat="46.2461" lon="4.68167">
        <ele>460</ele>
        <time>2012-11-11T08:18:24Z</time>
      </trkpt>
      <trkpt lat="46.2461" lon="4.68167">
        <ele>460</ele>
        <time>2012-11-11T08:18:26Z</time>
      </trkpt>
      <trkpt lat="46.2461" lon="4.68167">
        <ele>458</ele>
        <time>2012-11-11T08:18:29Z</time>
      </trkpt>
      <trkpt lat="46.24607" lon="4.68165">
        <ele>459</ele>
        <time>2012-11-11T08:18:37Z</time>
      </trkpt>
      <trkpt lat="46.24604" lon="4.68165">
        <ele>459</ele>
        <time>2012-11-11T08:18:38Z</time>
      </trkpt>
      <trkpt lat="46.24596" lon="4.68165">
        <ele>458</ele>
        <time>2012-11-11T08:18:41Z</time>
      </trkpt>
      <trkpt lat="46.24591" lon="4.6816">
        <ele>457</ele>
        <time>2012-11-11T08:18:43Z</time>
      </trkpt>
      <trkpt lat="46.24592" lon="4.68145">
        <ele>459</ele>
        <time>2012-11-11T08:18:46Z</time>
      </trkpt>
      <trkpt lat="46.24592" lon="4.6814">
        <ele>459</ele>
        <time>2012-11-11T08:18:47Z</time>
      </trkpt>
      <trkpt lat="46.24593" lon="4.68135">
        <ele>459</ele>
        <time>2012-11-11T08:18:48Z</time>
      </trkpt>
      <trkpt lat="46.24601" lon="4.68109">
        <ele>458</ele>
        <time>2012-11-11T08:18:53Z</time>
      </trkpt>
      <trkpt lat="46.2461" lon="4.68091">
        <ele>459</ele>
        <time>2012-11-11T08:18:57Z</time>
      </trkpt>
      <trkpt lat="46.24614" lon="4.68077">
        <ele>459</ele>
        <time>2012-11-11T08:19:00Z</time>
      </trkpt>
      <trkpt lat="46.24616" lon="4.68052">
        <ele>460</ele>
        <time>2012-11-11T08:19:05Z</time>
      </trkpt>
      <trkpt lat="46.24617" lon="4.6804">
        <ele>460</ele>
        <time>2012-11-11T08:19:07Z</time>
      </trkpt>
      <trkpt lat="46.24618" lon="4.67996">
        <ele>459</ele>
        <time>2012-11-11T08:19:14Z</time>
      </trkpt>
      <trkpt lat="46.24617" lon="4.67986">
        <ele>459</ele>
        <time>2012-11-11T08:19:16Z</time>
      </trkpt>
      <trkpt lat="46.24615" lon="4.67975">
        <ele>459</ele>
        <time>2012-11-11T08:19:19Z</time>
      </trkpt>
      <trkpt lat="46.24613" lon="4.67939">
        <ele>459</ele>
        <time>2012-11-11T08:19:27Z</time>
      </trkpt>
      <trkpt lat="46.24613" lon="4.67934">
        <ele>459</ele>
        <time>2012-11-11T08:19:28Z</time>
      </trkpt>
      <trkpt lat="46.24613" lon="4.67915">
        <ele>458</ele>
        <time>2012-11-11T08:19:31Z</time>
      </trkpt>
      <trkpt lat="46.24612" lon="4.67908">
        <ele>457</ele>
        <time>2012-11-11T08:19:32Z</time>
      </trkpt>
      <trkpt lat="46.24607" lon="4.67884">
        <ele>457</ele>
        <time>2012-11-11T08:19:35Z</time>
      </trkpt>
      <trkpt lat="46.24606" lon="4.67867">
        <ele>457</ele>
        <time>2012-11-11T08:19:37Z</time>
      </trkpt>
      <trkpt lat="46.24605" lon="4.67832">
        <ele>451</ele>
        <time>2012-11-11T08:19:41Z</time>
      </trkpt>
      <trkpt lat="46.24606" lon="4.67823">
        <ele>451</ele>
        <time>2012-11-11T08:19:42Z</time>
      </trkpt>
      <trkpt lat="46.24612" lon="4.67785">
        <ele>450</ele>
        <time>2012-11-11T08:19:46Z</time>
      </trkpt>
      <trkpt lat="46.24614" lon="4.67776">
        <ele>450</ele>
        <time>2012-11-11T08:19:47Z</time>
      </trkpt>
      <trkpt lat="46.2462" lon="4.67755">
        <ele>449</ele>
        <time>2012-11-11T08:19:50Z</time>
      </trkpt>
      <trkpt lat="46.24627" lon="4.67724">
        <ele>440</ele>
        <time>2012-11-11T08:19:56Z</time>
      </trkpt>
      <trkpt lat="46.24616" lon="4.6772">
        <ele>438</ele>
        <time>2012-11-11T08:19:59Z</time>
      </trkpt>
      <trkpt lat="46.24606" lon="4.67726">
        <ele>437</ele>
        <time>2012-11-11T08:20:01Z</time>
      </trkpt>
      <trkpt lat="46.24595" lon="4.67733">
        <ele>437</ele>
        <time>2012-11-11T08:20:03Z</time>
      </trkpt>
      <trkpt lat="46.2459" lon="4.67736">
        <ele>437</ele>
        <time>2012-11-11T08:20:04Z</time>
      </trkpt>
      <trkpt lat="46.24577" lon="4.67743">
        <ele>430</ele>
        <time>2012-11-11T08:20:08Z</time>
      </trkpt>
      <trkpt lat="46.24577" lon="4.67738">
        <ele>428</ele>
        <time>2012-11-11T08:20:11Z</time>
      </trkpt>
      <trkpt lat="46.24581" lon="4.67734">
        <ele>427</ele>
        <time>2012-11-11T08:20:13Z</time>
      </trkpt>
      <trkpt lat="46.24589" lon="4.67727">
        <ele>436</ele>
        <time>2012-11-11T08:20:16Z</time>
      </trkpt>
      <trkpt lat="46.24616" lon="4.6771">
        <ele>437</ele>
        <time>2012-11-11T08:20:25Z</time>
      </trkpt>
      <trkpt lat="46.24624" lon="4.67704">
        <ele>437</ele>
        <time>2012-11-11T08:20:28Z</time>
      </trkpt>
      <trkpt lat="46.24636" lon="4.67696">
        <ele>438</ele>
        <time>2012-11-11T08:20:32Z</time>
      </trkpt>
      <trkpt lat="46.24654" lon="4.67682">
        <ele>438</ele>
        <time>2012-11-11T08:20:39Z</time>
      </trkpt>
      <trkpt lat="46.24657" lon="4.6768">
        <ele>439</ele>
        <time>2012-11-11T08:20:40Z</time>
      </trkpt>
      <trkpt lat="46.24676" lon="4.67668">
        <ele>445</ele>
        <time>2012-11-11T08:20:47Z</time>
      </trkpt>
      <trkpt lat="46.24691" lon="4.67661">
        <ele>440</ele>
        <time>2012-11-11T08:20:52Z</time>
      </trkpt>
      <trkpt lat="46.24699" lon="4.67657">
        <ele>441</ele>
        <time>2012-11-11T08:20:55Z</time>
      </trkpt>
      <trkpt lat="46.24716" lon="4.67651">
        <ele>443</ele>
        <time>2012-11-11T08:21:01Z</time>
      </trkpt>
      <trkpt lat="46.24727" lon="4.67646">
        <ele>444</ele>
        <time>2012-11-11T08:21:05Z</time>
      </trkpt>
      <trkpt lat="46.24734" lon="4.6764">
        <ele>444</ele>
        <time>2012-11-11T08:21:08Z</time>
      </trkpt>
      <trkpt lat="46.24754" lon="4.67625">
        <ele>454</ele>
        <time>2012-11-11T08:21:15Z</time>
      </trkpt>
      <trkpt lat="46.2476" lon="4.6762">
        <ele>453</ele>
        <time>2012-11-11T08:21:17Z</time>
      </trkpt>
      <trkpt lat="46.24773" lon="4.67608">
        <ele>453</ele>
        <time>2012-11-11T08:21:22Z</time>
      </trkpt>
      <trkpt lat="46.24785" lon="4.67595">
        <ele>453</ele>
        <time>2012-11-11T08:21:28Z</time>
      </trkpt>
      <trkpt lat="46.24791" lon="4.67589">
        <ele>453</ele>
        <time>2012-11-11T08:21:30Z</time>
      </trkpt>
      <trkpt lat="46.24798" lon="4.67581">
        <ele>442</ele>
        <time>2012-11-11T08:21:32Z</time>
      </trkpt>
      <trkpt lat="46.2481" lon="4.67571">
        <ele>443</ele>
        <time>2012-11-11T08:21:36Z</time>
      </trkpt>
      <trkpt lat="46.24824" lon="4.67559">
        <ele>443</ele>
        <time>2012-11-11T08:21:41Z</time>
      </trkpt>
      <trkpt lat="46.24848" lon="4.6754">
        <ele>449</ele>
        <time>2012-11-11T08:21:47Z</time>
      </trkpt>
      <trkpt lat="46.24859" lon="4.67532">
        <ele>448</ele>
        <time>2012-11-11T08:21:50Z</time>
      </trkpt>
      <trkpt lat="46.24864" lon="4.67528">
        <ele>448</ele>
        <time>2012-11-11T08:21:52Z</time>
      </trkpt>
      <trkpt lat="46.24858" lon="4.67521">
        <ele>446</ele>
        <time>2012-11-11T08:21:55Z</time>
      </trkpt>
      <trkpt lat="46.24849" lon="4.67518">
        <ele>444</ele>
        <time>2012-11-11T08:21:57Z</time>
      </trkpt>
      <trkpt lat="46.24836" lon="4.67515">
        <ele>442</ele>
        <time>2012-11-11T08:22:00Z</time>
      </trkpt>
      <trkpt lat="46.24831" lon="4.67514">
        <ele>436</ele>
        <time>2012-11-11T08:22:01Z</time>
      </trkpt>
      <trkpt lat="46.24817" lon="4.67511">
        <ele>436</ele>
        <time>2012-11-11T08:22:04Z</time>
      </trkpt>
      <trkpt lat="46.24805" lon="4.67505">
        <ele>435</ele>
        <time>2012-11-11T08:22:07Z</time>
      </trkpt>
      <trkpt lat="46.24801" lon="4.67503">
        <ele>435</ele>
        <time>2012-11-11T08:22:08Z</time>
      </trkpt>
      <trkpt lat="46.24779" lon="4.67496">
        <ele>422</ele>
        <time>2012-11-11T08:22:13Z</time>
      </trkpt>
      <trkpt lat="46.24767" lon="4.67494">
        <ele>421</ele>
        <time>2012-11-11T08:22:17Z</time>
      </trkpt>
      <trkpt lat="46.24765" lon="4.67492">
        <ele>421</ele>
        <time>2012-11-11T08:22:18Z</time>
      </trkpt>
      <trkpt lat="46.24765" lon="4.67489">
        <ele>421</ele>
        <time>2012-11-11T08:22:19Z</time>
      </trkpt>
      <trkpt lat="46.24767" lon="4.67486">
        <ele>421</ele>
        <time>2012-11-11T08:22:20Z</time>
      </trkpt>
      <trkpt lat="46.24772" lon="4.67484">
        <ele>421</ele>
        <time>2012-11-11T08:22:22Z</time>
      </trkpt>
      <trkpt lat="46.24775" lon="4.67482">
        <ele>421</ele>
        <time>2012-11-11T08:22:23Z</time>
      </trkpt>
      <trkpt lat="46.24795" lon="4.67468">
        <ele>422</ele>
        <time>2012-11-11T08:22:28Z</time>
      </trkpt>
      <trkpt lat="46.248" lon="4.67464">
        <ele>422</ele>
        <time>2012-11-11T08:22:29Z</time>
      </trkpt>
      <trkpt lat="46.24827" lon="4.67442">
        <ele>421</ele>
        <time>2012-11-11T08:22:36Z</time>
      </trkpt>
      <trkpt lat="46.24832" lon="4.67439">
        <ele>421</ele>
        <time>2012-11-11T08:22:37Z</time>
      </trkpt>
      <trkpt lat="46.24843" lon="4.67431">
        <ele>426</ele>
        <time>2012-11-11T08:22:40Z</time>
      </trkpt>
      <trkpt lat="46.24855" lon="4.67422">
        <ele>427</ele>
        <time>2012-11-11T08:22:43Z</time>
      </trkpt>
      <trkpt lat="46.24858" lon="4.67419">
        <ele>427</ele>
        <time>2012-11-11T08:22:44Z</time>
      </trkpt>
      <trkpt lat="46.24863" lon="4.67417">
        <ele>428</ele>
        <time>2012-11-11T08:22:45Z</time>
      </trkpt>
      <trkpt lat="46.24873" lon="4.67411">
        <ele>422</ele>
        <time>2012-11-11T08:22:48Z</time>
      </trkpt>
      <trkpt lat="46.24886" lon="4.67404">
        <ele>424</ele>
        <time>2012-11-11T08:22:54Z</time>
      </trkpt>
      <trkpt lat="46.24898" lon="4.67397">
        <ele>424</ele>
        <time>2012-11-11T08:22:59Z</time>
      </trkpt>
      <trkpt lat="46.24907" lon="4.67392">
        <ele>425</ele>
        <time>2012-11-11T08:23:03Z</time>
      </trkpt>
      <trkpt lat="46.24926" lon="4.6738">
        <ele>432</ele>
        <time>2012-11-11T08:23:12Z</time>
      </trkpt>
      <trkpt lat="46.24933" lon="4.67374">
        <ele>432</ele>
        <time>2012-11-11T08:23:16Z</time>
      </trkpt>
      <trkpt lat="46.24937" lon="4.6737">
        <ele>432</ele>
        <time>2012-11-11T08:23:18Z</time>
      </trkpt>
      <trkpt lat="46.24953" lon="4.67356">
        <ele>432</ele>
        <time>2012-11-11T08:23:27Z</time>
      </trkpt>
      <trkpt lat="46.24964" lon="4.67344">
        <ele>433</ele>
        <time>2012-11-11T08:23:34Z</time>
      </trkpt>
      <trkpt lat="46.24966" lon="4.67343">
        <ele>433</ele>
        <time>2012-11-11T08:23:35Z</time>
      </trkpt>
      <trkpt lat="46.24979" lon="4.67332">
        <ele>433</ele>
        <time>2012-11-11T08:23:42Z</time>
      </trkpt>
      <trkpt lat="46.24994" lon="4.67315">
        <ele>433</ele>
        <time>2012-11-11T08:23:51Z</time>
      </trkpt>
      <trkpt lat="46.24996" lon="4.67314">
        <ele>433</ele>
        <time>2012-11-11T08:23:52Z</time>
      </trkpt>
      <trkpt lat="46.25007" lon="4.67305">
        <ele>440</ele>
        <time>2012-11-11T08:23:59Z</time>
      </trkpt>
      <trkpt lat="46.25017" lon="4.67297">
        <ele>440</ele>
        <time>2012-11-11T08:24:05Z</time>
      </trkpt>
      <trkpt lat="46.25027" lon="4.67288">
        <ele>441</ele>
        <time>2012-11-11T08:24:11Z</time>
      </trkpt>
      <trkpt lat="46.25038" lon="4.67278">
        <ele>441</ele>
        <time>2012-11-11T08:24:18Z</time>
      </trkpt>
      <trkpt lat="46.25049" lon="4.67268">
        <ele>442</ele>
        <time>2012-11-11T08:24:25Z</time>
      </trkpt>
      <trkpt lat="46.25059" lon="4.67261">
        <ele>442</ele>
        <time>2012-11-11T08:24:30Z</time>
      </trkpt>
      <trkpt lat="46.25063" lon="4.67256">
        <ele>443</ele>
        <time>2012-11-11T08:24:33Z</time>
      </trkpt>
      <trkpt lat="46.25075" lon="4.67246">
        <ele>443</ele>
        <time>2012-11-11T08:24:39Z</time>
      </trkpt>
      <trkpt lat="46.2509" lon="4.67235">
        <ele>447</ele>
        <time>2012-11-11T08:24:47Z</time>
      </trkpt>
      <trkpt lat="46.25101" lon="4.67231">
        <ele>448</ele>
        <time>2012-11-11T08:24:54Z</time>
      </trkpt>
      <trkpt lat="46.2511" lon="4.67225">
        <ele>450</ele>
        <time>2012-11-11T08:25:00Z</time>
      </trkpt>
      <trkpt lat="46.25119" lon="4.67219">
        <ele>451</ele>
        <time>2012-11-11T08:25:06Z</time>
      </trkpt>
      <trkpt lat="46.25124" lon="4.67215">
        <ele>451</ele>
        <time>2012-11-11T08:25:09Z</time>
      </trkpt>
      <trkpt lat="46.25128" lon="4.67211">
        <ele>451</ele>
        <time>2012-11-11T08:25:11Z</time>
      </trkpt>
      <trkpt lat="46.2513" lon="4.67209">
        <ele>451</ele>
        <time>2012-11-11T08:25:12Z</time>
      </trkpt>
      <trkpt lat="46.25136" lon="4.67201">
        <ele>452</ele>
        <time>2012-11-11T08:25:16Z</time>
      </trkpt>
      <trkpt lat="46.25144" lon="4.67189">
        <ele>452</ele>
        <time>2012-11-11T08:25:23Z</time>
      </trkpt>
      <trkpt lat="46.2515" lon="4.67176">
        <ele>452</ele>
        <time>2012-11-11T08:25:29Z</time>
      </trkpt>
      <trkpt lat="46.25155" lon="4.67164">
        <ele>454</ele>
        <time>2012-11-11T08:25:34Z</time>
      </trkpt>
      <trkpt lat="46.25164" lon="4.67149">
        <ele>455</ele>
        <time>2012-11-11T08:25:40Z</time>
      </trkpt>
      <trkpt lat="46.25168" lon="4.67141">
        <ele>459</ele>
        <time>2012-11-11T08:25:43Z</time>
      </trkpt>
      <trkpt lat="46.2517" lon="4.67137">
        <ele>460</ele>
        <time>2012-11-11T08:25:45Z</time>
      </trkpt>
      <trkpt lat="46.25172" lon="4.67134">
        <ele>460</ele>
        <time>2012-11-11T08:25:47Z</time>
      </trkpt>
      <trkpt lat="46.25173" lon="4.6713">
        <ele>460</ele>
        <time>2012-11-11T08:25:49Z</time>
      </trkpt>
      <trkpt lat="46.25176" lon="4.67127">
        <ele>461</ele>
        <time>2012-11-11T08:25:51Z</time>
      </trkpt>
      <trkpt lat="46.25178" lon="4.6712">
        <ele>461</ele>
        <time>2012-11-11T08:25:54Z</time>
      </trkpt>
      <trkpt lat="46.25181" lon="4.67115">
        <ele>462</ele>
        <time>2012-11-11T08:25:57Z</time>
      </trkpt>
      <trkpt lat="46.25182" lon="4.67113">
        <ele>462</ele>
        <time>2012-11-11T08:25:58Z</time>
      </trkpt>
      <trkpt lat="46.25186" lon="4.67107">
        <ele>462</ele>
        <time>2012-11-11T08:26:01Z</time>
      </trkpt>
      <trkpt lat="46.25188" lon="4.671">
        <ele>463</ele>
        <time>2012-11-11T08:26:04Z</time>
      </trkpt>
      <trkpt lat="46.25191" lon="4.67094">
        <ele>463</ele>
        <time>2012-11-11T08:26:07Z</time>
      </trkpt>
      <trkpt lat="46.25192" lon="4.67092">
        <ele>463</ele>
        <time>2012-11-11T08:26:08Z</time>
      </trkpt>
      <trkpt lat="46.25193" lon="4.6709">
        <ele>463</ele>
        <time>2012-11-11T08:26:09Z</time>
      </trkpt>
      <trkpt lat="46.25197" lon="4.67079">
        <ele>469</ele>
        <time>2012-11-11T08:26:15Z</time>
      </trkpt>
      <trkpt lat="46.25203" lon="4.67071">
        <ele>470</ele>
        <time>2012-11-11T08:26:21Z</time>
      </trkpt>
      <trkpt lat="46.25201" lon="4.67066">
        <ele>470</ele>
        <time>2012-11-11T08:26:28Z</time>
      </trkpt>
      <trkpt lat="46.25203" lon="4.67062">
        <ele>470</ele>
        <time>2012-11-11T08:26:35Z</time>
      </trkpt>
      <trkpt lat="46.25209" lon="4.67052">
        <ele>471</ele>
        <time>2012-11-11T08:26:40Z</time>
      </trkpt>
      <trkpt lat="46.25212" lon="4.67046">
        <ele>472</ele>
        <time>2012-11-11T08:26:44Z</time>
      </trkpt>
      <trkpt lat="46.25214" lon="4.67043">
        <ele>472</ele>
        <time>2012-11-11T08:26:46Z</time>
      </trkpt>
      <trkpt lat="46.25215" lon="4.67042">
        <ele>472</ele>
        <time>2012-11-11T08:26:47Z</time>
      </trkpt>
      <trkpt lat="46.25219" lon="4.67037">
        <ele>472</ele>
        <time>2012-11-11T08:26:51Z</time>
      </trkpt>
      <trkpt lat="46.25222" lon="4.67025">
        <ele>473</ele>
        <time>2012-11-11T08:26:57Z</time>
      </trkpt>
      <trkpt lat="46.25223" lon="4.67021">
        <ele>473</ele>
        <time>2012-11-11T08:26:59Z</time>
      </trkpt>
      <trkpt lat="46.25226" lon="4.67017">
        <ele>473</ele>
        <time>2012-11-11T08:27:02Z</time>
      </trkpt>
      <trkpt lat="46.25227" lon="4.67016">
        <ele>473</ele>
        <time>2012-11-11T08:27:03Z</time>
      </trkpt>
      <trkpt lat="46.25231" lon="4.67008">
        <ele>473</ele>
        <time>2012-11-11T08:27:08Z</time>
      </trkpt>
      <trkpt lat="46.25232" lon="4.67004">
        <ele>473</ele>
        <time>2012-11-11T08:27:10Z</time>
      </trkpt>
      <trkpt lat="46.25232" lon="4.67002">
        <ele>473</ele>
        <time>2012-11-11T08:27:11Z</time>
      </trkpt>
      <trkpt lat="46.25237" lon="4.66997">
        <ele>478</ele>
        <time>2012-11-11T08:27:16Z</time>
      </trkpt>
      <trkpt lat="46.25238" lon="4.66996">
        <ele>478</ele>
        <time>2012-11-11T08:27:17Z</time>
      </trkpt>
      <trkpt lat="46.25243" lon="4.66991">
        <ele>478</ele>
        <time>2012-11-11T08:27:21Z</time>
      </trkpt>
      <trkpt lat="46.25244" lon="4.6699">
        <ele>478</ele>
        <time>2012-11-11T08:27:22Z</time>
      </trkpt>
      <trkpt lat="46.25246" lon="4.66983">
        <ele>479</ele>
        <time>2012-11-11T08:27:26Z</time>
      </trkpt>
      <trkpt lat="46.25247" lon="4.66979">
        <ele>480</ele>
        <time>2012-11-11T08:27:28Z</time>
      </trkpt>
      <trkpt lat="46.2525" lon="4.66968">
        <ele>480</ele>
        <time>2012-11-11T08:27:36Z</time>
      </trkpt>
      <trkpt lat="46.25251" lon="4.66967">
        <ele>480</ele>
        <time>2012-11-11T08:27:37Z</time>
      </trkpt>
      <trkpt lat="46.25254" lon="4.66961">
        <ele>481</ele>
        <time>2012-11-11T08:27:41Z</time>
      </trkpt>
      <trkpt lat="46.25254" lon="4.6696">
        <ele>481</ele>
        <time>2012-11-11T08:27:42Z</time>
      </trkpt>
      <trkpt lat="46.25255" lon="4.66957">
        <ele>481</ele>
        <time>2012-11-11T08:27:44Z</time>
      </trkpt>
      <trkpt lat="46.25255" lon="4.66949">
        <ele>482</ele>
        <time>2012-11-11T08:27:48Z</time>
      </trkpt>
      <trkpt lat="46.25255" lon="4.66947">
        <ele>482</ele>
        <time>2012-11-11T08:27:49Z</time>
      </trkpt>
      <trkpt lat="46.25255" lon="4.66935">
        <ele>483</ele>
        <time>2012-11-11T08:27:55Z</time>
      </trkpt>
      <trkpt lat="46.25257" lon="4.66931">
        <ele>483</ele>
        <time>2012-11-11T08:27:58Z</time>
      </trkpt>
      <trkpt lat="46.25259" lon="4.66927">
        <ele>483</ele>
        <time>2012-11-11T08:28:01Z</time>
      </trkpt>
      <trkpt lat="46.25262" lon="4.66922">
        <ele>483</ele>
        <time>2012-11-11T08:28:04Z</time>
      </trkpt>
      <trkpt lat="46.25265" lon="4.66915">
        <ele>485</ele>
        <time>2012-11-11T08:28:08Z</time>
      </trkpt>
      <trkpt lat="46.25266" lon="4.66913">
        <ele>486</ele>
        <time>2012-11-11T08:28:09Z</time>
      </trkpt>
      <trkpt lat="46.25268" lon="4.66903">
        <ele>486</ele>
        <time>2012-11-11T08:28:14Z</time>
      </trkpt>
      <trkpt lat="46.25268" lon="4.66897">
        <ele>487</ele>
        <time>2012-11-11T08:28:17Z</time>
      </trkpt>
      <trkpt lat="46.25269" lon="4.66892">
        <ele>487</ele>
        <time>2012-11-11T08:28:20Z</time>
      </trkpt>
      <trkpt lat="46.25274" lon="4.66883">
        <ele>488</ele>
        <time>2012-11-11T08:28:25Z</time>
      </trkpt>
      <trkpt lat="46.25275" lon="4.66881">
        <ele>488</ele>
        <time>2012-11-11T08:28:26Z</time>
      </trkpt>
      <trkpt lat="46.25281" lon="4.6687">
        <ele>489</ele>
        <time>2012-11-11T08:28:31Z</time>
      </trkpt>
      <trkpt lat="46.25281" lon="4.66867">
        <ele>489</ele>
        <time>2012-11-11T08:28:32Z</time>
      </trkpt>
      <trkpt lat="46.25284" lon="4.66853">
        <ele>489</ele>
        <time>2012-11-11T08:28:38Z</time>
      </trkpt>
      <trkpt lat="46.25284" lon="4.66851">
        <ele>489</ele>
        <time>2012-11-11T08:28:39Z</time>
      </trkpt>
      <trkpt lat="46.25285" lon="4.66841">
        <ele>490</ele>
        <time>2012-11-11T08:28:43Z</time>
      </trkpt>
      <trkpt lat="46.25286" lon="4.66837">
        <ele>490</ele>
        <time>2012-11-11T08:28:45Z</time>
      </trkpt>
      <trkpt lat="46.25288" lon="4.66822">
        <ele>493</ele>
        <time>2012-11-11T08:28:52Z</time>
      </trkpt>
      <trkpt lat="46.25289" lon="4.66817">
        <ele>494</ele>
        <time>2012-11-11T08:28:54Z</time>
      </trkpt>
      <trkpt lat="46.25293" lon="4.66809">
        <ele>494</ele>
        <time>2012-11-11T08:28:58Z</time>
      </trkpt>
      <trkpt lat="46.253" lon="4.66799">
        <ele>494</ele>
        <time>2012-11-11T08:29:04Z</time>
      </trkpt>
      <trkpt lat="46.253" lon="4.66797">
        <ele>494</ele>
        <time>2012-11-11T08:29:05Z</time>
      </trkpt>
      <trkpt lat="46.25305" lon="4.6679">
        <ele>494</ele>
        <time>2012-11-11T08:29:10Z</time>
      </trkpt>
      <trkpt lat="46.25314" lon="4.6678">
        <ele>493</ele>
        <time>2012-11-11T08:29:16Z</time>
      </trkpt>
      <trkpt lat="46.25315" lon="4.66778">
        <ele>493</ele>
        <time>2012-11-11T08:29:17Z</time>
      </trkpt>
      <trkpt lat="46.25323" lon="4.66764">
        <ele>493</ele>
        <time>2012-11-11T08:29:24Z</time>
      </trkpt>
      <trkpt lat="46.25329" lon="4.66754">
        <ele>492</ele>
        <time>2012-11-11T08:29:30Z</time>
      </trkpt>
      <trkpt lat="46.25333" lon="4.66743">
        <ele>493</ele>
        <time>2012-11-11T08:29:36Z</time>
      </trkpt>
      <trkpt lat="46.25337" lon="4.66739">
        <ele>494</ele>
        <time>2012-11-11T08:29:39Z</time>
      </trkpt>
      <trkpt lat="46.25343" lon="4.66734">
        <ele>495</ele>
        <time>2012-11-11T08:29:43Z</time>
      </trkpt>
      <trkpt lat="46.25346" lon="4.66729">
        <ele>496</ele>
        <time>2012-11-11T08:29:46Z</time>
      </trkpt>
      <trkpt lat="46.25349" lon="4.66725">
        <ele>496</ele>
        <time>2012-11-11T08:29:49Z</time>
      </trkpt>
      <trkpt lat="46.25355" lon="4.66718">
        <ele>497</ele>
        <time>2012-11-11T08:29:54Z</time>
      </trkpt>
      <trkpt lat="46.25357" lon="4.66717">
        <ele>497</ele>
        <time>2012-11-11T08:29:56Z</time>
      </trkpt>
      <trkpt lat="46.25363" lon="4.66711">
        <ele>498</ele>
        <time>2012-11-11T08:30:02Z</time>
      </trkpt>
      <trkpt lat="46.25368" lon="4.66708">
        <ele>498</ele>
        <time>2012-11-11T08:30:06Z</time>
      </trkpt>
      <trkpt lat="46.25371" lon="4.66702">
        <ele>498</ele>
        <time>2012-11-11T08:30:10Z</time>
      </trkpt>
      <trkpt lat="46.25374" lon="4.66697">
        <ele>499</ele>
        <time>2012-11-11T08:30:13Z</time>
      </trkpt>
      <trkpt lat="46.25377" lon="4.66693">
        <ele>499</ele>
        <time>2012-11-11T08:30:16Z</time>
      </trkpt>
      <trkpt lat="46.25385" lon="4.66685">
        <ele>499</ele>
        <time>2012-11-11T08:30:23Z</time>
      </trkpt>
      <trkpt lat="46.25396" lon="4.66678">
        <ele>499</ele>
        <time>2012-11-11T08:30:31Z</time>
      </trkpt>
      <trkpt lat="46.254" lon="4.66676">
        <ele>499</ele>
        <time>2012-11-11T08:30:34Z</time>
      </trkpt>
      <trkpt lat="46.25407" lon="4.66672">
        <ele>499</ele>
        <time>2012-11-11T08:30:38Z</time>
      </trkpt>
      <trkpt lat="46.25409" lon="4.66668">
        <ele>499</ele>
        <time>2012-11-11T08:30:39Z</time>
      </trkpt>
      <trkpt lat="46.25423" lon="4.66656">
        <ele>502</ele>
        <time>2012-11-11T08:30:47Z</time>
      </trkpt>
      <trkpt lat="46.2543" lon="4.66646">
        <ele>505</ele>
        <time>2012-11-11T08:30:53Z</time>
      </trkpt>
      <trkpt lat="46.25432" lon="4.66645">
        <ele>505</ele>
        <time>2012-11-11T08:30:54Z</time>
      </trkpt>
      <trkpt lat="46.25443" lon="4.66632">
        <ele>506</ele>
        <time>2012-11-11T08:31:02Z</time>
      </trkpt>
      <trkpt lat="46.25451" lon="4.6662">
        <ele>507</ele>
        <time>2012-11-11T08:31:09Z</time>
      </trkpt>
      <trkpt lat="46.25454" lon="4.66611">
        <ele>507</ele>
        <time>2012-11-11T08:31:13Z</time>
      </trkpt>
      <trkpt lat="46.25457" lon="4.66608">
        <ele>508</ele>
        <time>2012-11-11T08:31:15Z</time>
      </trkpt>
      <trkpt lat="46.25461" lon="4.66602">
        <ele>508</ele>
        <time>2012-11-11T08:31:19Z</time>
      </trkpt>
      <trkpt lat="46.25464" lon="4.66596">
        <ele>507</ele>
        <time>2012-11-11T08:31:22Z</time>
      </trkpt>
      <trkpt lat="46.25465" lon="4.66594">
        <ele>507</ele>
        <time>2012-11-11T08:31:23Z</time>
      </trkpt>
      <trkpt lat="46.25468" lon="4.66586">
        <ele>507</ele>
        <time>2012-11-11T08:31:27Z</time>
      </trkpt>
      <trkpt lat="46.25469" lon="4.6658">
        <ele>512</ele>
        <time>2012-11-11T08:31:30Z</time>
      </trkpt>
      <trkpt lat="46.25469" lon="4.66576">
        <ele>512</ele>
        <time>2012-11-11T08:31:32Z</time>
      </trkpt>
      <trkpt lat="46.25472" lon="4.6657">
        <ele>512</ele>
        <time>2012-11-11T08:31:36Z</time>
      </trkpt>
      <trkpt lat="46.25471" lon="4.66564">
        <ele>512</ele>
        <time>2012-11-11T08:31:39Z</time>
      </trkpt>
      <trkpt lat="46.25473" lon="4.66558">
        <ele>512</ele>
        <time>2012-11-11T08:31:43Z</time>
      </trkpt>
      <trkpt lat="46.25477" lon="4.66547">
        <ele>513</ele>
        <time>2012-11-11T08:31:49Z</time>
      </trkpt>
      <trkpt lat="46.25478" lon="4.66536">
        <ele>513</ele>
        <time>2012-11-11T08:31:56Z</time>
      </trkpt>
      <trkpt lat="46.25481" lon="4.66521">
        <ele>514</ele>
        <time>2012-11-11T08:32:04Z</time>
      </trkpt>
      <trkpt lat="46.2548" lon="4.66508">
        <ele>514</ele>
        <time>2012-11-11T08:32:10Z</time>
      </trkpt>
      <trkpt lat="46.25479" lon="4.66506">
        <ele>514</ele>
        <time>2012-11-11T08:32:11Z</time>
      </trkpt>
      <trkpt lat="46.25474" lon="4.66496">
        <ele>519</ele>
        <time>2012-11-11T08:32:17Z</time>
      </trkpt>
      <trkpt lat="46.25474" lon="4.66494">
        <ele>519</ele>
        <time>2012-11-11T08:32:18Z</time>
      </trkpt>
      <trkpt lat="46.25473" lon="4.66485">
        <ele>520</ele>
        <time>2012-11-11T08:32:23Z</time>
      </trkpt>
      <trkpt lat="46.25474" lon="4.66473">
        <ele>521</ele>
        <time>2012-11-11T08:32:31Z</time>
      </trkpt>
      <trkpt lat="46.25478" lon="4.66467">
        <ele>521</ele>
        <time>2012-11-11T08:32:35Z</time>
      </trkpt>
      <trkpt lat="46.2548" lon="4.66463">
        <ele>521</ele>
        <time>2012-11-11T08:32:38Z</time>
      </trkpt>
      <trkpt lat="46.25479" lon="4.66461">
        <ele>521</ele>
        <time>2012-11-11T08:32:39Z</time>
      </trkpt>
      <trkpt lat="46.25481" lon="4.66453">
        <ele>522</ele>
        <time>2012-11-11T08:32:43Z</time>
      </trkpt>
      <trkpt lat="46.25478" lon="4.66441">
        <ele>522</ele>
        <time>2012-11-11T08:32:49Z</time>
      </trkpt>
      <trkpt lat="46.25477" lon="4.66427">
        <ele>523</ele>
        <time>2012-11-11T08:32:56Z</time>
      </trkpt>
      <trkpt lat="46.25476" lon="4.66415">
        <ele>526</ele>
        <time>2012-11-11T08:33:05Z</time>
      </trkpt>
      <trkpt lat="46.25475" lon="4.66407">
        <ele>527</ele>
        <time>2012-11-11T08:33:10Z</time>
      </trkpt>
      <trkpt lat="46.25474" lon="4.66406">
        <ele>527</ele>
        <time>2012-11-11T08:33:11Z</time>
      </trkpt>
      <trkpt lat="46.25474" lon="4.66394">
        <ele>527</ele>
        <time>2012-11-11T08:33:17Z</time>
      </trkpt>
      <trkpt lat="46.25473" lon="4.66391">
        <ele>527</ele>
        <time>2012-11-11T08:33:19Z</time>
      </trkpt>
      <trkpt lat="46.25473" lon="4.66382">
        <ele>528</ele>
        <time>2012-11-11T08:33:24Z</time>
      </trkpt>
      <trkpt lat="46.25472" lon="4.66374">
        <ele>528</ele>
        <time>2012-11-11T08:33:30Z</time>
      </trkpt>
      <trkpt lat="46.2547" lon="4.66366">
        <ele>528</ele>
        <time>2012-11-11T08:33:35Z</time>
      </trkpt>
      <trkpt lat="46.25475" lon="4.66356">
        <ele>528</ele>
        <time>2012-11-11T08:33:56Z</time>
      </trkpt>
      <trkpt lat="46.25474" lon="4.66353">
        <ele>528</ele>
        <time>2012-11-11T08:34:01Z</time>
      </trkpt>
      <trkpt lat="46.25472" lon="4.66349">
        <ele>528</ele>
        <time>2012-11-11T08:34:05Z</time>
      </trkpt>
      <trkpt lat="46.25469" lon="4.66341">
        <ele>529</ele>
        <time>2012-11-11T08:34:12Z</time>
      </trkpt>
      <trkpt lat="46.2546" lon="4.66337">
        <ele>529</ele>
        <time>2012-11-11T08:34:23Z</time>
      </trkpt>
      <trkpt lat="46.25461" lon="4.66331">
        <ele>532</ele>
        <time>2012-11-11T08:34:33Z</time>
      </trkpt>
      <trkpt lat="46.25462" lon="4.66321">
        <ele>532</ele>
        <time>2012-11-11T08:34:41Z</time>
      </trkpt>
      <trkpt lat="46.25461" lon="4.6631">
        <ele>533</ele>
        <time>2012-11-11T08:34:48Z</time>
      </trkpt>
      <trkpt lat="46.25461" lon="4.66307">
        <ele>533</ele>
        <time>2012-11-11T08:34:49Z</time>
      </trkpt>
      <trkpt lat="46.25461" lon="4.66298">
        <ele>533</ele>
        <time>2012-11-11T08:34:55Z</time>
      </trkpt>
      <trkpt lat="46.25461" lon="4.66289">
        <ele>533</ele>
        <time>2012-11-11T08:35:01Z</time>
      </trkpt>
      <trkpt lat="46.25458" lon="4.6628">
        <ele>534</ele>
        <time>2012-11-11T08:35:08Z</time>
      </trkpt>
      <trkpt lat="46.25457" lon="4.66274">
        <ele>534</ele>
        <time>2012-11-11T08:35:13Z</time>
      </trkpt>
      <trkpt lat="46.25456" lon="4.66265">
        <ele>535</ele>
        <time>2012-11-11T08:35:19Z</time>
      </trkpt>
      <trkpt lat="46.25456" lon="4.66257">
        <ele>535</ele>
        <time>2012-11-11T08:35:26Z</time>
      </trkpt>
      <trkpt lat="46.25457" lon="4.66255">
        <ele>535</ele>
        <time>2012-11-11T08:35:27Z</time>
      </trkpt>
      <trkpt lat="46.25458" lon="4.66254">
        <ele>535</ele>
        <time>2012-11-11T08:35:28Z</time>
      </trkpt>
      <trkpt lat="46.2546" lon="4.66244">
        <ele>539</ele>
        <time>2012-11-11T08:35:33Z</time>
      </trkpt>
      <trkpt lat="46.25458" lon="4.6623">
        <ele>540</ele>
        <time>2012-11-11T08:35:41Z</time>
      </trkpt>
      <trkpt lat="46.25458" lon="4.66217">
        <ele>541</ele>
        <time>2012-11-11T08:35:49Z</time>
      </trkpt>
      <trkpt lat="46.2546" lon="4.66202">
        <ele>541</ele>
        <time>2012-11-11T08:35:58Z</time>
      </trkpt>
      <trkpt lat="46.25463" lon="4.66195">
        <ele>541</ele>
        <time>2012-11-11T08:36:04Z</time>
      </trkpt>
      <trkpt lat="46.25462" lon="4.66189">
        <ele>542</ele>
        <time>2012-11-11T08:36:09Z</time>
      </trkpt>
      <trkpt lat="46.25463" lon="4.66186">
        <ele>542</ele>
        <time>2012-11-11T08:36:11Z</time>
      </trkpt>
      <trkpt lat="46.25465" lon="4.66174">
        <ele>542</ele>
        <time>2012-11-11T08:36:19Z</time>
      </trkpt>
      <trkpt lat="46.25465" lon="4.66171">
        <ele>542</ele>
        <time>2012-11-11T08:36:21Z</time>
      </trkpt>
      <trkpt lat="46.25465" lon="4.66165">
        <ele>547</ele>
        <time>2012-11-11T08:36:25Z</time>
      </trkpt>
      <trkpt lat="46.25464" lon="4.66158">
        <ele>547</ele>
        <time>2012-11-11T08:36:30Z</time>
      </trkpt>
      <trkpt lat="46.25464" lon="4.66151">
        <ele>547</ele>
        <time>2012-11-11T08:36:33Z</time>
      </trkpt>
      <trkpt lat="46.25464" lon="4.66145">
        <ele>547</ele>
        <time>2012-11-11T08:36:37Z</time>
      </trkpt>
      <trkpt lat="46.25465" lon="4.66136">
        <ele>548</ele>
        <time>2012-11-11T08:36:43Z</time>
      </trkpt>
      <trkpt lat="46.25467" lon="4.66132">
        <ele>548</ele>
        <time>2012-11-11T08:36:46Z</time>
      </trkpt>
      <trkpt lat="46.25468" lon="4.66125">
        <ele>548</ele>
        <time>2012-11-11T08:36:50Z</time>
      </trkpt>
      <trkpt lat="46.2547" lon="4.66115">
        <ele>548</ele>
        <time>2012-11-11T08:36:56Z</time>
      </trkpt>
      <trkpt lat="46.2547" lon="4.66108">
        <ele>548</ele>
        <time>2012-11-11T08:37:03Z</time>
      </trkpt>
      <trkpt lat="46.25471" lon="4.66098">
        <ele>548</ele>
        <time>2012-11-11T08:37:15Z</time>
      </trkpt>
      <trkpt lat="46.2547" lon="4.66096">
        <ele>548</ele>
        <time>2012-11-11T08:37:16Z</time>
      </trkpt>
      <trkpt lat="46.25471" lon="4.66087">
        <ele>548</ele>
        <time>2012-11-11T08:37:22Z</time>
      </trkpt>
      <trkpt lat="46.25472" lon="4.66085">
        <ele>548</ele>
        <time>2012-11-11T08:37:23Z</time>
      </trkpt>
      <trkpt lat="46.25471" lon="4.66077">
        <ele>551</ele>
        <time>2012-11-11T08:37:27Z</time>
      </trkpt>
      <trkpt lat="46.25474" lon="4.66068">
        <ele>551</ele>
        <time>2012-11-11T08:37:34Z</time>
      </trkpt>
      <trkpt lat="46.25475" lon="4.66063">
        <ele>551</ele>
        <time>2012-11-11T08:37:40Z</time>
      </trkpt>
      <trkpt lat="46.25476" lon="4.66053">
        <ele>552</ele>
        <time>2012-11-11T08:37:47Z</time>
      </trkpt>
      <trkpt lat="46.25476" lon="4.66049">
        <ele>552</ele>
        <time>2012-11-11T08:37:49Z</time>
      </trkpt>
      <trkpt lat="46.25476" lon="4.66044">
        <ele>553</ele>
        <time>2012-11-11T08:37:53Z</time>
      </trkpt>
      <trkpt lat="46.25476" lon="4.66037">
        <ele>553</ele>
        <time>2012-11-11T08:37:59Z</time>
      </trkpt>
      <trkpt lat="46.25477" lon="4.66032">
        <ele>553</ele>
        <time>2012-11-11T08:38:04Z</time>
      </trkpt>
      <trkpt lat="46.25481" lon="4.66023">
        <ele>553</ele>
        <time>2012-11-11T08:38:10Z</time>
      </trkpt>
      <trkpt lat="46.25482" lon="4.66021">
        <ele>553</ele>
        <time>2012-11-11T08:38:12Z</time>
      </trkpt>
      <trkpt lat="46.25486" lon="4.6601">
        <ele>552</ele>
        <time>2012-11-11T08:38:20Z</time>
      </trkpt>
      <trkpt lat="46.25488" lon="4.66001">
        <ele>551</ele>
        <time>2012-11-11T08:38:25Z</time>
      </trkpt>
      <trkpt lat="46.25489" lon="4.66">
        <ele>554</ele>
        <time>2012-11-11T08:38:26Z</time>
      </trkpt>
      <trkpt lat="46.2549" lon="4.65988">
        <ele>556</ele>
        <time>2012-11-11T08:38:34Z</time>
      </trkpt>
      <trkpt lat="46.25487" lon="4.65979">
        <ele>558</ele>
        <time>2012-11-11T08:38:41Z</time>
      </trkpt>
      <trkpt lat="46.25488" lon="4.65967">
        <ele>560</ele>
        <time>2012-11-11T08:38:50Z</time>
      </trkpt>
      <trkpt lat="46.25485" lon="4.65959">
        <ele>561</ele>
        <time>2012-11-11T08:38:57Z</time>
      </trkpt>
      <trkpt lat="46.25482" lon="4.65953">
        <ele>562</ele>
        <time>2012-11-11T08:39:01Z</time>
      </trkpt>
      <trkpt lat="46.25479" lon="4.65952">
        <ele>562</ele>
        <time>2012-11-11T08:39:04Z</time>
      </trkpt>
      <trkpt lat="46.25472" lon="4.65956">
        <ele>562</ele>
        <time>2012-11-11T08:39:12Z</time>
      </trkpt>
      <trkpt lat="46.25471" lon="4.65958">
        <ele>562</ele>
        <time>2012-11-11T08:39:13Z</time>
      </trkpt>
      <trkpt lat="46.25466" lon="4.65962">
        <ele>562</ele>
        <time>2012-11-11T08:39:18Z</time>
      </trkpt>
      <trkpt lat="46.25459" lon="4.65971">
        <ele>563</ele>
        <time>2012-11-11T08:39:26Z</time>
      </trkpt>
      <trkpt lat="46.25453" lon="4.65979">
        <ele>563</ele>
        <time>2012-11-11T08:39:32Z</time>
      </trkpt>
      <trkpt lat="46.25452" lon="4.6598">
        <ele>563</ele>
        <time>2012-11-11T08:39:33Z</time>
      </trkpt>
      <trkpt lat="46.25445" lon="4.65987">
        <ele>563</ele>
        <time>2012-11-11T08:39:40Z</time>
      </trkpt>
      <trkpt lat="46.25443" lon="4.65989">
        <ele>563</ele>
        <time>2012-11-11T08:39:43Z</time>
      </trkpt>
      <trkpt lat="46.2544" lon="4.65992">
        <ele>564</ele>
        <time>2012-11-11T08:39:46Z</time>
      </trkpt>
      <trkpt lat="46.25436" lon="4.65997">
        <ele>564</ele>
        <time>2012-11-11T08:39:50Z</time>
      </trkpt>
      <trkpt lat="46.25432" lon="4.66001">
        <ele>561</ele>
        <time>2012-11-11T08:39:53Z</time>
      </trkpt>
      <trkpt lat="46.2543" lon="4.66001">
        <ele>561</ele>
        <time>2012-11-11T08:39:59Z</time>
      </trkpt>
      <trkpt lat="46.25424" lon="4.66002">
        <ele>563</ele>
        <time>2012-11-11T08:40:07Z</time>
      </trkpt>
      <trkpt lat="46.25421" lon="4.66004">
        <ele>564</ele>
        <time>2012-11-11T08:40:09Z</time>
      </trkpt>
      <trkpt lat="46.25417" lon="4.66009">
        <ele>563</ele>
        <time>2012-11-11T08:40:13Z</time>
      </trkpt>
      <trkpt lat="46.25411" lon="4.66018">
        <ele>569</ele>
        <time>2012-11-11T08:40:19Z</time>
      </trkpt>
      <trkpt lat="46.25405" lon="4.66026">
        <ele>570</ele>
        <time>2012-11-11T08:40:26Z</time>
      </trkpt>
      <trkpt lat="46.25402" lon="4.66029">
        <ele>570</ele>
        <time>2012-11-11T08:40:32Z</time>
      </trkpt>
      <trkpt lat="46.25399" lon="4.66032">
        <ele>571</ele>
        <time>2012-11-11T08:40:35Z</time>
      </trkpt>
      <trkpt lat="46.25397" lon="4.66037">
        <ele>571</ele>
        <time>2012-11-11T08:40:38Z</time>
      </trkpt>
      <trkpt lat="46.25394" lon="4.6604">
        <ele>571</ele>
        <time>2012-11-11T08:40:40Z</time>
      </trkpt>
      <trkpt lat="46.2539" lon="4.66045">
        <ele>571</ele>
        <time>2012-11-11T08:40:43Z</time>
      </trkpt>
      <trkpt lat="46.25388" lon="4.6605">
        <ele>571</ele>
        <time>2012-11-11T08:40:46Z</time>
      </trkpt>
      <trkpt lat="46.25384" lon="4.66056">
        <ele>571</ele>
        <time>2012-11-11T08:40:50Z</time>
      </trkpt>
      <trkpt lat="46.25377" lon="4.66073">
        <ele>572</ele>
        <time>2012-11-11T08:40:58Z</time>
      </trkpt>
      <trkpt lat="46.25372" lon="4.66081">
        <ele>573</ele>
        <time>2012-11-11T08:41:03Z</time>
      </trkpt>
      <trkpt lat="46.25366" lon="4.66098">
        <ele>568</ele>
        <time>2012-11-11T08:41:10Z</time>
      </trkpt>
      <trkpt lat="46.2536" lon="4.66113">
        <ele>568</ele>
        <time>2012-11-11T08:41:17Z</time>
      </trkpt>
      <trkpt lat="46.25354" lon="4.66126">
        <ele>568</ele>
        <time>2012-11-11T08:41:24Z</time>
      </trkpt>
      <trkpt lat="46.25353" lon="4.66127">
        <ele>568</ele>
        <time>2012-11-11T08:41:25Z</time>
      </trkpt>
      <trkpt lat="46.25346" lon="4.66136">
        <ele>567</ele>
        <time>2012-11-11T08:41:33Z</time>
      </trkpt>
      <trkpt lat="46.25338" lon="4.66144">
        <ele>567</ele>
        <time>2012-11-11T08:41:42Z</time>
      </trkpt>
      <trkpt lat="46.25327" lon="4.66149">
        <ele>571</ele>
        <time>2012-11-11T08:41:50Z</time>
      </trkpt>
      <trkpt lat="46.25322" lon="4.66151">
        <ele>571</ele>
        <time>2012-11-11T08:41:54Z</time>
      </trkpt>
      <trkpt lat="46.25321" lon="4.66152">
        <ele>571</ele>
        <time>2012-11-11T08:41:55Z</time>
      </trkpt>
      <trkpt lat="46.25319" lon="4.66152">
        <ele>571</ele>
        <time>2012-11-11T08:41:57Z</time>
      </trkpt>
      <trkpt lat="46.25308" lon="4.66149">
        <ele>572</ele>
        <time>2012-11-11T08:42:05Z</time>
      </trkpt>
      <trkpt lat="46.25302" lon="4.66147">
        <ele>572</ele>
        <time>2012-11-11T08:42:10Z</time>
      </trkpt>
      <trkpt lat="46.25301" lon="4.66146">
        <ele>572</ele>
        <time>2012-11-11T08:42:11Z</time>
      </trkpt>
      <trkpt lat="46.25296" lon="4.66141">
        <ele>573</ele>
        <time>2012-11-11T08:42:15Z</time>
      </trkpt>
      <trkpt lat="46.25295" lon="4.66139">
        <ele>573</ele>
        <time>2012-11-11T08:42:16Z</time>
      </trkpt>
      <trkpt lat="46.25294" lon="4.66129">
        <ele>573</ele>
        <time>2012-11-11T08:42:22Z</time>
      </trkpt>
      <trkpt lat="46.25294" lon="4.66128">
        <ele>573</ele>
        <time>2012-11-11T08:42:23Z</time>
      </trkpt>
      <trkpt lat="46.25298" lon="4.66121">
        <ele>574</ele>
        <time>2012-11-11T08:43:32Z</time>
      </trkpt>
      <trkpt lat="46.25299" lon="4.66111">
        <ele>574</ele>
        <time>2012-11-11T08:43:40Z</time>
      </trkpt>
      <trkpt lat="46.25303" lon="4.66102">
        <ele>575</ele>
        <time>2012-11-11T08:43:47Z</time>
      </trkpt>
      <trkpt lat="46.25307" lon="4.66089">
        <ele>576</ele>
        <time>2012-11-11T08:43:56Z</time>
      </trkpt>
      <trkpt lat="46.25307" lon="4.6608">
        <ele>579</ele>
        <time>2012-11-11T08:44:02Z</time>
      </trkpt>
      <trkpt lat="46.25307" lon="4.66078">
        <ele>579</ele>
        <time>2012-11-11T08:44:04Z</time>
      </trkpt>
      <trkpt lat="46.25307" lon="4.66071">
        <ele>579</ele>
        <time>2012-11-11T08:44:08Z</time>
      </trkpt>
      <trkpt lat="46.25307" lon="4.66057">
        <ele>580</ele>
        <time>2012-11-11T08:44:15Z</time>
      </trkpt>
      <trkpt lat="46.25311" lon="4.66043">
        <ele>580</ele>
        <time>2012-11-11T08:44:23Z</time>
      </trkpt>
      <trkpt lat="46.25311" lon="4.66032">
        <ele>580</ele>
        <time>2012-11-11T08:44:29Z</time>
      </trkpt>
      <trkpt lat="46.25313" lon="4.66028">
        <ele>581</ele>
        <time>2012-11-11T08:44:32Z</time>
      </trkpt>
      <trkpt lat="46.25313" lon="4.66026">
        <ele>581</ele>
        <time>2012-11-11T08:44:33Z</time>
      </trkpt>
      <trkpt lat="46.25317" lon="4.6601">
        <ele>582</ele>
        <time>2012-11-11T08:44:41Z</time>
      </trkpt>
      <trkpt lat="46.25318" lon="4.66009">
        <ele>582</ele>
        <time>2012-11-11T08:44:42Z</time>
      </trkpt>
      <trkpt lat="46.25317" lon="4.65998">
        <ele>583</ele>
        <time>2012-11-11T08:44:46Z</time>
      </trkpt>
      <trkpt lat="46.25317" lon="4.65996">
        <ele>583</ele>
        <time>2012-11-11T08:44:47Z</time>
      </trkpt>
      <trkpt lat="46.25318" lon="4.65977">
        <ele>582</ele>
        <time>2012-11-11T08:44:55Z</time>
      </trkpt>
      <trkpt lat="46.25316" lon="4.65958">
        <ele>582</ele>
        <time>2012-11-11T08:45:03Z</time>
      </trkpt>
      <trkpt lat="46.25317" lon="4.65939">
        <ele>583</ele>
        <time>2012-11-11T08:45:11Z</time>
      </trkpt>
      <trkpt lat="46.25318" lon="4.65924">
        <ele>584</ele>
        <time>2012-11-11T08:45:17Z</time>
      </trkpt>
      <trkpt lat="46.25318" lon="4.65919">
        <ele>584</ele>
        <time>2012-11-11T08:45:19Z</time>
      </trkpt>
      <trkpt lat="46.25322" lon="4.65896">
        <ele>583</ele>
        <time>2012-11-11T08:45:27Z</time>
      </trkpt>
      <trkpt lat="46.25327" lon="4.6587">
        <ele>583</ele>
        <time>2012-11-11T08:45:34Z</time>
      </trkpt>
      <trkpt lat="46.25331" lon="4.65848">
        <ele>585</ele>
        <time>2012-11-11T08:45:41Z</time>
      </trkpt>
      <trkpt lat="46.25332" lon="4.65842">
        <ele>586</ele>
        <time>2012-11-11T08:45:43Z</time>
      </trkpt>
      <trkpt lat="46.25334" lon="4.65834">
        <ele>589</ele>
        <time>2012-11-11T08:45:46Z</time>
      </trkpt>
      <trkpt lat="46.25338" lon="4.6582">
        <ele>591</ele>
        <time>2012-11-11T08:45:51Z</time>
      </trkpt>
      <trkpt lat="46.25342" lon="4.65807">
        <ele>592</ele>
        <time>2012-11-11T08:45:54Z</time>
      </trkpt>
      <trkpt lat="46.25349" lon="4.65783">
        <ele>593</ele>
        <time>2012-11-11T08:46:04Z</time>
      </trkpt>
      <trkpt lat="46.25352" lon="4.65769">
        <ele>594</ele>
        <time>2012-11-11T08:46:09Z</time>
      </trkpt>
      <trkpt lat="46.25351" lon="4.65767">
        <ele>594</ele>
        <time>2012-11-11T08:46:10Z</time>
      </trkpt>
      <trkpt lat="46.25348" lon="4.65761">
        <ele>594</ele>
        <time>2012-11-11T08:46:14Z</time>
      </trkpt>
      <trkpt lat="46.25342" lon="4.65754">
        <ele>594</ele>
        <time>2012-11-11T08:46:17Z</time>
      </trkpt>
      <trkpt lat="46.25331" lon="4.65739">
        <ele>593</ele>
        <time>2012-11-11T08:46:25Z</time>
      </trkpt>
      <trkpt lat="46.25326" lon="4.65732">
        <ele>592</ele>
        <time>2012-11-11T08:46:28Z</time>
      </trkpt>
      <trkpt lat="46.2532" lon="4.65717">
        <ele>593</ele>
        <time>2012-11-11T08:46:34Z</time>
      </trkpt>
      <trkpt lat="46.25313" lon="4.65697">
        <ele>594</ele>
        <time>2012-11-11T08:46:41Z</time>
      </trkpt>
      <trkpt lat="46.25308" lon="4.65686">
        <ele>595</ele>
        <time>2012-11-11T08:46:45Z</time>
      </trkpt>
      <trkpt lat="46.25303" lon="4.65675">
        <ele>595</ele>
        <time>2012-11-11T08:46:49Z</time>
      </trkpt>
      <trkpt lat="46.25291" lon="4.65652">
        <ele>599</ele>
        <time>2012-11-11T08:46:57Z</time>
      </trkpt>
      <trkpt lat="46.25287" lon="4.65642">
        <ele>599</ele>
        <time>2012-11-11T08:47:00Z</time>
      </trkpt>
      <trkpt lat="46.25283" lon="4.65629">
        <ele>600</ele>
        <time>2012-11-11T08:47:04Z</time>
      </trkpt>
      <trkpt lat="46.25278" lon="4.65605">
        <ele>600</ele>
        <time>2012-11-11T08:47:10Z</time>
      </trkpt>
      <trkpt lat="46.2528" lon="4.65593">
        <ele>601</ele>
        <time>2012-11-11T08:47:13Z</time>
      </trkpt>
      <trkpt lat="46.25283" lon="4.65581">
        <ele>601</ele>
        <time>2012-11-11T08:47:16Z</time>
      </trkpt>
      <trkpt lat="46.25295" lon="4.65561">
        <ele>602</ele>
        <time>2012-11-11T08:47:22Z</time>
      </trkpt>
      <trkpt lat="46.25301" lon="4.65552">
        <ele>602</ele>
        <time>2012-11-11T08:47:25Z</time>
      </trkpt>
      <trkpt lat="46.25314" lon="4.65538">
        <ele>602</ele>
        <time>2012-11-11T08:47:30Z</time>
      </trkpt>
      <trkpt lat="46.25334" lon="4.6552">
        <ele>609</ele>
        <time>2012-11-11T08:47:37Z</time>
      </trkpt>
      <trkpt lat="46.25358" lon="4.65508">
        <ele>610</ele>
        <time>2012-11-11T08:47:44Z</time>
      </trkpt>
      <trkpt lat="46.25369" lon="4.65505">
        <ele>612</ele>
        <time>2012-11-11T08:47:47Z</time>
      </trkpt>
      <trkpt lat="46.25383" lon="4.655">
        <ele>613</ele>
        <time>2012-11-11T08:47:51Z</time>
      </trkpt>
      <trkpt lat="46.25404" lon="4.65493">
        <ele>611</ele>
        <time>2012-11-11T08:47:57Z</time>
      </trkpt>
      <trkpt lat="46.25408" lon="4.65492">
        <ele>612</ele>
        <time>2012-11-11T08:47:58Z</time>
      </trkpt>
      <trkpt lat="46.25427" lon="4.6548">
        <ele>622</ele>
        <time>2012-11-11T08:48:03Z</time>
      </trkpt>
      <trkpt lat="46.2544" lon="4.65468">
        <ele>623</ele>
        <time>2012-11-11T08:48:06Z</time>
      </trkpt>
      <trkpt lat="46.25451" lon="4.65454">
        <ele>624</ele>
        <time>2012-11-11T08:48:09Z</time>
      </trkpt>
      <trkpt lat="46.25468" lon="4.65426">
        <ele>627</ele>
        <time>2012-11-11T08:48:14Z</time>
      </trkpt>
      <trkpt lat="46.25476" lon="4.65408">
        <ele>625</ele>
        <time>2012-11-11T08:48:17Z</time>
      </trkpt>
      <trkpt lat="46.25478" lon="4.65378">
        <ele>622</ele>
        <time>2012-11-11T08:48:21Z</time>
      </trkpt>
      <trkpt lat="46.25472" lon="4.65348">
        <ele>621</ele>
        <time>2012-11-11T08:48:26Z</time>
      </trkpt>
      <trkpt lat="46.25468" lon="4.65326">
        <ele>615</ele>
        <time>2012-11-11T08:48:28Z</time>
      </trkpt>
      <trkpt lat="46.25467" lon="4.6531">
        <ele>613</ele>
        <time>2012-11-11T08:48:30Z</time>
      </trkpt>
      <trkpt lat="46.25467" lon="4.65294">
        <ele>611</ele>
        <time>2012-11-11T08:48:32Z</time>
      </trkpt>
      <trkpt lat="46.25469" lon="4.65277">
        <ele>611</ele>
        <time>2012-11-11T08:48:34Z</time>
      </trkpt>
      <trkpt lat="46.2547" lon="4.65269">
        <ele>611</ele>
        <time>2012-11-11T08:48:35Z</time>
      </trkpt>
      <trkpt lat="46.25475" lon="4.65253">
        <ele>613</ele>
        <time>2012-11-11T08:48:37Z</time>
      </trkpt>
      <trkpt lat="46.25484" lon="4.6522">
        <ele>605</ele>
        <time>2012-11-11T08:48:41Z</time>
      </trkpt>
      <trkpt lat="46.25497" lon="4.6518">
        <ele>604</ele>
        <time>2012-11-11T08:48:46Z</time>
      </trkpt>
      <trkpt lat="46.255" lon="4.65172">
        <ele>606</ele>
        <time>2012-11-11T08:48:47Z</time>
      </trkpt>
      <trkpt lat="46.25514" lon="4.65123">
        <ele>613</ele>
        <time>2012-11-11T08:48:53Z</time>
      </trkpt>
      <trkpt lat="46.25518" lon="4.65107">
        <ele>611</ele>
        <time>2012-11-11T08:48:55Z</time>
      </trkpt>
      <trkpt lat="46.25529" lon="4.65068">
        <ele>604</ele>
        <time>2012-11-11T08:49:00Z</time>
      </trkpt>
      <trkpt lat="46.25537" lon="4.65037">
        <ele>605</ele>
        <time>2012-11-11T08:49:04Z</time>
      </trkpt>
      <trkpt lat="46.25545" lon="4.65015">
        <ele>606</ele>
        <time>2012-11-11T08:49:07Z</time>
      </trkpt>
      <trkpt lat="46.25557" lon="4.64968">
        <ele>601</ele>
        <time>2012-11-11T08:49:13Z</time>
      </trkpt>
      <trkpt lat="46.25557" lon="4.64968">
        <ele>601</ele>
        <time>2012-11-11T08:49:14Z</time>
      </trkpt>
      <trkpt lat="46.25569" lon="4.64904">
        <ele>599</ele>
        <time>2012-11-11T08:49:21Z</time>
      </trkpt>
      <trkpt lat="46.25573" lon="4.64878">
        <ele>596</ele>
        <time>2012-11-11T08:49:24Z</time>
      </trkpt>
      <trkpt lat="46.25574" lon="4.6485">
        <ele>598</ele>
        <time>2012-11-11T08:49:27Z</time>
      </trkpt>
      <trkpt lat="46.25572" lon="4.64814">
        <ele>598</ele>
        <time>2012-11-11T08:49:31Z</time>
      </trkpt>
      <trkpt lat="46.25571" lon="4.64798">
        <ele>597</ele>
        <time>2012-11-11T08:49:33Z</time>
      </trkpt>
      <trkpt lat="46.25569" lon="4.6475">
        <ele>602</ele>
        <time>2012-11-11T08:49:39Z</time>
      </trkpt>
      <trkpt lat="46.25568" lon="4.64742">
        <ele>605</ele>
        <time>2012-11-11T08:49:40Z</time>
      </trkpt>
      <trkpt lat="46.25564" lon="4.64724">
        <ele>604</ele>
        <time>2012-11-11T08:49:42Z</time>
      </trkpt>
      <trkpt lat="46.25559" lon="4.64709">
        <ele>604</ele>
        <time>2012-11-11T08:49:44Z</time>
      </trkpt>
      <trkpt lat="46.25553" lon="4.64694">
        <ele>604</ele>
        <time>2012-11-11T08:49:46Z</time>
      </trkpt>
      <trkpt lat="46.25533" lon="4.64653">
        <ele>611</ele>
        <time>2012-11-11T08:49:52Z</time>
      </trkpt>
      <trkpt lat="46.25528" lon="4.64647">
        <ele>611</ele>
        <time>2012-11-11T08:49:53Z</time>
      </trkpt>
      <trkpt lat="46.25512" lon="4.64637">
        <ele>610</ele>
        <time>2012-11-11T08:49:56Z</time>
      </trkpt>
      <trkpt lat="46.255" lon="4.64633">
        <ele>601</ele>
        <time>2012-11-11T08:49:58Z</time>
      </trkpt>
      <trkpt lat="46.25494" lon="4.64632">
        <ele>600</ele>
        <time>2012-11-11T08:49:59Z</time>
      </trkpt>
      <trkpt lat="46.25482" lon="4.6463">
        <ele>600</ele>
        <time>2012-11-11T08:50:02Z</time>
      </trkpt>
      <trkpt lat="46.25454" lon="4.64625">
        <ele>599</ele>
        <time>2012-11-11T08:50:06Z</time>
      </trkpt>
      <trkpt lat="46.25449" lon="4.64623">
        <ele>598</ele>
        <time>2012-11-11T08:50:07Z</time>
      </trkpt>
      <trkpt lat="46.25436" lon="4.64609">
        <ele>598</ele>
        <time>2012-11-11T08:50:10Z</time>
      </trkpt>
      <trkpt lat="46.25433" lon="4.64587">
        <ele>598</ele>
        <time>2012-11-11T08:50:13Z</time>
      </trkpt>
      <trkpt lat="46.25435" lon="4.64558">
        <ele>602</ele>
        <time>2012-11-11T08:50:17Z</time>
      </trkpt>
      <trkpt lat="46.25437" lon="4.64543">
        <ele>603</ele>
        <time>2012-11-11T08:50:19Z</time>
      </trkpt>
      <trkpt lat="46.25437" lon="4.64543">
        <ele>603</ele>
        <time>2012-11-11T08:50:20Z</time>
      </trkpt>
      <trkpt lat="46.25448" lon="4.64483">
        <ele>603</ele>
        <time>2012-11-11T08:50:27Z</time>
      </trkpt>
      <trkpt lat="46.25449" lon="4.64476">
        <ele>604</ele>
        <time>2012-11-11T08:50:28Z</time>
      </trkpt>
      <trkpt lat="46.25455" lon="4.64427">
        <ele>605</ele>
        <time>2012-11-11T08:50:35Z</time>
      </trkpt>
      <trkpt lat="46.25457" lon="4.64414">
        <ele>605</ele>
        <time>2012-11-11T08:50:37Z</time>
      </trkpt>
      <trkpt lat="46.25462" lon="4.64376">
        <ele>606</ele>
        <time>2012-11-11T08:50:44Z</time>
      </trkpt>
      <trkpt lat="46.25468" lon="4.64343">
        <ele>607</ele>
        <time>2012-11-11T08:50:52Z</time>
      </trkpt>
      <trkpt lat="46.25475" lon="4.64333">
        <ele>608</ele>
        <time>2012-11-11T08:50:57Z</time>
      </trkpt>
      <trkpt lat="46.25477" lon="4.64332">
        <ele>610</ele>
        <time>2012-11-11T08:51:02Z</time>
      </trkpt>
      <trkpt lat="46.25479" lon="4.64332">
        <ele>610</ele>
        <time>2012-11-11T08:51:03Z</time>
      </trkpt>
      <trkpt lat="46.2548" lon="4.64333">
        <ele>610</ele>
        <time>2012-11-11T08:51:06Z</time>
      </trkpt>
      <trkpt lat="46.25478" lon="4.6433">
        <ele>610</ele>
        <time>2012-11-11T08:51:11Z</time>
      </trkpt>
      <trkpt lat="46.25476" lon="4.64328">
        <ele>610</ele>
        <time>2012-11-11T08:51:15Z</time>
      </trkpt>
      <trkpt lat="46.25476" lon="4.64326">
        <ele>610</ele>
        <time>2012-11-11T08:51:16Z</time>
      </trkpt>
      <trkpt lat="46.25478" lon="4.6432">
        <ele>610</ele>
        <time>2012-11-11T08:51:22Z</time>
      </trkpt>
      <trkpt lat="46.25479" lon="4.64318">
        <ele>610</ele>
        <time>2012-11-11T08:51:30Z</time>
      </trkpt>
      <trkpt lat="46.25478" lon="4.64316">
        <ele>610</ele>
        <time>2012-11-11T08:51:33Z</time>
      </trkpt>
      <trkpt lat="46.25476" lon="4.64317">
        <ele>610</ele>
        <time>2012-11-11T08:51:57Z</time>
      </trkpt>
      <trkpt lat="46.25476" lon="4.64318">
        <ele>610</ele>
        <time>2012-11-11T08:52:04Z</time>
      </trkpt>
      <trkpt lat="46.25477" lon="4.64323">
        <ele>610</ele>
        <time>2012-11-11T08:52:10Z</time>
      </trkpt>
      <trkpt lat="46.25478" lon="4.64326">
        <ele>610</ele>
        <time>2012-11-11T08:52:19Z</time>
      </trkpt>
      <trkpt lat="46.25477" lon="4.64324">
        <ele>610</ele>
        <time>2012-11-11T08:52:49Z</time>
      </trkpt>
      <trkpt lat="46.25478" lon="4.64322">
        <ele>610</ele>
        <time>2012-11-11T08:53:08Z</time>
      </trkpt>
      <trkpt lat="46.25479" lon="4.6432">
        <ele>610</ele>
        <time>2012-11-11T08:53:10Z</time>
      </trkpt>
      <trkpt lat="46.2548" lon="4.64319">
        <ele>610</ele>
        <time>2012-11-11T08:53:17Z</time>
      </trkpt>
      <trkpt lat="46.25477" lon="4.64318">
        <ele>610</ele>
        <time>2012-11-11T08:53:26Z</time>
      </trkpt>
      <trkpt lat="46.25477" lon="4.64318">
        <ele>610</ele>
        <time>2012-11-11T08:53:28Z</time>
      </trkpt>
      <trkpt lat="46.25477" lon="4.64319">
        <ele>610</ele>
        <time>2012-11-11T08:53:36Z</time>
      </trkpt>
      <trkpt lat="46.25478" lon="4.64318">
        <ele>610</ele>
        <time>2012-11-11T08:54:04Z</time>
      </trkpt>
      <trkpt lat="46.25478" lon="4.64316">
        <ele>610</ele>
        <time>2012-11-11T08:54:19Z</time>
      </trkpt>
      <trkpt lat="46.2548" lon="4.64317">
        <ele>610</ele>
        <time>2012-11-11T08:54:22Z</time>
      </trkpt>
      <trkpt lat="46.25477" lon="4.6432">
        <ele>610</ele>
        <time>2012-11-11T08:54:28Z</time>
      </trkpt>
      <trkpt lat="46.25475" lon="4.6432">
        <ele>610</ele>
        <time>2012-11-11T08:54:34Z</time>
      </trkpt>
      <trkpt lat="46.25473" lon="4.64321">
        <ele>610</ele>
        <time>2012-11-11T08:54:40Z</time>
      </trkpt>
      <trkpt lat="46.25476" lon="4.64318">
        <ele>610</ele>
        <time>2012-11-11T08:54:48Z</time>
      </trkpt>
      <trkpt lat="46.25478" lon="4.64317">
        <ele>610</ele>
        <time>2012-11-11T08:54:58Z</time>
      </trkpt>
      <trkpt lat="46.25475" lon="4.64314">
        <ele>610</ele>
        <time>2012-11-11T08:55:53Z</time>
      </trkpt>
      <trkpt lat="46.25474" lon="4.64315">
        <ele>610</ele>
        <time>2012-11-11T08:56:02Z</time>
      </trkpt>
      <trkpt lat="46.25473" lon="4.64317">
        <ele>610</ele>
        <time>2012-11-11T08:56:04Z</time>
      </trkpt>
      <trkpt lat="46.25474" lon="4.64322">
        <ele>610</ele>
        <time>2012-11-11T08:56:07Z</time>
      </trkpt>
      <trkpt lat="46.25476" lon="4.64325">
        <ele>610</ele>
        <time>2012-11-11T08:56:11Z</time>
      </trkpt>
      <trkpt lat="46.25476" lon="4.64326">
        <ele>610</ele>
        <time>2012-11-11T08:56:13Z</time>
      </trkpt>
      <trkpt lat="46.25477" lon="4.64327">
        <ele>610</ele>
        <time>2012-11-11T08:56:25Z</time>
      </trkpt>
      <trkpt lat="46.25477" lon="4.6433">
        <ele>610</ele>
        <time>2012-11-11T08:56:36Z</time>
      </trkpt>
      <trkpt lat="46.25477" lon="4.64331">
        <ele>610</ele>
        <time>2012-11-11T08:56:37Z</time>
      </trkpt>
      <trkpt lat="46.25477" lon="4.64334">
        <ele>609</ele>
        <time>2012-11-11T08:56:40Z</time>
      </trkpt>
      <trkpt lat="46.25477" lon="4.64334">
        <ele>609</ele>
        <time>2012-11-11T08:56:50Z</time>
      </trkpt>
      <trkpt lat="46.25477" lon="4.64333">
        <ele>610</ele>
        <time>2012-11-11T08:56:56Z</time>
      </trkpt>
      <trkpt lat="46.25473" lon="4.64331">
        <ele>610</ele>
        <time>2012-11-11T08:57:09Z</time>
      </trkpt>
      <trkpt lat="46.25468" lon="4.64328">
        <ele>609</ele>
        <time>2012-11-11T08:57:26Z</time>
      </trkpt>
      <trkpt lat="46.25458" lon="4.64332">
        <ele>608</ele>
        <time>2012-11-11T08:57:31Z</time>
      </trkpt>
      <trkpt lat="46.25452" lon="4.64324">
        <ele>608</ele>
        <time>2012-11-11T08:57:35Z</time>
      </trkpt>
      <trkpt lat="46.25442" lon="4.643">
        <ele>608</ele>
        <time>2012-11-11T08:57:44Z</time>
      </trkpt>
      <trkpt lat="46.25441" lon="4.64298">
        <ele>608</ele>
        <time>2012-11-11T08:57:45Z</time>
      </trkpt>
      <trkpt lat="46.25438" lon="4.64289">
        <ele>608</ele>
        <time>2012-11-11T08:57:48Z</time>
      </trkpt>
      <trkpt lat="46.25433" lon="4.64279">
        <ele>608</ele>
        <time>2012-11-11T08:57:52Z</time>
      </trkpt>
      <trkpt lat="46.25431" lon="4.64273">
        <ele>609</ele>
        <time>2012-11-11T08:57:54Z</time>
      </trkpt>
      <trkpt lat="46.25424" lon="4.64253">
        <ele>609</ele>
        <time>2012-11-11T08:58:01Z</time>
      </trkpt>
      <trkpt lat="46.25417" lon="4.64231">
        <ele>611</ele>
        <time>2012-11-11T08:58:07Z</time>
      </trkpt>
      <trkpt lat="46.25411" lon="4.64209">
        <ele>605</ele>
        <time>2012-11-11T08:58:14Z</time>
      </trkpt>
      <trkpt lat="46.25405" lon="4.64189">
        <ele>607</ele>
        <time>2012-11-11T08:58:22Z</time>
      </trkpt>
      <trkpt lat="46.25402" lon="4.64181">
        <ele>607</ele>
        <time>2012-11-11T08:58:25Z</time>
      </trkpt>
      <trkpt lat="46.25395" lon="4.64161">
        <ele>611</ele>
        <time>2012-11-11T08:58:33Z</time>
      </trkpt>
      <trkpt lat="46.25391" lon="4.64133">
        <ele>610</ele>
        <time>2012-11-11T08:58:43Z</time>
      </trkpt>
      <trkpt lat="46.2539" lon="4.6413">
        <ele>610</ele>
        <time>2012-11-11T08:58:44Z</time>
      </trkpt>
      <trkpt lat="46.25387" lon="4.64113">
        <ele>611</ele>
        <time>2012-11-11T08:58:50Z</time>
      </trkpt>
      <trkpt lat="46.25383" lon="4.64092">
        <ele>611</ele>
        <time>2012-11-11T08:58:56Z</time>
      </trkpt>
      <trkpt lat="46.2538" lon="4.64077">
        <ele>615</ele>
        <time>2012-11-11T08:59:00Z</time>
      </trkpt>
      <trkpt lat="46.25376" lon="4.64061">
        <ele>614</ele>
        <time>2012-11-11T08:59:04Z</time>
      </trkpt>
      <trkpt lat="46.25369" lon="4.64032">
        <ele>615</ele>
        <time>2012-11-11T08:59:11Z</time>
      </trkpt>
      <trkpt lat="46.25368" lon="4.64028">
        <ele>615</ele>
        <time>2012-11-11T08:59:12Z</time>
      </trkpt>
      <trkpt lat="46.25362" lon="4.63999">
        <ele>617</ele>
        <time>2012-11-11T08:59:19Z</time>
      </trkpt>
      <trkpt lat="46.25357" lon="4.63978">
        <ele>617</ele>
        <time>2012-11-11T08:59:24Z</time>
      </trkpt>
      <trkpt lat="46.25353" lon="4.63966">
        <ele>617</ele>
        <time>2012-11-11T08:59:27Z</time>
      </trkpt>
      <trkpt lat="46.25341" lon="4.63933">
        <ele>619</ele>
        <time>2012-11-11T08:59:36Z</time>
      </trkpt>
      <trkpt lat="46.25341" lon="4.63929">
        <ele>619</ele>
        <time>2012-11-11T08:59:37Z</time>
      </trkpt>
      <trkpt lat="46.25333" lon="4.63908">
        <ele>619</ele>
        <time>2012-11-11T08:59:43Z</time>
      </trkpt>
      <trkpt lat="46.25322" lon="4.63883">
        <ele>619</ele>
        <time>2012-11-11T08:59:51Z</time>
      </trkpt>
      <trkpt lat="46.25321" lon="4.6388">
        <ele>619</ele>
        <time>2012-11-11T08:59:52Z</time>
      </trkpt>
      <trkpt lat="46.25309" lon="4.63857">
        <ele>619</ele>
        <time>2012-11-11T09:00:01Z</time>
      </trkpt>
      <trkpt lat="46.25301" lon="4.63839">
        <ele>620</ele>
        <time>2012-11-11T09:00:08Z</time>
      </trkpt>
      <trkpt lat="46.25299" lon="4.63836">
        <ele>620</ele>
        <time>2012-11-11T09:00:09Z</time>
      </trkpt>
      <trkpt lat="46.25289" lon="4.63811">
        <ele>624</ele>
        <time>2012-11-11T09:00:17Z</time>
      </trkpt>
      <trkpt lat="46.25282" lon="4.63792">
        <ele>625</ele>
        <time>2012-11-11T09:00:23Z</time>
      </trkpt>
      <trkpt lat="46.25275" lon="4.63783">
        <ele>626</ele>
        <time>2012-11-11T09:00:27Z</time>
      </trkpt>
      <trkpt lat="46.25261" lon="4.6377">
        <ele>628</ele>
        <time>2012-11-11T09:00:34Z</time>
      </trkpt>
      <trkpt lat="46.25251" lon="4.63761">
        <ele>629</ele>
        <time>2012-11-11T09:00:39Z</time>
      </trkpt>
      <trkpt lat="46.25248" lon="4.63756">
        <ele>631</ele>
        <time>2012-11-11T09:00:41Z</time>
      </trkpt>
      <trkpt lat="46.25241" lon="4.6375">
        <ele>634</ele>
        <time>2012-11-11T09:00:46Z</time>
      </trkpt>
      <trkpt lat="46.25233" lon="4.63746">
        <ele>635</ele>
        <time>2012-11-11T09:00:53Z</time>
      </trkpt>
      <trkpt lat="46.25227" lon="4.63744">
        <ele>635</ele>
        <time>2012-11-11T09:00:58Z</time>
      </trkpt>
      <trkpt lat="46.25225" lon="4.63742">
        <ele>635</ele>
        <time>2012-11-11T09:01:00Z</time>
      </trkpt>
      <trkpt lat="46.25219" lon="4.63737">
        <ele>636</ele>
        <time>2012-11-11T09:01:06Z</time>
      </trkpt>
      <trkpt lat="46.25211" lon="4.63732">
        <ele>637</ele>
        <time>2012-11-11T09:01:13Z</time>
      </trkpt>
      <trkpt lat="46.25206" lon="4.63727">
        <ele>637</ele>
        <time>2012-11-11T09:01:20Z</time>
      </trkpt>
      <trkpt lat="46.25198" lon="4.63721">
        <ele>637</ele>
        <time>2012-11-11T09:01:26Z</time>
      </trkpt>
      <trkpt lat="46.25187" lon="4.6371">
        <ele>638</ele>
        <time>2012-11-11T09:01:34Z</time>
      </trkpt>
      <trkpt lat="46.25176" lon="4.63698">
        <ele>640</ele>
        <time>2012-11-11T09:01:41Z</time>
      </trkpt>
      <trkpt lat="46.25164" lon="4.63688">
        <ele>644</ele>
        <time>2012-11-11T09:01:50Z</time>
      </trkpt>
      <trkpt lat="46.25155" lon="4.63685">
        <ele>644</ele>
        <time>2012-11-11T09:01:57Z</time>
      </trkpt>
      <trkpt lat="46.25154" lon="4.63684">
        <ele>644</ele>
        <time>2012-11-11T09:01:58Z</time>
      </trkpt>
      <trkpt lat="46.25146" lon="4.63681">
        <ele>644</ele>
        <time>2012-11-11T09:02:05Z</time>
      </trkpt>
      <trkpt lat="46.2514" lon="4.63677">
        <ele>644</ele>
        <time>2012-11-11T09:02:10Z</time>
      </trkpt>
      <trkpt lat="46.25139" lon="4.63676">
        <ele>644</ele>
        <time>2012-11-11T09:02:11Z</time>
      </trkpt>
      <trkpt lat="46.25132" lon="4.63672">
        <ele>644</ele>
        <time>2012-11-11T09:02:18Z</time>
      </trkpt>
      <trkpt lat="46.25124" lon="4.63662">
        <ele>653</ele>
        <time>2012-11-11T09:02:24Z</time>
      </trkpt>
      <trkpt lat="46.25122" lon="4.63661">
        <ele>653</ele>
        <time>2012-11-11T09:02:25Z</time>
      </trkpt>
      <trkpt lat="46.25116" lon="4.63653">
        <ele>653</ele>
        <time>2012-11-11T09:02:32Z</time>
      </trkpt>
      <trkpt lat="46.25108" lon="4.63647">
        <ele>653</ele>
        <time>2012-11-11T09:02:40Z</time>
      </trkpt>
      <trkpt lat="46.25102" lon="4.6364">
        <ele>654</ele>
        <time>2012-11-11T09:02:47Z</time>
      </trkpt>
      <trkpt lat="46.25093" lon="4.6363">
        <ele>655</ele>
        <time>2012-11-11T09:02:55Z</time>
      </trkpt>
      <trkpt lat="46.25085" lon="4.63623">
        <ele>656</ele>
        <time>2012-11-11T09:03:04Z</time>
      </trkpt>
      <trkpt lat="46.25081" lon="4.63616">
        <ele>660</ele>
        <time>2012-11-11T09:03:09Z</time>
      </trkpt>
      <trkpt lat="46.25078" lon="4.63612">
        <ele>660</ele>
        <time>2012-11-11T09:03:13Z</time>
      </trkpt>
      <trkpt lat="46.25078" lon="4.63607">
        <ele>661</ele>
        <time>2012-11-11T09:03:15Z</time>
      </trkpt>
      <trkpt lat="46.25075" lon="4.63599">
        <ele>662</ele>
        <time>2012-11-11T09:03:20Z</time>
      </trkpt>
      <trkpt lat="46.25069" lon="4.63597">
        <ele>662</ele>
        <time>2012-11-11T09:03:24Z</time>
      </trkpt>
      <trkpt lat="46.25067" lon="4.63597">
        <ele>662</ele>
        <time>2012-11-11T09:03:25Z</time>
      </trkpt>
      <trkpt lat="46.25061" lon="4.63594">
        <ele>662</ele>
        <time>2012-11-11T09:03:30Z</time>
      </trkpt>
      <trkpt lat="46.25058" lon="4.63592">
        <ele>662</ele>
        <time>2012-11-11T09:03:33Z</time>
      </trkpt>
      <trkpt lat="46.25049" lon="4.6359">
        <ele>662</ele>
        <time>2012-11-11T09:03:41Z</time>
      </trkpt>
      <trkpt lat="46.25038" lon="4.63586">
        <ele>663</ele>
        <time>2012-11-11T09:03:50Z</time>
      </trkpt>
      <trkpt lat="46.25034" lon="4.63585">
        <ele>663</ele>
        <time>2012-11-11T09:03:53Z</time>
      </trkpt>
      <trkpt lat="46.25026" lon="4.63582">
        <ele>670</ele>
        <time>2012-11-11T09:03:58Z</time>
      </trkpt>
      <trkpt lat="46.25017" lon="4.63577">
        <ele>670</ele>
        <time>2012-11-11T09:04:05Z</time>
      </trkpt>
      <trkpt lat="46.25007" lon="4.63566">
        <ele>670</ele>
        <time>2012-11-11T09:04:13Z</time>
      </trkpt>
      <trkpt lat="46.25001" lon="4.63561">
        <ele>671</ele>
        <time>2012-11-11T09:04:17Z</time>
      </trkpt>
      <trkpt lat="46.24996" lon="4.63558">
        <ele>674</ele>
        <time>2012-11-11T09:04:21Z</time>
      </trkpt>
      <trkpt lat="46.24985" lon="4.63549">
        <ele>675</ele>
        <time>2012-11-11T09:04:29Z</time>
      </trkpt>
      <trkpt lat="46.24973" lon="4.63543">
        <ele>675</ele>
        <time>2012-11-11T09:04:38Z</time>
      </trkpt>
      <trkpt lat="46.24968" lon="4.63541">
        <ele>676</ele>
        <time>2012-11-11T09:04:42Z</time>
      </trkpt>
      <trkpt lat="46.24962" lon="4.63539">
        <ele>676</ele>
        <time>2012-11-11T09:04:46Z</time>
      </trkpt>
      <trkpt lat="46.24952" lon="4.63536">
        <ele>676</ele>
        <time>2012-11-11T09:04:53Z</time>
      </trkpt>
      <trkpt lat="46.24937" lon="4.63532">
        <ele>677</ele>
        <time>2012-11-11T09:05:02Z</time>
      </trkpt>
      <trkpt lat="46.24931" lon="4.63529">
        <ele>678</ele>
        <time>2012-11-11T09:05:06Z</time>
      </trkpt>
      <trkpt lat="46.24926" lon="4.63526">
        <ele>678</ele>
        <time>2012-11-11T09:05:09Z</time>
      </trkpt>
      <trkpt lat="46.24921" lon="4.63513">
        <ele>680</ele>
        <time>2012-11-11T09:05:15Z</time>
      </trkpt>
      <trkpt lat="46.24919" lon="4.635">
        <ele>682</ele>
        <time>2012-11-11T09:05:20Z</time>
      </trkpt>
      <trkpt lat="46.24918" lon="4.63492">
        <ele>681</ele>
        <time>2012-11-11T09:05:23Z</time>
      </trkpt>
      <trkpt lat="46.2492" lon="4.63485">
        <ele>681</ele>
        <time>2012-11-11T09:05:26Z</time>
      </trkpt>
      <trkpt lat="46.2492" lon="4.63483">
        <ele>681</ele>
        <time>2012-11-11T09:05:27Z</time>
      </trkpt>
      <trkpt lat="46.24919" lon="4.63472">
        <ele>681</ele>
        <time>2012-11-11T09:05:32Z</time>
      </trkpt>
      <trkpt lat="46.2492" lon="4.63469">
        <ele>681</ele>
        <time>2012-11-11T09:05:36Z</time>
      </trkpt>
      <trkpt lat="46.2492" lon="4.63463">
        <ele>681</ele>
        <time>2012-11-11T09:06:20Z</time>
      </trkpt>
      <trkpt lat="46.24923" lon="4.63449">
        <ele>681</ele>
        <time>2012-11-11T09:06:26Z</time>
      </trkpt>
      <trkpt lat="46.24926" lon="4.63434">
        <ele>681</ele>
        <time>2012-11-11T09:06:31Z</time>
      </trkpt>
      <trkpt lat="46.24926" lon="4.63431">
        <ele>681</ele>
        <time>2012-11-11T09:06:32Z</time>
      </trkpt>
      <trkpt lat="46.24926" lon="4.63429">
        <ele>681</ele>
        <time>2012-11-11T09:06:33Z</time>
      </trkpt>
      <trkpt lat="46.24921" lon="4.63423">
        <ele>681</ele>
        <time>2012-11-11T09:06:36Z</time>
      </trkpt>
      <trkpt lat="46.24919" lon="4.63421">
        <ele>682</ele>
        <time>2012-11-11T09:06:37Z</time>
      </trkpt>
      <trkpt lat="46.24907" lon="4.63411">
        <ele>683</ele>
        <time>2012-11-11T09:06:42Z</time>
      </trkpt>
      <trkpt lat="46.24898" lon="4.63403">
        <ele>683</ele>
        <time>2012-11-11T09:06:46Z</time>
      </trkpt>
      <trkpt lat="46.2489" lon="4.63394">
        <ele>684</ele>
        <time>2012-11-11T09:06:50Z</time>
      </trkpt>
      <trkpt lat="46.24873" lon="4.63376">
        <ele>684</ele>
        <time>2012-11-11T09:06:58Z</time>
      </trkpt>
      <trkpt lat="46.24867" lon="4.63371">
        <ele>685</ele>
        <time>2012-11-11T09:07:01Z</time>
      </trkpt>
      <trkpt lat="46.24859" lon="4.63363">
        <ele>685</ele>
        <time>2012-11-11T09:07:05Z</time>
      </trkpt>
      <trkpt lat="46.24849" lon="4.63352">
        <ele>686</ele>
        <time>2012-11-11T09:07:11Z</time>
      </trkpt>
      <trkpt lat="46.24841" lon="4.6334">
        <ele>687</ele>
        <time>2012-11-11T09:07:19Z</time>
      </trkpt>
      <trkpt lat="46.24839" lon="4.63336">
        <ele>687</ele>
        <time>2012-11-11T09:07:21Z</time>
      </trkpt>
      <trkpt lat="46.24833" lon="4.63325">
        <ele>690</ele>
        <time>2012-11-11T09:07:28Z</time>
      </trkpt>
      <trkpt lat="46.24827" lon="4.6331">
        <ele>692</ele>
        <time>2012-11-11T09:07:36Z</time>
      </trkpt>
      <trkpt lat="46.24821" lon="4.63293">
        <ele>693</ele>
        <time>2012-11-11T09:07:45Z</time>
      </trkpt>
      <trkpt lat="46.2482" lon="4.63291">
        <ele>693</ele>
        <time>2012-11-11T09:07:46Z</time>
      </trkpt>
      <trkpt lat="46.24816" lon="4.63279">
        <ele>693</ele>
        <time>2012-11-11T09:07:52Z</time>
      </trkpt>
      <trkpt lat="46.24813" lon="4.63268">
        <ele>693</ele>
        <time>2012-11-11T09:07:58Z</time>
      </trkpt>
      <trkpt lat="46.24813" lon="4.63265">
        <ele>693</ele>
        <time>2012-11-11T09:07:59Z</time>
      </trkpt>
      <trkpt lat="46.2481" lon="4.63256">
        <ele>694</ele>
        <time>2012-11-11T09:08:04Z</time>
      </trkpt>
      <trkpt lat="46.24809" lon="4.63251">
        <ele>694</ele>
        <time>2012-11-11T09:08:07Z</time>
      </trkpt>
      <trkpt lat="46.24806" lon="4.63243">
        <ele>696</ele>
        <time>2012-11-11T09:08:11Z</time>
      </trkpt>
      <trkpt lat="46.24805" lon="4.63237">
        <ele>697</ele>
        <time>2012-11-11T09:08:14Z</time>
      </trkpt>
      <trkpt lat="46.24803" lon="4.6322">
        <ele>698</ele>
        <time>2012-11-11T09:08:22Z</time>
      </trkpt>
      <trkpt lat="46.24801" lon="4.63202">
        <ele>698</ele>
        <time>2012-11-11T09:08:30Z</time>
      </trkpt>
      <trkpt lat="46.24803" lon="4.63192">
        <ele>698</ele>
        <time>2012-11-11T09:08:35Z</time>
      </trkpt>
      <trkpt lat="46.24803" lon="4.63188">
        <ele>698</ele>
        <time>2012-11-11T09:08:37Z</time>
      </trkpt>
      <trkpt lat="46.24805" lon="4.63174">
        <ele>699</ele>
        <time>2012-11-11T09:08:44Z</time>
      </trkpt>
      <trkpt lat="46.24806" lon="4.6316">
        <ele>700</ele>
        <time>2012-11-11T09:08:51Z</time>
      </trkpt>
      <trkpt lat="46.24805" lon="4.6315">
        <ele>701</ele>
        <time>2012-11-11T09:08:57Z</time>
      </trkpt>
      <trkpt lat="46.24805" lon="4.63146">
        <ele>701</ele>
        <time>2012-11-11T09:08:59Z</time>
      </trkpt>
      <trkpt lat="46.24807" lon="4.6314">
        <ele>701</ele>
        <time>2012-11-11T09:09:03Z</time>
      </trkpt>
      <trkpt lat="46.24808" lon="4.63139">
        <ele>701</ele>
        <time>2012-11-11T09:09:04Z</time>
      </trkpt>
      <trkpt lat="46.24812" lon="4.63129">
        <ele>701</ele>
        <time>2012-11-11T09:09:11Z</time>
      </trkpt>
      <trkpt lat="46.24817" lon="4.63113">
        <ele>702</ele>
        <time>2012-11-11T09:09:19Z</time>
      </trkpt>
      <trkpt lat="46.24819" lon="4.63098">
        <ele>703</ele>
        <time>2012-11-11T09:09:26Z</time>
      </trkpt>
      <trkpt lat="46.2482" lon="4.63091">
        <ele>703</ele>
        <time>2012-11-11T09:09:29Z</time>
      </trkpt>
      <trkpt lat="46.24823" lon="4.63081">
        <ele>704</ele>
        <time>2012-11-11T09:09:34Z</time>
      </trkpt>
      <trkpt lat="46.24827" lon="4.63063">
        <ele>704</ele>
        <time>2012-11-11T09:09:42Z</time>
      </trkpt>
      <trkpt lat="46.24833" lon="4.63045">
        <ele>704</ele>
        <time>2012-11-11T09:09:50Z</time>
      </trkpt>
      <trkpt lat="46.24833" lon="4.63042">
        <ele>704</ele>
        <time>2012-11-11T09:09:51Z</time>
      </trkpt>
      <trkpt lat="46.24836" lon="4.63029">
        <ele>705</ele>
        <time>2012-11-11T09:09:57Z</time>
      </trkpt>
      <trkpt lat="46.24841" lon="4.63015">
        <ele>706</ele>
        <time>2012-11-11T09:10:04Z</time>
      </trkpt>
      <trkpt lat="46.24845" lon="4.63002">
        <ele>706</ele>
        <time>2012-11-11T09:10:10Z</time>
      </trkpt>
      <trkpt lat="46.24847" lon="4.62994">
        <ele>708</ele>
        <time>2012-11-11T09:10:13Z</time>
      </trkpt>
      <trkpt lat="46.24848" lon="4.62985">
        <ele>708</ele>
        <time>2012-11-11T09:10:17Z</time>
      </trkpt>
      <trkpt lat="46.24849" lon="4.62973">
        <ele>708</ele>
        <time>2012-11-11T09:10:22Z</time>
      </trkpt>
      <trkpt lat="46.24852" lon="4.62954">
        <ele>708</ele>
        <time>2012-11-11T09:10:30Z</time>
      </trkpt>
      <trkpt lat="46.24854" lon="4.62942">
        <ele>708</ele>
        <time>2012-11-11T09:10:35Z</time>
      </trkpt>
      <trkpt lat="46.24856" lon="4.6293">
        <ele>708</ele>
        <time>2012-11-11T09:10:40Z</time>
      </trkpt>
      <trkpt lat="46.24859" lon="4.62909">
        <ele>710</ele>
        <time>2012-11-11T09:10:49Z</time>
      </trkpt>
      <trkpt lat="46.24862" lon="4.62891">
        <ele>711</ele>
        <time>2012-11-11T09:10:57Z</time>
      </trkpt>
      <trkpt lat="46.24863" lon="4.62888">
        <ele>711</ele>
        <time>2012-11-11T09:10:58Z</time>
      </trkpt>
      <trkpt lat="46.24868" lon="4.62867">
        <ele>711</ele>
        <time>2012-11-11T09:11:07Z</time>
      </trkpt>
      <trkpt lat="46.24872" lon="4.62845">
        <ele>711</ele>
        <time>2012-11-11T09:11:16Z</time>
      </trkpt>
      <trkpt lat="46.24873" lon="4.6284">
        <ele>711</ele>
        <time>2012-11-11T09:11:18Z</time>
      </trkpt>
      <trkpt lat="46.24876" lon="4.62818">
        <ele>713</ele>
        <time>2012-11-11T09:11:27Z</time>
      </trkpt>
      <trkpt lat="46.24878" lon="4.62798">
        <ele>713</ele>
        <time>2012-11-11T09:11:34Z</time>
      </trkpt>
      <trkpt lat="46.24878" lon="4.62789">
        <ele>713</ele>
        <time>2012-11-11T09:11:37Z</time>
      </trkpt>
      <trkpt lat="46.2488" lon="4.62772">
        <ele>714</ele>
        <time>2012-11-11T09:11:43Z</time>
      </trkpt>
      <trkpt lat="46.24881" lon="4.62751">
        <ele>714</ele>
        <time>2012-11-11T09:11:49Z</time>
      </trkpt>
      <trkpt lat="46.24882" lon="4.62737">
        <ele>716</ele>
        <time>2012-11-11T09:11:53Z</time>
      </trkpt>
      <trkpt lat="46.24883" lon="4.62726">
        <ele>716</ele>
        <time>2012-11-11T09:11:56Z</time>
      </trkpt>
      <trkpt lat="46.24888" lon="4.62703">
        <ele>717</ele>
        <time>2012-11-11T09:12:03Z</time>
      </trkpt>
      <trkpt lat="46.24888" lon="4.62691">
        <ele>717</ele>
        <time>2012-11-11T09:12:07Z</time>
      </trkpt>
      <trkpt lat="46.24886" lon="4.6269">
        <ele>717</ele>
        <time>2012-11-11T09:12:08Z</time>
      </trkpt>
      <trkpt lat="46.24884" lon="4.62688">
        <ele>717</ele>
        <time>2012-11-11T09:12:09Z</time>
      </trkpt>
      <trkpt lat="46.24873" lon="4.62677">
        <ele>717</ele>
        <time>2012-11-11T09:12:13Z</time>
      </trkpt>
      <trkpt lat="46.24867" lon="4.62669">
        <ele>717</ele>
        <time>2012-11-11T09:12:15Z</time>
      </trkpt>
      <trkpt lat="46.24858" lon="4.62653">
        <ele>720</ele>
        <time>2012-11-11T09:12:18Z</time>
      </trkpt>
      <trkpt lat="46.24834" lon="4.6261">
        <ele>721</ele>
        <time>2012-11-11T09:12:26Z</time>
      </trkpt>
      <trkpt lat="46.2482" lon="4.62585">
        <ele>718</ele>
        <time>2012-11-11T09:12:32Z</time>
      </trkpt>
      <trkpt lat="46.24808" lon="4.62571">
        <ele>722</ele>
        <time>2012-11-11T09:12:36Z</time>
      </trkpt>
      <trkpt lat="46.24802" lon="4.62564">
        <ele>722</ele>
        <time>2012-11-11T09:12:38Z</time>
      </trkpt>
      <trkpt lat="46.24787" lon="4.62545">
        <ele>722</ele>
        <time>2012-11-11T09:12:44Z</time>
      </trkpt>
      <trkpt lat="46.24777" lon="4.62539">
        <ele>722</ele>
        <time>2012-11-11T09:12:47Z</time>
      </trkpt>
      <trkpt lat="46.24773" lon="4.62536">
        <ele>722</ele>
        <time>2012-11-11T09:12:48Z</time>
      </trkpt>
      <trkpt lat="46.24765" lon="4.62524">
        <ele>723</ele>
        <time>2012-11-11T09:12:52Z</time>
      </trkpt>
      <trkpt lat="46.24763" lon="4.6251">
        <ele>724</ele>
        <time>2012-11-11T09:12:58Z</time>
      </trkpt>
      <trkpt lat="46.24765" lon="4.62503">
        <ele>724</ele>
        <time>2012-11-11T09:13:03Z</time>
      </trkpt>
      <trkpt lat="46.24764" lon="4.62502">
        <ele>724</ele>
        <time>2012-11-11T09:13:04Z</time>
      </trkpt>
      <trkpt lat="46.24761" lon="4.62497">
        <ele>727</ele>
        <time>2012-11-11T09:13:07Z</time>
      </trkpt>
      <trkpt lat="46.24759" lon="4.62494">
        <ele>727</ele>
        <time>2012-11-11T09:13:09Z</time>
      </trkpt>
      <trkpt lat="46.24757" lon="4.62491">
        <ele>727</ele>
        <time>2012-11-11T09:13:11Z</time>
      </trkpt>
      <trkpt lat="46.24749" lon="4.62476">
        <ele>723</ele>
        <time>2012-11-11T09:13:18Z</time>
      </trkpt>
      <trkpt lat="46.24741" lon="4.62457">
        <ele>724</ele>
        <time>2012-11-11T09:13:24Z</time>
      </trkpt>
      <trkpt lat="46.2474" lon="4.62454">
        <ele>724</ele>
        <time>2012-11-11T09:13:25Z</time>
      </trkpt>
      <trkpt lat="46.24734" lon="4.62439">
        <ele>725</ele>
        <time>2012-11-11T09:13:30Z</time>
      </trkpt>
      <trkpt lat="46.24723" lon="4.62415">
        <ele>730</ele>
        <time>2012-11-11T09:13:38Z</time>
      </trkpt>
      <trkpt lat="46.24721" lon="4.62409">
        <ele>730</ele>
        <time>2012-11-11T09:13:40Z</time>
      </trkpt>
      <trkpt lat="46.24713" lon="4.62389">
        <ele>729</ele>
        <time>2012-11-11T09:13:46Z</time>
      </trkpt>
      <trkpt lat="46.247" lon="4.62362">
        <ele>729</ele>
        <time>2012-11-11T09:13:52Z</time>
      </trkpt>
      <trkpt lat="46.24679" lon="4.62328">
        <ele>732</ele>
        <time>2012-11-11T09:14:00Z</time>
      </trkpt>
      <trkpt lat="46.24674" lon="4.62322">
        <ele>732</ele>
        <time>2012-11-11T09:14:02Z</time>
      </trkpt>
      <trkpt lat="46.24659" lon="4.62304">
        <ele>729</ele>
        <time>2012-11-11T09:14:08Z</time>
      </trkpt>
      <trkpt lat="46.24646" lon="4.62288">
        <ele>730</ele>
        <time>2012-11-11T09:14:15Z</time>
      </trkpt>
      <trkpt lat="46.24633" lon="4.62283">
        <ele>730</ele>
        <time>2012-11-11T09:14:21Z</time>
      </trkpt>
      <trkpt lat="46.24621" lon="4.62283">
        <ele>729</ele>
        <time>2012-11-11T09:14:24Z</time>
      </trkpt>
      <trkpt lat="46.24613" lon="4.62282">
        <ele>729</ele>
        <time>2012-11-11T09:14:26Z</time>
      </trkpt>
      <trkpt lat="46.24609" lon="4.62281">
        <ele>729</ele>
        <time>2012-11-11T09:14:27Z</time>
      </trkpt>
      <trkpt lat="46.2459" lon="4.6228">
        <ele>729</ele>
        <time>2012-11-11T09:14:31Z</time>
      </trkpt>
      <trkpt lat="46.24573" lon="4.6228">
        <ele>726</ele>
        <time>2012-11-11T09:14:35Z</time>
      </trkpt>
      <trkpt lat="46.24568" lon="4.6228">
        <ele>725</ele>
        <time>2012-11-11T09:14:36Z</time>
      </trkpt>
      <trkpt lat="46.24533" lon="4.62273">
        <ele>724</ele>
        <time>2012-11-11T09:14:43Z</time>
      </trkpt>
      <trkpt lat="46.24529" lon="4.62273">
        <ele>724</ele>
        <time>2012-11-11T09:14:44Z</time>
      </trkpt>
      <trkpt lat="46.24513" lon="4.62271">
        <ele>724</ele>
        <time>2012-11-11T09:14:47Z</time>
      </trkpt>
      <trkpt lat="46.245" lon="4.62269">
        <ele>720</ele>
        <time>2012-11-11T09:14:49Z</time>
      </trkpt>
      <trkpt lat="46.24492" lon="4.62267">
        <ele>720</ele>
        <time>2012-11-11T09:14:50Z</time>
      </trkpt>
      <trkpt lat="46.24461" lon="4.62265">
        <ele>718</ele>
        <time>2012-11-11T09:14:54Z</time>
      </trkpt>
      <trkpt lat="46.24453" lon="4.62265">
        <ele>718</ele>
        <time>2012-11-11T09:14:55Z</time>
      </trkpt>
      <trkpt lat="46.24445" lon="4.62264">
        <ele>717</ele>
        <time>2012-11-11T09:14:56Z</time>
      </trkpt>
      <trkpt lat="46.24419" lon="4.62261">
        <ele>715</ele>
        <time>2012-11-11T09:14:59Z</time>
      </trkpt>
      <trkpt lat="46.24411" lon="4.6226">
        <ele>713</ele>
        <time>2012-11-11T09:15:00Z</time>
      </trkpt>
      <trkpt lat="46.24391" lon="4.6226">
        <ele>713</ele>
        <time>2012-11-11T09:15:03Z</time>
      </trkpt>
      <trkpt lat="46.2438" lon="4.62261">
        <ele>712</ele>
        <time>2012-11-11T09:15:06Z</time>
      </trkpt>
      <trkpt lat="46.24374" lon="4.62261">
        <ele>712</ele>
        <time>2012-11-11T09:15:08Z</time>
      </trkpt>
      <trkpt lat="46.24359" lon="4.62262">
        <ele>711</ele>
        <time>2012-11-11T09:15:12Z</time>
      </trkpt>
      <trkpt lat="46.24335" lon="4.62259">
        <ele>710</ele>
        <time>2012-11-11T09:15:17Z</time>
      </trkpt>
      <trkpt lat="46.24301" lon="4.62258">
        <ele>709</ele>
        <time>2012-11-11T09:15:23Z</time>
      </trkpt>
      <trkpt lat="46.24295" lon="4.62258">
        <ele>709</ele>
        <time>2012-11-11T09:15:24Z</time>
      </trkpt>
      <trkpt lat="46.24277" lon="4.62257">
        <ele>709</ele>
        <time>2012-11-11T09:15:27Z</time>
      </trkpt>
      <trkpt lat="46.24271" lon="4.62255">
        <ele>708</ele>
        <time>2012-11-11T09:15:28Z</time>
      </trkpt>
      <trkpt lat="46.24254" lon="4.62252">
        <ele>707</ele>
        <time>2012-11-11T09:15:31Z</time>
      </trkpt>
      <trkpt lat="46.24249" lon="4.62251">
        <ele>707</ele>
        <time>2012-11-11T09:15:32Z</time>
      </trkpt>
      <trkpt lat="46.24243" lon="4.62251">
        <ele>706</ele>
        <time>2012-11-11T09:15:33Z</time>
      </trkpt>
      <trkpt lat="46.2422" lon="4.62253">
        <ele>704</ele>
        <time>2012-11-11T09:15:37Z</time>
      </trkpt>
      <trkpt lat="46.24213" lon="4.62252">
        <ele>703</ele>
        <time>2012-11-11T09:15:38Z</time>
      </trkpt>
      <trkpt lat="46.24192" lon="4.6225">
        <ele>698</ele>
        <time>2012-11-11T09:15:41Z</time>
      </trkpt>
      <trkpt lat="46.2417" lon="4.62247">
        <ele>697</ele>
        <time>2012-11-11T09:15:44Z</time>
      </trkpt>
      <trkpt lat="46.24156" lon="4.62245">
        <ele>692</ele>
        <time>2012-11-11T09:15:46Z</time>
      </trkpt>
      <trkpt lat="46.24129" lon="4.62244">
        <ele>687</ele>
        <time>2012-11-11T09:15:50Z</time>
      </trkpt>
      <trkpt lat="46.24123" lon="4.62243">
        <ele>686</ele>
        <time>2012-11-11T09:15:51Z</time>
      </trkpt>
      <trkpt lat="46.24098" lon="4.62241">
        <ele>683</ele>
        <time>2012-11-11T09:15:55Z</time>
      </trkpt>
      <trkpt lat="46.24091" lon="4.62241">
        <ele>682</ele>
        <time>2012-11-11T09:15:56Z</time>
      </trkpt>
      <trkpt lat="46.2406" lon="4.6224">
        <ele>675</ele>
        <time>2012-11-11T09:16:01Z</time>
      </trkpt>
      <trkpt lat="46.24054" lon="4.62241">
        <ele>674</ele>
        <time>2012-11-11T09:16:02Z</time>
      </trkpt>
      <trkpt lat="46.24043" lon="4.62241">
        <ele>673</ele>
        <time>2012-11-11T09:16:04Z</time>
      </trkpt>
      <trkpt lat="46.24031" lon="4.6224">
        <ele>671</ele>
        <time>2012-11-11T09:16:06Z</time>
      </trkpt>
      <trkpt lat="46.24014" lon="4.62239">
        <ele>670</ele>
        <time>2012-11-11T09:16:08Z</time>
      </trkpt>
      <trkpt lat="46.23998" lon="4.62235">
        <ele>666</ele>
        <time>2012-11-11T09:16:10Z</time>
      </trkpt>
      <trkpt lat="46.2399" lon="4.62233">
        <ele>666</ele>
        <time>2012-11-11T09:16:11Z</time>
      </trkpt>
      <trkpt lat="46.23977" lon="4.62233">
        <ele>665</ele>
        <time>2012-11-11T09:16:13Z</time>
      </trkpt>
      <trkpt lat="46.23958" lon="4.62242">
        <ele>665</ele>
        <time>2012-11-11T09:16:17Z</time>
      </trkpt>
      <trkpt lat="46.23949" lon="4.62245">
        <ele>665</ele>
        <time>2012-11-11T09:16:19Z</time>
      </trkpt>
      <trkpt lat="46.23944" lon="4.62246">
        <ele>665</ele>
        <time>2012-11-11T09:16:20Z</time>
      </trkpt>
      <trkpt lat="46.2394" lon="4.62247">
        <ele>664</ele>
        <time>2012-11-11T09:16:21Z</time>
      </trkpt>
      <trkpt lat="46.23936" lon="4.62248">
        <ele>664</ele>
        <time>2012-11-11T09:16:22Z</time>
      </trkpt>
      <trkpt lat="46.2392" lon="4.62249">
        <ele>664</ele>
        <time>2012-11-11T09:16:27Z</time>
      </trkpt>
      <trkpt lat="46.23906" lon="4.62242">
        <ele>665</ele>
        <time>2012-11-11T09:16:33Z</time>
      </trkpt>
      <trkpt lat="46.23904" lon="4.62242">
        <ele>665</ele>
        <time>2012-11-11T09:16:34Z</time>
      </trkpt>
      <trkpt lat="46.2389" lon="4.6224">
        <ele>666</ele>
        <time>2012-11-11T09:16:41Z</time>
      </trkpt>
      <trkpt lat="46.2388" lon="4.62241">
        <ele>667</ele>
        <time>2012-11-11T09:16:48Z</time>
      </trkpt>
      <trkpt lat="46.2387" lon="4.62244">
        <ele>667</ele>
        <time>2012-11-11T09:16:54Z</time>
      </trkpt>
      <trkpt lat="46.23867" lon="4.62245">
        <ele>667</ele>
        <time>2012-11-11T09:16:56Z</time>
      </trkpt>
      <trkpt lat="46.23863" lon="4.62247">
        <ele>668</ele>
        <time>2012-11-11T09:16:59Z</time>
      </trkpt>
      <trkpt lat="46.23857" lon="4.6225">
        <ele>669</ele>
        <time>2012-11-11T09:17:04Z</time>
      </trkpt>
      <trkpt lat="46.23856" lon="4.6225">
        <ele>669</ele>
        <time>2012-11-11T09:17:05Z</time>
      </trkpt>
      <trkpt lat="46.23851" lon="4.62252">
        <ele>670</ele>
        <time>2012-11-11T09:17:09Z</time>
      </trkpt>
      <trkpt lat="46.23848" lon="4.62254">
        <ele>670</ele>
        <time>2012-11-11T09:17:11Z</time>
      </trkpt>
      <trkpt lat="46.23839" lon="4.62258">
        <ele>670</ele>
        <time>2012-11-11T09:17:18Z</time>
      </trkpt>
      <trkpt lat="46.23832" lon="4.62261">
        <ele>673</ele>
        <time>2012-11-11T09:17:23Z</time>
      </trkpt>
      <trkpt lat="46.23829" lon="4.62263">
        <ele>673</ele>
        <time>2012-11-11T09:17:25Z</time>
      </trkpt>
      <trkpt lat="46.23817" lon="4.62264">
        <ele>673</ele>
        <time>2012-11-11T09:17:32Z</time>
      </trkpt>
      <trkpt lat="46.23806" lon="4.62271">
        <ele>673</ele>
        <time>2012-11-11T09:17:39Z</time>
      </trkpt>
      <trkpt lat="46.23798" lon="4.62277">
        <ele>673</ele>
        <time>2012-11-11T09:17:43Z</time>
      </trkpt>
      <trkpt lat="46.23794" lon="4.62282">
        <ele>674</ele>
        <time>2012-11-11T09:17:46Z</time>
      </trkpt>
      <trkpt lat="46.23778" lon="4.62294">
        <ele>674</ele>
        <time>2012-11-11T09:17:54Z</time>
      </trkpt>
      <trkpt lat="46.23767" lon="4.62305">
        <ele>675</ele>
        <time>2012-11-11T09:18:00Z</time>
      </trkpt>
      <trkpt lat="46.23763" lon="4.62308">
        <ele>675</ele>
        <time>2012-11-11T09:18:02Z</time>
      </trkpt>
      <trkpt lat="46.2375" lon="4.62318">
        <ele>677</ele>
        <time>2012-11-11T09:18:08Z</time>
      </trkpt>
      <trkpt lat="46.23733" lon="4.62326">
        <ele>677</ele>
        <time>2012-11-11T09:18:14Z</time>
      </trkpt>
      <trkpt lat="46.23715" lon="4.62333">
        <ele>677</ele>
        <time>2012-11-11T09:18:21Z</time>
      </trkpt>
      <trkpt lat="46.23701" lon="4.62337">
        <ele>681</ele>
        <time>2012-11-11T09:18:26Z</time>
      </trkpt>
      <trkpt lat="46.23696" lon="4.62339">
        <ele>681</ele>
        <time>2012-11-11T09:18:28Z</time>
      </trkpt>
      <trkpt lat="46.23687" lon="4.62342">
        <ele>681</ele>
        <time>2012-11-11T09:18:32Z</time>
      </trkpt>
      <trkpt lat="46.2367" lon="4.6234">
        <ele>681</ele>
        <time>2012-11-11T09:18:38Z</time>
      </trkpt>
      <trkpt lat="46.23658" lon="4.62337">
        <ele>682</ele>
        <time>2012-11-11T09:18:42Z</time>
      </trkpt>
      <trkpt lat="46.23655" lon="4.62336">
        <ele>683</ele>
        <time>2012-11-11T09:18:43Z</time>
      </trkpt>
      <trkpt lat="46.23632" lon="4.62334">
        <ele>685</ele>
        <time>2012-11-11T09:18:50Z</time>
      </trkpt>
      <trkpt lat="46.23621" lon="4.62332">
        <ele>679</ele>
        <time>2012-11-11T09:18:53Z</time>
      </trkpt>
      <trkpt lat="46.23615" lon="4.6233">
        <ele>679</ele>
        <time>2012-11-11T09:18:55Z</time>
      </trkpt>
      <trkpt lat="46.23598" lon="4.6233">
        <ele>681</ele>
        <time>2012-11-11T09:18:59Z</time>
      </trkpt>
      <trkpt lat="46.23584" lon="4.62326">
        <ele>682</ele>
        <time>2012-11-11T09:19:03Z</time>
      </trkpt>
      <trkpt lat="46.23563" lon="4.62316">
        <ele>684</ele>
        <time>2012-11-11T09:19:08Z</time>
      </trkpt>
      <trkpt lat="46.23546" lon="4.62305">
        <ele>684</ele>
        <time>2012-11-11T09:19:12Z</time>
      </trkpt>
      <trkpt lat="46.23542" lon="4.62302">
        <ele>684</ele>
        <time>2012-11-11T09:19:13Z</time>
      </trkpt>
      <trkpt lat="46.23538" lon="4.623">
        <ele>684</ele>
        <time>2012-11-11T09:19:14Z</time>
      </trkpt>
      <trkpt lat="46.23515" lon="4.62285">
        <ele>684</ele>
        <time>2012-11-11T09:19:20Z</time>
      </trkpt>
      <trkpt lat="46.23511" lon="4.62282">
        <ele>684</ele>
        <time>2012-11-11T09:19:21Z</time>
      </trkpt>
      <trkpt lat="46.23491" lon="4.62268">
        <ele>687</ele>
        <time>2012-11-11T09:19:27Z</time>
      </trkpt>
      <trkpt lat="46.2348" lon="4.62267">
        <ele>688</ele>
        <time>2012-11-11T09:19:32Z</time>
      </trkpt>
      <trkpt lat="46.23476" lon="4.62268">
        <ele>688</ele>
        <time>2012-11-11T09:19:34Z</time>
      </trkpt>
      <trkpt lat="46.23469" lon="4.62267">
        <ele>689</ele>
        <time>2012-11-11T09:19:38Z</time>
      </trkpt>
      <trkpt lat="46.23459" lon="4.6226">
        <ele>689</ele>
        <time>2012-11-11T09:19:44Z</time>
      </trkpt>
      <trkpt lat="46.23442" lon="4.62249">
        <ele>686</ele>
        <time>2012-11-11T09:19:50Z</time>
      </trkpt>
      <trkpt lat="46.2342" lon="4.62245">
        <ele>689</ele>
        <time>2012-11-11T09:19:56Z</time>
      </trkpt>
      <trkpt lat="46.23404" lon="4.6225">
        <ele>690</ele>
        <time>2012-11-11T09:20:00Z</time>
      </trkpt>
      <trkpt lat="46.234" lon="4.62252">
        <ele>691</ele>
        <time>2012-11-11T09:20:01Z</time>
      </trkpt>
      <trkpt lat="46.23383" lon="4.62266">
        <ele>691</ele>
        <time>2012-11-11T09:20:07Z</time>
      </trkpt>
      <trkpt lat="46.23373" lon="4.62278">
        <ele>691</ele>
        <time>2012-11-11T09:20:12Z</time>
      </trkpt>
      <trkpt lat="46.23368" lon="4.62281">
        <ele>691</ele>
        <time>2012-11-11T09:20:14Z</time>
      </trkpt>
      <trkpt lat="46.23358" lon="4.6229">
        <ele>691</ele>
        <time>2012-11-11T09:20:18Z</time>
      </trkpt>
      <trkpt lat="46.23339" lon="4.623">
        <ele>691</ele>
        <time>2012-11-11T09:20:23Z</time>
      </trkpt>
      <trkpt lat="46.2332" lon="4.62312">
        <ele>689</ele>
        <time>2012-11-11T09:20:29Z</time>
      </trkpt>
      <trkpt lat="46.23306" lon="4.62321">
        <ele>688</ele>
        <time>2012-11-11T09:20:34Z</time>
      </trkpt>
      <trkpt lat="46.23303" lon="4.62323">
        <ele>688</ele>
        <time>2012-11-11T09:20:35Z</time>
      </trkpt>
      <trkpt lat="46.23285" lon="4.62334">
        <ele>693</ele>
        <time>2012-11-11T09:20:41Z</time>
      </trkpt>
      <trkpt lat="46.23272" lon="4.62348">
        <ele>693</ele>
        <time>2012-11-11T09:20:47Z</time>
      </trkpt>
      <trkpt lat="46.23271" lon="4.6235">
        <ele>693</ele>
        <time>2012-11-11T09:20:48Z</time>
      </trkpt>
      <trkpt lat="46.2326" lon="4.62361">
        <ele>693</ele>
        <time>2012-11-11T09:20:54Z</time>
      </trkpt>
      <trkpt lat="46.2325" lon="4.62367">
        <ele>691</ele>
        <time>2012-11-11T09:21:00Z</time>
      </trkpt>
      <trkpt lat="46.23238" lon="4.62374">
        <ele>691</ele>
        <time>2012-11-11T09:21:06Z</time>
      </trkpt>
      <trkpt lat="46.23236" lon="4.62375">
        <ele>691</ele>
        <time>2012-11-11T09:21:07Z</time>
      </trkpt>
      <trkpt lat="46.23217" lon="4.62386">
        <ele>691</ele>
        <time>2012-11-11T09:21:15Z</time>
      </trkpt>
      <trkpt lat="46.23203" lon="4.62391">
        <ele>691</ele>
        <time>2012-11-11T09:21:21Z</time>
      </trkpt>
      <trkpt lat="46.23186" lon="4.62397">
        <ele>690</ele>
        <time>2012-11-11T09:21:27Z</time>
      </trkpt>
      <trkpt lat="46.23171" lon="4.62408">
        <ele>690</ele>
        <time>2012-11-11T09:21:32Z</time>
      </trkpt>
      <trkpt lat="46.23168" lon="4.62411">
        <ele>690</ele>
        <time>2012-11-11T09:21:33Z</time>
      </trkpt>
      <trkpt lat="46.23154" lon="4.62424">
        <ele>688</ele>
        <time>2012-11-11T09:21:37Z</time>
      </trkpt>
      <trkpt lat="46.23137" lon="4.62443">
        <ele>686</ele>
        <time>2012-11-11T09:21:41Z</time>
      </trkpt>
      <trkpt lat="46.23132" lon="4.62448">
        <ele>686</ele>
        <time>2012-11-11T09:21:42Z</time>
      </trkpt>
      <trkpt lat="46.23107" lon="4.62465">
        <ele>684</ele>
        <time>2012-11-11T09:21:47Z</time>
      </trkpt>
      <trkpt lat="46.23102" lon="4.62468">
        <ele>684</ele>
        <time>2012-11-11T09:21:48Z</time>
      </trkpt>
      <trkpt lat="46.2309" lon="4.62473">
        <ele>684</ele>
        <time>2012-11-11T09:21:51Z</time>
      </trkpt>
      <trkpt lat="46.23085" lon="4.62475">
        <ele>683</ele>
        <time>2012-11-11T09:21:52Z</time>
      </trkpt>
      <trkpt lat="46.2307" lon="4.62479">
        <ele>685</ele>
        <time>2012-11-11T09:21:56Z</time>
      </trkpt>
      <trkpt lat="46.23067" lon="4.62478">
        <ele>685</ele>
        <time>2012-11-11T09:21:57Z</time>
      </trkpt>
      <trkpt lat="46.2306" lon="4.62469">
        <ele>686</ele>
        <time>2012-11-11T09:22:01Z</time>
      </trkpt>
      <trkpt lat="46.23056" lon="4.62458">
        <ele>686</ele>
        <time>2012-11-11T09:22:07Z</time>
      </trkpt>
      <trkpt lat="46.23048" lon="4.62459">
        <ele>687</ele>
        <time>2012-11-11T09:22:13Z</time>
      </trkpt>
      <trkpt lat="46.23041" lon="4.62459">
        <ele>687</ele>
        <time>2012-11-11T09:22:18Z</time>
      </trkpt>
      <trkpt lat="46.2304" lon="4.62459">
        <ele>687</ele>
        <time>2012-11-11T09:22:19Z</time>
      </trkpt>
      <trkpt lat="46.23038" lon="4.62458">
        <ele>687</ele>
        <time>2012-11-11T09:22:20Z</time>
      </trkpt>
      <trkpt lat="46.23032" lon="4.62452">
        <ele>688</ele>
        <time>2012-11-11T09:22:25Z</time>
      </trkpt>
      <trkpt lat="46.23022" lon="4.62444">
        <ele>688</ele>
        <time>2012-11-11T09:22:33Z</time>
      </trkpt>
      <trkpt lat="46.23012" lon="4.62436">
        <ele>689</ele>
        <time>2012-11-11T09:22:41Z</time>
      </trkpt>
      <trkpt lat="46.23006" lon="4.6243">
        <ele>690</ele>
        <time>2012-11-11T09:22:47Z</time>
      </trkpt>
      <trkpt lat="46.23005" lon="4.62428">
        <ele>690</ele>
        <time>2012-11-11T09:22:49Z</time>
      </trkpt>
      <trkpt lat="46.23" lon="4.6242">
        <ele>693</ele>
        <time>2012-11-11T09:22:56Z</time>
      </trkpt>
      <trkpt lat="46.22993" lon="4.62412">
        <ele>693</ele>
        <time>2012-11-11T09:23:02Z</time>
      </trkpt>
      <trkpt lat="46.22986" lon="4.62402">
        <ele>695</ele>
        <time>2012-11-11T09:23:09Z</time>
      </trkpt>
      <trkpt lat="46.22979" lon="4.62396">
        <ele>696</ele>
        <time>2012-11-11T09:23:16Z</time>
      </trkpt>
      <trkpt lat="46.22971" lon="4.62388">
        <ele>697</ele>
        <time>2012-11-11T09:23:24Z</time>
      </trkpt>
      <trkpt lat="46.22964" lon="4.62382">
        <ele>698</ele>
        <time>2012-11-11T09:23:30Z</time>
      </trkpt>
      <trkpt lat="46.22961" lon="4.62379">
        <ele>698</ele>
        <time>2012-11-11T09:23:32Z</time>
      </trkpt>
      <trkpt lat="46.22958" lon="4.62376">
        <ele>699</ele>
        <time>2012-11-11T09:23:36Z</time>
      </trkpt>
      <trkpt lat="46.22951" lon="4.62371">
        <ele>699</ele>
        <time>2012-11-11T09:23:43Z</time>
      </trkpt>
      <trkpt lat="46.22948" lon="4.62367">
        <ele>699</ele>
        <time>2012-11-11T09:23:46Z</time>
      </trkpt>
      <trkpt lat="46.22944" lon="4.62361">
        <ele>700</ele>
        <time>2012-11-11T09:23:51Z</time>
      </trkpt>
      <trkpt lat="46.22936" lon="4.62353">
        <ele>700</ele>
        <time>2012-11-11T09:24:00Z</time>
      </trkpt>
      <trkpt lat="46.2293" lon="4.62343">
        <ele>701</ele>
        <time>2012-11-11T09:24:08Z</time>
      </trkpt>
      <trkpt lat="46.22928" lon="4.62342">
        <ele>702</ele>
        <time>2012-11-11T09:24:09Z</time>
      </trkpt>
      <trkpt lat="46.2292" lon="4.62337">
        <ele>703</ele>
        <time>2012-11-11T09:24:14Z</time>
      </trkpt>
      <trkpt lat="46.22919" lon="4.62336">
        <ele>703</ele>
        <time>2012-11-11T09:24:15Z</time>
      </trkpt>
      <trkpt lat="46.22909" lon="4.62328">
        <ele>704</ele>
        <time>2012-11-11T09:24:23Z</time>
      </trkpt>
      <trkpt lat="46.22899" lon="4.62321">
        <ele>704</ele>
        <time>2012-11-11T09:24:32Z</time>
      </trkpt>
      <trkpt lat="46.22889" lon="4.62317">
        <ele>705</ele>
        <time>2012-11-11T09:24:40Z</time>
      </trkpt>
      <trkpt lat="46.22886" lon="4.62316">
        <ele>705</ele>
        <time>2012-11-11T09:24:42Z</time>
      </trkpt>
      <trkpt lat="46.22879" lon="4.62311">
        <ele>705</ele>
        <time>2012-11-11T09:24:48Z</time>
      </trkpt>
      <trkpt lat="46.22872" lon="4.6231">
        <ele>706</ele>
        <time>2012-11-11T09:24:55Z</time>
      </trkpt>
      <trkpt lat="46.22864" lon="4.62314">
        <ele>707</ele>
        <time>2012-11-11T09:25:02Z</time>
      </trkpt>
      <trkpt lat="46.2286" lon="4.62317">
        <ele>708</ele>
        <time>2012-11-11T09:25:06Z</time>
      </trkpt>
      <trkpt lat="46.22856" lon="4.6232">
        <ele>709</ele>
        <time>2012-11-11T09:25:09Z</time>
      </trkpt>
      <trkpt lat="46.22852" lon="4.62323">
        <ele>711</ele>
        <time>2012-11-11T09:25:12Z</time>
      </trkpt>
      <trkpt lat="46.22848" lon="4.62329">
        <ele>712</ele>
        <time>2012-11-11T09:25:15Z</time>
      </trkpt>
      <trkpt lat="46.22841" lon="4.62343">
        <ele>720</ele>
        <time>2012-11-11T09:25:22Z</time>
      </trkpt>
      <trkpt lat="46.22834" lon="4.6235">
        <ele>720</ele>
        <time>2012-11-11T09:25:28Z</time>
      </trkpt>
      <trkpt lat="46.22828" lon="4.62353">
        <ele>728</ele>
        <time>2012-11-11T09:25:34Z</time>
      </trkpt>
      <trkpt lat="46.22826" lon="4.62356">
        <ele>729</ele>
        <time>2012-11-11T09:25:39Z</time>
      </trkpt>
      <trkpt lat="46.22825" lon="4.62358">
        <ele>730</ele>
        <time>2012-11-11T09:25:49Z</time>
      </trkpt>
      <trkpt lat="46.22822" lon="4.62359">
        <ele>730</ele>
        <time>2012-11-11T09:25:53Z</time>
      </trkpt>
      <trkpt lat="46.22819" lon="4.6236">
        <ele>730</ele>
        <time>2012-11-11T09:25:56Z</time>
      </trkpt>
      <trkpt lat="46.22818" lon="4.62359">
        <ele>731</ele>
        <time>2012-11-11T09:25:57Z</time>
      </trkpt>
      <trkpt lat="46.22816" lon="4.62363">
        <ele>731</ele>
        <time>2012-11-11T09:26:02Z</time>
      </trkpt>
      <trkpt lat="46.22813" lon="4.62366">
        <ele>732</ele>
        <time>2012-11-11T09:26:10Z</time>
      </trkpt>
      <trkpt lat="46.22807" lon="4.62368">
        <ele>733</ele>
        <time>2012-11-11T09:26:21Z</time>
      </trkpt>
      <trkpt lat="46.22801" lon="4.6237">
        <ele>733</ele>
        <time>2012-11-11T09:26:27Z</time>
      </trkpt>
      <trkpt lat="46.22798" lon="4.62372">
        <ele>734</ele>
        <time>2012-11-11T09:26:31Z</time>
      </trkpt>
      <trkpt lat="46.22796" lon="4.62374">
        <ele>734</ele>
        <time>2012-11-11T09:26:36Z</time>
      </trkpt>
      <trkpt lat="46.22792" lon="4.62376">
        <ele>735</ele>
        <time>2012-11-11T09:26:42Z</time>
      </trkpt>
      <trkpt lat="46.22787" lon="4.62378">
        <ele>735</ele>
        <time>2012-11-11T09:26:48Z</time>
      </trkpt>
      <trkpt lat="46.22781" lon="4.62381">
        <ele>736</ele>
        <time>2012-11-11T09:26:56Z</time>
      </trkpt>
      <trkpt lat="46.22777" lon="4.62383">
        <ele>737</ele>
        <time>2012-11-11T09:27:03Z</time>
      </trkpt>
      <trkpt lat="46.22772" lon="4.62383">
        <ele>737</ele>
        <time>2012-11-11T09:27:10Z</time>
      </trkpt>
      <trkpt lat="46.22771" lon="4.62384">
        <ele>737</ele>
        <time>2012-11-11T09:27:12Z</time>
      </trkpt>
      <trkpt lat="46.22769" lon="4.62386">
        <ele>738</ele>
        <time>2012-11-11T09:27:16Z</time>
      </trkpt>
      <trkpt lat="46.22758" lon="4.62386">
        <ele>739</ele>
        <time>2012-11-11T09:27:32Z</time>
      </trkpt>
      <trkpt lat="46.2275" lon="4.6238">
        <ele>738</ele>
        <time>2012-11-11T09:27:37Z</time>
      </trkpt>
      <trkpt lat="46.22739" lon="4.62385">
        <ele>745</ele>
        <time>2012-11-11T09:27:49Z</time>
      </trkpt>
      <trkpt lat="46.22735" lon="4.62388">
        <ele>745</ele>
        <time>2012-11-11T09:27:55Z</time>
      </trkpt>
      <trkpt lat="46.22731" lon="4.62389">
        <ele>745</ele>
        <time>2012-11-11T09:28:03Z</time>
      </trkpt>
      <trkpt lat="46.22726" lon="4.62389">
        <ele>746</ele>
        <time>2012-11-11T09:28:08Z</time>
      </trkpt>
      <trkpt lat="46.22722" lon="4.62389">
        <ele>746</ele>
        <time>2012-11-11T09:28:13Z</time>
      </trkpt>
      <trkpt lat="46.22719" lon="4.62389">
        <ele>746</ele>
        <time>2012-11-11T09:28:16Z</time>
      </trkpt>
      <trkpt lat="46.22711" lon="4.62391">
        <ele>746</ele>
        <time>2012-11-11T09:28:24Z</time>
      </trkpt>
      <trkpt lat="46.2271" lon="4.62391">
        <ele>746</ele>
        <time>2012-11-11T09:28:26Z</time>
      </trkpt>
      <trkpt lat="46.22708" lon="4.62389">
        <ele>746</ele>
        <time>2012-11-11T09:28:29Z</time>
      </trkpt>
      <trkpt lat="46.22697" lon="4.62387">
        <ele>746</ele>
        <time>2012-11-11T09:28:37Z</time>
      </trkpt>
      <trkpt lat="46.22692" lon="4.62386">
        <ele>747</ele>
        <time>2012-11-11T09:28:43Z</time>
      </trkpt>
      <trkpt lat="46.22688" lon="4.62386">
        <ele>747</ele>
        <time>2012-11-11T09:28:48Z</time>
      </trkpt>
      <trkpt lat="46.22686" lon="4.62387">
        <ele>747</ele>
        <time>2012-11-11T09:28:50Z</time>
      </trkpt>
      <trkpt lat="46.22679" lon="4.62387">
        <ele>747</ele>
        <time>2012-11-11T09:28:55Z</time>
      </trkpt>
      <trkpt lat="46.22665" lon="4.62387">
        <ele>755</ele>
        <time>2012-11-11T09:29:05Z</time>
      </trkpt>
      <trkpt lat="46.22656" lon="4.62391">
        <ele>756</ele>
        <time>2012-11-11T09:29:12Z</time>
      </trkpt>
      <trkpt lat="46.22649" lon="4.62392">
        <ele>756</ele>
        <time>2012-11-11T09:29:16Z</time>
      </trkpt>
      <trkpt lat="46.22644" lon="4.62397">
        <ele>757</ele>
        <time>2012-11-11T09:29:20Z</time>
      </trkpt>
      <trkpt lat="46.22635" lon="4.62407">
        <ele>758</ele>
        <time>2012-11-11T09:29:27Z</time>
      </trkpt>
      <trkpt lat="46.22628" lon="4.62413">
        <ele>758</ele>
        <time>2012-11-11T09:29:33Z</time>
      </trkpt>
      <trkpt lat="46.22621" lon="4.62422">
        <ele>763</ele>
        <time>2012-11-11T09:29:40Z</time>
      </trkpt>
      <trkpt lat="46.2262" lon="4.62423">
        <ele>763</ele>
        <time>2012-11-11T09:29:41Z</time>
      </trkpt>
      <trkpt lat="46.22615" lon="4.62424">
        <ele>763</ele>
        <time>2012-11-11T09:29:47Z</time>
      </trkpt>
      <trkpt lat="46.22609" lon="4.62429">
        <ele>764</ele>
        <time>2012-11-11T09:30:03Z</time>
      </trkpt>
      <trkpt lat="46.22605" lon="4.6243">
        <ele>764</ele>
        <time>2012-11-11T09:30:11Z</time>
      </trkpt>
      <trkpt lat="46.22603" lon="4.62431">
        <ele>765</ele>
        <time>2012-11-11T09:30:15Z</time>
      </trkpt>
      <trkpt lat="46.22598" lon="4.62433">
        <ele>765</ele>
        <time>2012-11-11T09:30:20Z</time>
      </trkpt>
      <trkpt lat="46.22589" lon="4.62438">
        <ele>765</ele>
        <time>2012-11-11T09:30:27Z</time>
      </trkpt>
      <trkpt lat="46.22585" lon="4.62439">
        <ele>765</ele>
        <time>2012-11-11T09:30:30Z</time>
      </trkpt>
      <trkpt lat="46.22579" lon="4.62439">
        <ele>769</ele>
        <time>2012-11-11T09:30:34Z</time>
      </trkpt>
      <trkpt lat="46.22569" lon="4.62436">
        <ele>769</ele>
        <time>2012-11-11T09:30:39Z</time>
      </trkpt>
      <trkpt lat="46.22566" lon="4.62437">
        <ele>770</ele>
        <time>2012-11-11T09:30:42Z</time>
      </trkpt>
      <trkpt lat="46.22562" lon="4.62436">
        <ele>770</ele>
        <time>2012-11-11T09:30:44Z</time>
      </trkpt>
      <trkpt lat="46.22555" lon="4.62433">
        <ele>770</ele>
        <time>2012-11-11T09:30:50Z</time>
      </trkpt>
      <trkpt lat="46.22549" lon="4.6243">
        <ele>770</ele>
        <time>2012-11-11T09:30:56Z</time>
      </trkpt>
      <trkpt lat="46.2254" lon="4.62427">
        <ele>771</ele>
        <time>2012-11-11T09:31:03Z</time>
      </trkpt>
      <trkpt lat="46.2253" lon="4.62425">
        <ele>771</ele>
        <time>2012-11-11T09:31:09Z</time>
      </trkpt>
      <trkpt lat="46.22523" lon="4.62423">
        <ele>772</ele>
        <time>2012-11-11T09:31:14Z</time>
      </trkpt>
      <trkpt lat="46.22513" lon="4.62423">
        <ele>773</ele>
        <time>2012-11-11T09:31:20Z</time>
      </trkpt>
      <trkpt lat="46.22501" lon="4.62425">
        <ele>774</ele>
        <time>2012-11-11T09:31:26Z</time>
      </trkpt>
      <trkpt lat="46.22489" lon="4.62428">
        <ele>777</ele>
        <time>2012-11-11T09:31:32Z</time>
      </trkpt>
      <trkpt lat="46.22478" lon="4.62429">
        <ele>778</ele>
        <time>2012-11-11T09:31:38Z</time>
      </trkpt>
      <trkpt lat="46.22477" lon="4.62429">
        <ele>778</ele>
        <time>2012-11-11T09:31:39Z</time>
      </trkpt>
      <trkpt lat="46.22473" lon="4.62429">
        <ele>779</ele>
        <time>2012-11-11T09:31:44Z</time>
      </trkpt>
      <trkpt lat="46.22461" lon="4.6243">
        <ele>780</ele>
        <time>2012-11-11T09:31:51Z</time>
      </trkpt>
      <trkpt lat="46.22456" lon="4.6243">
        <ele>781</ele>
        <time>2012-11-11T09:31:55Z</time>
      </trkpt>
      <trkpt lat="46.22446" lon="4.62431">
        <ele>782</ele>
        <time>2012-11-11T09:32:02Z</time>
      </trkpt>
      <trkpt lat="46.22439" lon="4.62432">
        <ele>783</ele>
        <time>2012-11-11T09:32:06Z</time>
      </trkpt>
      <trkpt lat="46.22435" lon="4.62434">
        <ele>783</ele>
        <time>2012-11-11T09:32:09Z</time>
      </trkpt>
      <trkpt lat="46.22428" lon="4.6244">
        <ele>783</ele>
        <time>2012-11-11T09:32:16Z</time>
      </trkpt>
      <trkpt lat="46.2242" lon="4.62446">
        <ele>783</ele>
        <time>2012-11-11T09:32:22Z</time>
      </trkpt>
      <trkpt lat="46.22414" lon="4.62451">
        <ele>790</ele>
        <time>2012-11-11T09:32:26Z</time>
      </trkpt>
      <trkpt lat="46.22405" lon="4.62452">
        <ele>790</ele>
        <time>2012-11-11T09:32:31Z</time>
      </trkpt>
      <trkpt lat="46.22404" lon="4.62452">
        <ele>790</ele>
        <time>2012-11-11T09:32:32Z</time>
      </trkpt>
      <trkpt lat="46.224" lon="4.62452">
        <ele>790</ele>
        <time>2012-11-11T09:32:39Z</time>
      </trkpt>
      <trkpt lat="46.22394" lon="4.62451">
        <ele>791</ele>
        <time>2012-11-11T09:32:46Z</time>
      </trkpt>
      <trkpt lat="46.22389" lon="4.62454">
        <ele>791</ele>
        <time>2012-11-11T09:32:51Z</time>
      </trkpt>
      <trkpt lat="46.22385" lon="4.62453">
        <ele>791</ele>
        <time>2012-11-11T09:32:53Z</time>
      </trkpt>
      <trkpt lat="46.22377" lon="4.6245">
        <ele>792</ele>
        <time>2012-11-11T09:33:00Z</time>
      </trkpt>
      <trkpt lat="46.22369" lon="4.62451">
        <ele>792</ele>
        <time>2012-11-11T09:33:06Z</time>
      </trkpt>
      <trkpt lat="46.22366" lon="4.62451">
        <ele>792</ele>
        <time>2012-11-11T09:33:08Z</time>
      </trkpt>
      <trkpt lat="46.22356" lon="4.62453">
        <ele>793</ele>
        <time>2012-11-11T09:33:16Z</time>
      </trkpt>
      <trkpt lat="46.22349" lon="4.62457">
        <ele>793</ele>
        <time>2012-11-11T09:33:23Z</time>
      </trkpt>
      <trkpt lat="46.22341" lon="4.62456">
        <ele>794</ele>
        <time>2012-11-11T09:33:30Z</time>
      </trkpt>
      <trkpt lat="46.2234" lon="4.62457">
        <ele>794</ele>
        <time>2012-11-11T09:33:34Z</time>
      </trkpt>
      <trkpt lat="46.22333" lon="4.62457">
        <ele>798</ele>
        <time>2012-11-11T09:33:40Z</time>
      </trkpt>
      <trkpt lat="46.2233" lon="4.62457">
        <ele>798</ele>
        <time>2012-11-11T09:33:42Z</time>
      </trkpt>
      <trkpt lat="46.22321" lon="4.62456">
        <ele>799</ele>
        <time>2012-11-11T09:33:50Z</time>
      </trkpt>
      <trkpt lat="46.22311" lon="4.62456">
        <ele>799</ele>
        <time>2012-11-11T09:33:58Z</time>
      </trkpt>
      <trkpt lat="46.22308" lon="4.62453">
        <ele>799</ele>
        <time>2012-11-11T09:34:03Z</time>
      </trkpt>
      <trkpt lat="46.22306" lon="4.62452">
        <ele>799</ele>
        <time>2012-11-11T09:34:05Z</time>
      </trkpt>
      <trkpt lat="46.22307" lon="4.6245">
        <ele>799</ele>
        <time>2012-11-11T09:34:08Z</time>
      </trkpt>
      <trkpt lat="46.22305" lon="4.62443">
        <ele>799</ele>
        <time>2012-11-11T09:34:13Z</time>
      </trkpt>
      <trkpt lat="46.22303" lon="4.6244">
        <ele>800</ele>
        <time>2012-11-11T09:34:15Z</time>
      </trkpt>
      <trkpt lat="46.22302" lon="4.62439">
        <ele>800</ele>
        <time>2012-11-11T09:34:16Z</time>
      </trkpt>
      <trkpt lat="46.22301" lon="4.62436">
        <ele>800</ele>
        <time>2012-11-11T09:34:18Z</time>
      </trkpt>
      <trkpt lat="46.22301" lon="4.62427">
        <ele>800</ele>
        <time>2012-11-11T09:34:25Z</time>
      </trkpt>
      <trkpt lat="46.22301" lon="4.62426">
        <ele>800</ele>
        <time>2012-11-11T09:34:26Z</time>
      </trkpt>
      <trkpt lat="46.22299" lon="4.6242">
        <ele>800</ele>
        <time>2012-11-11T09:34:29Z</time>
      </trkpt>
      <trkpt lat="46.223" lon="4.6241">
        <ele>806</ele>
        <time>2012-11-11T09:34:35Z</time>
      </trkpt>
      <trkpt lat="46.22301" lon="4.62402">
        <ele>806</ele>
        <time>2012-11-11T09:34:40Z</time>
      </trkpt>
      <trkpt lat="46.22301" lon="4.624">
        <ele>806</ele>
        <time>2012-11-11T09:34:42Z</time>
      </trkpt>
      <trkpt lat="46.22302" lon="4.6239">
        <ele>806</ele>
        <time>2012-11-11T09:34:48Z</time>
      </trkpt>
      <trkpt lat="46.22303" lon="4.62389">
        <ele>806</ele>
        <time>2012-11-11T09:34:49Z</time>
      </trkpt>
      <trkpt lat="46.22306" lon="4.62381">
        <ele>807</ele>
        <time>2012-11-11T09:34:54Z</time>
      </trkpt>
      <trkpt lat="46.22309" lon="4.62375">
        <ele>807</ele>
        <time>2012-11-11T09:34:57Z</time>
      </trkpt>
      <trkpt lat="46.22311" lon="4.62371">
        <ele>807</ele>
        <time>2012-11-11T09:34:59Z</time>
      </trkpt>
      <trkpt lat="46.22311" lon="4.62366">
        <ele>807</ele>
        <time>2012-11-11T09:35:01Z</time>
      </trkpt>
      <trkpt lat="46.22317" lon="4.62358">
        <ele>807</ele>
        <time>2012-11-11T09:35:05Z</time>
      </trkpt>
      <trkpt lat="46.22323" lon="4.62341">
        <ele>807</ele>
        <time>2012-11-11T09:35:09Z</time>
      </trkpt>
      <trkpt lat="46.22332" lon="4.6231">
        <ele>810</ele>
        <time>2012-11-11T09:35:14Z</time>
      </trkpt>
      <trkpt lat="46.22334" lon="4.62296">
        <ele>800</ele>
        <time>2012-11-11T09:35:16Z</time>
      </trkpt>
      <trkpt lat="46.22333" lon="4.62287">
        <ele>800</ele>
        <time>2012-11-11T09:35:17Z</time>
      </trkpt>
      <trkpt lat="46.22331" lon="4.62278">
        <ele>810</ele>
        <time>2012-11-11T09:35:18Z</time>
      </trkpt>
      <trkpt lat="46.2233" lon="4.6226">
        <ele>809</ele>
        <time>2012-11-11T09:35:20Z</time>
      </trkpt>
      <trkpt lat="46.22326" lon="4.62247">
        <ele>808</ele>
        <time>2012-11-11T09:35:22Z</time>
      </trkpt>
      <trkpt lat="46.22324" lon="4.6224">
        <ele>810</ele>
        <time>2012-11-11T09:35:23Z</time>
      </trkpt>
      <trkpt lat="46.22321" lon="4.62233">
        <ele>811</ele>
        <time>2012-11-11T09:35:24Z</time>
      </trkpt>
      <trkpt lat="46.22315" lon="4.62212">
        <ele>812</ele>
        <time>2012-11-11T09:35:28Z</time>
      </trkpt>
      <trkpt lat="46.22308" lon="4.62186">
        <ele>812</ele>
        <time>2012-11-11T09:35:34Z</time>
      </trkpt>
      <trkpt lat="46.22306" lon="4.62181">
        <ele>812</ele>
        <time>2012-11-11T09:35:35Z</time>
      </trkpt>
      <trkpt lat="46.22304" lon="4.62169">
        <ele>812</ele>
        <time>2012-11-11T09:35:38Z</time>
      </trkpt>
      <trkpt lat="46.22302" lon="4.62153">
        <ele>814</ele>
        <time>2012-11-11T09:35:43Z</time>
      </trkpt>
      <trkpt lat="46.22298" lon="4.62133">
        <ele>815</ele>
        <time>2012-11-11T09:35:49Z</time>
      </trkpt>
      <trkpt lat="46.22299" lon="4.62129">
        <ele>815</ele>
        <time>2012-11-11T09:35:50Z</time>
      </trkpt>
      <trkpt lat="46.22296" lon="4.62113">
        <ele>816</ele>
        <time>2012-11-11T09:35:55Z</time>
      </trkpt>
      <trkpt lat="46.22294" lon="4.62097">
        <ele>816</ele>
        <time>2012-11-11T09:36:01Z</time>
      </trkpt>
      <trkpt lat="46.22296" lon="4.62089">
        <ele>816</ele>
        <time>2012-11-11T09:36:04Z</time>
      </trkpt>
      <trkpt lat="46.22297" lon="4.62082">
        <ele>818</ele>
        <time>2012-11-11T09:36:07Z</time>
      </trkpt>
      <trkpt lat="46.22298" lon="4.62077">
        <ele>818</ele>
        <time>2012-11-11T09:36:09Z</time>
      </trkpt>
      <trkpt lat="46.22297" lon="4.62067">
        <ele>818</ele>
        <time>2012-11-11T09:36:13Z</time>
      </trkpt>
      <trkpt lat="46.22298" lon="4.62065">
        <ele>819</ele>
        <time>2012-11-11T09:36:14Z</time>
      </trkpt>
      <trkpt lat="46.22297" lon="4.62053">
        <ele>819</ele>
        <time>2012-11-11T09:36:21Z</time>
      </trkpt>
      <trkpt lat="46.22301" lon="4.62039">
        <ele>819</ele>
        <time>2012-11-11T09:36:27Z</time>
      </trkpt>
      <trkpt lat="46.22301" lon="4.62033">
        <ele>819</ele>
        <time>2012-11-11T09:36:30Z</time>
      </trkpt>
      <trkpt lat="46.22302" lon="4.62028">
        <ele>819</ele>
        <time>2012-11-11T09:36:32Z</time>
      </trkpt>
      <trkpt lat="46.22303" lon="4.62026">
        <ele>819</ele>
        <time>2012-11-11T09:36:33Z</time>
      </trkpt>
      <trkpt lat="46.22303" lon="4.62024">
        <ele>819</ele>
        <time>2012-11-11T09:36:34Z</time>
      </trkpt>
      <trkpt lat="46.22305" lon="4.62013">
        <ele>819</ele>
        <time>2012-11-11T09:36:38Z</time>
      </trkpt>
      <trkpt lat="46.22304" lon="4.62008">
        <ele>819</ele>
        <time>2012-11-11T09:36:40Z</time>
      </trkpt>
      <trkpt lat="46.22304" lon="4.62001">
        <ele>819</ele>
        <time>2012-11-11T09:36:43Z</time>
      </trkpt>
      <trkpt lat="46.22305" lon="4.61998">
        <ele>820</ele>
        <time>2012-11-11T09:36:44Z</time>
      </trkpt>
      <trkpt lat="46.22307" lon="4.61985">
        <ele>820</ele>
        <time>2012-11-11T09:36:50Z</time>
      </trkpt>
      <trkpt lat="46.22312" lon="4.61978">
        <ele>820</ele>
        <time>2012-11-11T09:36:54Z</time>
      </trkpt>
      <trkpt lat="46.22314" lon="4.61976">
        <ele>820</ele>
        <time>2012-11-11T09:36:55Z</time>
      </trkpt>
      <trkpt lat="46.22319" lon="4.61959">
        <ele>820</ele>
        <time>2012-11-11T09:37:00Z</time>
      </trkpt>
      <trkpt lat="46.22321" lon="4.61939">
        <ele>819</ele>
        <time>2012-11-11T09:37:06Z</time>
      </trkpt>
      <trkpt lat="46.2232" lon="4.61925">
        <ele>818</ele>
        <time>2012-11-11T09:37:11Z</time>
      </trkpt>
      <trkpt lat="46.2232" lon="4.61922">
        <ele>818</ele>
        <time>2012-11-11T09:37:12Z</time>
      </trkpt>
      <trkpt lat="46.22314" lon="4.61906">
        <ele>816</ele>
        <time>2012-11-11T09:37:18Z</time>
      </trkpt>
      <trkpt lat="46.22303" lon="4.61887">
        <ele>815</ele>
        <time>2012-11-11T09:37:23Z</time>
      </trkpt>
      <trkpt lat="46.22299" lon="4.61878">
        <ele>815</ele>
        <time>2012-11-11T09:37:25Z</time>
      </trkpt>
      <trkpt lat="46.22286" lon="4.6186">
        <ele>815</ele>
        <time>2012-11-11T09:37:30Z</time>
      </trkpt>
      <trkpt lat="46.22271" lon="4.61846">
        <ele>815</ele>
        <time>2012-11-11T09:37:34Z</time>
      </trkpt>
      <trkpt lat="46.2225" lon="4.61826">
        <ele>815</ele>
        <time>2012-11-11T09:37:39Z</time>
      </trkpt>
      <trkpt lat="46.22236" lon="4.61817">
        <ele>813</ele>
        <time>2012-11-11T09:37:42Z</time>
      </trkpt>
      <trkpt lat="46.22228" lon="4.61813">
        <ele>812</ele>
        <time>2012-11-11T09:37:44Z</time>
      </trkpt>
      <trkpt lat="46.2221" lon="4.61804">
        <ele>812</ele>
        <time>2012-11-11T09:37:48Z</time>
      </trkpt>
      <trkpt lat="46.222" lon="4.618">
        <ele>812</ele>
        <time>2012-11-11T09:37:50Z</time>
      </trkpt>
      <trkpt lat="46.22195" lon="4.61798">
        <ele>812</ele>
        <time>2012-11-11T09:37:51Z</time>
      </trkpt>
      <trkpt lat="46.22185" lon="4.61793">
        <ele>812</ele>
        <time>2012-11-11T09:37:53Z</time>
      </trkpt>
      <trkpt lat="46.22171" lon="4.61782">
        <ele>811</ele>
        <time>2012-11-11T09:37:56Z</time>
      </trkpt>
      <trkpt lat="46.22167" lon="4.61777">
        <ele>811</ele>
        <time>2012-11-11T09:37:57Z</time>
      </trkpt>
      <trkpt lat="46.22155" lon="4.61759">
        <ele>810</ele>
        <time>2012-11-11T09:38:00Z</time>
      </trkpt>
      <trkpt lat="46.22133" lon="4.61754">
        <ele>811</ele>
        <time>2012-11-11T09:38:04Z</time>
      </trkpt>
      <trkpt lat="46.22108" lon="4.61748">
        <ele>803</ele>
        <time>2012-11-11T09:38:09Z</time>
      </trkpt>
      <trkpt lat="46.22099" lon="4.61747">
        <ele>804</ele>
        <time>2012-11-11T09:38:11Z</time>
      </trkpt>
      <trkpt lat="46.22094" lon="4.61747">
        <ele>805</ele>
        <time>2012-11-11T09:38:12Z</time>
      </trkpt>
      <trkpt lat="46.22086" lon="4.61746">
        <ele>806</ele>
        <time>2012-11-11T09:38:14Z</time>
      </trkpt>
      <trkpt lat="46.22073" lon="4.61743">
        <ele>803</ele>
        <time>2012-11-11T09:38:17Z</time>
      </trkpt>
      <trkpt lat="46.22058" lon="4.61744">
        <ele>800</ele>
        <time>2012-11-11T09:38:21Z</time>
      </trkpt>
      <trkpt lat="46.22055" lon="4.61744">
        <ele>800</ele>
        <time>2012-11-11T09:38:22Z</time>
      </trkpt>
      <trkpt lat="46.22041" lon="4.61748">
        <ele>799</ele>
        <time>2012-11-11T09:38:27Z</time>
      </trkpt>
      <trkpt lat="46.22025" lon="4.61754">
        <ele>805</ele>
        <time>2012-11-11T09:38:33Z</time>
      </trkpt>
      <trkpt lat="46.22022" lon="4.61756">
        <ele>805</ele>
        <time>2012-11-11T09:38:34Z</time>
      </trkpt>
      <trkpt lat="46.22004" lon="4.61765">
        <ele>804</ele>
        <time>2012-11-11T09:38:40Z</time>
      </trkpt>
      <trkpt lat="46.21989" lon="4.61776">
        <ele>800</ele>
        <time>2012-11-11T09:38:46Z</time>
      </trkpt>
      <trkpt lat="46.21986" lon="4.61778">
        <ele>800</ele>
        <time>2012-11-11T09:38:47Z</time>
      </trkpt>
      <trkpt lat="46.21975" lon="4.61786">
        <ele>800</ele>
        <time>2012-11-11T09:38:51Z</time>
      </trkpt>
      <trkpt lat="46.21971" lon="4.61789">
        <ele>799</ele>
        <time>2012-11-11T09:38:52Z</time>
      </trkpt>
      <trkpt lat="46.21958" lon="4.61794">
        <ele>799</ele>
        <time>2012-11-11T09:38:55Z</time>
      </trkpt>
      <trkpt lat="46.21949" lon="4.61798">
        <ele>799</ele>
        <time>2012-11-11T09:38:57Z</time>
      </trkpt>
      <trkpt lat="46.21922" lon="4.61814">
        <ele>798</ele>
        <time>2012-11-11T09:39:02Z</time>
      </trkpt>
      <trkpt lat="46.21912" lon="4.6182">
        <ele>793</ele>
        <time>2012-11-11T09:39:04Z</time>
      </trkpt>
      <trkpt lat="46.21902" lon="4.61829">
        <ele>793</ele>
        <time>2012-11-11T09:39:06Z</time>
      </trkpt>
      <trkpt lat="46.21898" lon="4.61834">
        <ele>798</ele>
        <time>2012-11-11T09:39:07Z</time>
      </trkpt>
      <trkpt lat="46.21889" lon="4.61844">
        <ele>798</ele>
        <time>2012-11-11T09:39:09Z</time>
      </trkpt>
      <trkpt lat="46.2188" lon="4.61853">
        <ele>797</ele>
        <time>2012-11-11T09:39:11Z</time>
      </trkpt>
      <trkpt lat="46.2187" lon="4.61861">
        <ele>797</ele>
        <time>2012-11-11T09:39:13Z</time>
      </trkpt>
      <trkpt lat="46.21866" lon="4.61865">
        <ele>797</ele>
        <time>2012-11-11T09:39:14Z</time>
      </trkpt>
      <trkpt lat="46.21855" lon="4.61882">
        <ele>797</ele>
        <time>2012-11-11T09:39:17Z</time>
      </trkpt>
      <trkpt lat="46.21852" lon="4.61888">
        <ele>798</ele>
        <time>2012-11-11T09:39:18Z</time>
      </trkpt>
      <trkpt lat="46.2185" lon="4.61894">
        <ele>798</ele>
        <time>2012-11-11T09:39:19Z</time>
      </trkpt>
      <trkpt lat="46.21845" lon="4.61904">
        <ele>798</ele>
        <time>2012-11-11T09:39:21Z</time>
      </trkpt>
      <trkpt lat="46.21843" lon="4.61909">
        <ele>798</ele>
        <time>2012-11-11T09:39:22Z</time>
      </trkpt>
      <trkpt lat="46.21829" lon="4.61934">
        <ele>796</ele>
        <time>2012-11-11T09:39:28Z</time>
      </trkpt>
      <trkpt lat="46.21826" lon="4.61938">
        <ele>796</ele>
        <time>2012-11-11T09:39:29Z</time>
      </trkpt>
      <trkpt lat="46.21813" lon="4.61952">
        <ele>795</ele>
        <time>2012-11-11T09:39:33Z</time>
      </trkpt>
      <trkpt lat="46.21805" lon="4.61966">
        <ele>795</ele>
        <time>2012-11-11T09:39:36Z</time>
      </trkpt>
      <trkpt lat="46.21802" lon="4.61971">
        <ele>795</ele>
        <time>2012-11-11T09:39:37Z</time>
      </trkpt>
      <trkpt lat="46.21798" lon="4.61981">
        <ele>795</ele>
        <time>2012-11-11T09:39:39Z</time>
      </trkpt>
      <trkpt lat="46.21783" lon="4.6201">
        <ele>797</ele>
        <time>2012-11-11T09:39:45Z</time>
      </trkpt>
      <trkpt lat="46.2178" lon="4.62014">
        <ele>797</ele>
        <time>2012-11-11T09:39:46Z</time>
      </trkpt>
      <trkpt lat="46.21777" lon="4.62019">
        <ele>797</ele>
        <time>2012-11-11T09:39:47Z</time>
      </trkpt>
      <trkpt lat="46.21771" lon="4.62027">
        <ele>797</ele>
        <time>2012-11-11T09:39:49Z</time>
      </trkpt>
      <trkpt lat="46.21759" lon="4.62041">
        <ele>797</ele>
        <time>2012-11-11T09:39:53Z</time>
      </trkpt>
      <trkpt lat="46.21751" lon="4.62052">
        <ele>797</ele>
        <time>2012-11-11T09:39:56Z</time>
      </trkpt>
      <trkpt lat="46.21744" lon="4.62058">
        <ele>788</ele>
        <time>2012-11-11T09:39:58Z</time>
      </trkpt>
      <trkpt lat="46.21726" lon="4.62087">
        <ele>790</ele>
        <time>2012-11-11T09:40:04Z</time>
      </trkpt>
      <trkpt lat="46.21724" lon="4.62093">
        <ele>789</ele>
        <time>2012-11-11T09:40:05Z</time>
      </trkpt>
      <trkpt lat="46.21714" lon="4.62122">
        <ele>788</ele>
        <time>2012-11-11T09:40:09Z</time>
      </trkpt>
      <trkpt lat="46.21711" lon="4.62142">
        <ele>788</ele>
        <time>2012-11-11T09:40:12Z</time>
      </trkpt>
      <trkpt lat="46.2171" lon="4.62155">
        <ele>788</ele>
        <time>2012-11-11T09:40:14Z</time>
      </trkpt>
      <trkpt lat="46.21708" lon="4.62198">
        <ele>787</ele>
        <time>2012-11-11T09:40:21Z</time>
      </trkpt>
      <trkpt lat="46.21709" lon="4.62205">
        <ele>787</ele>
        <time>2012-11-11T09:40:22Z</time>
      </trkpt>
      <trkpt lat="46.21711" lon="4.62238">
        <ele>787</ele>
        <time>2012-11-11T09:40:26Z</time>
      </trkpt>
      <trkpt lat="46.21714" lon="4.62255">
        <ele>786</ele>
        <time>2012-11-11T09:40:28Z</time>
      </trkpt>
      <trkpt lat="46.21719" lon="4.62311">
        <ele>785</ele>
        <time>2012-11-11T09:40:34Z</time>
      </trkpt>
      <trkpt lat="46.21719" lon="4.62321">
        <ele>785</ele>
        <time>2012-11-11T09:40:35Z</time>
      </trkpt>
      <trkpt lat="46.21718" lon="4.62331">
        <ele>785</ele>
        <time>2012-11-11T09:40:36Z</time>
      </trkpt>
      <trkpt lat="46.21714" lon="4.62363">
        <ele>783</ele>
        <time>2012-11-11T09:40:39Z</time>
      </trkpt>
      <trkpt lat="46.21712" lon="4.62373">
        <ele>782</ele>
        <time>2012-11-11T09:40:40Z</time>
      </trkpt>
      <trkpt lat="46.21702" lon="4.62415">
        <ele>782</ele>
        <time>2012-11-11T09:40:44Z</time>
      </trkpt>
      <trkpt lat="46.21697" lon="4.62434">
        <ele>780</ele>
        <time>2012-11-11T09:40:46Z</time>
      </trkpt>
      <trkpt lat="46.21685" lon="4.62468">
        <ele>779</ele>
        <time>2012-11-11T09:40:50Z</time>
      </trkpt>
      <trkpt lat="46.21682" lon="4.62476">
        <ele>778</ele>
        <time>2012-11-11T09:40:51Z</time>
      </trkpt>
      <trkpt lat="46.21668" lon="4.6252">
        <ele>775</ele>
        <time>2012-11-11T09:40:56Z</time>
      </trkpt>
      <trkpt lat="46.21665" lon="4.62529">
        <ele>774</ele>
        <time>2012-11-11T09:40:57Z</time>
      </trkpt>
      <trkpt lat="46.21648" lon="4.62574">
        <ele>772</ele>
        <time>2012-11-11T09:41:02Z</time>
      </trkpt>
      <trkpt lat="46.21628" lon="4.62619">
        <ele>768</ele>
        <time>2012-11-11T09:41:07Z</time>
      </trkpt>
      <trkpt lat="46.21624" lon="4.62628">
        <ele>768</ele>
        <time>2012-11-11T09:41:08Z</time>
      </trkpt>
      <trkpt lat="46.2162" lon="4.6264">
        <ele>767</ele>
        <time>2012-11-11T09:41:09Z</time>
      </trkpt>
      <trkpt lat="46.21612" lon="4.62661">
        <ele>767</ele>
        <time>2012-11-11T09:41:11Z</time>
      </trkpt>
      <trkpt lat="46.21606" lon="4.62671">
        <ele>763</ele>
        <time>2012-11-11T09:41:12Z</time>
      </trkpt>
      <trkpt lat="46.21595" lon="4.62689">
        <ele>763</ele>
        <time>2012-11-11T09:41:14Z</time>
      </trkpt>
      <trkpt lat="46.21586" lon="4.62707">
        <ele>762</ele>
        <time>2012-11-11T09:41:16Z</time>
      </trkpt>
      <trkpt lat="46.21582" lon="4.62718">
        <ele>764</ele>
        <time>2012-11-11T09:41:17Z</time>
      </trkpt>
      <trkpt lat="46.21579" lon="4.62728">
        <ele>763</ele>
        <time>2012-11-11T09:41:18Z</time>
      </trkpt>
      <trkpt lat="46.21564" lon="4.62771">
        <ele>759</ele>
        <time>2012-11-11T09:41:22Z</time>
      </trkpt>
      <trkpt lat="46.21553" lon="4.62793">
        <ele>758</ele>
        <time>2012-11-11T09:41:24Z</time>
      </trkpt>
      <trkpt lat="46.21539" lon="4.62822">
        <ele>757</ele>
        <time>2012-11-11T09:41:27Z</time>
      </trkpt>
      <trkpt lat="46.21534" lon="4.6283">
        <ele>757</ele>
        <time>2012-11-11T09:41:28Z</time>
      </trkpt>
      <trkpt lat="46.21515" lon="4.62862">
        <ele>752</ele>
        <time>2012-11-11T09:41:32Z</time>
      </trkpt>
      <trkpt lat="46.21505" lon="4.62875">
        <ele>751</ele>
        <time>2012-11-11T09:41:34Z</time>
      </trkpt>
      <trkpt lat="46.21481" lon="4.62899">
        <ele>754</ele>
        <time>2012-11-11T09:41:38Z</time>
      </trkpt>
      <trkpt lat="46.21464" lon="4.62915">
        <ele>755</ele>
        <time>2012-11-11T09:41:40Z</time>
      </trkpt>
      <trkpt lat="46.21452" lon="4.62939">
        <ele>748</ele>
        <time>2012-11-11T09:41:42Z</time>
      </trkpt>
      <trkpt lat="46.21428" lon="4.62983">
        <ele>744</ele>
        <time>2012-11-11T09:41:46Z</time>
      </trkpt>
      <trkpt lat="46.2142" lon="4.62992">
        <ele>743</ele>
        <time>2012-11-11T09:41:47Z</time>
      </trkpt>
      <trkpt lat="46.2141" lon="4.63008">
        <ele>741</ele>
        <time>2012-11-11T09:41:49Z</time>
      </trkpt>
      <trkpt lat="46.21404" lon="4.63012">
        <ele>740</ele>
        <time>2012-11-11T09:41:50Z</time>
      </trkpt>
      <trkpt lat="46.21394" lon="4.63017">
        <ele>740</ele>
        <time>2012-11-11T09:41:52Z</time>
      </trkpt>
      <trkpt lat="46.21389" lon="4.63017">
        <ele>741</ele>
        <time>2012-11-11T09:41:53Z</time>
      </trkpt>
      <trkpt lat="46.21384" lon="4.63017">
        <ele>741</ele>
        <time>2012-11-11T09:41:54Z</time>
      </trkpt>
      <trkpt lat="46.21365" lon="4.63016">
        <ele>742</ele>
        <time>2012-11-11T09:41:58Z</time>
      </trkpt>
      <trkpt lat="46.21354" lon="4.63017">
        <ele>743</ele>
        <time>2012-11-11T09:42:01Z</time>
      </trkpt>
      <trkpt lat="46.21345" lon="4.63017">
        <ele>744</ele>
        <time>2012-11-11T09:42:04Z</time>
      </trkpt>
      <trkpt lat="46.21326" lon="4.6302">
        <ele>746</ele>
        <time>2012-11-11T09:42:10Z</time>
      </trkpt>
      <trkpt lat="46.21318" lon="4.63021">
        <ele>746</ele>
        <time>2012-11-11T09:42:13Z</time>
      </trkpt>
      <trkpt lat="46.21311" lon="4.63022">
        <ele>746</ele>
        <time>2012-11-11T09:42:15Z</time>
      </trkpt>
      <trkpt lat="46.21296" lon="4.63021">
        <ele>746</ele>
        <time>2012-11-11T09:42:20Z</time>
      </trkpt>
      <trkpt lat="46.21282" lon="4.63016">
        <ele>747</ele>
        <time>2012-11-11T09:42:25Z</time>
      </trkpt>
      <trkpt lat="46.21277" lon="4.63012">
        <ele>747</ele>
        <time>2012-11-11T09:42:27Z</time>
      </trkpt>
      <trkpt lat="46.21275" lon="4.63011">
        <ele>747</ele>
        <time>2012-11-11T09:42:28Z</time>
      </trkpt>
      <trkpt lat="46.21267" lon="4.63007">
        <ele>748</ele>
        <time>2012-11-11T09:42:31Z</time>
      </trkpt>
      <trkpt lat="46.21252" lon="4.62996">
        <ele>753</ele>
        <time>2012-11-11T09:42:38Z</time>
      </trkpt>
      <trkpt lat="46.21248" lon="4.62993">
        <ele>753</ele>
        <time>2012-11-11T09:42:40Z</time>
      </trkpt>
      <trkpt lat="46.21241" lon="4.62987">
        <ele>755</ele>
        <time>2012-11-11T09:42:44Z</time>
      </trkpt>
      <trkpt lat="46.21229" lon="4.62976">
        <ele>756</ele>
        <time>2012-11-11T09:42:52Z</time>
      </trkpt>
      <trkpt lat="46.21217" lon="4.62966">
        <ele>757</ele>
        <time>2012-11-11T09:43:00Z</time>
      </trkpt>
      <trkpt lat="46.21208" lon="4.62956">
        <ele>758</ele>
        <time>2012-11-11T09:43:07Z</time>
      </trkpt>
      <trkpt lat="46.21198" lon="4.62946">
        <ele>758</ele>
        <time>2012-11-11T09:43:14Z</time>
      </trkpt>
      <trkpt lat="46.21186" lon="4.62936">
        <ele>759</ele>
        <time>2012-11-11T09:43:21Z</time>
      </trkpt>
      <trkpt lat="46.21185" lon="4.62935">
        <ele>759</ele>
        <time>2012-11-11T09:43:22Z</time>
      </trkpt>
      <trkpt lat="46.2117" lon="4.62927">
        <ele>760</ele>
        <time>2012-11-11T09:43:30Z</time>
      </trkpt>
      <trkpt lat="46.21162" lon="4.62921">
        <ele>762</ele>
        <time>2012-11-11T09:43:35Z</time>
      </trkpt>
      <trkpt lat="46.21152" lon="4.62918">
        <ele>762</ele>
        <time>2012-11-11T09:43:40Z</time>
      </trkpt>
      <trkpt lat="46.21151" lon="4.62918">
        <ele>762</ele>
        <time>2012-11-11T09:43:41Z</time>
      </trkpt>
      <trkpt lat="46.21139" lon="4.62906">
        <ele>764</ele>
        <time>2012-11-11T09:43:49Z</time>
      </trkpt>
      <trkpt lat="46.21134" lon="4.62889">
        <ele>765</ele>
        <time>2012-11-11T09:43:55Z</time>
      </trkpt>
      <trkpt lat="46.21129" lon="4.62879">
        <ele>765</ele>
        <time>2012-11-11T09:43:59Z</time>
      </trkpt>
      <trkpt lat="46.21125" lon="4.62876">
        <ele>765</ele>
        <time>2012-11-11T09:44:01Z</time>
      </trkpt>
      <trkpt lat="46.21121" lon="4.62876">
        <ele>765</ele>
        <time>2012-11-11T09:44:03Z</time>
      </trkpt>
      <trkpt lat="46.21116" lon="4.62882">
        <ele>765</ele>
        <time>2012-11-11T09:44:06Z</time>
      </trkpt>
      <trkpt lat="46.21107" lon="4.62898">
        <ele>765</ele>
        <time>2012-11-11T09:44:12Z</time>
      </trkpt>
      <trkpt lat="46.21103" lon="4.62905">
        <ele>766</ele>
        <time>2012-11-11T09:44:15Z</time>
      </trkpt>
      <trkpt lat="46.21092" lon="4.62918">
        <ele>766</ele>
        <time>2012-11-11T09:44:21Z</time>
      </trkpt>
      <trkpt lat="46.21083" lon="4.6293">
        <ele>768</ele>
        <time>2012-11-11T09:44:28Z</time>
      </trkpt>
      <trkpt lat="46.21075" lon="4.6294">
        <ele>769</ele>
        <time>2012-11-11T09:44:34Z</time>
      </trkpt>
      <trkpt lat="46.21073" lon="4.62943">
        <ele>769</ele>
        <time>2012-11-11T09:44:36Z</time>
      </trkpt>
      <trkpt lat="46.21063" lon="4.62955">
        <ele>770</ele>
        <time>2012-11-11T09:44:45Z</time>
      </trkpt>
      <trkpt lat="46.21052" lon="4.62969">
        <ele>770</ele>
        <time>2012-11-11T09:44:54Z</time>
      </trkpt>
      <trkpt lat="46.21048" lon="4.62975">
        <ele>770</ele>
        <time>2012-11-11T09:44:57Z</time>
      </trkpt>
      <trkpt lat="46.21041" lon="4.62985">
        <ele>771</ele>
        <time>2012-11-11T09:45:03Z</time>
      </trkpt>
      <trkpt lat="46.21029" lon="4.62999">
        <ele>772</ele>
        <time>2012-11-11T09:45:12Z</time>
      </trkpt>
      <trkpt lat="46.21018" lon="4.63007">
        <ele>771</ele>
        <time>2012-11-11T09:45:19Z</time>
      </trkpt>
      <trkpt lat="46.21015" lon="4.63008">
        <ele>771</ele>
        <time>2012-11-11T09:45:20Z</time>
      </trkpt>
      <trkpt lat="46.21004" lon="4.6301">
        <ele>773</ele>
        <time>2012-11-11T09:45:24Z</time>
      </trkpt>
      <trkpt lat="46.21002" lon="4.63008">
        <ele>773</ele>
        <time>2012-11-11T09:45:25Z</time>
      </trkpt>
      <trkpt lat="46.20991" lon="4.62999">
        <ele>778</ele>
        <time>2012-11-11T09:45:31Z</time>
      </trkpt>
      <trkpt lat="46.20984" lon="4.62997">
        <ele>779</ele>
        <time>2012-11-11T09:45:35Z</time>
      </trkpt>
      <trkpt lat="46.20976" lon="4.62996">
        <ele>780</ele>
        <time>2012-11-11T09:45:39Z</time>
      </trkpt>
      <trkpt lat="46.20966" lon="4.62992">
        <ele>781</ele>
        <time>2012-11-11T09:45:45Z</time>
      </trkpt>
      <trkpt lat="46.20956" lon="4.6299">
        <ele>782</ele>
        <time>2012-11-11T09:45:53Z</time>
      </trkpt>
      <trkpt lat="46.20948" lon="4.62991">
        <ele>782</ele>
        <time>2012-11-11T09:45:59Z</time>
      </trkpt>
      <trkpt lat="46.20945" lon="4.62992">
        <ele>782</ele>
        <time>2012-11-11T09:46:01Z</time>
      </trkpt>
      <trkpt lat="46.20931" lon="4.62996">
        <ele>784</ele>
        <time>2012-11-11T09:46:12Z</time>
      </trkpt>
      <trkpt lat="46.20919" lon="4.62998">
        <ele>786</ele>
        <time>2012-11-11T09:46:21Z</time>
      </trkpt>
      <trkpt lat="46.20911" lon="4.62999">
        <ele>787</ele>
        <time>2012-11-11T09:46:27Z</time>
      </trkpt>
      <trkpt lat="46.20907" lon="4.62999">
        <ele>787</ele>
        <time>2012-11-11T09:46:30Z</time>
      </trkpt>
      <trkpt lat="46.20896" lon="4.62999">
        <ele>788</ele>
        <time>2012-11-11T09:46:38Z</time>
      </trkpt>
      <trkpt lat="46.20886" lon="4.62998">
        <ele>788</ele>
        <time>2012-11-11T09:46:45Z</time>
      </trkpt>
      <trkpt lat="46.20875" lon="4.62995">
        <ele>789</ele>
        <time>2012-11-11T09:46:53Z</time>
      </trkpt>
      <trkpt lat="46.2086" lon="4.62993">
        <ele>790</ele>
        <time>2012-11-11T09:47:02Z</time>
      </trkpt>
      <trkpt lat="46.20845" lon="4.62992">
        <ele>790</ele>
        <time>2012-11-11T09:47:11Z</time>
      </trkpt>
      <trkpt lat="46.20838" lon="4.62993">
        <ele>791</ele>
        <time>2012-11-11T09:47:15Z</time>
      </trkpt>
      <trkpt lat="46.20835" lon="4.62994">
        <ele>791</ele>
        <time>2012-11-11T09:47:17Z</time>
      </trkpt>
      <trkpt lat="46.20821" lon="4.62997">
        <ele>792</ele>
        <time>2012-11-11T09:47:26Z</time>
      </trkpt>
      <trkpt lat="46.20804" lon="4.63">
        <ele>793</ele>
        <time>2012-11-11T09:47:36Z</time>
      </trkpt>
      <trkpt lat="46.20801" lon="4.63001">
        <ele>792</ele>
        <time>2012-11-11T09:47:38Z</time>
      </trkpt>
      <trkpt lat="46.20791" lon="4.63004">
        <ele>792</ele>
        <time>2012-11-11T09:47:44Z</time>
      </trkpt>
      <trkpt lat="46.2078" lon="4.63008">
        <ele>793</ele>
        <time>2012-11-11T09:47:51Z</time>
      </trkpt>
      <trkpt lat="46.20764" lon="4.63008">
        <ele>794</ele>
        <time>2012-11-11T09:48:00Z</time>
      </trkpt>
      <trkpt lat="46.2075" lon="4.63003">
        <ele>797</ele>
        <time>2012-11-11T09:48:08Z</time>
      </trkpt>
      <trkpt lat="46.20735" lon="4.63001">
        <ele>796</ele>
        <time>2012-11-11T09:48:17Z</time>
      </trkpt>
      <trkpt lat="46.20726" lon="4.63">
        <ele>797</ele>
        <time>2012-11-11T09:48:21Z</time>
      </trkpt>
      <trkpt lat="46.20719" lon="4.62999">
        <ele>797</ele>
        <time>2012-11-11T09:48:24Z</time>
      </trkpt>
      <trkpt lat="46.20703" lon="4.62996">
        <ele>797</ele>
        <time>2012-11-11T09:48:30Z</time>
      </trkpt>
      <trkpt lat="46.20688" lon="4.63">
        <ele>796</ele>
        <time>2012-11-11T09:48:35Z</time>
      </trkpt>
      <trkpt lat="46.20668" lon="4.63002">
        <ele>798</ele>
        <time>2012-11-11T09:48:41Z</time>
      </trkpt>
      <trkpt lat="46.2065" lon="4.62998">
        <ele>797</ele>
        <time>2012-11-11T09:48:46Z</time>
      </trkpt>
      <trkpt lat="46.20633" lon="4.62996">
        <ele>797</ele>
        <time>2012-11-11T09:48:52Z</time>
      </trkpt>
      <trkpt lat="46.20618" lon="4.62989">
        <ele>797</ele>
        <time>2012-11-11T09:48:57Z</time>
      </trkpt>
      <trkpt lat="46.20614" lon="4.62987">
        <ele>797</ele>
        <time>2012-11-11T09:48:58Z</time>
      </trkpt>
      <trkpt lat="46.20595" lon="4.62981">
        <ele>797</ele>
        <time>2012-11-11T09:49:03Z</time>
      </trkpt>
      <trkpt lat="46.20578" lon="4.62977">
        <ele>796</ele>
        <time>2012-11-11T09:49:08Z</time>
      </trkpt>
      <trkpt lat="46.2056" lon="4.6297">
        <ele>795</ele>
        <time>2012-11-11T09:49:13Z</time>
      </trkpt>
      <trkpt lat="46.20546" lon="4.62968">
        <ele>794</ele>
        <time>2012-11-11T09:49:16Z</time>
      </trkpt>
      <trkpt lat="46.20541" lon="4.62966">
        <ele>794</ele>
        <time>2012-11-11T09:49:17Z</time>
      </trkpt>
      <trkpt lat="46.20535" lon="4.62964">
        <ele>794</ele>
        <time>2012-11-11T09:49:18Z</time>
      </trkpt>
      <trkpt lat="46.20503" lon="4.62947">
        <ele>793</ele>
        <time>2012-11-11T09:49:23Z</time>
      </trkpt>
      <trkpt lat="46.20493" lon="4.62941">
        <ele>790</ele>
        <time>2012-11-11T09:49:25Z</time>
      </trkpt>
      <trkpt lat="46.20483" lon="4.62935">
        <ele>790</ele>
        <time>2012-11-11T09:49:27Z</time>
      </trkpt>
      <trkpt lat="46.20478" lon="4.62931">
        <ele>790</ele>
        <time>2012-11-11T09:49:28Z</time>
      </trkpt>
      <trkpt lat="46.20468" lon="4.62925">
        <ele>789</ele>
        <time>2012-11-11T09:49:30Z</time>
      </trkpt>
      <trkpt lat="46.20463" lon="4.62922">
        <ele>789</ele>
        <time>2012-11-11T09:49:31Z</time>
      </trkpt>
      <trkpt lat="46.20458" lon="4.62919">
        <ele>789</ele>
        <time>2012-11-11T09:49:32Z</time>
      </trkpt>
      <trkpt lat="46.20454" lon="4.62915">
        <ele>785</ele>
        <time>2012-11-11T09:49:33Z</time>
      </trkpt>
      <trkpt lat="46.20442" lon="4.62905">
        <ele>785</ele>
        <time>2012-11-11T09:49:36Z</time>
      </trkpt>
      <trkpt lat="46.20432" lon="4.62901">
        <ele>785</ele>
        <time>2012-11-11T09:49:38Z</time>
      </trkpt>
      <trkpt lat="46.20428" lon="4.62899">
        <ele>785</ele>
        <time>2012-11-11T09:49:39Z</time>
      </trkpt>
      <trkpt lat="46.2042" lon="4.62894">
        <ele>785</ele>
        <time>2012-11-11T09:49:41Z</time>
      </trkpt>
      <trkpt lat="46.20399" lon="4.62883">
        <ele>784</ele>
        <time>2012-11-11T09:49:47Z</time>
      </trkpt>
      <trkpt lat="46.20398" lon="4.62883">
        <ele>784</ele>
        <time>2012-11-11T09:49:48Z</time>
      </trkpt>
      <trkpt lat="46.20395" lon="4.62888">
        <ele>784</ele>
        <time>2012-11-11T09:49:51Z</time>
      </trkpt>
      <trkpt lat="46.20392" lon="4.62901">
        <ele>784</ele>
        <time>2012-11-11T09:49:55Z</time>
      </trkpt>
      <trkpt lat="46.20385" lon="4.62896">
        <ele>784</ele>
        <time>2012-11-11T09:49:58Z</time>
      </trkpt>
      <trkpt lat="46.2038" lon="4.62893">
        <ele>784</ele>
        <time>2012-11-11T09:50:00Z</time>
      </trkpt>
      <trkpt lat="46.20371" lon="4.62893">
        <ele>784</ele>
        <time>2012-11-11T09:50:03Z</time>
      </trkpt>
      <trkpt lat="46.20368" lon="4.62892">
        <ele>784</ele>
        <time>2012-11-11T09:50:04Z</time>
      </trkpt>
      <trkpt lat="46.20358" lon="4.62888">
        <ele>784</ele>
        <time>2012-11-11T09:50:07Z</time>
      </trkpt>
      <trkpt lat="46.20347" lon="4.6288">
        <ele>784</ele>
        <time>2012-11-11T09:50:11Z</time>
      </trkpt>
      <trkpt lat="46.20345" lon="4.62876">
        <ele>784</ele>
        <time>2012-11-11T09:50:12Z</time>
      </trkpt>
      <trkpt lat="46.20342" lon="4.62865">
        <ele>784</ele>
        <time>2012-11-11T09:50:15Z</time>
      </trkpt>
      <trkpt lat="46.20342" lon="4.62857">
        <ele>784</ele>
        <time>2012-11-11T09:50:17Z</time>
      </trkpt>
      <trkpt lat="46.20339" lon="4.62836">
        <ele>785</ele>
        <time>2012-11-11T09:50:22Z</time>
      </trkpt>
      <trkpt lat="46.2033" lon="4.62824">
        <ele>785</ele>
        <time>2012-11-11T09:50:29Z</time>
      </trkpt>
      <trkpt lat="46.20329" lon="4.62822">
        <ele>785</ele>
        <time>2012-11-11T09:50:34Z</time>
      </trkpt>
      <trkpt lat="46.20329" lon="4.62821">
        <ele>785</ele>
        <time>2012-11-11T09:50:36Z</time>
      </trkpt>
      <trkpt lat="46.20327" lon="4.62817">
        <ele>785</ele>
        <time>2012-11-11T09:50:39Z</time>
      </trkpt>
      <trkpt lat="46.20322" lon="4.62815">
        <ele>785</ele>
        <time>2012-11-11T09:50:44Z</time>
      </trkpt>
      <trkpt lat="46.20317" lon="4.62808">
        <ele>785</ele>
        <time>2012-11-11T09:50:50Z</time>
      </trkpt>
      <trkpt lat="46.20315" lon="4.62807">
        <ele>785</ele>
        <time>2012-11-11T09:50:51Z</time>
      </trkpt>
      <trkpt lat="46.2031" lon="4.62802">
        <ele>785</ele>
        <time>2012-11-11T09:50:54Z</time>
      </trkpt>
      <trkpt lat="46.203" lon="4.62795">
        <ele>785</ele>
        <time>2012-11-11T09:50:59Z</time>
      </trkpt>
      <trkpt lat="46.20298" lon="4.62793">
        <ele>785</ele>
        <time>2012-11-11T09:51:00Z</time>
      </trkpt>
      <trkpt lat="46.20286" lon="4.62786">
        <ele>785</ele>
        <time>2012-11-11T09:51:05Z</time>
      </trkpt>
      <trkpt lat="46.20275" lon="4.62777">
        <ele>785</ele>
        <time>2012-11-11T09:51:10Z</time>
      </trkpt>
      <trkpt lat="46.20265" lon="4.62767">
        <ele>785</ele>
        <time>2012-11-11T09:51:15Z</time>
      </trkpt>
      <trkpt lat="46.20262" lon="4.62766">
        <ele>785</ele>
        <time>2012-11-11T09:51:16Z</time>
      </trkpt>
      <trkpt lat="46.20252" lon="4.62754">
        <ele>786</ele>
        <time>2012-11-11T09:51:22Z</time>
      </trkpt>
      <trkpt lat="46.20244" lon="4.62745">
        <ele>786</ele>
        <time>2012-11-11T09:51:27Z</time>
      </trkpt>
      <trkpt lat="46.20235" lon="4.62736">
        <ele>786</ele>
        <time>2012-11-11T09:51:32Z</time>
      </trkpt>
      <trkpt lat="46.20226" lon="4.62726">
        <ele>786</ele>
        <time>2012-11-11T09:51:37Z</time>
      </trkpt>
      <trkpt lat="46.20222" lon="4.62709">
        <ele>786</ele>
        <time>2012-11-11T09:51:43Z</time>
      </trkpt>
      <trkpt lat="46.20214" lon="4.627">
        <ele>786</ele>
        <time>2012-11-11T09:51:47Z</time>
      </trkpt>
      <trkpt lat="46.2021" lon="4.62695">
        <ele>786</ele>
        <time>2012-11-11T09:51:49Z</time>
      </trkpt>
      <trkpt lat="46.20205" lon="4.62687">
        <ele>786</ele>
        <time>2012-11-11T09:51:52Z</time>
      </trkpt>
      <trkpt lat="46.20196" lon="4.62676">
        <ele>787</ele>
        <time>2012-11-11T09:51:57Z</time>
      </trkpt>
      <trkpt lat="46.20189" lon="4.62666">
        <ele>787</ele>
        <time>2012-11-11T09:52:01Z</time>
      </trkpt>
      <trkpt lat="46.20186" lon="4.62662">
        <ele>787</ele>
        <time>2012-11-11T09:52:03Z</time>
      </trkpt>
      <trkpt lat="46.20185" lon="4.62656">
        <ele>787</ele>
        <time>2012-11-11T09:52:05Z</time>
      </trkpt>
      <trkpt lat="46.20178" lon="4.62642">
        <ele>787</ele>
        <time>2012-11-11T09:52:10Z</time>
      </trkpt>
      <trkpt lat="46.20169" lon="4.62622">
        <ele>787</ele>
        <time>2012-11-11T09:52:17Z</time>
      </trkpt>
      <trkpt lat="46.20165" lon="4.62612">
        <ele>787</ele>
        <time>2012-11-11T09:52:22Z</time>
      </trkpt>
      <trkpt lat="46.20161" lon="4.62605">
        <ele>787</ele>
        <time>2012-11-11T09:52:25Z</time>
      </trkpt>
      <trkpt lat="46.20151" lon="4.62591">
        <ele>787</ele>
        <time>2012-11-11T09:52:32Z</time>
      </trkpt>
      <trkpt lat="46.20144" lon="4.62579">
        <ele>786</ele>
        <time>2012-11-11T09:52:37Z</time>
      </trkpt>
      <trkpt lat="46.20139" lon="4.62573">
        <ele>786</ele>
        <time>2012-11-11T09:52:40Z</time>
      </trkpt>
      <trkpt lat="46.20132" lon="4.62567">
        <ele>785</ele>
        <time>2012-11-11T09:52:43Z</time>
      </trkpt>
      <trkpt lat="46.20119" lon="4.62561">
        <ele>785</ele>
        <time>2012-11-11T09:52:48Z</time>
      </trkpt>
      <trkpt lat="46.20105" lon="4.62553">
        <ele>784</ele>
        <time>2012-11-11T09:52:52Z</time>
      </trkpt>
      <trkpt lat="46.20102" lon="4.62551">
        <ele>784</ele>
        <time>2012-11-11T09:52:53Z</time>
      </trkpt>
      <trkpt lat="46.20087" lon="4.62543">
        <ele>784</ele>
        <time>2012-11-11T09:52:59Z</time>
      </trkpt>
      <trkpt lat="46.20072" lon="4.6253">
        <ele>784</ele>
        <time>2012-11-11T09:53:05Z</time>
      </trkpt>
      <trkpt lat="46.20056" lon="4.62528">
        <ele>784</ele>
        <time>2012-11-11T09:53:10Z</time>
      </trkpt>
      <trkpt lat="46.20041" lon="4.62526">
        <ele>785</ele>
        <time>2012-11-11T09:53:16Z</time>
      </trkpt>
      <trkpt lat="46.20035" lon="4.62525">
        <ele>785</ele>
        <time>2012-11-11T09:53:19Z</time>
      </trkpt>
      <trkpt lat="46.20025" lon="4.62525">
        <ele>785</ele>
        <time>2012-11-11T09:53:24Z</time>
      </trkpt>
      <trkpt lat="46.20012" lon="4.62521">
        <ele>786</ele>
        <time>2012-11-11T09:53:30Z</time>
      </trkpt>
      <trkpt lat="46.19999" lon="4.62512">
        <ele>787</ele>
        <time>2012-11-11T09:53:38Z</time>
      </trkpt>
      <trkpt lat="46.19985" lon="4.62503">
        <ele>786</ele>
        <time>2012-11-11T09:53:46Z</time>
      </trkpt>
      <trkpt lat="46.19975" lon="4.62497">
        <ele>788</ele>
        <time>2012-11-11T09:53:52Z</time>
      </trkpt>
      <trkpt lat="46.19965" lon="4.62492">
        <ele>788</ele>
        <time>2012-11-11T09:53:58Z</time>
      </trkpt>
      <trkpt lat="46.19963" lon="4.62491">
        <ele>788</ele>
        <time>2012-11-11T09:53:59Z</time>
      </trkpt>
      <trkpt lat="46.19946" lon="4.62483">
        <ele>788</ele>
        <time>2012-11-11T09:54:07Z</time>
      </trkpt>
      <trkpt lat="46.19931" lon="4.62475">
        <ele>789</ele>
        <time>2012-11-11T09:54:13Z</time>
      </trkpt>
      <trkpt lat="46.19927" lon="4.62471">
        <ele>789</ele>
        <time>2012-11-11T09:54:15Z</time>
      </trkpt>
      <trkpt lat="46.19915" lon="4.6246">
        <ele>789</ele>
        <time>2012-11-11T09:54:21Z</time>
      </trkpt>
      <trkpt lat="46.19904" lon="4.62454">
        <ele>789</ele>
        <time>2012-11-11T09:54:26Z</time>
      </trkpt>
      <trkpt lat="46.19897" lon="4.62451">
        <ele>789</ele>
        <time>2012-11-11T09:54:29Z</time>
      </trkpt>
      <trkpt lat="46.1989" lon="4.62449">
        <ele>789</ele>
        <time>2012-11-11T09:54:32Z</time>
      </trkpt>
      <trkpt lat="46.19879" lon="4.62448">
        <ele>789</ele>
        <time>2012-11-11T09:54:36Z</time>
      </trkpt>
      <trkpt lat="46.19859" lon="4.62457">
        <ele>789</ele>
        <time>2012-11-11T09:54:42Z</time>
      </trkpt>
      <trkpt lat="46.19855" lon="4.62457">
        <ele>789</ele>
        <time>2012-11-11T09:54:43Z</time>
      </trkpt>
      <trkpt lat="46.19844" lon="4.62458">
        <ele>789</ele>
        <time>2012-11-11T09:54:45Z</time>
      </trkpt>
      <trkpt lat="46.19824" lon="4.62456">
        <ele>789</ele>
        <time>2012-11-11T09:54:49Z</time>
      </trkpt>
      <trkpt lat="46.1982" lon="4.62456">
        <ele>789</ele>
        <time>2012-11-11T09:54:50Z</time>
      </trkpt>
      <trkpt lat="46.19808" lon="4.62455">
        <ele>789</ele>
        <time>2012-11-11T09:54:53Z</time>
      </trkpt>
      <trkpt lat="46.19795" lon="4.62458">
        <ele>789</ele>
        <time>2012-11-11T09:54:56Z</time>
      </trkpt>
      <trkpt lat="46.19786" lon="4.62461">
        <ele>789</ele>
        <time>2012-11-11T09:54:58Z</time>
      </trkpt>
      <trkpt lat="46.19781" lon="4.62461">
        <ele>789</ele>
        <time>2012-11-11T09:54:59Z</time>
      </trkpt>
      <trkpt lat="46.19753" lon="4.62466">
        <ele>789</ele>
        <time>2012-11-11T09:55:05Z</time>
      </trkpt>
      <trkpt lat="46.19744" lon="4.62466">
        <ele>791</ele>
        <time>2012-11-11T09:55:07Z</time>
      </trkpt>
      <trkpt lat="46.19731" lon="4.62471">
        <ele>791</ele>
        <time>2012-11-11T09:55:10Z</time>
      </trkpt>
      <trkpt lat="46.19727" lon="4.62473">
        <ele>791</ele>
        <time>2012-11-11T09:55:11Z</time>
      </trkpt>
      <trkpt lat="46.19716" lon="4.62479">
        <ele>791</ele>
        <time>2012-11-11T09:55:15Z</time>
      </trkpt>
      <trkpt lat="46.19709" lon="4.62481">
        <ele>792</ele>
        <time>2012-11-11T09:55:17Z</time>
      </trkpt>
      <trkpt lat="46.19693" lon="4.62487">
        <ele>792</ele>
        <time>2012-11-11T09:55:22Z</time>
      </trkpt>
      <trkpt lat="46.19673" lon="4.62498">
        <ele>791</ele>
        <time>2012-11-11T09:55:28Z</time>
      </trkpt>
      <trkpt lat="46.1966" lon="4.62507">
        <ele>789</ele>
        <time>2012-11-11T09:55:33Z</time>
      </trkpt>
      <trkpt lat="46.19648" lon="4.62515">
        <ele>786</ele>
        <time>2012-11-11T09:55:37Z</time>
      </trkpt>
      <trkpt lat="46.19638" lon="4.62522">
        <ele>785</ele>
        <time>2012-11-11T09:55:40Z</time>
      </trkpt>
      <trkpt lat="46.1963" lon="4.62529">
        <ele>784</ele>
        <time>2012-11-11T09:55:42Z</time>
      </trkpt>
      <trkpt lat="46.19611" lon="4.62549">
        <ele>783</ele>
        <time>2012-11-11T09:55:46Z</time>
      </trkpt>
      <trkpt lat="46.19606" lon="4.62553">
        <ele>782</ele>
        <time>2012-11-11T09:55:47Z</time>
      </trkpt>
      <trkpt lat="46.19601" lon="4.62556">
        <ele>781</ele>
        <time>2012-11-11T09:55:48Z</time>
      </trkpt>
      <trkpt lat="46.19597" lon="4.6256">
        <ele>781</ele>
        <time>2012-11-11T09:55:49Z</time>
      </trkpt>
      <trkpt lat="46.19582" lon="4.62569">
        <ele>775</ele>
        <time>2012-11-11T09:55:52Z</time>
      </trkpt>
      <trkpt lat="46.1957" lon="4.62571">
        <ele>775</ele>
        <time>2012-11-11T09:55:54Z</time>
      </trkpt>
      <trkpt lat="46.19557" lon="4.62571">
        <ele>774</ele>
        <time>2012-11-11T09:55:56Z</time>
      </trkpt>
      <trkpt lat="46.19536" lon="4.6256">
        <ele>773</ele>
        <time>2012-11-11T09:56:00Z</time>
      </trkpt>
      <trkpt lat="46.19531" lon="4.62557">
        <ele>773</ele>
        <time>2012-11-11T09:56:01Z</time>
      </trkpt>
      <trkpt lat="46.19526" lon="4.62555">
        <ele>773</ele>
        <time>2012-11-11T09:56:02Z</time>
      </trkpt>
      <trkpt lat="46.19519" lon="4.62554">
        <ele>772</ele>
        <time>2012-11-11T09:56:03Z</time>
      </trkpt>
      <trkpt lat="46.19512" lon="4.62553">
        <ele>772</ele>
        <time>2012-11-11T09:56:04Z</time>
      </trkpt>
      <trkpt lat="46.19507" lon="4.62554">
        <ele>772</ele>
        <time>2012-11-11T09:56:05Z</time>
      </trkpt>
      <trkpt lat="46.19496" lon="4.62561">
        <ele>765</ele>
        <time>2012-11-11T09:56:07Z</time>
      </trkpt>
      <trkpt lat="46.1949" lon="4.62566">
        <ele>764</ele>
        <time>2012-11-11T09:56:08Z</time>
      </trkpt>
      <trkpt lat="46.19474" lon="4.62581">
        <ele>764</ele>
        <time>2012-11-11T09:56:11Z</time>
      </trkpt>
      <trkpt lat="46.19468" lon="4.62589">
        <ele>759</ele>
        <time>2012-11-11T09:56:12Z</time>
      </trkpt>
      <trkpt lat="46.19462" lon="4.62598">
        <ele>758</ele>
        <time>2012-11-11T09:56:13Z</time>
      </trkpt>
      <trkpt lat="46.19456" lon="4.62608">
        <ele>757</ele>
        <time>2012-11-11T09:56:14Z</time>
      </trkpt>
      <trkpt lat="46.19448" lon="4.62631">
        <ele>756</ele>
        <time>2012-11-11T09:56:16Z</time>
      </trkpt>
      <trkpt lat="46.19442" lon="4.62651">
        <ele>755</ele>
        <time>2012-11-11T09:56:18Z</time>
      </trkpt>
      <trkpt lat="46.19435" lon="4.62666">
        <ele>754</ele>
        <time>2012-11-11T09:56:20Z</time>
      </trkpt>
      <trkpt lat="46.19426" lon="4.62675">
        <ele>750</ele>
        <time>2012-11-11T09:56:23Z</time>
      </trkpt>
      <trkpt lat="46.19424" lon="4.62676">
        <ele>750</ele>
        <time>2012-11-11T09:56:24Z</time>
      </trkpt>
      <trkpt lat="46.19423" lon="4.62676">
        <ele>750</ele>
        <time>2012-11-11T09:56:26Z</time>
      </trkpt>
      <trkpt lat="46.19419" lon="4.62671">
        <ele>752</ele>
        <time>2012-11-11T09:56:32Z</time>
      </trkpt>
      <trkpt lat="46.19417" lon="4.62668">
        <ele>753</ele>
        <time>2012-11-11T09:56:37Z</time>
      </trkpt>
      <trkpt lat="46.19415" lon="4.6267">
        <ele>752</ele>
        <time>2012-11-11T09:56:42Z</time>
      </trkpt>
      <trkpt lat="46.19414" lon="4.6267">
        <ele>752</ele>
        <time>2012-11-11T09:56:44Z</time>
      </trkpt>
      <trkpt lat="46.19412" lon="4.6267">
        <ele>752</ele>
        <time>2012-11-11T09:56:48Z</time>
      </trkpt>
      <trkpt lat="46.1941" lon="4.62669">
        <ele>752</ele>
        <time>2012-11-11T09:56:54Z</time>
      </trkpt>
      <trkpt lat="46.1941" lon="4.62668">
        <ele>752</ele>
        <time>2012-11-11T09:56:55Z</time>
      </trkpt>
      <trkpt lat="46.19411" lon="4.62672">
        <ele>752</ele>
        <time>2012-11-11T09:57:00Z</time>
      </trkpt>
      <trkpt lat="46.19411" lon="4.62673">
        <ele>752</ele>
        <time>2012-11-11T09:57:01Z</time>
      </trkpt>
      <trkpt lat="46.19409" lon="4.62672">
        <ele>752</ele>
        <time>2012-11-11T09:57:05Z</time>
      </trkpt>
      <trkpt lat="46.19409" lon="4.62672">
        <ele>752</ele>
        <time>2012-11-11T09:57:36Z</time>
      </trkpt>
      <trkpt lat="46.19412" lon="4.62672">
        <ele>752</ele>
        <time>2012-11-11T09:57:42Z</time>
      </trkpt>
      <trkpt lat="46.19415" lon="4.62668">
        <ele>753</ele>
        <time>2012-11-11T09:57:48Z</time>
      </trkpt>
      <trkpt lat="46.19415" lon="4.62666">
        <ele>753</ele>
        <time>2012-11-11T09:57:58Z</time>
      </trkpt>
      <trkpt lat="46.19417" lon="4.62669">
        <ele>753</ele>
        <time>2012-11-11T09:58:05Z</time>
      </trkpt>
      <trkpt lat="46.19415" lon="4.62671">
        <ele>752</ele>
        <time>2012-11-11T09:58:19Z</time>
      </trkpt>
      <trkpt lat="46.19411" lon="4.62673">
        <ele>752</ele>
        <time>2012-11-11T09:58:26Z</time>
      </trkpt>
      <trkpt lat="46.1941" lon="4.62672">
        <ele>752</ele>
        <time>2012-11-11T09:58:32Z</time>
      </trkpt>
      <trkpt lat="46.1941" lon="4.62671">
        <ele>752</ele>
        <time>2012-11-11T09:58:43Z</time>
      </trkpt>
      <trkpt lat="46.1941" lon="4.62676">
        <ele>752</ele>
        <time>2012-11-11T09:59:14Z</time>
      </trkpt>
      <trkpt lat="46.19409" lon="4.62676">
        <ele>751</ele>
        <time>2012-11-11T09:59:15Z</time>
      </trkpt>
      <trkpt lat="46.19407" lon="4.62677">
        <ele>751</ele>
        <time>2012-11-11T09:59:20Z</time>
      </trkpt>
      <trkpt lat="46.19408" lon="4.62675">
        <ele>751</ele>
        <time>2012-11-11T10:00:30Z</time>
      </trkpt>
      <trkpt lat="46.19408" lon="4.62674">
        <ele>752</ele>
        <time>2012-11-11T10:00:33Z</time>
      </trkpt>
      <trkpt lat="46.1941" lon="4.62669">
        <ele>752</ele>
        <time>2012-11-11T10:00:57Z</time>
      </trkpt>
      <trkpt lat="46.1941" lon="4.6267">
        <ele>752</ele>
        <time>2012-11-11T10:01:04Z</time>
      </trkpt>
      <trkpt lat="46.1941" lon="4.62673">
        <ele>752</ele>
        <time>2012-11-11T10:01:26Z</time>
      </trkpt>
      <trkpt lat="46.19414" lon="4.62671">
        <ele>752</ele>
        <time>2012-11-11T10:01:33Z</time>
      </trkpt>
      <trkpt lat="46.19414" lon="4.6267">
        <ele>752</ele>
        <time>2012-11-11T10:01:36Z</time>
      </trkpt>
      <trkpt lat="46.19412" lon="4.62669">
        <ele>752</ele>
        <time>2012-11-11T10:01:38Z</time>
      </trkpt>
      <trkpt lat="46.19412" lon="4.6267">
        <ele>752</ele>
        <time>2012-11-11T10:01:42Z</time>
      </trkpt>
      <trkpt lat="46.19412" lon="4.62671">
        <ele>752</ele>
        <time>2012-11-11T10:01:49Z</time>
      </trkpt>
      <trkpt lat="46.19415" lon="4.62671">
        <ele>752</ele>
        <time>2012-11-11T10:02:08Z</time>
      </trkpt>
      <trkpt lat="46.19416" lon="4.62669">
        <ele>753</ele>
        <time>2012-11-11T10:03:08Z</time>
      </trkpt>
      <trkpt lat="46.19416" lon="4.6267">
        <ele>752</ele>
        <time>2012-11-11T10:03:18Z</time>
      </trkpt>
      <trkpt lat="46.19415" lon="4.62669">
        <ele>753</ele>
        <time>2012-11-11T10:03:26Z</time>
      </trkpt>
      <trkpt lat="46.19416" lon="4.62667">
        <ele>753</ele>
        <time>2012-11-11T10:04:55Z</time>
      </trkpt>
      <trkpt lat="46.19416" lon="4.62667">
        <ele>753</ele>
        <time>2012-11-11T10:05:02Z</time>
      </trkpt>
      <trkpt lat="46.19418" lon="4.62663">
        <ele>753</ele>
        <time>2012-11-11T10:05:20Z</time>
      </trkpt>
      <trkpt lat="46.1942" lon="4.62659">
        <ele>754</ele>
        <time>2012-11-11T10:05:26Z</time>
      </trkpt>
      <trkpt lat="46.19419" lon="4.62662">
        <ele>754</ele>
        <time>2012-11-11T10:05:36Z</time>
      </trkpt>
      <trkpt lat="46.19418" lon="4.62665">
        <ele>753</ele>
        <time>2012-11-11T10:05:41Z</time>
      </trkpt>
      <trkpt lat="46.19418" lon="4.62672">
        <ele>752</ele>
        <time>2012-11-11T10:06:03Z</time>
      </trkpt>
      <trkpt lat="46.19416" lon="4.62675">
        <ele>752</ele>
        <time>2012-11-11T10:06:10Z</time>
      </trkpt>
      <trkpt lat="46.19412" lon="4.62679">
        <ele>751</ele>
        <time>2012-11-11T10:06:18Z</time>
      </trkpt>
      <trkpt lat="46.19409" lon="4.62681">
        <ele>751</ele>
        <time>2012-11-11T10:06:24Z</time>
      </trkpt>
      <trkpt lat="46.19408" lon="4.62681">
        <ele>751</ele>
        <time>2012-11-11T10:06:30Z</time>
      </trkpt>
      <trkpt lat="46.19403" lon="4.62681">
        <ele>751</ele>
        <time>2012-11-11T10:06:33Z</time>
      </trkpt>
      <trkpt lat="46.19399" lon="4.62684">
        <ele>750</ele>
        <time>2012-11-11T10:06:35Z</time>
      </trkpt>
      <trkpt lat="46.19391" lon="4.62691">
        <ele>750</ele>
        <time>2012-11-11T10:06:39Z</time>
      </trkpt>
      <trkpt lat="46.19378" lon="4.62701">
        <ele>750</ele>
        <time>2012-11-11T10:06:45Z</time>
      </trkpt>
      <trkpt lat="46.19367" lon="4.62707">
        <ele>749</ele>
        <time>2012-11-11T10:06:50Z</time>
      </trkpt>
      <trkpt lat="46.19365" lon="4.62709">
        <ele>749</ele>
        <time>2012-11-11T10:06:51Z</time>
      </trkpt>
      <trkpt lat="46.19349" lon="4.62726">
        <ele>749</ele>
        <time>2012-11-11T10:06:57Z</time>
      </trkpt>
      <trkpt lat="46.19346" lon="4.6273">
        <ele>749</ele>
        <time>2012-11-11T10:06:58Z</time>
      </trkpt>
      <trkpt lat="46.19338" lon="4.62736">
        <ele>749</ele>
        <time>2012-11-11T10:07:00Z</time>
      </trkpt>
      <trkpt lat="46.19334" lon="4.6274">
        <ele>749</ele>
        <time>2012-11-11T10:07:01Z</time>
      </trkpt>
      <trkpt lat="46.19328" lon="4.62743">
        <ele>749</ele>
        <time>2012-11-11T10:07:02Z</time>
      </trkpt>
      <trkpt lat="46.19314" lon="4.62756">
        <ele>746</ele>
        <time>2012-11-11T10:07:05Z</time>
      </trkpt>
      <trkpt lat="46.19303" lon="4.62766">
        <ele>745</ele>
        <time>2012-11-11T10:07:07Z</time>
      </trkpt>
      <trkpt lat="46.19271" lon="4.62801">
        <ele>743</ele>
        <time>2012-11-11T10:07:12Z</time>
      </trkpt>
      <trkpt lat="46.19251" lon="4.62828">
        <ele>743</ele>
        <time>2012-11-11T10:07:16Z</time>
      </trkpt>
      <trkpt lat="46.19244" lon="4.6284">
        <ele>742</ele>
        <time>2012-11-11T10:07:19Z</time>
      </trkpt>
      <trkpt lat="46.19242" lon="4.62844">
        <ele>741</ele>
        <time>2012-11-11T10:07:20Z</time>
      </trkpt>
      <trkpt lat="46.19233" lon="4.62871">
        <ele>740</ele>
        <time>2012-11-11T10:07:25Z</time>
      </trkpt>
      <trkpt lat="46.19227" lon="4.62886">
        <ele>740</ele>
        <time>2012-11-11T10:07:28Z</time>
      </trkpt>
      <trkpt lat="46.19226" lon="4.62892">
        <ele>740</ele>
        <time>2012-11-11T10:07:29Z</time>
      </trkpt>
      <trkpt lat="46.19222" lon="4.62905">
        <ele>740</ele>
        <time>2012-11-11T10:07:31Z</time>
      </trkpt>
      <trkpt lat="46.19214" lon="4.62919">
        <ele>737</ele>
        <time>2012-11-11T10:07:33Z</time>
      </trkpt>
      <trkpt lat="46.19211" lon="4.62926">
        <ele>737</ele>
        <time>2012-11-11T10:07:34Z</time>
      </trkpt>
      <trkpt lat="46.19207" lon="4.62932">
        <ele>736</ele>
        <time>2012-11-11T10:07:35Z</time>
      </trkpt>
      <trkpt lat="46.19205" lon="4.62939">
        <ele>736</ele>
        <time>2012-11-11T10:07:36Z</time>
      </trkpt>
      <trkpt lat="46.19202" lon="4.62954">
        <ele>735</ele>
        <time>2012-11-11T10:07:38Z</time>
      </trkpt>
      <trkpt lat="46.19197" lon="4.62967">
        <ele>735</ele>
        <time>2012-11-11T10:07:40Z</time>
      </trkpt>
      <trkpt lat="46.19193" lon="4.62979">
        <ele>734</ele>
        <time>2012-11-11T10:07:42Z</time>
      </trkpt>
      <trkpt lat="46.1919" lon="4.62987">
        <ele>734</ele>
        <time>2012-11-11T10:07:43Z</time>
      </trkpt>
      <trkpt lat="46.19188" lon="4.62999">
        <ele>733</ele>
        <time>2012-11-11T10:07:45Z</time>
      </trkpt>
      <trkpt lat="46.1919" lon="4.63011">
        <ele>728</ele>
        <time>2012-11-11T10:07:47Z</time>
      </trkpt>
      <trkpt lat="46.19203" lon="4.63035">
        <ele>727</ele>
        <time>2012-11-11T10:07:51Z</time>
      </trkpt>
      <trkpt lat="46.19209" lon="4.63057">
        <ele>725</ele>
        <time>2012-11-11T10:07:54Z</time>
      </trkpt>
      <trkpt lat="46.1921" lon="4.63087">
        <ele>716</ele>
        <time>2012-11-11T10:07:57Z</time>
      </trkpt>
      <trkpt lat="46.19211" lon="4.63098">
        <ele>715</ele>
        <time>2012-11-11T10:07:58Z</time>
      </trkpt>
      <trkpt lat="46.19221" lon="4.63121">
        <ele>714</ele>
        <time>2012-11-11T10:08:01Z</time>
      </trkpt>
      <trkpt lat="46.19226" lon="4.63126">
        <ele>714</ele>
        <time>2012-11-11T10:08:02Z</time>
      </trkpt>
      <trkpt lat="46.19231" lon="4.63132">
        <ele>713</ele>
        <time>2012-11-11T10:08:03Z</time>
      </trkpt>
      <trkpt lat="46.19235" lon="4.63146">
        <ele>712</ele>
        <time>2012-11-11T10:08:05Z</time>
      </trkpt>
      <trkpt lat="46.19234" lon="4.6316">
        <ele>711</ele>
        <time>2012-11-11T10:08:07Z</time>
      </trkpt>
      <trkpt lat="46.19233" lon="4.6317">
        <ele>705</ele>
        <time>2012-11-11T10:08:09Z</time>
      </trkpt>
      <trkpt lat="46.19231" lon="4.6317">
        <ele>705</ele>
        <time>2012-11-11T10:08:12Z</time>
      </trkpt>
      <trkpt lat="46.19232" lon="4.63168">
        <ele>705</ele>
        <time>2012-11-11T10:08:17Z</time>
      </trkpt>
      <trkpt lat="46.19234" lon="4.63166">
        <ele>711</ele>
        <time>2012-11-11T10:08:32Z</time>
      </trkpt>
      <trkpt lat="46.19235" lon="4.63168">
        <ele>706</ele>
        <time>2012-11-11T10:08:37Z</time>
      </trkpt>
      <trkpt lat="46.19236" lon="4.6317">
        <ele>706</ele>
        <time>2012-11-11T10:08:39Z</time>
      </trkpt>
      <trkpt lat="46.19237" lon="4.63178">
        <ele>705</ele>
        <time>2012-11-11T10:08:41Z</time>
      </trkpt>
      <trkpt lat="46.19238" lon="4.63181">
        <ele>705</ele>
        <time>2012-11-11T10:08:42Z</time>
      </trkpt>
      <trkpt lat="46.19243" lon="4.63196">
        <ele>704</ele>
        <time>2012-11-11T10:08:45Z</time>
      </trkpt>
      <trkpt lat="46.19244" lon="4.63202">
        <ele>704</ele>
        <time>2012-11-11T10:08:46Z</time>
      </trkpt>
      <trkpt lat="46.1925" lon="4.6322">
        <ele>704</ele>
        <time>2012-11-11T10:08:49Z</time>
      </trkpt>
      <trkpt lat="46.19251" lon="4.63228">
        <ele>704</ele>
        <time>2012-11-11T10:08:50Z</time>
      </trkpt>
      <trkpt lat="46.19255" lon="4.63257">
        <ele>702</ele>
        <time>2012-11-11T10:08:54Z</time>
      </trkpt>
      <trkpt lat="46.19257" lon="4.63264">
        <ele>702</ele>
        <time>2012-11-11T10:08:55Z</time>
      </trkpt>
      <trkpt lat="46.19259" lon="4.63274">
        <ele>701</ele>
        <time>2012-11-11T10:08:57Z</time>
      </trkpt>
      <trkpt lat="46.19263" lon="4.63287">
        <ele>701</ele>
        <time>2012-11-11T10:09:00Z</time>
      </trkpt>
      <trkpt lat="46.19269" lon="4.63317">
        <ele>700</ele>
        <time>2012-11-11T10:09:07Z</time>
      </trkpt>
      <trkpt lat="46.19269" lon="4.63325">
        <ele>700</ele>
        <time>2012-11-11T10:09:09Z</time>
      </trkpt>
      <trkpt lat="46.19268" lon="4.63336">
        <ele>699</ele>
        <time>2012-11-11T10:09:12Z</time>
      </trkpt>
      <trkpt lat="46.19268" lon="4.63351">
        <ele>698</ele>
        <time>2012-11-11T10:09:17Z</time>
      </trkpt>
      <trkpt lat="46.19268" lon="4.63355">
        <ele>698</ele>
        <time>2012-11-11T10:09:21Z</time>
      </trkpt>
      <trkpt lat="46.19266" lon="4.63355">
        <ele>698</ele>
        <time>2012-11-11T10:09:31Z</time>
      </trkpt>
      <trkpt lat="46.1927" lon="4.63353">
        <ele>698</ele>
        <time>2012-11-11T10:10:00Z</time>
      </trkpt>
      <trkpt lat="46.19275" lon="4.63356">
        <ele>698</ele>
        <time>2012-11-11T10:10:06Z</time>
      </trkpt>
      <trkpt lat="46.19274" lon="4.63359">
        <ele>698</ele>
        <time>2012-11-11T10:10:11Z</time>
      </trkpt>
      <trkpt lat="46.19274" lon="4.63357">
        <ele>698</ele>
        <time>2012-11-11T10:10:33Z</time>
      </trkpt>
      <trkpt lat="46.19274" lon="4.63359">
        <ele>698</ele>
        <time>2012-11-11T10:10:41Z</time>
      </trkpt>
      <trkpt lat="46.19274" lon="4.63361">
        <ele>698</ele>
        <time>2012-11-11T10:10:42Z</time>
      </trkpt>
      <trkpt lat="46.19273" lon="4.63369">
        <ele>698</ele>
        <time>2012-11-11T10:10:44Z</time>
      </trkpt>
      <trkpt lat="46.19272" lon="4.63386">
        <ele>697</ele>
        <time>2012-11-11T10:10:47Z</time>
      </trkpt>
      <trkpt lat="46.19272" lon="4.63394">
        <ele>697</ele>
        <time>2012-11-11T10:10:48Z</time>
      </trkpt>
      <trkpt lat="46.19273" lon="4.63402">
        <ele>697</ele>
        <time>2012-11-11T10:10:49Z</time>
      </trkpt>
      <trkpt lat="46.19273" lon="4.63411">
        <ele>697</ele>
        <time>2012-11-11T10:10:50Z</time>
      </trkpt>
      <trkpt lat="46.19272" lon="4.63428">
        <ele>696</ele>
        <time>2012-11-11T10:10:52Z</time>
      </trkpt>
      <trkpt lat="46.19262" lon="4.63447">
        <ele>695</ele>
        <time>2012-11-11T10:10:55Z</time>
      </trkpt>
      <trkpt lat="46.19259" lon="4.63464">
        <ele>695</ele>
        <time>2012-11-11T10:10:58Z</time>
      </trkpt>
      <trkpt lat="46.19259" lon="4.63471">
        <ele>695</ele>
        <time>2012-11-11T10:11:02Z</time>
      </trkpt>
      <trkpt lat="46.19257" lon="4.63486">
        <ele>695</ele>
        <time>2012-11-11T10:11:08Z</time>
      </trkpt>
      <trkpt lat="46.19256" lon="4.63504">
        <ele>695</ele>
        <time>2012-11-11T10:11:13Z</time>
      </trkpt>
      <trkpt lat="46.19254" lon="4.63517">
        <ele>695</ele>
        <time>2012-11-11T10:11:16Z</time>
      </trkpt>
      <trkpt lat="46.19254" lon="4.63521">
        <ele>694</ele>
        <time>2012-11-11T10:11:17Z</time>
      </trkpt>
      <trkpt lat="46.19258" lon="4.63544">
        <ele>694</ele>
        <time>2012-11-11T10:11:21Z</time>
      </trkpt>
      <trkpt lat="46.19261" lon="4.63556">
        <ele>694</ele>
        <time>2012-11-11T10:11:23Z</time>
      </trkpt>
      <trkpt lat="46.19262" lon="4.63569">
        <ele>694</ele>
        <time>2012-11-11T10:11:25Z</time>
      </trkpt>
      <trkpt lat="46.19262" lon="4.63575">
        <ele>694</ele>
        <time>2012-11-11T10:11:26Z</time>
      </trkpt>
      <trkpt lat="46.19261" lon="4.63582">
        <ele>694</ele>
        <time>2012-11-11T10:11:27Z</time>
      </trkpt>
      <trkpt lat="46.19261" lon="4.63588">
        <ele>693</ele>
        <time>2012-11-11T10:11:28Z</time>
      </trkpt>
      <trkpt lat="46.19264" lon="4.63616">
        <ele>692</ele>
        <time>2012-11-11T10:11:32Z</time>
      </trkpt>
      <trkpt lat="46.19264" lon="4.63623">
        <ele>692</ele>
        <time>2012-11-11T10:11:33Z</time>
      </trkpt>
      <trkpt lat="46.19265" lon="4.63637">
        <ele>691</ele>
        <time>2012-11-11T10:11:35Z</time>
      </trkpt>
      <trkpt lat="46.19265" lon="4.63644">
        <ele>691</ele>
        <time>2012-11-11T10:11:36Z</time>
      </trkpt>
      <trkpt lat="46.19263" lon="4.63664">
        <ele>691</ele>
        <time>2012-11-11T10:11:39Z</time>
      </trkpt>
      <trkpt lat="46.19261" lon="4.6367">
        <ele>690</ele>
        <time>2012-11-11T10:11:40Z</time>
      </trkpt>
      <trkpt lat="46.1926" lon="4.63678">
        <ele>689</ele>
        <time>2012-11-11T10:11:41Z</time>
      </trkpt>
      <trkpt lat="46.19259" lon="4.63699">
        <ele>688</ele>
        <time>2012-11-11T10:11:44Z</time>
      </trkpt>
      <trkpt lat="46.19255" lon="4.63713">
        <ele>688</ele>
        <time>2012-11-11T10:11:46Z</time>
      </trkpt>
      <trkpt lat="46.19252" lon="4.63734">
        <ele>687</ele>
        <time>2012-11-11T10:11:49Z</time>
      </trkpt>
      <trkpt lat="46.19251" lon="4.63742">
        <ele>687</ele>
        <time>2012-11-11T10:11:50Z</time>
      </trkpt>
      <trkpt lat="46.19248" lon="4.63757">
        <ele>685</ele>
        <time>2012-11-11T10:11:53Z</time>
      </trkpt>
      <trkpt lat="46.19246" lon="4.63766">
        <ele>684</ele>
        <time>2012-11-11T10:11:56Z</time>
      </trkpt>
      <trkpt lat="46.19245" lon="4.63772">
        <ele>683</ele>
        <time>2012-11-11T10:11:58Z</time>
      </trkpt>
      <trkpt lat="46.19245" lon="4.63774">
        <ele>683</ele>
        <time>2012-11-11T10:12:03Z</time>
      </trkpt>
      <trkpt lat="46.19246" lon="4.63775">
        <ele>683</ele>
        <time>2012-11-11T10:12:14Z</time>
      </trkpt>
      <trkpt lat="46.19244" lon="4.63773">
        <ele>683</ele>
        <time>2012-11-11T10:12:21Z</time>
      </trkpt>
      <trkpt lat="46.19245" lon="4.63769">
        <ele>683</ele>
        <time>2012-11-11T10:12:33Z</time>
      </trkpt>
      <trkpt lat="46.19245" lon="4.63772">
        <ele>683</ele>
        <time>2012-11-11T10:12:40Z</time>
      </trkpt>
      <trkpt lat="46.19245" lon="4.63773">
        <ele>683</ele>
        <time>2012-11-11T10:12:41Z</time>
      </trkpt>
      <trkpt lat="46.19242" lon="4.63774">
        <ele>683</ele>
        <time>2012-11-11T10:12:46Z</time>
      </trkpt>
      <trkpt lat="46.19241" lon="4.63774">
        <ele>683</ele>
        <time>2012-11-11T10:12:47Z</time>
      </trkpt>
      <trkpt lat="46.19237" lon="4.63773">
        <ele>683</ele>
        <time>2012-11-11T10:12:50Z</time>
      </trkpt>
      <trkpt lat="46.19233" lon="4.63771">
        <ele>683</ele>
        <time>2012-11-11T10:12:53Z</time>
      </trkpt>
      <trkpt lat="46.1923" lon="4.63769">
        <ele>683</ele>
        <time>2012-11-11T10:12:57Z</time>
      </trkpt>
      <trkpt lat="46.19228" lon="4.6377">
        <ele>682</ele>
        <time>2012-11-11T10:13:04Z</time>
      </trkpt>
      <trkpt lat="46.19226" lon="4.63769">
        <ele>682</ele>
        <time>2012-11-11T10:13:07Z</time>
      </trkpt>
      <trkpt lat="46.19224" lon="4.63771">
        <ele>682</ele>
        <time>2012-11-11T10:14:13Z</time>
      </trkpt>
      <trkpt lat="46.19224" lon="4.63771">
        <ele>682</ele>
        <time>2012-11-11T10:14:18Z</time>
      </trkpt>
      <trkpt lat="46.19226" lon="4.6377">
        <ele>682</ele>
        <time>2012-11-11T10:14:32Z</time>
      </trkpt>
      <trkpt lat="46.19227" lon="4.63771">
        <ele>682</ele>
        <time>2012-11-11T10:14:33Z</time>
      </trkpt>
      <trkpt lat="46.19231" lon="4.63774">
        <ele>682</ele>
        <time>2012-11-11T10:14:37Z</time>
      </trkpt>
      <trkpt lat="46.19233" lon="4.63775">
        <ele>682</ele>
        <time>2012-11-11T10:14:39Z</time>
      </trkpt>
      <trkpt lat="46.19235" lon="4.63773">
        <ele>683</ele>
        <time>2012-11-11T10:14:42Z</time>
      </trkpt>
      <trkpt lat="46.19236" lon="4.63773">
        <ele>683</ele>
        <time>2012-11-11T10:14:45Z</time>
      </trkpt>
      <trkpt lat="46.19238" lon="4.63772">
        <ele>683</ele>
        <time>2012-11-11T10:14:47Z</time>
      </trkpt>
      <trkpt lat="46.19239" lon="4.63772">
        <ele>683</ele>
        <time>2012-11-11T10:14:48Z</time>
      </trkpt>
      <trkpt lat="46.1924" lon="4.63772">
        <ele>683</ele>
        <time>2012-11-11T10:14:57Z</time>
      </trkpt>
      <trkpt lat="46.19239" lon="4.6377">
        <ele>683</ele>
        <time>2012-11-11T10:15:04Z</time>
      </trkpt>
      <trkpt lat="46.19241" lon="4.63769">
        <ele>683</ele>
        <time>2012-11-11T10:15:17Z</time>
      </trkpt>
      <trkpt lat="46.19241" lon="4.63761">
        <ele>684</ele>
        <time>2012-11-11T10:15:20Z</time>
      </trkpt>
      <trkpt lat="46.19242" lon="4.63755">
        <ele>685</ele>
        <time>2012-11-11T10:15:23Z</time>
      </trkpt>
      <trkpt lat="46.19246" lon="4.63753">
        <ele>686</ele>
        <time>2012-11-11T10:15:26Z</time>
      </trkpt>
      <trkpt lat="46.19254" lon="4.63762">
        <ele>685</ele>
        <time>2012-11-11T10:15:31Z</time>
      </trkpt>
      <trkpt lat="46.19262" lon="4.63781">
        <ele>683</ele>
        <time>2012-11-11T10:15:36Z</time>
      </trkpt>
      <trkpt lat="46.19265" lon="4.63784">
        <ele>682</ele>
        <time>2012-11-11T10:15:37Z</time>
      </trkpt>
      <trkpt lat="46.19271" lon="4.63786">
        <ele>682</ele>
        <time>2012-11-11T10:15:39Z</time>
      </trkpt>
      <trkpt lat="46.19277" lon="4.63791">
        <ele>682</ele>
        <time>2012-11-11T10:15:41Z</time>
      </trkpt>
      <trkpt lat="46.19283" lon="4.63795">
        <ele>681</ele>
        <time>2012-11-11T10:15:43Z</time>
      </trkpt>
      <trkpt lat="46.19286" lon="4.63799">
        <ele>681</ele>
        <time>2012-11-11T10:15:44Z</time>
      </trkpt>
      <trkpt lat="46.19297" lon="4.63809">
        <ele>681</ele>
        <time>2012-11-11T10:15:48Z</time>
      </trkpt>
      <trkpt lat="46.19299" lon="4.63813">
        <ele>681</ele>
        <time>2012-11-11T10:15:51Z</time>
      </trkpt>
      <trkpt lat="46.19298" lon="4.63814">
        <ele>681</ele>
        <time>2012-11-11T10:15:54Z</time>
      </trkpt>
      <trkpt lat="46.19299" lon="4.63817">
        <ele>680</ele>
        <time>2012-11-11T10:15:57Z</time>
      </trkpt>
      <trkpt lat="46.193" lon="4.6382">
        <ele>680</ele>
        <time>2012-11-11T10:15:59Z</time>
      </trkpt>
      <trkpt lat="46.19305" lon="4.63826">
        <ele>680</ele>
        <time>2012-11-11T10:16:01Z</time>
      </trkpt>
      <trkpt lat="46.19308" lon="4.6383">
        <ele>680</ele>
        <time>2012-11-11T10:16:02Z</time>
      </trkpt>
      <trkpt lat="46.19321" lon="4.63847">
        <ele>674</ele>
        <time>2012-11-11T10:16:05Z</time>
      </trkpt>
      <trkpt lat="46.19326" lon="4.63864">
        <ele>672</ele>
        <time>2012-11-11T10:16:08Z</time>
      </trkpt>
      <trkpt lat="46.19325" lon="4.63872">
        <ele>672</ele>
        <time>2012-11-11T10:16:10Z</time>
      </trkpt>
      <trkpt lat="46.19324" lon="4.63876">
        <ele>671</ele>
        <time>2012-11-11T10:16:11Z</time>
      </trkpt>
      <trkpt lat="46.19321" lon="4.63885">
        <ele>670</ele>
        <time>2012-11-11T10:16:13Z</time>
      </trkpt>
      <trkpt lat="46.19312" lon="4.63906">
        <ele>668</ele>
        <time>2012-11-11T10:16:17Z</time>
      </trkpt>
      <trkpt lat="46.1931" lon="4.63911">
        <ele>668</ele>
        <time>2012-11-11T10:16:20Z</time>
      </trkpt>
      <trkpt lat="46.19309" lon="4.63911">
        <ele>668</ele>
        <time>2012-11-11T10:16:23Z</time>
      </trkpt>
      <trkpt lat="46.19307" lon="4.63914">
        <ele>668</ele>
        <time>2012-11-11T10:16:26Z</time>
      </trkpt>
      <trkpt lat="46.19306" lon="4.63921">
        <ele>661</ele>
        <time>2012-11-11T10:16:28Z</time>
      </trkpt>
      <trkpt lat="46.19303" lon="4.63925">
        <ele>660</ele>
        <time>2012-11-11T10:16:30Z</time>
      </trkpt>
      <trkpt lat="46.19303" lon="4.63927">
        <ele>660</ele>
        <time>2012-11-11T10:16:35Z</time>
      </trkpt>
      <trkpt lat="46.19301" lon="4.63929">
        <ele>660</ele>
        <time>2012-11-11T10:16:41Z</time>
      </trkpt>
      <trkpt lat="46.19298" lon="4.63934">
        <ele>660</ele>
        <time>2012-11-11T10:16:48Z</time>
      </trkpt>
      <trkpt lat="46.19297" lon="4.63935">
        <ele>660</ele>
        <time>2012-11-11T10:16:56Z</time>
      </trkpt>
      <trkpt lat="46.19295" lon="4.63935">
        <ele>660</ele>
        <time>2012-11-11T10:17:05Z</time>
      </trkpt>
      <trkpt lat="46.19294" lon="4.63935">
        <ele>660</ele>
        <time>2012-11-11T10:17:06Z</time>
      </trkpt>
      <trkpt lat="46.19293" lon="4.6394">
        <ele>659</ele>
        <time>2012-11-11T10:17:09Z</time>
      </trkpt>
      <trkpt lat="46.19293" lon="4.63942">
        <ele>659</ele>
        <time>2012-11-11T10:17:15Z</time>
      </trkpt>
      <trkpt lat="46.19293" lon="4.63945">
        <ele>659</ele>
        <time>2012-11-11T10:17:22Z</time>
      </trkpt>
      <trkpt lat="46.19296" lon="4.63949">
        <ele>659</ele>
        <time>2012-11-11T10:17:33Z</time>
      </trkpt>
      <trkpt lat="46.19294" lon="4.63947">
        <ele>659</ele>
        <time>2012-11-11T10:18:04Z</time>
      </trkpt>
      <trkpt lat="46.19297" lon="4.63944">
        <ele>659</ele>
        <time>2012-11-11T10:18:42Z</time>
      </trkpt>
      <trkpt lat="46.19298" lon="4.63944">
        <ele>659</ele>
        <time>2012-11-11T10:18:43Z</time>
      </trkpt>
      <trkpt lat="46.19299" lon="4.63945">
        <ele>659</ele>
        <time>2012-11-11T10:18:46Z</time>
      </trkpt>
      <trkpt lat="46.19297" lon="4.63944">
        <ele>659</ele>
        <time>2012-11-11T10:19:33Z</time>
      </trkpt>
      <trkpt lat="46.19297" lon="4.63947">
        <ele>659</ele>
        <time>2012-11-11T10:20:19Z</time>
      </trkpt>
      <trkpt lat="46.19298" lon="4.63943">
        <ele>659</ele>
        <time>2012-11-11T10:20:53Z</time>
      </trkpt>
      <trkpt lat="46.19298" lon="4.63945">
        <ele>659</ele>
        <time>2012-11-11T10:21:27Z</time>
      </trkpt>
      <trkpt lat="46.19297" lon="4.63943">
        <ele>659</ele>
        <time>2012-11-11T10:21:58Z</time>
      </trkpt>
      <trkpt lat="46.19298" lon="4.63943">
        <ele>659</ele>
        <time>2012-11-11T10:22:00Z</time>
      </trkpt>
      <trkpt lat="46.19297" lon="4.63943">
        <ele>659</ele>
        <time>2012-11-11T10:22:10Z</time>
      </trkpt>
      <trkpt lat="46.19296" lon="4.63946">
        <ele>659</ele>
        <time>2012-11-11T10:22:57Z</time>
      </trkpt>
      <trkpt lat="46.19297" lon="4.63951">
        <ele>659</ele>
        <time>2012-11-11T10:25:08Z</time>
      </trkpt>
      <trkpt lat="46.19297" lon="4.63955">
        <ele>658</ele>
        <time>2012-11-11T10:25:10Z</time>
      </trkpt>
      <trkpt lat="46.19297" lon="4.63959">
        <ele>658</ele>
        <time>2012-11-11T10:25:11Z</time>
      </trkpt>
      <trkpt lat="46.19296" lon="4.63968">
        <ele>657</ele>
        <time>2012-11-11T10:25:13Z</time>
      </trkpt>
      <trkpt lat="46.19295" lon="4.63988">
        <ele>656</ele>
        <time>2012-11-11T10:25:17Z</time>
      </trkpt>
      <trkpt lat="46.19292" lon="4.64014">
        <ele>649</ele>
        <time>2012-11-11T10:25:23Z</time>
      </trkpt>
      <trkpt lat="46.19291" lon="4.64021">
        <ele>648</ele>
        <time>2012-11-11T10:25:26Z</time>
      </trkpt>
      <trkpt lat="46.19291" lon="4.64027">
        <ele>648</ele>
        <time>2012-11-11T10:25:29Z</time>
      </trkpt>
      <trkpt lat="46.19294" lon="4.64039">
        <ele>647</ele>
        <time>2012-11-11T10:25:35Z</time>
      </trkpt>
      <trkpt lat="46.19296" lon="4.6405">
        <ele>647</ele>
        <time>2012-11-11T10:25:41Z</time>
      </trkpt>
      <trkpt lat="46.19296" lon="4.64061">
        <ele>646</ele>
        <time>2012-11-11T10:25:46Z</time>
      </trkpt>
      <trkpt lat="46.19296" lon="4.64061">
        <ele>646</ele>
        <time>2012-11-11T10:25:56Z</time>
      </trkpt>
      <trkpt lat="46.19297" lon="4.64062">
        <ele>646</ele>
        <time>2012-11-11T10:26:08Z</time>
      </trkpt>
      <trkpt lat="46.19296" lon="4.64065">
        <ele>646</ele>
        <time>2012-11-11T10:26:17Z</time>
      </trkpt>
      <trkpt lat="46.19295" lon="4.6407">
        <ele>646</ele>
        <time>2012-11-11T10:26:24Z</time>
      </trkpt>
      <trkpt lat="46.19295" lon="4.64072">
        <ele>646</ele>
        <time>2012-11-11T10:26:25Z</time>
      </trkpt>
      <trkpt lat="46.19294" lon="4.64086">
        <ele>639</ele>
        <time>2012-11-11T10:26:30Z</time>
      </trkpt>
      <trkpt lat="46.19294" lon="4.64091">
        <ele>638</ele>
        <time>2012-11-11T10:26:35Z</time>
      </trkpt>
      <trkpt lat="46.19292" lon="4.64107">
        <ele>638</ele>
        <time>2012-11-11T10:26:39Z</time>
      </trkpt>
      <trkpt lat="46.19291" lon="4.64122">
        <ele>636</ele>
        <time>2012-11-11T10:26:44Z</time>
      </trkpt>
      <trkpt lat="46.19294" lon="4.64137">
        <ele>635</ele>
        <time>2012-11-11T10:26:48Z</time>
      </trkpt>
      <trkpt lat="46.19298" lon="4.64162">
        <ele>634</ele>
        <time>2012-11-11T10:26:54Z</time>
      </trkpt>
      <trkpt lat="46.19296" lon="4.64175">
        <ele>626</ele>
        <time>2012-11-11T10:26:57Z</time>
      </trkpt>
      <trkpt lat="46.19295" lon="4.64187">
        <ele>626</ele>
        <time>2012-11-11T10:27:00Z</time>
      </trkpt>
      <trkpt lat="46.1929" lon="4.64206">
        <ele>624</ele>
        <time>2012-11-11T10:27:05Z</time>
      </trkpt>
      <trkpt lat="46.19286" lon="4.64227">
        <ele>623</ele>
        <time>2012-11-11T10:27:09Z</time>
      </trkpt>
      <trkpt lat="46.19285" lon="4.64232">
        <ele>622</ele>
        <time>2012-11-11T10:27:10Z</time>
      </trkpt>
      <trkpt lat="46.19281" lon="4.64257">
        <ele>615</ele>
        <time>2012-11-11T10:27:15Z</time>
      </trkpt>
      <trkpt lat="46.19283" lon="4.64279">
        <ele>614</ele>
        <time>2012-11-11T10:27:19Z</time>
      </trkpt>
      <trkpt lat="46.19283" lon="4.6429">
        <ele>614</ele>
        <time>2012-11-11T10:27:21Z</time>
      </trkpt>
      <trkpt lat="46.19282" lon="4.64296">
        <ele>613</ele>
        <time>2012-11-11T10:27:22Z</time>
      </trkpt>
      <trkpt lat="46.19282" lon="4.64315">
        <ele>612</ele>
        <time>2012-11-11T10:27:26Z</time>
      </trkpt>
      <trkpt lat="46.19284" lon="4.64334">
        <ele>605</ele>
        <time>2012-11-11T10:27:30Z</time>
      </trkpt>
      <trkpt lat="46.19285" lon="4.64338">
        <ele>604</ele>
        <time>2012-11-11T10:27:31Z</time>
      </trkpt>
      <trkpt lat="46.19287" lon="4.64361">
        <ele>603</ele>
        <time>2012-11-11T10:27:36Z</time>
      </trkpt>
      <trkpt lat="46.1929" lon="4.64377">
        <ele>602</ele>
        <time>2012-11-11T10:27:41Z</time>
      </trkpt>
      <trkpt lat="46.19291" lon="4.64379">
        <ele>601</ele>
        <time>2012-11-11T10:27:42Z</time>
      </trkpt>
      <trkpt lat="46.19292" lon="4.64387">
        <ele>601</ele>
        <time>2012-11-11T10:27:44Z</time>
      </trkpt>
      <trkpt lat="46.19293" lon="4.64392">
        <ele>600</ele>
        <time>2012-11-11T10:27:45Z</time>
      </trkpt>
      <trkpt lat="46.19293" lon="4.64397">
        <ele>600</ele>
        <time>2012-11-11T10:27:46Z</time>
      </trkpt>
      <trkpt lat="46.19291" lon="4.64424">
        <ele>591</ele>
        <time>2012-11-11T10:27:50Z</time>
      </trkpt>
      <trkpt lat="46.1929" lon="4.64438">
        <ele>590</ele>
        <time>2012-11-11T10:27:52Z</time>
      </trkpt>
      <trkpt lat="46.19292" lon="4.64455">
        <ele>589</ele>
        <time>2012-11-11T10:27:55Z</time>
      </trkpt>
      <trkpt lat="46.1929" lon="4.64473">
        <ele>587</ele>
        <time>2012-11-11T10:27:59Z</time>
      </trkpt>
      <trkpt lat="46.19285" lon="4.64489">
        <ele>587</ele>
        <time>2012-11-11T10:28:04Z</time>
      </trkpt>
      <trkpt lat="46.19285" lon="4.64499">
        <ele>586</ele>
        <time>2012-11-11T10:28:08Z</time>
      </trkpt>
      <trkpt lat="46.19285" lon="4.64506">
        <ele>579</ele>
        <time>2012-11-11T10:28:10Z</time>
      </trkpt>
      <trkpt lat="46.19283" lon="4.64516">
        <ele>578</ele>
        <time>2012-11-11T10:28:12Z</time>
      </trkpt>
      <trkpt lat="46.19283" lon="4.64534">
        <ele>577</ele>
        <time>2012-11-11T10:28:16Z</time>
      </trkpt>
      <trkpt lat="46.19284" lon="4.64541">
        <ele>577</ele>
        <time>2012-11-11T10:28:18Z</time>
      </trkpt>
      <trkpt lat="46.19282" lon="4.64549">
        <ele>576</ele>
        <time>2012-11-11T10:28:20Z</time>
      </trkpt>
      <trkpt lat="46.1928" lon="4.64568">
        <ele>575</ele>
        <time>2012-11-11T10:28:24Z</time>
      </trkpt>
      <trkpt lat="46.19277" lon="4.64593">
        <ele>566</ele>
        <time>2012-11-11T10:28:29Z</time>
      </trkpt>
      <trkpt lat="46.19276" lon="4.64598">
        <ele>566</ele>
        <time>2012-11-11T10:28:30Z</time>
      </trkpt>
      <trkpt lat="46.19273" lon="4.64616">
        <ele>565</ele>
        <time>2012-11-11T10:28:34Z</time>
      </trkpt>
      <trkpt lat="46.19269" lon="4.64639">
        <ele>563</ele>
        <time>2012-11-11T10:28:40Z</time>
      </trkpt>
      <trkpt lat="46.19269" lon="4.64644">
        <ele>562</ele>
        <time>2012-11-11T10:28:41Z</time>
      </trkpt>
      <trkpt lat="46.19268" lon="4.64659">
        <ele>561</ele>
        <time>2012-11-11T10:28:45Z</time>
      </trkpt>
      <trkpt lat="46.19262" lon="4.64677">
        <ele>554</ele>
        <time>2012-11-11T10:28:50Z</time>
      </trkpt>
      <trkpt lat="46.19256" lon="4.64684">
        <ele>553</ele>
        <time>2012-11-11T10:28:54Z</time>
      </trkpt>
      <trkpt lat="46.19255" lon="4.64688">
        <ele>553</ele>
        <time>2012-11-11T10:28:57Z</time>
      </trkpt>
      <trkpt lat="46.19255" lon="4.64691">
        <ele>552</ele>
        <time>2012-11-11T10:28:59Z</time>
      </trkpt>
      <trkpt lat="46.19255" lon="4.64697">
        <ele>552</ele>
        <time>2012-11-11T10:29:01Z</time>
      </trkpt>
      <trkpt lat="46.19255" lon="4.64704">
        <ele>551</ele>
        <time>2012-11-11T10:29:05Z</time>
      </trkpt>
      <trkpt lat="46.19255" lon="4.64705">
        <ele>551</ele>
        <time>2012-11-11T10:29:06Z</time>
      </trkpt>
      <trkpt lat="46.19256" lon="4.64705">
        <ele>551</ele>
        <time>2012-11-11T10:29:08Z</time>
      </trkpt>
      <trkpt lat="46.19257" lon="4.64707">
        <ele>551</ele>
        <time>2012-11-11T10:29:11Z</time>
      </trkpt>
      <trkpt lat="46.19259" lon="4.64709">
        <ele>550</ele>
        <time>2012-11-11T10:29:14Z</time>
      </trkpt>
      <trkpt lat="46.1926" lon="4.64711">
        <ele>550</ele>
        <time>2012-11-11T10:29:17Z</time>
      </trkpt>
      <trkpt lat="46.1926" lon="4.64719">
        <ele>549</ele>
        <time>2012-11-11T10:29:24Z</time>
      </trkpt>
      <trkpt lat="46.19259" lon="4.64725">
        <ele>549</ele>
        <time>2012-11-11T10:29:29Z</time>
      </trkpt>
      <trkpt lat="46.19256" lon="4.64727">
        <ele>548</ele>
        <time>2012-11-11T10:29:35Z</time>
      </trkpt>
      <trkpt lat="46.19257" lon="4.6473">
        <ele>548</ele>
        <time>2012-11-11T10:29:37Z</time>
      </trkpt>
      <trkpt lat="46.19257" lon="4.64733">
        <ele>548</ele>
        <time>2012-11-11T10:29:40Z</time>
      </trkpt>
      <trkpt lat="46.19257" lon="4.64736">
        <ele>547</ele>
        <time>2012-11-11T10:29:42Z</time>
      </trkpt>
      <trkpt lat="46.19258" lon="4.64743">
        <ele>547</ele>
        <time>2012-11-11T10:29:45Z</time>
      </trkpt>
      <trkpt lat="46.19258" lon="4.64745">
        <ele>547</ele>
        <time>2012-11-11T10:29:46Z</time>
      </trkpt>
      <trkpt lat="46.19261" lon="4.64754">
        <ele>543</ele>
        <time>2012-11-11T10:29:50Z</time>
      </trkpt>
      <trkpt lat="46.19263" lon="4.64762">
        <ele>542</ele>
        <time>2012-11-11T10:29:56Z</time>
      </trkpt>
      <trkpt lat="46.19263" lon="4.64762">
        <ele>542</ele>
        <time>2012-11-11T10:30:07Z</time>
      </trkpt>
      <trkpt lat="46.19264" lon="4.64764">
        <ele>541</ele>
        <time>2012-11-11T10:30:14Z</time>
      </trkpt>
      <trkpt lat="46.19266" lon="4.64763">
        <ele>541</ele>
        <time>2012-11-11T10:30:18Z</time>
      </trkpt>
      <trkpt lat="46.19267" lon="4.64769">
        <ele>541</ele>
        <time>2012-11-11T10:30:22Z</time>
      </trkpt>
      <trkpt lat="46.19268" lon="4.6477">
        <ele>540</ele>
        <time>2012-11-11T10:30:23Z</time>
      </trkpt>
      <trkpt lat="46.19269" lon="4.64772">
        <ele>540</ele>
        <time>2012-11-11T10:30:24Z</time>
      </trkpt>
      <trkpt lat="46.19268" lon="4.64778">
        <ele>540</ele>
        <time>2012-11-11T10:30:27Z</time>
      </trkpt>
      <trkpt lat="46.19263" lon="4.6478">
        <ele>540</ele>
        <time>2012-11-11T10:30:31Z</time>
      </trkpt>
      <trkpt lat="46.19259" lon="4.64777">
        <ele>540</ele>
        <time>2012-11-11T10:30:34Z</time>
      </trkpt>
      <trkpt lat="46.19258" lon="4.64775">
        <ele>541</ele>
        <time>2012-11-11T10:30:38Z</time>
      </trkpt>
      <trkpt lat="46.1926" lon="4.64775">
        <ele>541</ele>
        <time>2012-11-11T10:31:33Z</time>
      </trkpt>
      <trkpt lat="46.19265" lon="4.64789">
        <ele>539</ele>
        <time>2012-11-11T10:31:37Z</time>
      </trkpt>
      <trkpt lat="46.19267" lon="4.64795">
        <ele>539</ele>
        <time>2012-11-11T10:31:38Z</time>
      </trkpt>
      <trkpt lat="46.19269" lon="4.64818">
        <ele>538</ele>
        <time>2012-11-11T10:31:42Z</time>
      </trkpt>
      <trkpt lat="46.1926" lon="4.64829">
        <ele>537</ele>
        <time>2012-11-11T10:31:46Z</time>
      </trkpt>
      <trkpt lat="46.19254" lon="4.64837">
        <ele>537</ele>
        <time>2012-11-11T10:31:50Z</time>
      </trkpt>
      <trkpt lat="46.19251" lon="4.6484">
        <ele>537</ele>
        <time>2012-11-11T10:31:51Z</time>
      </trkpt>
      <trkpt lat="46.19231" lon="4.64858">
        <ele>535</ele>
        <time>2012-11-11T10:31:56Z</time>
      </trkpt>
      <trkpt lat="46.19225" lon="4.64868">
        <ele>535</ele>
        <time>2012-11-11T10:31:58Z</time>
      </trkpt>
      <trkpt lat="46.19218" lon="4.64876">
        <ele>534</ele>
        <time>2012-11-11T10:32:00Z</time>
      </trkpt>
      <trkpt lat="46.19215" lon="4.64879">
        <ele>534</ele>
        <time>2012-11-11T10:32:01Z</time>
      </trkpt>
      <trkpt lat="46.19212" lon="4.64883">
        <ele>534</ele>
        <time>2012-11-11T10:32:02Z</time>
      </trkpt>
      <trkpt lat="46.19201" lon="4.64898">
        <ele>535</ele>
        <time>2012-11-11T10:32:06Z</time>
      </trkpt>
      <trkpt lat="46.19197" lon="4.64904">
        <ele>535</ele>
        <time>2012-11-11T10:32:08Z</time>
      </trkpt>
      <trkpt lat="46.19184" lon="4.64922">
        <ele>541</ele>
        <time>2012-11-11T10:32:13Z</time>
      </trkpt>
      <trkpt lat="46.19171" lon="4.64942">
        <ele>542</ele>
        <time>2012-11-11T10:32:18Z</time>
      </trkpt>
      <trkpt lat="46.19155" lon="4.64961">
        <ele>536</ele>
        <time>2012-11-11T10:32:24Z</time>
      </trkpt>
      <trkpt lat="46.19143" lon="4.6498">
        <ele>537</ele>
        <time>2012-11-11T10:32:30Z</time>
      </trkpt>
      <trkpt lat="46.19141" lon="4.64983">
        <ele>537</ele>
        <time>2012-11-11T10:32:31Z</time>
      </trkpt>
      <trkpt lat="46.19133" lon="4.65011">
        <ele>543</ele>
        <time>2012-11-11T10:32:38Z</time>
      </trkpt>
      <trkpt lat="46.19132" lon="4.65031">
        <ele>544</ele>
        <time>2012-11-11T10:32:44Z</time>
      </trkpt>
      <trkpt lat="46.19134" lon="4.65048">
        <ele>545</ele>
        <time>2012-11-11T10:32:50Z</time>
      </trkpt>
      <trkpt lat="46.19136" lon="4.65067">
        <ele>546</ele>
        <time>2012-11-11T10:32:56Z</time>
      </trkpt>
      <trkpt lat="46.19136" lon="4.65083">
        <ele>547</ele>
        <time>2012-11-11T10:33:01Z</time>
      </trkpt>
      <trkpt lat="46.19136" lon="4.65093">
        <ele>549</ele>
        <time>2012-11-11T10:33:04Z</time>
      </trkpt>
      <trkpt lat="46.19138" lon="4.65119">
        <ele>548</ele>
        <time>2012-11-11T10:33:12Z</time>
      </trkpt>
      <trkpt lat="46.19141" lon="4.65136">
        <ele>549</ele>
        <time>2012-11-11T10:33:17Z</time>
      </trkpt>
      <trkpt lat="46.19143" lon="4.65143">
        <ele>549</ele>
        <time>2012-11-11T10:33:19Z</time>
      </trkpt>
      <trkpt lat="46.19149" lon="4.65167">
        <ele>549</ele>
        <time>2012-11-11T10:33:26Z</time>
      </trkpt>
      <trkpt lat="46.19154" lon="4.65187">
        <ele>548</ele>
        <time>2012-11-11T10:33:31Z</time>
      </trkpt>
      <trkpt lat="46.19156" lon="4.65192">
        <ele>547</ele>
        <time>2012-11-11T10:33:32Z</time>
      </trkpt>
      <trkpt lat="46.19161" lon="4.65222">
        <ele>546</ele>
        <time>2012-11-11T10:33:37Z</time>
      </trkpt>
      <trkpt lat="46.19161" lon="4.65229">
        <ele>547</ele>
        <time>2012-11-11T10:33:38Z</time>
      </trkpt>
      <trkpt lat="46.19162" lon="4.65244">
        <ele>549</ele>
        <time>2012-11-11T10:33:40Z</time>
      </trkpt>
      <trkpt lat="46.19162" lon="4.65268">
        <ele>544</ele>
        <time>2012-11-11T10:33:43Z</time>
      </trkpt>
      <trkpt lat="46.19161" lon="4.65276">
        <ele>543</ele>
        <time>2012-11-11T10:33:44Z</time>
      </trkpt>
      <trkpt lat="46.19159" lon="4.65301">
        <ele>541</ele>
        <time>2012-11-11T10:33:47Z</time>
      </trkpt>
      <trkpt lat="46.19158" lon="4.65325">
        <ele>545</ele>
        <time>2012-11-11T10:33:50Z</time>
      </trkpt>
      <trkpt lat="46.19159" lon="4.65333">
        <ele>545</ele>
        <time>2012-11-11T10:33:51Z</time>
      </trkpt>
      <trkpt lat="46.19164" lon="4.65356">
        <ele>540</ele>
        <time>2012-11-11T10:33:54Z</time>
      </trkpt>
      <trkpt lat="46.19167" lon="4.65363">
        <ele>539</ele>
        <time>2012-11-11T10:33:55Z</time>
      </trkpt>
      <trkpt lat="46.19177" lon="4.6539">
        <ele>557</ele>
        <time>2012-11-11T10:34:00Z</time>
      </trkpt>
      <trkpt lat="46.19181" lon="4.65404">
        <ele>555</ele>
        <time>2012-11-11T10:34:03Z</time>
      </trkpt>
      <trkpt lat="46.19187" lon="4.65424">
        <ele>551</ele>
        <time>2012-11-11T10:34:07Z</time>
      </trkpt>
      <trkpt lat="46.19196" lon="4.65457">
        <ele>552</ele>
        <time>2012-11-11T10:34:13Z</time>
      </trkpt>
      <trkpt lat="46.192" lon="4.65469">
        <ele>552</ele>
        <time>2012-11-11T10:34:15Z</time>
      </trkpt>
      <trkpt lat="46.19215" lon="4.65503">
        <ele>545</ele>
        <time>2012-11-11T10:34:20Z</time>
      </trkpt>
      <trkpt lat="46.19218" lon="4.6551">
        <ele>545</ele>
        <time>2012-11-11T10:34:21Z</time>
      </trkpt>
      <trkpt lat="46.19225" lon="4.65523">
        <ele>545</ele>
        <time>2012-11-11T10:34:23Z</time>
      </trkpt>
      <trkpt lat="46.19235" lon="4.65538">
        <ele>544</ele>
        <time>2012-11-11T10:34:26Z</time>
      </trkpt>
      <trkpt lat="46.1924" lon="4.65543">
        <ele>544</ele>
        <time>2012-11-11T10:34:27Z</time>
      </trkpt>
      <trkpt lat="46.19262" lon="4.65567">
        <ele>552</ele>
        <time>2012-11-11T10:34:31Z</time>
      </trkpt>
      <trkpt lat="46.19273" lon="4.6558">
        <ele>553</ele>
        <time>2012-11-11T10:34:33Z</time>
      </trkpt>
      <trkpt lat="46.19279" lon="4.65586">
        <ele>545</ele>
        <time>2012-11-11T10:34:34Z</time>
      </trkpt>
      <trkpt lat="46.19289" lon="4.65602">
        <ele>545</ele>
        <time>2012-11-11T10:34:36Z</time>
      </trkpt>
      <trkpt lat="46.19298" lon="4.6562">
        <ele>544</ele>
        <time>2012-11-11T10:34:38Z</time>
      </trkpt>
      <trkpt lat="46.19308" lon="4.65649">
        <ele>543</ele>
        <time>2012-11-11T10:34:41Z</time>
      </trkpt>
      <trkpt lat="46.19315" lon="4.65666">
        <ele>543</ele>
        <time>2012-11-11T10:34:43Z</time>
      </trkpt>
      <trkpt lat="46.19318" lon="4.65673">
        <ele>538</ele>
        <time>2012-11-11T10:34:44Z</time>
      </trkpt>
      <trkpt lat="46.19322" lon="4.65679">
        <ele>538</ele>
        <time>2012-11-11T10:34:45Z</time>
      </trkpt>
      <trkpt lat="46.19345" lon="4.65705">
        <ele>542</ele>
        <time>2012-11-11T10:34:50Z</time>
      </trkpt>
      <trkpt lat="46.1935" lon="4.65708">
        <ele>542</ele>
        <time>2012-11-11T10:34:51Z</time>
      </trkpt>
      <trkpt lat="46.1936" lon="4.65709">
        <ele>542</ele>
        <time>2012-11-11T10:34:54Z</time>
      </trkpt>
      <trkpt lat="46.19366" lon="4.65707">
        <ele>543</ele>
        <time>2012-11-11T10:34:56Z</time>
      </trkpt>
      <trkpt lat="46.1937" lon="4.65714">
        <ele>543</ele>
        <time>2012-11-11T10:34:58Z</time>
      </trkpt>
      <trkpt lat="46.19379" lon="4.65726">
        <ele>543</ele>
        <time>2012-11-11T10:35:02Z</time>
      </trkpt>
      <trkpt lat="46.19381" lon="4.65728">
        <ele>543</ele>
        <time>2012-11-11T10:35:03Z</time>
      </trkpt>
      <trkpt lat="46.19383" lon="4.6573">
        <ele>543</ele>
        <time>2012-11-11T10:35:04Z</time>
      </trkpt>
      <trkpt lat="46.19393" lon="4.65741">
        <ele>543</ele>
        <time>2012-11-11T10:35:08Z</time>
      </trkpt>
      <trkpt lat="46.19409" lon="4.65756">
        <ele>543</ele>
        <time>2012-11-11T10:35:14Z</time>
      </trkpt>
      <trkpt lat="46.19414" lon="4.65762">
        <ele>542</ele>
        <time>2012-11-11T10:35:16Z</time>
      </trkpt>
      <trkpt lat="46.19425" lon="4.65773">
        <ele>545</ele>
        <time>2012-11-11T10:35:21Z</time>
      </trkpt>
      <trkpt lat="46.19441" lon="4.65782">
        <ele>545</ele>
        <time>2012-11-11T10:35:27Z</time>
      </trkpt>
      <trkpt lat="46.19445" lon="4.65789">
        <ele>545</ele>
        <time>2012-11-11T10:35:29Z</time>
      </trkpt>
      <trkpt lat="46.19448" lon="4.65796">
        <ele>545</ele>
        <time>2012-11-11T10:35:31Z</time>
      </trkpt>
      <trkpt lat="46.19455" lon="4.65806">
        <ele>545</ele>
        <time>2012-11-11T10:35:37Z</time>
      </trkpt>
      <trkpt lat="46.19468" lon="4.65815">
        <ele>546</ele>
        <time>2012-11-11T10:35:45Z</time>
      </trkpt>
      <trkpt lat="46.19475" lon="4.6582">
        <ele>546</ele>
        <time>2012-11-11T10:35:49Z</time>
      </trkpt>
      <trkpt lat="46.19484" lon="4.6583">
        <ele>547</ele>
        <time>2012-11-11T10:35:54Z</time>
      </trkpt>
      <trkpt lat="46.19494" lon="4.6585">
        <ele>546</ele>
        <time>2012-11-11T10:36:02Z</time>
      </trkpt>
      <trkpt lat="46.19499" lon="4.65859">
        <ele>546</ele>
        <time>2012-11-11T10:36:05Z</time>
      </trkpt>
      <trkpt lat="46.19502" lon="4.65863">
        <ele>551</ele>
        <time>2012-11-11T10:36:07Z</time>
      </trkpt>
      <trkpt lat="46.19518" lon="4.65876">
        <ele>551</ele>
        <time>2012-11-11T10:36:16Z</time>
      </trkpt>
      <trkpt lat="46.19529" lon="4.65887">
        <ele>551</ele>
        <time>2012-11-11T10:36:22Z</time>
      </trkpt>
      <trkpt lat="46.19542" lon="4.65908">
        <ele>552</ele>
        <time>2012-11-11T10:36:29Z</time>
      </trkpt>
      <trkpt lat="46.19555" lon="4.65921">
        <ele>550</ele>
        <time>2012-11-11T10:36:34Z</time>
      </trkpt>
      <trkpt lat="46.19561" lon="4.65925">
        <ele>551</ele>
        <time>2012-11-11T10:36:36Z</time>
      </trkpt>
      <trkpt lat="46.19578" lon="4.65938">
        <ele>551</ele>
        <time>2012-11-11T10:36:41Z</time>
      </trkpt>
      <trkpt lat="46.19587" lon="4.65947">
        <ele>558</ele>
        <time>2012-11-11T10:36:44Z</time>
      </trkpt>
      <trkpt lat="46.19594" lon="4.65957">
        <ele>557</ele>
        <time>2012-11-11T10:36:47Z</time>
      </trkpt>
      <trkpt lat="46.19596" lon="4.65961">
        <ele>557</ele>
        <time>2012-11-11T10:36:48Z</time>
      </trkpt>
      <trkpt lat="46.19606" lon="4.65978">
        <ele>557</ele>
        <time>2012-11-11T10:36:51Z</time>
      </trkpt>
      <trkpt lat="46.1961" lon="4.65985">
        <ele>557</ele>
        <time>2012-11-11T10:36:52Z</time>
      </trkpt>
      <trkpt lat="46.19626" lon="4.66015">
        <ele>552</ele>
        <time>2012-11-11T10:36:56Z</time>
      </trkpt>
      <trkpt lat="46.19633" lon="4.66033">
        <ele>551</ele>
        <time>2012-11-11T10:36:58Z</time>
      </trkpt>
      <trkpt lat="46.19638" lon="4.66052">
        <ele>550</ele>
        <time>2012-11-11T10:37:00Z</time>
      </trkpt>
      <trkpt lat="46.19639" lon="4.66072">
        <ele>549</ele>
        <time>2012-11-11T10:37:02Z</time>
      </trkpt>
      <trkpt lat="46.19639" lon="4.66083">
        <ele>544</ele>
        <time>2012-11-11T10:37:03Z</time>
      </trkpt>
      <trkpt lat="46.1964" lon="4.66095">
        <ele>543</ele>
        <time>2012-11-11T10:37:04Z</time>
      </trkpt>
      <trkpt lat="46.19646" lon="4.66136">
        <ele>542</ele>
        <time>2012-11-11T10:37:08Z</time>
      </trkpt>
      <trkpt lat="46.19648" lon="4.66145">
        <ele>541</ele>
        <time>2012-11-11T10:37:09Z</time>
      </trkpt>
      <trkpt lat="46.19655" lon="4.66164">
        <ele>541</ele>
        <time>2012-11-11T10:37:11Z</time>
      </trkpt>
      <trkpt lat="46.19657" lon="4.66188">
        <ele>538</ele>
        <time>2012-11-11T10:37:13Z</time>
      </trkpt>
      <trkpt lat="46.19653" lon="4.66224">
        <ele>535</ele>
        <time>2012-11-11T10:37:16Z</time>
      </trkpt>
      <trkpt lat="46.19651" lon="4.66234">
        <ele>535</ele>
        <time>2012-11-11T10:37:17Z</time>
      </trkpt>
      <trkpt lat="46.19649" lon="4.66244">
        <ele>534</ele>
        <time>2012-11-11T10:37:18Z</time>
      </trkpt>
      <trkpt lat="46.1964" lon="4.66285">
        <ele>532</ele>
        <time>2012-11-11T10:37:22Z</time>
      </trkpt>
      <trkpt lat="46.19637" lon="4.66294">
        <ele>532</ele>
        <time>2012-11-11T10:37:23Z</time>
      </trkpt>
      <trkpt lat="46.1963" lon="4.66327">
        <ele>531</ele>
        <time>2012-11-11T10:37:27Z</time>
      </trkpt>
      <trkpt lat="46.19627" lon="4.66345">
        <ele>529</ele>
        <time>2012-11-11T10:37:29Z</time>
      </trkpt>
      <trkpt lat="46.19627" lon="4.66376">
        <ele>528</ele>
        <time>2012-11-11T10:37:32Z</time>
      </trkpt>
      <trkpt lat="46.19628" lon="4.66398">
        <ele>528</ele>
        <time>2012-11-11T10:37:34Z</time>
      </trkpt>
      <trkpt lat="46.19629" lon="4.66433">
        <ele>524</ele>
        <time>2012-11-11T10:37:37Z</time>
      </trkpt>
      <trkpt lat="46.19627" lon="4.66457">
        <ele>524</ele>
        <time>2012-11-11T10:37:39Z</time>
      </trkpt>
      <trkpt lat="46.19623" lon="4.66479">
        <ele>524</ele>
        <time>2012-11-11T10:37:41Z</time>
      </trkpt>
      <trkpt lat="46.19616" lon="4.66511">
        <ele>522</ele>
        <time>2012-11-11T10:37:44Z</time>
      </trkpt>
      <trkpt lat="46.19615" lon="4.66521">
        <ele>522</ele>
        <time>2012-11-11T10:37:45Z</time>
      </trkpt>
      <trkpt lat="46.19623" lon="4.66555">
        <ele>520</ele>
        <time>2012-11-11T10:37:48Z</time>
      </trkpt>
      <trkpt lat="46.19628" lon="4.66565">
        <ele>519</ele>
        <time>2012-11-11T10:37:49Z</time>
      </trkpt>
      <trkpt lat="46.19642" lon="4.66594">
        <ele>516</ele>
        <time>2012-11-11T10:37:52Z</time>
      </trkpt>
      <trkpt lat="46.19651" lon="4.66613">
        <ele>516</ele>
        <time>2012-11-11T10:37:54Z</time>
      </trkpt>
      <trkpt lat="46.19657" lon="4.66622">
        <ele>517</ele>
        <time>2012-11-11T10:37:55Z</time>
      </trkpt>
      <trkpt lat="46.19669" lon="4.66639">
        <ele>509</ele>
        <time>2012-11-11T10:37:57Z</time>
      </trkpt>
      <trkpt lat="46.1968" lon="4.66656">
        <ele>511</ele>
        <time>2012-11-11T10:37:59Z</time>
      </trkpt>
      <trkpt lat="46.19688" lon="4.66674">
        <ele>514</ele>
        <time>2012-11-11T10:38:01Z</time>
      </trkpt>
      <trkpt lat="46.19692" lon="4.66683">
        <ele>513</ele>
        <time>2012-11-11T10:38:02Z</time>
      </trkpt>
      <trkpt lat="46.19701" lon="4.6671">
        <ele>512</ele>
        <time>2012-11-11T10:38:05Z</time>
      </trkpt>
      <trkpt lat="46.19705" lon="4.66719">
        <ele>512</ele>
        <time>2012-11-11T10:38:06Z</time>
      </trkpt>
      <trkpt lat="46.19717" lon="4.66745">
        <ele>512</ele>
        <time>2012-11-11T10:38:09Z</time>
      </trkpt>
      <trkpt lat="46.19722" lon="4.66753">
        <ele>515</ele>
        <time>2012-11-11T10:38:10Z</time>
      </trkpt>
      <trkpt lat="46.19727" lon="4.6676">
        <ele>515</ele>
        <time>2012-11-11T10:38:11Z</time>
      </trkpt>
      <trkpt lat="46.1975" lon="4.66787">
        <ele>515</ele>
        <time>2012-11-11T10:38:15Z</time>
      </trkpt>
      <trkpt lat="46.19761" lon="4.66799">
        <ele>508</ele>
        <time>2012-11-11T10:38:17Z</time>
      </trkpt>
      <trkpt lat="46.19783" lon="4.66822">
        <ele>508</ele>
        <time>2012-11-11T10:38:21Z</time>
      </trkpt>
      <trkpt lat="46.19813" lon="4.66851">
        <ele>511</ele>
        <time>2012-11-11T10:38:26Z</time>
      </trkpt>
      <trkpt lat="46.19819" lon="4.66856">
        <ele>511</ele>
        <time>2012-11-11T10:38:27Z</time>
      </trkpt>
      <trkpt lat="46.19831" lon="4.66867">
        <ele>512</ele>
        <time>2012-11-11T10:38:29Z</time>
      </trkpt>
      <trkpt lat="46.19844" lon="4.66879">
        <ele>505</ele>
        <time>2012-11-11T10:38:31Z</time>
      </trkpt>
      <trkpt lat="46.19851" lon="4.66885">
        <ele>505</ele>
        <time>2012-11-11T10:38:32Z</time>
      </trkpt>
      <trkpt lat="46.19884" lon="4.66911">
        <ele>503</ele>
        <time>2012-11-11T10:38:37Z</time>
      </trkpt>
      <trkpt lat="46.19891" lon="4.66916">
        <ele>502</ele>
        <time>2012-11-11T10:38:38Z</time>
      </trkpt>
      <trkpt lat="46.19898" lon="4.66922">
        <ele>505</ele>
        <time>2012-11-11T10:38:39Z</time>
      </trkpt>
      <trkpt lat="46.19917" lon="4.66944">
        <ele>499</ele>
        <time>2012-11-11T10:38:42Z</time>
      </trkpt>
      <trkpt lat="46.19949" lon="4.66979">
        <ele>497</ele>
        <time>2012-11-11T10:38:47Z</time>
      </trkpt>
      <trkpt lat="46.19955" lon="4.66987">
        <ele>497</ele>
        <time>2012-11-11T10:38:48Z</time>
      </trkpt>
      <trkpt lat="46.1996" lon="4.66996">
        <ele>497</ele>
        <time>2012-11-11T10:38:49Z</time>
      </trkpt>
      <trkpt lat="46.19975" lon="4.67029">
        <ele>494</ele>
        <time>2012-11-11T10:38:52Z</time>
      </trkpt>
      <trkpt lat="46.19993" lon="4.67075">
        <ele>491</ele>
        <time>2012-11-11T10:38:56Z</time>
      </trkpt>
      <trkpt lat="46.2" lon="4.67098">
        <ele>487</ele>
        <time>2012-11-11T10:38:58Z</time>
      </trkpt>
      <trkpt lat="46.2001" lon="4.67131">
        <ele>483</ele>
        <time>2012-11-11T10:39:01Z</time>
      </trkpt>
      <trkpt lat="46.20014" lon="4.67139">
        <ele>483</ele>
        <time>2012-11-11T10:39:02Z</time>
      </trkpt>
      <trkpt lat="46.20035" lon="4.67169">
        <ele>476</ele>
        <time>2012-11-11T10:39:06Z</time>
      </trkpt>
      <trkpt lat="46.20041" lon="4.67176">
        <ele>475</ele>
        <time>2012-11-11T10:39:07Z</time>
      </trkpt>
      <trkpt lat="46.2006" lon="4.67199">
        <ele>474</ele>
        <time>2012-11-11T10:39:10Z</time>
      </trkpt>
      <trkpt lat="46.20066" lon="4.67204">
        <ele>474</ele>
        <time>2012-11-11T10:39:11Z</time>
      </trkpt>
      <trkpt lat="46.20073" lon="4.67209">
        <ele>474</ele>
        <time>2012-11-11T10:39:12Z</time>
      </trkpt>
      <trkpt lat="46.20089" lon="4.6722">
        <ele>470</ele>
        <time>2012-11-11T10:39:14Z</time>
      </trkpt>
      <trkpt lat="46.20103" lon="4.67234">
        <ele>469</ele>
        <time>2012-11-11T10:39:16Z</time>
      </trkpt>
      <trkpt lat="46.20115" lon="4.6727">
        <ele>465</ele>
        <time>2012-11-11T10:39:19Z</time>
      </trkpt>
      <trkpt lat="46.20117" lon="4.67281">
        <ele>464</ele>
        <time>2012-11-11T10:39:20Z</time>
      </trkpt>
      <trkpt lat="46.20118" lon="4.67305">
        <ele>464</ele>
        <time>2012-11-11T10:39:22Z</time>
      </trkpt>
      <trkpt lat="46.20119" lon="4.67316">
        <ele>463</ele>
        <time>2012-11-11T10:39:23Z</time>
      </trkpt>
      <trkpt lat="46.2012" lon="4.6734">
        <ele>463</ele>
        <time>2012-11-11T10:39:25Z</time>
      </trkpt>
      <trkpt lat="46.20126" lon="4.67396">
        <ele>463</ele>
        <time>2012-11-11T10:39:30Z</time>
      </trkpt>
      <trkpt lat="46.20131" lon="4.67414">
        <ele>463</ele>
        <time>2012-11-11T10:39:32Z</time>
      </trkpt>
      <trkpt lat="46.20142" lon="4.67441">
        <ele>464</ele>
        <time>2012-11-11T10:39:35Z</time>
      </trkpt>
      <trkpt lat="46.20146" lon="4.6745">
        <ele>464</ele>
        <time>2012-11-11T10:39:36Z</time>
      </trkpt>
      <trkpt lat="46.20164" lon="4.67504">
        <ele>465</ele>
        <time>2012-11-11T10:39:41Z</time>
      </trkpt>
      <trkpt lat="46.20178" lon="4.67562">
        <ele>466</ele>
        <time>2012-11-11T10:39:46Z</time>
      </trkpt>
      <trkpt lat="46.20182" lon="4.67585">
        <ele>466</ele>
        <time>2012-11-11T10:39:48Z</time>
      </trkpt>
      <trkpt lat="46.20189" lon="4.67617">
        <ele>466</ele>
        <time>2012-11-11T10:39:51Z</time>
      </trkpt>
      <trkpt lat="46.20195" lon="4.67646">
        <ele>466</ele>
        <time>2012-11-11T10:39:54Z</time>
      </trkpt>
      <trkpt lat="46.202" lon="4.67671">
        <ele>462</ele>
        <time>2012-11-11T10:39:57Z</time>
      </trkpt>
      <trkpt lat="46.20201" lon="4.67676">
        <ele>462</ele>
        <time>2012-11-11T10:39:58Z</time>
      </trkpt>
      <trkpt lat="46.20204" lon="4.67688">
        <ele>462</ele>
        <time>2012-11-11T10:40:02Z</time>
      </trkpt>
      <trkpt lat="46.20213" lon="4.67706">
        <ele>462</ele>
        <time>2012-11-11T10:40:07Z</time>
      </trkpt>
      <trkpt lat="46.20214" lon="4.67708">
        <ele>462</ele>
        <time>2012-11-11T10:40:11Z</time>
      </trkpt>
      <trkpt lat="46.20214" lon="4.67708">
        <ele>462</ele>
        <time>2012-11-11T10:40:23Z</time>
      </trkpt>
      <trkpt lat="46.20214" lon="4.67707">
        <ele>462</ele>
        <time>2012-11-11T10:40:36Z</time>
      </trkpt>
      <trkpt lat="46.20216" lon="4.67711">
        <ele>462</ele>
        <time>2012-11-11T10:40:39Z</time>
      </trkpt>
      <trkpt lat="46.20218" lon="4.67714">
        <ele>462</ele>
        <time>2012-11-11T10:40:41Z</time>
      </trkpt>
      <trkpt lat="46.20224" lon="4.67724">
        <ele>462</ele>
        <time>2012-11-11T10:40:46Z</time>
      </trkpt>
      <trkpt lat="46.20234" lon="4.67737">
        <ele>463</ele>
        <time>2012-11-11T10:40:51Z</time>
      </trkpt>
      <trkpt lat="46.20245" lon="4.67752">
        <ele>462</ele>
        <time>2012-11-11T10:40:56Z</time>
      </trkpt>
      <trkpt lat="46.20248" lon="4.67755">
        <ele>462</ele>
        <time>2012-11-11T10:40:57Z</time>
      </trkpt>
      <trkpt lat="46.2026" lon="4.67769">
        <ele>463</ele>
        <time>2012-11-11T10:41:02Z</time>
      </trkpt>
      <trkpt lat="46.20273" lon="4.67783">
        <ele>462</ele>
        <time>2012-11-11T10:41:08Z</time>
      </trkpt>
      <trkpt lat="46.20275" lon="4.67785">
        <ele>462</ele>
        <time>2012-11-11T10:41:09Z</time>
      </trkpt>
      <trkpt lat="46.20288" lon="4.67796">
        <ele>461</ele>
        <time>2012-11-11T10:41:13Z</time>
      </trkpt>
      <trkpt lat="46.2031" lon="4.67811">
        <ele>462</ele>
        <time>2012-11-11T10:41:19Z</time>
      </trkpt>
      <trkpt lat="46.20326" lon="4.67819">
        <ele>462</ele>
        <time>2012-11-11T10:41:23Z</time>
      </trkpt>
      <trkpt lat="46.20335" lon="4.67823">
        <ele>464</ele>
        <time>2012-11-11T10:41:25Z</time>
      </trkpt>
      <trkpt lat="46.20344" lon="4.67827">
        <ele>465</ele>
        <time>2012-11-11T10:41:27Z</time>
      </trkpt>
      <trkpt lat="46.20363" lon="4.67844">
        <ele>463</ele>
        <time>2012-11-11T10:41:31Z</time>
      </trkpt>
      <trkpt lat="46.20369" lon="4.67856">
        <ele>463</ele>
        <time>2012-11-11T10:41:33Z</time>
      </trkpt>
      <trkpt lat="46.20372" lon="4.67863">
        <ele>463</ele>
        <time>2012-11-11T10:41:34Z</time>
      </trkpt>
      <trkpt lat="46.20376" lon="4.67876">
        <ele>462</ele>
        <time>2012-11-11T10:41:36Z</time>
      </trkpt>
      <trkpt lat="46.20385" lon="4.67898">
        <ele>462</ele>
        <time>2012-11-11T10:41:41Z</time>
      </trkpt>
      <trkpt lat="46.2039" lon="4.67911">
        <ele>463</ele>
        <time>2012-11-11T10:41:44Z</time>
      </trkpt>
      <trkpt lat="46.20391" lon="4.67924">
        <ele>459</ele>
        <time>2012-11-11T10:41:47Z</time>
      </trkpt>
      <trkpt lat="46.20392" lon="4.67948">
        <ele>457</ele>
        <time>2012-11-11T10:41:51Z</time>
      </trkpt>
      <trkpt lat="46.20392" lon="4.67956">
        <ele>457</ele>
        <time>2012-11-11T10:41:52Z</time>
      </trkpt>
      <trkpt lat="46.20392" lon="4.67964">
        <ele>456</ele>
        <time>2012-11-11T10:41:53Z</time>
      </trkpt>
      <trkpt lat="46.20389" lon="4.68006">
        <ele>453</ele>
        <time>2012-11-11T10:41:58Z</time>
      </trkpt>
      <trkpt lat="46.20389" lon="4.68015">
        <ele>452</ele>
        <time>2012-11-11T10:41:59Z</time>
      </trkpt>
      <trkpt lat="46.20385" lon="4.6807">
        <ele>449</ele>
        <time>2012-11-11T10:42:05Z</time>
      </trkpt>
      <trkpt lat="46.20382" lon="4.68096">
        <ele>443</ele>
        <time>2012-11-11T10:42:08Z</time>
      </trkpt>
      <trkpt lat="46.20376" lon="4.68119">
        <ele>441</ele>
        <time>2012-11-11T10:42:11Z</time>
      </trkpt>
      <trkpt lat="46.20374" lon="4.68125">
        <ele>441</ele>
        <time>2012-11-11T10:42:12Z</time>
      </trkpt>
      <trkpt lat="46.20366" lon="4.68153">
        <ele>438</ele>
        <time>2012-11-11T10:42:16Z</time>
      </trkpt>
      <trkpt lat="46.2036" lon="4.68176">
        <ele>430</ele>
        <time>2012-11-11T10:42:19Z</time>
      </trkpt>
      <trkpt lat="46.20352" lon="4.68206">
        <ele>428</ele>
        <time>2012-11-11T10:42:23Z</time>
      </trkpt>
      <trkpt lat="46.20346" lon="4.68228">
        <ele>426</ele>
        <time>2012-11-11T10:42:26Z</time>
      </trkpt>
      <trkpt lat="46.20338" lon="4.68256">
        <ele>421</ele>
        <time>2012-11-11T10:42:30Z</time>
      </trkpt>
      <trkpt lat="46.20331" lon="4.68278">
        <ele>420</ele>
        <time>2012-11-11T10:42:34Z</time>
      </trkpt>
      <trkpt lat="46.20328" lon="4.68285">
        <ele>419</ele>
        <time>2012-11-11T10:42:35Z</time>
      </trkpt>
      <trkpt lat="46.20311" lon="4.68315">
        <ele>417</ele>
        <time>2012-11-11T10:42:39Z</time>
      </trkpt>
      <trkpt lat="46.20306" lon="4.68322">
        <ele>417</ele>
        <time>2012-11-11T10:42:40Z</time>
      </trkpt>
      <trkpt lat="46.2028" lon="4.68349">
        <ele>414</ele>
        <time>2012-11-11T10:42:44Z</time>
      </trkpt>
      <trkpt lat="46.20273" lon="4.68355">
        <ele>414</ele>
        <time>2012-11-11T10:42:45Z</time>
      </trkpt>
      <trkpt lat="46.20265" lon="4.6836">
        <ele>414</ele>
        <time>2012-11-11T10:42:46Z</time>
      </trkpt>
      <trkpt lat="46.20249" lon="4.68368">
        <ele>418</ele>
        <time>2012-11-11T10:42:48Z</time>
      </trkpt>
      <trkpt lat="46.20234" lon="4.68375">
        <ele>418</ele>
        <time>2012-11-11T10:42:50Z</time>
      </trkpt>
      <trkpt lat="46.20195" lon="4.68392">
        <ele>418</ele>
        <time>2012-11-11T10:42:55Z</time>
      </trkpt>
      <trkpt lat="46.2018" lon="4.68398">
        <ele>418</ele>
        <time>2012-11-11T10:42:57Z</time>
      </trkpt>
      <trkpt lat="46.20156" lon="4.68409">
        <ele>418</ele>
        <time>2012-11-11T10:43:01Z</time>
      </trkpt>
      <trkpt lat="46.20143" lon="4.6842">
        <ele>420</ele>
        <time>2012-11-11T10:43:04Z</time>
      </trkpt>
      <trkpt lat="46.20136" lon="4.68428">
        <ele>420</ele>
        <time>2012-11-11T10:43:06Z</time>
      </trkpt>
      <trkpt lat="46.20125" lon="4.68444">
        <ele>420</ele>
        <time>2012-11-11T10:43:10Z</time>
      </trkpt>
      <trkpt lat="46.20121" lon="4.68454">
        <ele>421</ele>
        <time>2012-11-11T10:43:12Z</time>
      </trkpt>
      <trkpt lat="46.20109" lon="4.68489">
        <ele>422</ele>
        <time>2012-11-11T10:43:19Z</time>
      </trkpt>
      <trkpt lat="46.20108" lon="4.68494">
        <ele>422</ele>
        <time>2012-11-11T10:43:20Z</time>
      </trkpt>
      <trkpt lat="46.20104" lon="4.68521">
        <ele>422</ele>
        <time>2012-11-11T10:43:26Z</time>
      </trkpt>
      <trkpt lat="46.201" lon="4.68545">
        <ele>421</ele>
        <time>2012-11-11T10:43:32Z</time>
      </trkpt>
      <trkpt lat="46.20086" lon="4.68573">
        <ele>420</ele>
        <time>2012-11-11T10:43:38Z</time>
      </trkpt>
      <trkpt lat="46.20076" lon="4.68586">
        <ele>418</ele>
        <time>2012-11-11T10:43:41Z</time>
      </trkpt>
      <trkpt lat="46.20064" lon="4.68598">
        <ele>415</ele>
        <time>2012-11-11T10:43:44Z</time>
      </trkpt>
      <trkpt lat="46.20039" lon="4.68611">
        <ele>413</ele>
        <time>2012-11-11T10:43:48Z</time>
      </trkpt>
      <trkpt lat="46.20032" lon="4.68614">
        <ele>413</ele>
        <time>2012-11-11T10:43:49Z</time>
      </trkpt>
      <trkpt lat="46.2" lon="4.68623">
        <ele>417</ele>
        <time>2012-11-11T10:43:54Z</time>
      </trkpt>
      <trkpt lat="46.19987" lon="4.68627">
        <ele>417</ele>
        <time>2012-11-11T10:43:56Z</time>
      </trkpt>
      <trkpt lat="46.1997" lon="4.68632">
        <ele>417</ele>
        <time>2012-11-11T10:43:59Z</time>
      </trkpt>
      <trkpt lat="46.19961" lon="4.68638">
        <ele>418</ele>
        <time>2012-11-11T10:44:01Z</time>
      </trkpt>
      <trkpt lat="46.19947" lon="4.68653">
        <ele>419</ele>
        <time>2012-11-11T10:44:06Z</time>
      </trkpt>
      <trkpt lat="46.19934" lon="4.68667">
        <ele>414</ele>
        <time>2012-11-11T10:44:12Z</time>
      </trkpt>
      <trkpt lat="46.1993" lon="4.68671">
        <ele>415</ele>
        <time>2012-11-11T10:44:14Z</time>
      </trkpt>
      <trkpt lat="46.19919" lon="4.68682">
        <ele>414</ele>
        <time>2012-11-11T10:44:19Z</time>
      </trkpt>
      <trkpt lat="46.19899" lon="4.68697">
        <ele>420</ele>
        <time>2012-11-11T10:44:27Z</time>
      </trkpt>
      <trkpt lat="46.19885" lon="4.68694">
        <ele>421</ele>
        <time>2012-11-11T10:44:32Z</time>
      </trkpt>
      <trkpt lat="46.19874" lon="4.68697">
        <ele>421</ele>
        <time>2012-11-11T10:44:38Z</time>
      </trkpt>
      <trkpt lat="46.19861" lon="4.68695">
        <ele>422</ele>
        <time>2012-11-11T10:44:45Z</time>
      </trkpt>
      <trkpt lat="46.19841" lon="4.68694">
        <ele>424</ele>
        <time>2012-11-11T10:44:54Z</time>
      </trkpt>
      <trkpt lat="46.19824" lon="4.68694">
        <ele>426</ele>
        <time>2012-11-11T10:45:01Z</time>
      </trkpt>
      <trkpt lat="46.1982" lon="4.68694">
        <ele>426</ele>
        <time>2012-11-11T10:45:03Z</time>
      </trkpt>
      <trkpt lat="46.1981" lon="4.68697">
        <ele>426</ele>
        <time>2012-11-11T10:45:09Z</time>
      </trkpt>
      <trkpt lat="46.1981" lon="4.68698">
        <ele>426</ele>
        <time>2012-11-11T10:45:13Z</time>
      </trkpt>
      <trkpt lat="46.19812" lon="4.68701">
        <ele>426</ele>
        <time>2012-11-11T10:45:33Z</time>
      </trkpt>
      <trkpt lat="46.19812" lon="4.68703">
        <ele>426</ele>
        <time>2012-11-11T10:45:35Z</time>
      </trkpt>
      <trkpt lat="46.19813" lon="4.68709">
        <ele>425</ele>
        <time>2012-11-11T10:45:37Z</time>
      </trkpt>
      <trkpt lat="46.19813" lon="4.68728">
        <ele>424</ele>
        <time>2012-11-11T10:45:41Z</time>
      </trkpt>
      <trkpt lat="46.19811" lon="4.68733">
        <ele>424</ele>
        <time>2012-11-11T10:45:42Z</time>
      </trkpt>
      <trkpt lat="46.19799" lon="4.6874">
        <ele>424</ele>
        <time>2012-11-11T10:45:45Z</time>
      </trkpt>
      <trkpt lat="46.19795" lon="4.6874">
        <ele>424</ele>
        <time>2012-11-11T10:45:46Z</time>
      </trkpt>
      <trkpt lat="46.19786" lon="4.68742">
        <ele>424</ele>
        <time>2012-11-11T10:45:48Z</time>
      </trkpt>
      <trkpt lat="46.19781" lon="4.68743">
        <ele>424</ele>
        <time>2012-11-11T10:45:49Z</time>
      </trkpt>
      <trkpt lat="46.19774" lon="4.68745">
        <ele>424</ele>
        <time>2012-11-11T10:45:51Z</time>
      </trkpt>
      <trkpt lat="46.19772" lon="4.68746">
        <ele>424</ele>
        <time>2012-11-11T10:45:52Z</time>
      </trkpt>
      <trkpt lat="46.1977" lon="4.68746">
        <ele>423</ele>
        <time>2012-11-11T10:45:54Z</time>
      </trkpt>
      <trkpt lat="46.1977" lon="4.68745">
        <ele>423</ele>
        <time>2012-11-11T10:46:25Z</time>
      </trkpt>
      <trkpt lat="46.19765" lon="4.68745">
        <ele>423</ele>
        <time>2012-11-11T10:46:27Z</time>
      </trkpt>
      <trkpt lat="46.19752" lon="4.68746">
        <ele>423</ele>
        <time>2012-11-11T10:46:30Z</time>
      </trkpt>
      <trkpt lat="46.19747" lon="4.68747">
        <ele>422</ele>
        <time>2012-11-11T10:46:31Z</time>
      </trkpt>
      <trkpt lat="46.19722" lon="4.68752">
        <ele>417</ele>
        <time>2012-11-11T10:46:35Z</time>
      </trkpt>
      <trkpt lat="46.19715" lon="4.68754">
        <ele>416</ele>
        <time>2012-11-11T10:46:36Z</time>
      </trkpt>
      <trkpt lat="46.19709" lon="4.68757">
        <ele>416</ele>
        <time>2012-11-11T10:46:37Z</time>
      </trkpt>
      <trkpt lat="46.19685" lon="4.68764">
        <ele>417</ele>
        <time>2012-11-11T10:46:41Z</time>
      </trkpt>
      <trkpt lat="46.1968" lon="4.68767">
        <ele>417</ele>
        <time>2012-11-11T10:46:42Z</time>
      </trkpt>
      <trkpt lat="46.19669" lon="4.68771">
        <ele>417</ele>
        <time>2012-11-11T10:46:44Z</time>
      </trkpt>
      <trkpt lat="46.19664" lon="4.68772">
        <ele>416</ele>
        <time>2012-11-11T10:46:45Z</time>
      </trkpt>
      <trkpt lat="46.19659" lon="4.68772">
        <ele>415</ele>
        <time>2012-11-11T10:46:46Z</time>
      </trkpt>
      <trkpt lat="46.19654" lon="4.68773">
        <ele>415</ele>
        <time>2012-11-11T10:46:47Z</time>
      </trkpt>
      <trkpt lat="46.19642" lon="4.68774">
        <ele>413</ele>
        <time>2012-11-11T10:46:50Z</time>
      </trkpt>
      <trkpt lat="46.19638" lon="4.68772">
        <ele>413</ele>
        <time>2012-11-11T10:46:52Z</time>
      </trkpt>
      <trkpt lat="46.19638" lon="4.68771">
        <ele>413</ele>
        <time>2012-11-11T10:46:53Z</time>
      </trkpt>
      <trkpt lat="46.19637" lon="4.6877">
        <ele>413</ele>
        <time>2012-11-11T10:46:57Z</time>
      </trkpt>
      <trkpt lat="46.19633" lon="4.68767">
        <ele>413</ele>
        <time>2012-11-11T10:47:01Z</time>
      </trkpt>
      <trkpt lat="46.19633" lon="4.68766">
        <ele>413</ele>
        <time>2012-11-11T10:47:02Z</time>
      </trkpt>
      <trkpt lat="46.19633" lon="4.68765">
        <ele>413</ele>
        <time>2012-11-11T10:47:03Z</time>
      </trkpt>
      <trkpt lat="46.19633" lon="4.68763">
        <ele>413</ele>
        <time>2012-11-11T10:47:07Z</time>
      </trkpt>
      <trkpt lat="46.19635" lon="4.68767">
        <ele>413</ele>
        <time>2012-11-11T10:47:14Z</time>
      </trkpt>
      <trkpt lat="46.19637" lon="4.68775">
        <ele>413</ele>
        <time>2012-11-11T10:47:19Z</time>
      </trkpt>
      <trkpt lat="46.19635" lon="4.68778">
        <ele>412</ele>
        <time>2012-11-11T10:47:21Z</time>
      </trkpt>
      <trkpt lat="46.19635" lon="4.6878">
        <ele>412</ele>
        <time>2012-11-11T10:47:24Z</time>
      </trkpt>
      <trkpt lat="46.19634" lon="4.68777">
        <ele>412</ele>
        <time>2012-11-11T10:47:55Z</time>
      </trkpt>
      <trkpt lat="46.19629" lon="4.68775">
        <ele>412</ele>
        <time>2012-11-11T10:48:03Z</time>
      </trkpt>
      <trkpt lat="46.19629" lon="4.68775">
        <ele>412</ele>
        <time>2012-11-11T10:48:13Z</time>
      </trkpt>
      <trkpt lat="46.19631" lon="4.68779">
        <ele>412</ele>
        <time>2012-11-11T10:48:30Z</time>
      </trkpt>
      <trkpt lat="46.19632" lon="4.68777">
        <ele>412</ele>
        <time>2012-11-11T10:49:09Z</time>
      </trkpt>
      <trkpt lat="46.19631" lon="4.68776">
        <ele>412</ele>
        <time>2012-11-11T10:49:13Z</time>
      </trkpt>
      <trkpt lat="46.19629" lon="4.68775">
        <ele>412</ele>
        <time>2012-11-11T10:49:16Z</time>
      </trkpt>
      <trkpt lat="46.19629" lon="4.68774">
        <ele>412</ele>
        <time>2012-11-11T10:49:17Z</time>
      </trkpt>
      <trkpt lat="46.19628" lon="4.68772">
        <ele>412</ele>
        <time>2012-11-11T10:49:19Z</time>
      </trkpt>
      <trkpt lat="46.19628" lon="4.68771">
        <ele>412</ele>
        <time>2012-11-11T10:49:20Z</time>
      </trkpt>
      <trkpt lat="46.19629" lon="4.68773">
        <ele>412</ele>
        <time>2012-11-11T10:49:29Z</time>
      </trkpt>
      <trkpt lat="46.1963" lon="4.68774">
        <ele>412</ele>
        <time>2012-11-11T10:49:49Z</time>
      </trkpt>
      <trkpt lat="46.19634" lon="4.68775">
        <ele>413</ele>
        <time>2012-11-11T10:49:52Z</time>
      </trkpt>
      <trkpt lat="46.19638" lon="4.68776">
        <ele>413</ele>
        <time>2012-11-11T10:49:57Z</time>
      </trkpt>
      <trkpt lat="46.19635" lon="4.68774">
        <ele>413</ele>
        <time>2012-11-11T10:50:25Z</time>
      </trkpt>
      <trkpt lat="46.19631" lon="4.68772">
        <ele>413</ele>
        <time>2012-11-11T10:50:30Z</time>
      </trkpt>
      <trkpt lat="46.19633" lon="4.68766">
        <ele>413</ele>
        <time>2012-11-11T10:50:42Z</time>
      </trkpt>
      <trkpt lat="46.19633" lon="4.68765">
        <ele>413</ele>
        <time>2012-11-11T10:50:46Z</time>
      </trkpt>
      <trkpt lat="46.19631" lon="4.68769">
        <ele>413</ele>
        <time>2012-11-11T10:50:48Z</time>
      </trkpt>
      <trkpt lat="46.19629" lon="4.68774">
        <ele>412</ele>
        <time>2012-11-11T10:50:50Z</time>
      </trkpt>
      <trkpt lat="46.19628" lon="4.68785">
        <ele>411</ele>
        <time>2012-11-11T10:50:55Z</time>
      </trkpt>
      <trkpt lat="46.19634" lon="4.68794">
        <ele>411</ele>
        <time>2012-11-11T10:50:59Z</time>
      </trkpt>
      <trkpt lat="46.19635" lon="4.68795">
        <ele>411</ele>
        <time>2012-11-11T10:51:00Z</time>
      </trkpt>
      <trkpt lat="46.19636" lon="4.68797">
        <ele>411</ele>
        <time>2012-11-11T10:51:01Z</time>
      </trkpt>
      <trkpt lat="46.19635" lon="4.68802">
        <ele>410</ele>
        <time>2012-11-11T10:51:04Z</time>
      </trkpt>
      <trkpt lat="46.19629" lon="4.68802">
        <ele>410</ele>
        <time>2012-11-11T10:51:06Z</time>
      </trkpt>
      <trkpt lat="46.19622" lon="4.68799">
        <ele>410</ele>
        <time>2012-11-11T10:51:08Z</time>
      </trkpt>
      <trkpt lat="46.19614" lon="4.68794">
        <ele>410</ele>
        <time>2012-11-11T10:51:10Z</time>
      </trkpt>
      <trkpt lat="46.19603" lon="4.68783">
        <ele>410</ele>
        <time>2012-11-11T10:51:13Z</time>
      </trkpt>
      <trkpt lat="46.19595" lon="4.68777">
        <ele>410</ele>
        <time>2012-11-11T10:51:15Z</time>
      </trkpt>
      <trkpt lat="46.19592" lon="4.68773">
        <ele>410</ele>
        <time>2012-11-11T10:51:16Z</time>
      </trkpt>
      <trkpt lat="46.19585" lon="4.68764">
        <ele>410</ele>
        <time>2012-11-11T10:51:18Z</time>
      </trkpt>
      <trkpt lat="46.19569" lon="4.68744">
        <ele>404</ele>
        <time>2012-11-11T10:51:23Z</time>
      </trkpt>
      <trkpt lat="46.19568" lon="4.68737">
        <ele>403</ele>
        <time>2012-11-11T10:51:24Z</time>
      </trkpt>
      <trkpt lat="46.19567" lon="4.68729">
        <ele>402</ele>
        <time>2012-11-11T10:51:25Z</time>
      </trkpt>
      <trkpt lat="46.19564" lon="4.68701">
        <ele>400</ele>
        <time>2012-11-11T10:51:28Z</time>
      </trkpt>
      <trkpt lat="46.19561" lon="4.68678">
        <ele>401</ele>
        <time>2012-11-11T10:51:30Z</time>
      </trkpt>
      <trkpt lat="46.19558" lon="4.68644">
        <ele>397</ele>
        <time>2012-11-11T10:51:33Z</time>
      </trkpt>
      <trkpt lat="46.19556" lon="4.68625">
        <ele>396</ele>
        <time>2012-11-11T10:51:35Z</time>
      </trkpt>
      <trkpt lat="46.19554" lon="4.68586">
        <ele>396</ele>
        <time>2012-11-11T10:51:39Z</time>
      </trkpt>
      <trkpt lat="46.19553" lon="4.68571">
        <ele>391</ele>
        <time>2012-11-11T10:51:41Z</time>
      </trkpt>
      <trkpt lat="46.19552" lon="4.68565">
        <ele>391</ele>
        <time>2012-11-11T10:51:42Z</time>
      </trkpt>
      <trkpt lat="46.1955" lon="4.68548">
        <ele>390</ele>
        <time>2012-11-11T10:51:46Z</time>
      </trkpt>
      <trkpt lat="46.19551" lon="4.68542">
        <ele>389</ele>
        <time>2012-11-11T10:51:47Z</time>
      </trkpt>
      <trkpt lat="46.19557" lon="4.68521">
        <ele>389</ele>
        <time>2012-11-11T10:51:50Z</time>
      </trkpt>
      <trkpt lat="46.1956" lon="4.68515">
        <ele>389</ele>
        <time>2012-11-11T10:51:51Z</time>
      </trkpt>
      <trkpt lat="46.19564" lon="4.68509">
        <ele>389</ele>
        <time>2012-11-11T10:51:52Z</time>
      </trkpt>
      <trkpt lat="46.19583" lon="4.68481">
        <ele>384</ele>
        <time>2012-11-11T10:51:57Z</time>
      </trkpt>
      <trkpt lat="46.19586" lon="4.68476">
        <ele>388</ele>
        <time>2012-11-11T10:51:58Z</time>
      </trkpt>
      <trkpt lat="46.19589" lon="4.68469">
        <ele>387</ele>
        <time>2012-11-11T10:52:00Z</time>
      </trkpt>
      <trkpt lat="46.19588" lon="4.68467">
        <ele>387</ele>
        <time>2012-11-11T10:52:01Z</time>
      </trkpt>
      <trkpt lat="46.19578" lon="4.68466">
        <ele>381</ele>
        <time>2012-11-11T10:52:04Z</time>
      </trkpt>
      <trkpt lat="46.19563" lon="4.68464">
        <ele>380</ele>
        <time>2012-11-11T10:52:07Z</time>
      </trkpt>
      <trkpt lat="46.19551" lon="4.68463">
        <ele>380</ele>
        <time>2012-11-11T10:52:09Z</time>
      </trkpt>
      <trkpt lat="46.19538" lon="4.68461">
        <ele>379</ele>
        <time>2012-11-11T10:52:11Z</time>
      </trkpt>
      <trkpt lat="46.19525" lon="4.68466">
        <ele>378</ele>
        <time>2012-11-11T10:52:13Z</time>
      </trkpt>
      <trkpt lat="46.19506" lon="4.68481">
        <ele>379</ele>
        <time>2012-11-11T10:52:16Z</time>
      </trkpt>
      <trkpt lat="46.19499" lon="4.68485">
        <ele>374</ele>
        <time>2012-11-11T10:52:17Z</time>
      </trkpt>
      <trkpt lat="46.19493" lon="4.68489">
        <ele>375</ele>
        <time>2012-11-11T10:52:18Z</time>
      </trkpt>
      <trkpt lat="46.19487" lon="4.68493">
        <ele>374</ele>
        <time>2012-11-11T10:52:19Z</time>
      </trkpt>
      <trkpt lat="46.19483" lon="4.68493">
        <ele>373</ele>
        <time>2012-11-11T10:52:20Z</time>
      </trkpt>
      <trkpt lat="46.19478" lon="4.68482">
        <ele>372</ele>
        <time>2012-11-11T10:52:22Z</time>
      </trkpt>
      <trkpt lat="46.19482" lon="4.68469">
        <ele>371</ele>
        <time>2012-11-11T10:52:24Z</time>
      </trkpt>
      <trkpt lat="46.19485" lon="4.68462">
        <ele>370</ele>
        <time>2012-11-11T10:52:25Z</time>
      </trkpt>
      <trkpt lat="46.19503" lon="4.68429">
        <ele>373</ele>
        <time>2012-11-11T10:52:30Z</time>
      </trkpt>
      <trkpt lat="46.19503" lon="4.68425">
        <ele>373</ele>
        <time>2012-11-11T10:52:31Z</time>
      </trkpt>
      <trkpt lat="46.19499" lon="4.6842">
        <ele>370</ele>
        <time>2012-11-11T10:52:33Z</time>
      </trkpt>
      <trkpt lat="46.19484" lon="4.68423">
        <ele>369</ele>
        <time>2012-11-11T10:52:36Z</time>
      </trkpt>
      <trkpt lat="46.19478" lon="4.68424">
        <ele>369</ele>
        <time>2012-11-11T10:52:37Z</time>
      </trkpt>
      <trkpt lat="46.19459" lon="4.68428">
        <ele>368</ele>
        <time>2012-11-11T10:52:40Z</time>
      </trkpt>
      <trkpt lat="46.19453" lon="4.68429">
        <ele>367</ele>
        <time>2012-11-11T10:52:41Z</time>
      </trkpt>
      <trkpt lat="46.19444" lon="4.68424">
        <ele>366</ele>
        <time>2012-11-11T10:52:43Z</time>
      </trkpt>
      <trkpt lat="46.19433" lon="4.68405">
        <ele>361</ele>
        <time>2012-11-11T10:52:46Z</time>
      </trkpt>
      <trkpt lat="46.19429" lon="4.68397">
        <ele>361</ele>
        <time>2012-11-11T10:52:47Z</time>
      </trkpt>
      <trkpt lat="46.19418" lon="4.68377">
        <ele>359</ele>
        <time>2012-11-11T10:52:50Z</time>
      </trkpt>
      <trkpt lat="46.19417" lon="4.68369">
        <ele>359</ele>
        <time>2012-11-11T10:52:51Z</time>
      </trkpt>
      <trkpt lat="46.19423" lon="4.68344">
        <ele>356</ele>
        <time>2012-11-11T10:52:54Z</time>
      </trkpt>
      <trkpt lat="46.19437" lon="4.68322">
        <ele>350</ele>
        <time>2012-11-11T10:52:57Z</time>
      </trkpt>
      <trkpt lat="46.19455" lon="4.68315">
        <ele>349</ele>
        <time>2012-11-11T10:53:00Z</time>
      </trkpt>
      <trkpt lat="46.19461" lon="4.68315">
        <ele>349</ele>
        <time>2012-11-11T10:53:01Z</time>
      </trkpt>
      <trkpt lat="46.19483" lon="4.6831">
        <ele>350</ele>
        <time>2012-11-11T10:53:04Z</time>
      </trkpt>
      <trkpt lat="46.19496" lon="4.68306">
        <ele>350</ele>
        <time>2012-11-11T10:53:06Z</time>
      </trkpt>
      <trkpt lat="46.19507" lon="4.68303">
        <ele>352</ele>
        <time>2012-11-11T10:53:08Z</time>
      </trkpt>
      <trkpt lat="46.19524" lon="4.68297">
        <ele>351</ele>
        <time>2012-11-11T10:53:11Z</time>
      </trkpt>
      <trkpt lat="46.19534" lon="4.6829">
        <ele>351</ele>
        <time>2012-11-11T10:53:13Z</time>
      </trkpt>
      <trkpt lat="46.19539" lon="4.68288">
        <ele>351</ele>
        <time>2012-11-11T10:53:14Z</time>
      </trkpt>
      <trkpt lat="46.19561" lon="4.68274">
        <ele>351</ele>
        <time>2012-11-11T10:53:19Z</time>
      </trkpt>
      <trkpt lat="46.19569" lon="4.68266">
        <ele>350</ele>
        <time>2012-11-11T10:53:21Z</time>
      </trkpt>
      <trkpt lat="46.19582" lon="4.68255">
        <ele>349</ele>
        <time>2012-11-11T10:53:24Z</time>
      </trkpt>
      <trkpt lat="46.19592" lon="4.68247">
        <ele>348</ele>
        <time>2012-11-11T10:53:28Z</time>
      </trkpt>
      <trkpt lat="46.19602" lon="4.68238">
        <ele>348</ele>
        <time>2012-11-11T10:53:34Z</time>
      </trkpt>
      <trkpt lat="46.19607" lon="4.68232">
        <ele>348</ele>
        <time>2012-11-11T10:53:38Z</time>
      </trkpt>
      <trkpt lat="46.19607" lon="4.6823">
        <ele>348</ele>
        <time>2012-11-11T10:53:39Z</time>
      </trkpt>
      <trkpt lat="46.19607" lon="4.68228">
        <ele>348</ele>
        <time>2012-11-11T10:53:44Z</time>
      </trkpt>
      <trkpt lat="46.19608" lon="4.68228">
        <ele>348</ele>
        <time>2012-11-11T10:54:04Z</time>
      </trkpt>
      <trkpt lat="46.19605" lon="4.68228">
        <ele>348</ele>
        <time>2012-11-11T10:56:37Z</time>
      </trkpt>
      <trkpt lat="46.19606" lon="4.68229">
        <ele>348</ele>
        <time>2012-11-11T10:56:53Z</time>
      </trkpt>
      <trkpt lat="46.19606" lon="4.68231">
        <ele>348</ele>
        <time>2012-11-11T10:57:08Z</time>
      </trkpt>
      <trkpt lat="46.19605" lon="4.68228">
        <ele>348</ele>
        <time>2012-11-11T10:57:33Z</time>
      </trkpt>
      <trkpt lat="46.19601" lon="4.6823">
        <ele>348</ele>
        <time>2012-11-11T10:57:35Z</time>
      </trkpt>
      <trkpt lat="46.19594" lon="4.68229">
        <ele>347</ele>
        <time>2012-11-11T10:57:37Z</time>
      </trkpt>
      <trkpt lat="46.19582" lon="4.68227">
        <ele>345</ele>
        <time>2012-11-11T10:57:40Z</time>
      </trkpt>
      <trkpt lat="46.19568" lon="4.68217">
        <ele>344</ele>
        <time>2012-11-11T10:57:44Z</time>
      </trkpt>
      <trkpt lat="46.19563" lon="4.68205">
        <ele>343</ele>
        <time>2012-11-11T10:57:46Z</time>
      </trkpt>
      <trkpt lat="46.19558" lon="4.68194">
        <ele>342</ele>
        <time>2012-11-11T10:57:48Z</time>
      </trkpt>
      <trkpt lat="46.19544" lon="4.6819">
        <ele>342</ele>
        <time>2012-11-11T10:57:51Z</time>
      </trkpt>
      <trkpt lat="46.1953" lon="4.68197">
        <ele>342</ele>
        <time>2012-11-11T10:57:54Z</time>
      </trkpt>
      <trkpt lat="46.19519" lon="4.68203">
        <ele>342</ele>
        <time>2012-11-11T10:57:56Z</time>
      </trkpt>
      <trkpt lat="46.19494" lon="4.6821">
        <ele>339</ele>
        <time>2012-11-11T10:58:00Z</time>
      </trkpt>
      <trkpt lat="46.19487" lon="4.68212">
        <ele>339</ele>
        <time>2012-11-11T10:58:01Z</time>
      </trkpt>
      <trkpt lat="46.19459" lon="4.68222">
        <ele>339</ele>
        <time>2012-11-11T10:58:05Z</time>
      </trkpt>
      <trkpt lat="46.19438" lon="4.6823">
        <ele>338</ele>
        <time>2012-11-11T10:58:08Z</time>
      </trkpt>
      <trkpt lat="46.19418" lon="4.68236">
        <ele>338</ele>
        <time>2012-11-11T10:58:11Z</time>
      </trkpt>
      <trkpt lat="46.19397" lon="4.68243">
        <ele>335</ele>
        <time>2012-11-11T10:58:14Z</time>
      </trkpt>
      <trkpt lat="46.19378" lon="4.6825">
        <ele>333</ele>
        <time>2012-11-11T10:58:17Z</time>
      </trkpt>
      <trkpt lat="46.1936" lon="4.6826">
        <ele>336</ele>
        <time>2012-11-11T10:58:20Z</time>
      </trkpt>
      <trkpt lat="46.19344" lon="4.68272">
        <ele>335</ele>
        <time>2012-11-11T10:58:23Z</time>
      </trkpt>
      <trkpt lat="46.19316" lon="4.68292">
        <ele>330</ele>
        <time>2012-11-11T10:58:28Z</time>
      </trkpt>
      <trkpt lat="46.19308" lon="4.68297">
        <ele>330</ele>
        <time>2012-11-11T10:58:30Z</time>
      </trkpt>
      <trkpt lat="46.19305" lon="4.68296">
        <ele>330</ele>
        <time>2012-11-11T10:58:31Z</time>
      </trkpt>
      <trkpt lat="46.19306" lon="4.68289">
        <ele>329</ele>
        <time>2012-11-11T10:58:33Z</time>
      </trkpt>
      <trkpt lat="46.19314" lon="4.68281">
        <ele>329</ele>
        <time>2012-11-11T10:58:35Z</time>
      </trkpt>
      <trkpt lat="46.19319" lon="4.68277">
        <ele>329</ele>
        <time>2012-11-11T10:58:36Z</time>
      </trkpt>
      <trkpt lat="46.19323" lon="4.68272">
        <ele>329</ele>
        <time>2012-11-11T10:58:37Z</time>
      </trkpt>
      <trkpt lat="46.19326" lon="4.68264">
        <ele>329</ele>
        <time>2012-11-11T10:58:38Z</time>
      </trkpt>
      <trkpt lat="46.19329" lon="4.68256">
        <ele>329</ele>
        <time>2012-11-11T10:58:39Z</time>
      </trkpt>
      <trkpt lat="46.19328" lon="4.68232">
        <ele>328</ele>
        <time>2012-11-11T10:58:42Z</time>
      </trkpt>
      <trkpt lat="46.19321" lon="4.68211">
        <ele>327</ele>
        <time>2012-11-11T10:58:45Z</time>
      </trkpt>
      <trkpt lat="46.19321" lon="4.68205">
        <ele>327</ele>
        <time>2012-11-11T10:58:46Z</time>
      </trkpt>
      <trkpt lat="46.1932" lon="4.68199">
        <ele>327</ele>
        <time>2012-11-11T10:58:47Z</time>
      </trkpt>
      <trkpt lat="46.19322" lon="4.68174">
        <ele>328</ele>
        <time>2012-11-11T10:58:52Z</time>
      </trkpt>
      <trkpt lat="46.19326" lon="4.68156">
        <ele>330</ele>
        <time>2012-11-11T10:58:56Z</time>
      </trkpt>
      <trkpt lat="46.19329" lon="4.68143">
        <ele>331</ele>
        <time>2012-11-11T10:58:59Z</time>
      </trkpt>
      <trkpt lat="46.19335" lon="4.68112">
        <ele>336</ele>
        <time>2012-11-11T10:59:07Z</time>
      </trkpt>
      <trkpt lat="46.19336" lon="4.68104">
        <ele>336</ele>
        <time>2012-11-11T10:59:09Z</time>
      </trkpt>
      <trkpt lat="46.19339" lon="4.68083">
        <ele>336</ele>
        <time>2012-11-11T10:59:15Z</time>
      </trkpt>
      <trkpt lat="46.19345" lon="4.6805">
        <ele>341</ele>
        <time>2012-11-11T10:59:24Z</time>
      </trkpt>
      <trkpt lat="46.19354" lon="4.68012">
        <ele>342</ele>
        <time>2012-11-11T10:59:34Z</time>
      </trkpt>
      <trkpt lat="46.19357" lon="4.67998">
        <ele>346</ele>
        <time>2012-11-11T10:59:38Z</time>
      </trkpt>
      <trkpt lat="46.1936" lon="4.67982">
        <ele>347</ele>
        <time>2012-11-11T10:59:42Z</time>
      </trkpt>
      <trkpt lat="46.19365" lon="4.67952">
        <ele>349</ele>
        <time>2012-11-11T10:59:50Z</time>
      </trkpt>
      <trkpt lat="46.19365" lon="4.67949">
        <ele>350</ele>
        <time>2012-11-11T10:59:51Z</time>
      </trkpt>
      <trkpt lat="46.19364" lon="4.67946">
        <ele>350</ele>
        <time>2012-11-11T10:59:52Z</time>
      </trkpt>
      <trkpt lat="46.19361" lon="4.67941">
        <ele>350</ele>
        <time>2012-11-11T10:59:54Z</time>
      </trkpt>
      <trkpt lat="46.19349" lon="4.67941">
        <ele>350</ele>
        <time>2012-11-11T10:59:58Z</time>
      </trkpt>
      <trkpt lat="46.19334" lon="4.6794">
        <ele>349</ele>
        <time>2012-11-11T11:00:02Z</time>
      </trkpt>
      <trkpt lat="46.19331" lon="4.67939">
        <ele>349</ele>
        <time>2012-11-11T11:00:03Z</time>
      </trkpt>
      <trkpt lat="46.19328" lon="4.67938">
        <ele>349</ele>
        <time>2012-11-11T11:00:04Z</time>
      </trkpt>
      <trkpt lat="46.19315" lon="4.6793">
        <ele>350</ele>
        <time>2012-11-11T11:00:09Z</time>
      </trkpt>
      <trkpt lat="46.19301" lon="4.67922">
        <ele>350</ele>
        <time>2012-11-11T11:00:16Z</time>
      </trkpt>
      <trkpt lat="46.19294" lon="4.67917">
        <ele>351</ele>
        <time>2012-11-11T11:00:20Z</time>
      </trkpt>
      <trkpt lat="46.1929" lon="4.67915">
        <ele>359</ele>
        <time>2012-11-11T11:00:22Z</time>
      </trkpt>
      <trkpt lat="46.19287" lon="4.67913">
        <ele>359</ele>
        <time>2012-11-11T11:00:25Z</time>
      </trkpt>
      <trkpt lat="46.19284" lon="4.67915">
        <ele>359</ele>
        <time>2012-11-11T11:00:27Z</time>
      </trkpt>
      <trkpt lat="46.19281" lon="4.67922">
        <ele>351</ele>
        <time>2012-11-11T11:00:31Z</time>
      </trkpt>
      <trkpt lat="46.1928" lon="4.67926">
        <ele>351</ele>
        <time>2012-11-11T11:00:33Z</time>
      </trkpt>
      <trkpt lat="46.19271" lon="4.6793">
        <ele>352</ele>
        <time>2012-11-11T11:00:39Z</time>
      </trkpt>
      <trkpt lat="46.19266" lon="4.67921">
        <ele>353</ele>
        <time>2012-11-11T11:00:44Z</time>
      </trkpt>
      <trkpt lat="46.19264" lon="4.67918">
        <ele>354</ele>
        <time>2012-11-11T11:00:46Z</time>
      </trkpt>
      <trkpt lat="46.19261" lon="4.67907">
        <ele>359</ele>
        <time>2012-11-11T11:00:52Z</time>
      </trkpt>
      <trkpt lat="46.19258" lon="4.67902">
        <ele>359</ele>
        <time>2012-11-11T11:00:56Z</time>
      </trkpt>
      <trkpt lat="46.19255" lon="4.67901">
        <ele>359</ele>
        <time>2012-11-11T11:00:58Z</time>
      </trkpt>
      <trkpt lat="46.19251" lon="4.67906">
        <ele>359</ele>
        <time>2012-11-11T11:01:02Z</time>
      </trkpt>
      <trkpt lat="46.19251" lon="4.67908">
        <ele>358</ele>
        <time>2012-11-11T11:01:03Z</time>
      </trkpt>
      <trkpt lat="46.19248" lon="4.6792">
        <ele>358</ele>
        <time>2012-11-11T11:01:10Z</time>
      </trkpt>
      <trkpt lat="46.19248" lon="4.67922">
        <ele>358</ele>
        <time>2012-11-11T11:01:11Z</time>
      </trkpt>
      <trkpt lat="46.19245" lon="4.67935">
        <ele>360</ele>
        <time>2012-11-11T11:01:17Z</time>
      </trkpt>
      <trkpt lat="46.19238" lon="4.67957">
        <ele>360</ele>
        <time>2012-11-11T11:01:25Z</time>
      </trkpt>
      <trkpt lat="46.19233" lon="4.67968">
        <ele>359</ele>
        <time>2012-11-11T11:01:29Z</time>
      </trkpt>
      <trkpt lat="46.19229" lon="4.67972">
        <ele>359</ele>
        <time>2012-11-11T11:01:31Z</time>
      </trkpt>
      <trkpt lat="46.19216" lon="4.67984">
        <ele>360</ele>
        <time>2012-11-11T11:01:39Z</time>
      </trkpt>
      <trkpt lat="46.192" lon="4.67988">
        <ele>362</ele>
        <time>2012-11-11T11:01:48Z</time>
      </trkpt>
      <trkpt lat="46.19199" lon="4.67989">
        <ele>362</ele>
        <time>2012-11-11T11:01:49Z</time>
      </trkpt>
      <trkpt lat="46.19188" lon="4.67992">
        <ele>364</ele>
        <time>2012-11-11T11:01:56Z</time>
      </trkpt>
      <trkpt lat="46.19177" lon="4.67999">
        <ele>365</ele>
        <time>2012-11-11T11:02:04Z</time>
      </trkpt>
      <trkpt lat="46.19169" lon="4.68001">
        <ele>364</ele>
        <time>2012-11-11T11:02:10Z</time>
      </trkpt>
      <trkpt lat="46.19168" lon="4.68">
        <ele>366</ele>
        <time>2012-11-11T11:02:11Z</time>
      </trkpt>
      <trkpt lat="46.19168" lon="4.67995">
        <ele>365</ele>
        <time>2012-11-11T11:02:13Z</time>
      </trkpt>
      <trkpt lat="46.19171" lon="4.6799">
        <ele>365</ele>
        <time>2012-11-11T11:02:15Z</time>
      </trkpt>
      <trkpt lat="46.19174" lon="4.6798">
        <ele>365</ele>
        <time>2012-11-11T11:02:20Z</time>
      </trkpt>
      <trkpt lat="46.19175" lon="4.67976">
        <ele>365</ele>
        <time>2012-11-11T11:02:22Z</time>
      </trkpt>
      <trkpt lat="46.19177" lon="4.67966">
        <ele>366</ele>
        <time>2012-11-11T11:02:26Z</time>
      </trkpt>
      <trkpt lat="46.19179" lon="4.67954">
        <ele>367</ele>
        <time>2012-11-11T11:02:33Z</time>
      </trkpt>
      <trkpt lat="46.19181" lon="4.67945">
        <ele>368</ele>
        <time>2012-11-11T11:02:39Z</time>
      </trkpt>
      <trkpt lat="46.19182" lon="4.67942">
        <ele>369</ele>
        <time>2012-11-11T11:02:41Z</time>
      </trkpt>
      <trkpt lat="46.19184" lon="4.6793">
        <ele>371</ele>
        <time>2012-11-11T11:02:50Z</time>
      </trkpt>
      <trkpt lat="46.19187" lon="4.67921">
        <ele>371</ele>
        <time>2012-11-11T11:02:56Z</time>
      </trkpt>
      <trkpt lat="46.19188" lon="4.67916">
        <ele>379</ele>
        <time>2012-11-11T11:02:59Z</time>
      </trkpt>
      <trkpt lat="46.19188" lon="4.67912">
        <ele>379</ele>
        <time>2012-11-11T11:03:02Z</time>
      </trkpt>
      <trkpt lat="46.19189" lon="4.67909">
        <ele>379</ele>
        <time>2012-11-11T11:03:04Z</time>
      </trkpt>
      <trkpt lat="46.19189" lon="4.67897">
        <ele>379</ele>
        <time>2012-11-11T11:03:11Z</time>
      </trkpt>
      <trkpt lat="46.19189" lon="4.67895">
        <ele>379</ele>
        <time>2012-11-11T11:03:12Z</time>
      </trkpt>
      <trkpt lat="46.1919" lon="4.67888">
        <ele>379</ele>
        <time>2012-11-11T11:03:16Z</time>
      </trkpt>
      <trkpt lat="46.1919" lon="4.67883">
        <ele>380</ele>
        <time>2012-11-11T11:03:19Z</time>
      </trkpt>
      <trkpt lat="46.19187" lon="4.67881">
        <ele>380</ele>
        <time>2012-11-11T11:03:22Z</time>
      </trkpt>
      <trkpt lat="46.19182" lon="4.67887">
        <ele>380</ele>
        <time>2012-11-11T11:03:26Z</time>
      </trkpt>
      <trkpt lat="46.19174" lon="4.67898">
        <ele>380</ele>
        <time>2012-11-11T11:03:35Z</time>
      </trkpt>
      <trkpt lat="46.1917" lon="4.67906">
        <ele>381</ele>
        <time>2012-11-11T11:03:41Z</time>
      </trkpt>
      <trkpt lat="46.19169" lon="4.67908">
        <ele>381</ele>
        <time>2012-11-11T11:03:42Z</time>
      </trkpt>
      <trkpt lat="46.19161" lon="4.67919">
        <ele>383</ele>
        <time>2012-11-11T11:03:51Z</time>
      </trkpt>
      <trkpt lat="46.19152" lon="4.6793">
        <ele>383</ele>
        <time>2012-11-11T11:04:00Z</time>
      </trkpt>
      <trkpt lat="46.19143" lon="4.67939">
        <ele>384</ele>
        <time>2012-11-11T11:04:08Z</time>
      </trkpt>
      <trkpt lat="46.19142" lon="4.6794">
        <ele>384</ele>
        <time>2012-11-11T11:04:09Z</time>
      </trkpt>
      <trkpt lat="46.19133" lon="4.67948">
        <ele>384</ele>
        <time>2012-11-11T11:04:16Z</time>
      </trkpt>
      <trkpt lat="46.19126" lon="4.67954">
        <ele>385</ele>
        <time>2012-11-11T11:04:22Z</time>
      </trkpt>
      <trkpt lat="46.19115" lon="4.6797">
        <ele>384</ele>
        <time>2012-11-11T11:04:28Z</time>
      </trkpt>
      <trkpt lat="46.19113" lon="4.67974">
        <ele>384</ele>
        <time>2012-11-11T11:04:29Z</time>
      </trkpt>
      <trkpt lat="46.191" lon="4.67994">
        <ele>385</ele>
        <time>2012-11-11T11:04:33Z</time>
      </trkpt>
      <trkpt lat="46.19089" lon="4.68012">
        <ele>378</ele>
        <time>2012-11-11T11:04:36Z</time>
      </trkpt>
      <trkpt lat="46.19085" lon="4.68017">
        <ele>376</ele>
        <time>2012-11-11T11:04:37Z</time>
      </trkpt>
      <trkpt lat="46.19076" lon="4.68024">
        <ele>382</ele>
        <time>2012-11-11T11:04:39Z</time>
      </trkpt>
      <trkpt lat="46.19067" lon="4.68027">
        <ele>382</ele>
        <time>2012-11-11T11:04:42Z</time>
      </trkpt>
      <trkpt lat="46.19065" lon="4.68028">
        <ele>382</ele>
        <time>2012-11-11T11:04:43Z</time>
      </trkpt>
      <trkpt lat="46.19054" lon="4.68029">
        <ele>382</ele>
        <time>2012-11-11T11:04:48Z</time>
      </trkpt>
      <trkpt lat="46.19047" lon="4.68025">
        <ele>382</ele>
        <time>2012-11-11T11:04:52Z</time>
      </trkpt>
      <trkpt lat="46.19044" lon="4.68022">
        <ele>383</ele>
        <time>2012-11-11T11:04:54Z</time>
      </trkpt>
      <trkpt lat="46.19033" lon="4.68012">
        <ele>384</ele>
        <time>2012-11-11T11:05:01Z</time>
      </trkpt>
      <trkpt lat="46.19025" lon="4.68008">
        <ele>385</ele>
        <time>2012-11-11T11:05:07Z</time>
      </trkpt>
      <trkpt lat="46.19022" lon="4.68006">
        <ele>385</ele>
        <time>2012-11-11T11:05:09Z</time>
      </trkpt>
      <trkpt lat="46.19022" lon="4.68005">
        <ele>385</ele>
        <time>2012-11-11T11:05:10Z</time>
      </trkpt>
      <trkpt lat="46.19021" lon="4.68003">
        <ele>385</ele>
        <time>2012-11-11T11:05:11Z</time>
      </trkpt>
      <trkpt lat="46.19021" lon="4.67998">
        <ele>392</ele>
        <time>2012-11-11T11:05:14Z</time>
      </trkpt>
      <trkpt lat="46.19022" lon="4.67998">
        <ele>392</ele>
        <time>2012-11-11T11:05:17Z</time>
      </trkpt>
      <trkpt lat="46.19022" lon="4.67999">
        <ele>392</ele>
        <time>2012-11-11T11:05:31Z</time>
      </trkpt>
      <trkpt lat="46.19022" lon="4.67999">
        <ele>392</ele>
        <time>2012-11-11T11:05:34Z</time>
      </trkpt>
      <trkpt lat="46.19022" lon="4.68">
        <ele>392</ele>
        <time>2012-11-11T11:05:45Z</time>
      </trkpt>
      <trkpt lat="46.19022" lon="4.67999">
        <ele>392</ele>
        <time>2012-11-11T11:06:02Z</time>
      </trkpt>
      <trkpt lat="46.19023" lon="4.67999">
        <ele>392</ele>
        <time>2012-11-11T11:06:20Z</time>
      </trkpt>
      <trkpt lat="46.19026" lon="4.67997">
        <ele>392</ele>
        <time>2012-11-11T11:06:23Z</time>
      </trkpt>
      <trkpt lat="46.19028" lon="4.67987">
        <ele>392</ele>
        <time>2012-11-11T11:06:28Z</time>
      </trkpt>
      <trkpt lat="46.19029" lon="4.67985">
        <ele>393</ele>
        <time>2012-11-11T11:06:29Z</time>
      </trkpt>
      <trkpt lat="46.19032" lon="4.67974">
        <ele>393</ele>
        <time>2012-11-11T11:06:34Z</time>
      </trkpt>
      <trkpt lat="46.19034" lon="4.67969">
        <ele>394</ele>
        <time>2012-11-11T11:06:37Z</time>
      </trkpt>
      <trkpt lat="46.19036" lon="4.67961">
        <ele>394</ele>
        <time>2012-11-11T11:06:41Z</time>
      </trkpt>
      <trkpt lat="46.19041" lon="4.67949">
        <ele>395</ele>
        <time>2012-11-11T11:06:48Z</time>
      </trkpt>
      <trkpt lat="46.19045" lon="4.67937">
        <ele>396</ele>
        <time>2012-11-11T11:06:55Z</time>
      </trkpt>
      <trkpt lat="46.19045" lon="4.67931">
        <ele>396</ele>
        <time>2012-11-11T11:06:59Z</time>
      </trkpt>
      <trkpt lat="46.19043" lon="4.67928">
        <ele>396</ele>
        <time>2012-11-11T11:07:01Z</time>
      </trkpt>
      <trkpt lat="46.19042" lon="4.67924">
        <ele>396</ele>
        <time>2012-11-11T11:07:03Z</time>
      </trkpt>
      <trkpt lat="46.1904" lon="4.67923">
        <ele>396</ele>
        <time>2012-11-11T11:07:04Z</time>
      </trkpt>
      <trkpt lat="46.19036" lon="4.67919">
        <ele>396</ele>
        <time>2012-11-11T11:07:07Z</time>
      </trkpt>
      <trkpt lat="46.19023" lon="4.67905">
        <ele>404</ele>
        <time>2012-11-11T11:07:15Z</time>
      </trkpt>
      <trkpt lat="46.19016" lon="4.67888">
        <ele>405</ele>
        <time>2012-11-11T11:07:21Z</time>
      </trkpt>
      <trkpt lat="46.19016" lon="4.67885">
        <ele>406</ele>
        <time>2012-11-11T11:07:22Z</time>
      </trkpt>
      <trkpt lat="46.19008" lon="4.67867">
        <ele>407</ele>
        <time>2012-11-11T11:07:29Z</time>
      </trkpt>
      <trkpt lat="46.18996" lon="4.67851">
        <ele>405</ele>
        <time>2012-11-11T11:07:35Z</time>
      </trkpt>
      <trkpt lat="46.18992" lon="4.67845">
        <ele>406</ele>
        <time>2012-11-11T11:07:37Z</time>
      </trkpt>
      <trkpt lat="46.18985" lon="4.67835">
        <ele>406</ele>
        <time>2012-11-11T11:07:41Z</time>
      </trkpt>
      <trkpt lat="46.18968" lon="4.67818">
        <ele>412</ele>
        <time>2012-11-11T11:07:50Z</time>
      </trkpt>
      <trkpt lat="46.18963" lon="4.67816">
        <ele>412</ele>
        <time>2012-11-11T11:07:52Z</time>
      </trkpt>
      <trkpt lat="46.18952" lon="4.67815">
        <ele>411</ele>
        <time>2012-11-11T11:07:56Z</time>
      </trkpt>
      <trkpt lat="46.18933" lon="4.67816">
        <ele>409</ele>
        <time>2012-11-11T11:08:04Z</time>
      </trkpt>
      <trkpt lat="46.18927" lon="4.67816">
        <ele>408</ele>
        <time>2012-11-11T11:08:06Z</time>
      </trkpt>
      <trkpt lat="46.18914" lon="4.67816">
        <ele>403</ele>
        <time>2012-11-11T11:08:09Z</time>
      </trkpt>
      <trkpt lat="46.18909" lon="4.67816">
        <ele>403</ele>
        <time>2012-11-11T11:08:10Z</time>
      </trkpt>
      <trkpt lat="46.189" lon="4.67811">
        <ele>403</ele>
        <time>2012-11-11T11:08:12Z</time>
      </trkpt>
      <trkpt lat="46.18892" lon="4.67805">
        <ele>403</ele>
        <time>2012-11-11T11:08:14Z</time>
      </trkpt>
      <trkpt lat="46.1888" lon="4.67794">
        <ele>403</ele>
        <time>2012-11-11T11:08:18Z</time>
      </trkpt>
      <trkpt lat="46.18871" lon="4.67777">
        <ele>404</ele>
        <time>2012-11-11T11:08:23Z</time>
      </trkpt>
      <trkpt lat="46.18866" lon="4.67765">
        <ele>405</ele>
        <time>2012-11-11T11:08:27Z</time>
      </trkpt>
      <trkpt lat="46.1886" lon="4.67751">
        <ele>405</ele>
        <time>2012-11-11T11:08:32Z</time>
      </trkpt>
      <trkpt lat="46.18851" lon="4.67733">
        <ele>412</ele>
        <time>2012-11-11T11:08:38Z</time>
      </trkpt>
      <trkpt lat="46.18846" lon="4.67721">
        <ele>412</ele>
        <time>2012-11-11T11:08:42Z</time>
      </trkpt>
      <trkpt lat="46.18842" lon="4.67708">
        <ele>413</ele>
        <time>2012-11-11T11:08:46Z</time>
      </trkpt>
      <trkpt lat="46.18831" lon="4.67684">
        <ele>407</ele>
        <time>2012-11-11T11:08:54Z</time>
      </trkpt>
      <trkpt lat="46.18827" lon="4.67674">
        <ele>409</ele>
        <time>2012-11-11T11:08:57Z</time>
      </trkpt>
      <trkpt lat="46.1882" lon="4.67661">
        <ele>411</ele>
        <time>2012-11-11T11:09:02Z</time>
      </trkpt>
      <trkpt lat="46.18806" lon="4.6766">
        <ele>409</ele>
        <time>2012-11-11T11:09:06Z</time>
      </trkpt>
      <trkpt lat="46.18794" lon="4.67658">
        <ele>407</ele>
        <time>2012-11-11T11:09:09Z</time>
      </trkpt>
      <trkpt lat="46.1878" lon="4.67658">
        <ele>405</ele>
        <time>2012-11-11T11:09:12Z</time>
      </trkpt>
      <trkpt lat="46.18757" lon="4.67659">
        <ele>401</ele>
        <time>2012-11-11T11:09:17Z</time>
      </trkpt>
      <trkpt lat="46.18752" lon="4.67659">
        <ele>401</ele>
        <time>2012-11-11T11:09:18Z</time>
      </trkpt>
      <trkpt lat="46.18738" lon="4.67656">
        <ele>397</ele>
        <time>2012-11-11T11:09:22Z</time>
      </trkpt>
      <trkpt lat="46.18734" lon="4.67654">
        <ele>396</ele>
        <time>2012-11-11T11:09:23Z</time>
      </trkpt>
      <trkpt lat="46.18727" lon="4.67653">
        <ele>396</ele>
        <time>2012-11-11T11:09:25Z</time>
      </trkpt>
      <trkpt lat="46.18722" lon="4.67648">
        <ele>396</ele>
        <time>2012-11-11T11:09:27Z</time>
      </trkpt>
      <trkpt lat="46.18722" lon="4.67644">
        <ele>395</ele>
        <time>2012-11-11T11:09:28Z</time>
      </trkpt>
      <trkpt lat="46.18727" lon="4.67623">
        <ele>396</ele>
        <time>2012-11-11T11:09:32Z</time>
      </trkpt>
      <trkpt lat="46.1873" lon="4.67595">
        <ele>398</ele>
        <time>2012-11-11T11:09:38Z</time>
      </trkpt>
      <trkpt lat="46.1873" lon="4.67591">
        <ele>398</ele>
        <time>2012-11-11T11:09:39Z</time>
      </trkpt>
      <trkpt lat="46.18734" lon="4.67569">
        <ele>400</ele>
        <time>2012-11-11T11:09:45Z</time>
      </trkpt>
      <trkpt lat="46.18739" lon="4.67544">
        <ele>400</ele>
        <time>2012-11-11T11:09:52Z</time>
      </trkpt>
      <trkpt lat="46.18741" lon="4.67542">
        <ele>401</ele>
        <time>2012-11-11T11:09:53Z</time>
      </trkpt>
      <trkpt lat="46.18751" lon="4.67535">
        <ele>410</ele>
        <time>2012-11-11T11:09:59Z</time>
      </trkpt>
      <trkpt lat="46.18761" lon="4.67533">
        <ele>411</ele>
        <time>2012-11-11T11:10:05Z</time>
      </trkpt>
      <trkpt lat="46.18774" lon="4.6753">
        <ele>411</ele>
        <time>2012-11-11T11:10:12Z</time>
      </trkpt>
      <trkpt lat="46.18776" lon="4.6753">
        <ele>411</ele>
        <time>2012-11-11T11:10:13Z</time>
      </trkpt>
      <trkpt lat="46.18782" lon="4.67523">
        <ele>412</ele>
        <time>2012-11-11T11:10:17Z</time>
      </trkpt>
      <trkpt lat="46.18779" lon="4.67511">
        <ele>412</ele>
        <time>2012-11-11T11:10:21Z</time>
      </trkpt>
      <trkpt lat="46.18777" lon="4.67503">
        <ele>412</ele>
        <time>2012-11-11T11:10:25Z</time>
      </trkpt>
      <trkpt lat="46.18777" lon="4.675">
        <ele>416</ele>
        <time>2012-11-11T11:10:27Z</time>
      </trkpt>
      <trkpt lat="46.18776" lon="4.67494">
        <ele>416</ele>
        <time>2012-11-11T11:10:30Z</time>
      </trkpt>
      <trkpt lat="46.18773" lon="4.67489">
        <ele>416</ele>
        <time>2012-11-11T11:10:33Z</time>
      </trkpt>
      <trkpt lat="46.18773" lon="4.67488">
        <ele>417</ele>
        <time>2012-11-11T11:10:34Z</time>
      </trkpt>
      <trkpt lat="46.18767" lon="4.67478">
        <ele>417</ele>
        <time>2012-11-11T11:10:40Z</time>
      </trkpt>
      <trkpt lat="46.18766" lon="4.67476">
        <ele>417</ele>
        <time>2012-11-11T11:10:41Z</time>
      </trkpt>
      <trkpt lat="46.18762" lon="4.67469">
        <ele>418</ele>
        <time>2012-11-11T11:10:45Z</time>
      </trkpt>
      <trkpt lat="46.18757" lon="4.67461">
        <ele>419</ele>
        <time>2012-11-11T11:10:51Z</time>
      </trkpt>
      <trkpt lat="46.18752" lon="4.67455">
        <ele>419</ele>
        <time>2012-11-11T11:10:57Z</time>
      </trkpt>
      <trkpt lat="46.18747" lon="4.67454">
        <ele>411</ele>
        <time>2012-11-11T11:11:08Z</time>
      </trkpt>
      <trkpt lat="46.18744" lon="4.67447">
        <ele>412</ele>
        <time>2012-11-11T11:11:15Z</time>
      </trkpt>
      <trkpt lat="46.18741" lon="4.67442">
        <ele>413</ele>
        <time>2012-11-11T11:11:21Z</time>
      </trkpt>
      <trkpt lat="46.18736" lon="4.67433">
        <ele>414</ele>
        <time>2012-11-11T11:11:30Z</time>
      </trkpt>
      <trkpt lat="46.1873" lon="4.67423">
        <ele>414</ele>
        <time>2012-11-11T11:11:39Z</time>
      </trkpt>
      <trkpt lat="46.18726" lon="4.67415">
        <ele>419</ele>
        <time>2012-11-11T11:11:46Z</time>
      </trkpt>
      <trkpt lat="46.18725" lon="4.67414">
        <ele>419</ele>
        <time>2012-11-11T11:11:48Z</time>
      </trkpt>
      <trkpt lat="46.18724" lon="4.67414">
        <ele>418</ele>
        <time>2012-11-11T11:11:49Z</time>
      </trkpt>
      <trkpt lat="46.18723" lon="4.67411">
        <ele>418</ele>
        <time>2012-11-11T11:11:51Z</time>
      </trkpt>
      <trkpt lat="46.18716" lon="4.67399">
        <ele>417</ele>
        <time>2012-11-11T11:11:57Z</time>
      </trkpt>
      <trkpt lat="46.18711" lon="4.67387">
        <ele>417</ele>
        <time>2012-11-11T11:12:02Z</time>
      </trkpt>
      <trkpt lat="46.18706" lon="4.67371">
        <ele>417</ele>
        <time>2012-11-11T11:12:08Z</time>
      </trkpt>
      <trkpt lat="46.18706" lon="4.67368">
        <ele>417</ele>
        <time>2012-11-11T11:12:09Z</time>
      </trkpt>
      <trkpt lat="46.18704" lon="4.67347">
        <ele>417</ele>
        <time>2012-11-11T11:12:16Z</time>
      </trkpt>
      <trkpt lat="46.18701" lon="4.67323">
        <ele>419</ele>
        <time>2012-11-11T11:12:23Z</time>
      </trkpt>
      <trkpt lat="46.187" lon="4.67316">
        <ele>419</ele>
        <time>2012-11-11T11:12:25Z</time>
      </trkpt>
      <trkpt lat="46.18698" lon="4.67295">
        <ele>419</ele>
        <time>2012-11-11T11:12:32Z</time>
      </trkpt>
      <trkpt lat="46.18698" lon="4.67286">
        <ele>419</ele>
        <time>2012-11-11T11:12:36Z</time>
      </trkpt>
      <trkpt lat="46.18701" lon="4.67283">
        <ele>420</ele>
        <time>2012-11-11T11:12:38Z</time>
      </trkpt>
      <trkpt lat="46.18708" lon="4.67286">
        <ele>420</ele>
        <time>2012-11-11T11:12:42Z</time>
      </trkpt>
      <trkpt lat="46.18709" lon="4.67287">
        <ele>420</ele>
        <time>2012-11-11T11:12:43Z</time>
      </trkpt>
      <trkpt lat="46.18711" lon="4.6729">
        <ele>421</ele>
        <time>2012-11-11T11:12:45Z</time>
      </trkpt>
      <trkpt lat="46.18718" lon="4.67297">
        <ele>421</ele>
        <time>2012-11-11T11:12:51Z</time>
      </trkpt>
      <trkpt lat="46.1873" lon="4.67302">
        <ele>422</ele>
        <time>2012-11-11T11:12:59Z</time>
      </trkpt>
      <trkpt lat="46.18735" lon="4.673">
        <ele>423</ele>
        <time>2012-11-11T11:13:03Z</time>
      </trkpt>
      <trkpt lat="46.18736" lon="4.67297">
        <ele>423</ele>
        <time>2012-11-11T11:13:05Z</time>
      </trkpt>
      <trkpt lat="46.18739" lon="4.67285">
        <ele>423</ele>
        <time>2012-11-11T11:13:12Z</time>
      </trkpt>
      <trkpt lat="46.1874" lon="4.67283">
        <ele>423</ele>
        <time>2012-11-11T11:13:13Z</time>
      </trkpt>
      <trkpt lat="46.18747" lon="4.67269">
        <ele>424</ele>
        <time>2012-11-11T11:13:22Z</time>
      </trkpt>
      <trkpt lat="46.18757" lon="4.67252">
        <ele>429</ele>
        <time>2012-11-11T11:13:31Z</time>
      </trkpt>
      <trkpt lat="46.18762" lon="4.67243">
        <ele>430</ele>
        <time>2012-11-11T11:13:35Z</time>
      </trkpt>
      <trkpt lat="46.18771" lon="4.67231">
        <ele>431</ele>
        <time>2012-11-11T11:13:40Z</time>
      </trkpt>
      <trkpt lat="46.18783" lon="4.67207">
        <ele>431</ele>
        <time>2012-11-11T11:13:48Z</time>
      </trkpt>
      <trkpt lat="46.18786" lon="4.67201">
        <ele>431</ele>
        <time>2012-11-11T11:13:50Z</time>
      </trkpt>
      <trkpt lat="46.18795" lon="4.67189">
        <ele>432</ele>
        <time>2012-11-11T11:13:55Z</time>
      </trkpt>
      <trkpt lat="46.18807" lon="4.67171">
        <ele>433</ele>
        <time>2012-11-11T11:14:03Z</time>
      </trkpt>
      <trkpt lat="46.18812" lon="4.67162">
        <ele>431</ele>
        <time>2012-11-11T11:14:07Z</time>
      </trkpt>
      <trkpt lat="46.18812" lon="4.67157">
        <ele>431</ele>
        <time>2012-11-11T11:14:09Z</time>
      </trkpt>
      <trkpt lat="46.18813" lon="4.67134">
        <ele>430</ele>
        <time>2012-11-11T11:14:14Z</time>
      </trkpt>
      <trkpt lat="46.18813" lon="4.67123">
        <ele>429</ele>
        <time>2012-11-11T11:14:16Z</time>
      </trkpt>
      <trkpt lat="46.18815" lon="4.67111">
        <ele>429</ele>
        <time>2012-11-11T11:14:18Z</time>
      </trkpt>
      <trkpt lat="46.18816" lon="4.67099">
        <ele>429</ele>
        <time>2012-11-11T11:14:20Z</time>
      </trkpt>
      <trkpt lat="46.18817" lon="4.67094">
        <ele>429</ele>
        <time>2012-11-11T11:14:21Z</time>
      </trkpt>
      <trkpt lat="46.18825" lon="4.67071">
        <ele>426</ele>
        <time>2012-11-11T11:14:25Z</time>
      </trkpt>
      <trkpt lat="46.1883" lon="4.67059">
        <ele>425</ele>
        <time>2012-11-11T11:14:27Z</time>
      </trkpt>
      <trkpt lat="46.18839" lon="4.67044">
        <ele>430</ele>
        <time>2012-11-11T11:14:30Z</time>
      </trkpt>
      <trkpt lat="46.18844" lon="4.67033">
        <ele>429</ele>
        <time>2012-11-11T11:14:32Z</time>
      </trkpt>
      <trkpt lat="46.18854" lon="4.6702">
        <ele>428</ele>
        <time>2012-11-11T11:14:35Z</time>
      </trkpt>
      <trkpt lat="46.18857" lon="4.67015">
        <ele>428</ele>
        <time>2012-11-11T11:14:36Z</time>
      </trkpt>
      <trkpt lat="46.18877" lon="4.66993">
        <ele>422</ele>
        <time>2012-11-11T11:14:42Z</time>
      </trkpt>
      <trkpt lat="46.18884" lon="4.6699">
        <ele>423</ele>
        <time>2012-11-11T11:14:44Z</time>
      </trkpt>
      <trkpt lat="46.18893" lon="4.6699">
        <ele>424</ele>
        <time>2012-11-11T11:14:47Z</time>
      </trkpt>
      <trkpt lat="46.18909" lon="4.6699">
        <ele>426</ele>
        <time>2012-11-11T11:14:53Z</time>
      </trkpt>
      <trkpt lat="46.18921" lon="4.66991">
        <ele>431</ele>
        <time>2012-11-11T11:14:58Z</time>
      </trkpt>
      <trkpt lat="46.18928" lon="4.66991">
        <ele>431</ele>
        <time>2012-11-11T11:15:01Z</time>
      </trkpt>
      <trkpt lat="46.18951" lon="4.66988">
        <ele>431</ele>
        <time>2012-11-11T11:15:11Z</time>
      </trkpt>
      <trkpt lat="46.18958" lon="4.66988">
        <ele>432</ele>
        <time>2012-11-11T11:15:14Z</time>
      </trkpt>
      <trkpt lat="46.18968" lon="4.66985">
        <ele>433</ele>
        <time>2012-11-11T11:15:19Z</time>
      </trkpt>
      <trkpt lat="46.18984" lon="4.66981">
        <ele>435</ele>
        <time>2012-11-11T11:15:28Z</time>
      </trkpt>
      <trkpt lat="46.18994" lon="4.66977">
        <ele>435</ele>
        <time>2012-11-11T11:15:34Z</time>
      </trkpt>
      <trkpt lat="46.19006" lon="4.66972">
        <ele>441</ele>
        <time>2012-11-11T11:15:41Z</time>
      </trkpt>
      <trkpt lat="46.19016" lon="4.66969">
        <ele>441</ele>
        <time>2012-11-11T11:15:48Z</time>
      </trkpt>
      <trkpt lat="46.19029" lon="4.66966">
        <ele>441</ele>
        <time>2012-11-11T11:15:57Z</time>
      </trkpt>
      <trkpt lat="46.1903" lon="4.66966">
        <ele>441</ele>
        <time>2012-11-11T11:15:58Z</time>
      </trkpt>
      <trkpt lat="46.19032" lon="4.66971">
        <ele>442</ele>
        <time>2012-11-11T11:16:01Z</time>
      </trkpt>
      <trkpt lat="46.19034" lon="4.66977">
        <ele>442</ele>
        <time>2012-11-11T11:16:04Z</time>
      </trkpt>
      <trkpt lat="46.19037" lon="4.66982">
        <ele>443</ele>
        <time>2012-11-11T11:16:08Z</time>
      </trkpt>
      <trkpt lat="46.19045" lon="4.66992">
        <ele>444</ele>
        <time>2012-11-11T11:16:15Z</time>
      </trkpt>
      <trkpt lat="46.1905" lon="4.67001">
        <ele>452</ele>
        <time>2012-11-11T11:16:23Z</time>
      </trkpt>
      <trkpt lat="46.19051" lon="4.67002">
        <ele>452</ele>
        <time>2012-11-11T11:16:29Z</time>
      </trkpt>
      <trkpt lat="46.1905" lon="4.67002">
        <ele>452</ele>
        <time>2012-11-11T11:16:57Z</time>
      </trkpt>
      <trkpt lat="46.19051" lon="4.67004">
        <ele>452</ele>
        <time>2012-11-11T11:17:17Z</time>
      </trkpt>
      <trkpt lat="46.19051" lon="4.67005">
        <ele>452</ele>
        <time>2012-11-11T11:17:18Z</time>
      </trkpt>
      <trkpt lat="46.19051" lon="4.67006">
        <ele>452</ele>
        <time>2012-11-11T11:17:19Z</time>
      </trkpt>
      <trkpt lat="46.19055" lon="4.67014">
        <ele>452</ele>
        <time>2012-11-11T11:17:27Z</time>
      </trkpt>
      <trkpt lat="46.19059" lon="4.67025">
        <ele>453</ele>
        <time>2012-11-11T11:17:37Z</time>
      </trkpt>
      <trkpt lat="46.19064" lon="4.67033">
        <ele>453</ele>
        <time>2012-11-11T11:17:46Z</time>
      </trkpt>
      <trkpt lat="46.19068" lon="4.6704">
        <ele>454</ele>
        <time>2012-11-11T11:17:55Z</time>
      </trkpt>
      <trkpt lat="46.1907" lon="4.67047">
        <ele>455</ele>
        <time>2012-11-11T11:18:02Z</time>
      </trkpt>
      <trkpt lat="46.19071" lon="4.67049">
        <ele>455</ele>
        <time>2012-11-11T11:18:04Z</time>
      </trkpt>
      <trkpt lat="46.19073" lon="4.67054">
        <ele>455</ele>
        <time>2012-11-11T11:18:10Z</time>
      </trkpt>
      <trkpt lat="46.19074" lon="4.67056">
        <ele>456</ele>
        <time>2012-11-11T11:18:12Z</time>
      </trkpt>
      <trkpt lat="46.19077" lon="4.67061">
        <ele>457</ele>
        <time>2012-11-11T11:18:18Z</time>
      </trkpt>
      <trkpt lat="46.19078" lon="4.67063">
        <ele>457</ele>
        <time>2012-11-11T11:18:20Z</time>
      </trkpt>
      <trkpt lat="46.19083" lon="4.67074">
        <ele>459</ele>
        <time>2012-11-11T11:18:29Z</time>
      </trkpt>
      <trkpt lat="46.19087" lon="4.67084">
        <ele>463</ele>
        <time>2012-11-11T11:18:37Z</time>
      </trkpt>
      <trkpt lat="46.1909" lon="4.67092">
        <ele>464</ele>
        <time>2012-11-11T11:18:44Z</time>
      </trkpt>
      <trkpt lat="46.19091" lon="4.67093">
        <ele>464</ele>
        <time>2012-11-11T11:18:45Z</time>
      </trkpt>
      <trkpt lat="46.19094" lon="4.67101">
        <ele>466</ele>
        <time>2012-11-11T11:18:53Z</time>
      </trkpt>
      <trkpt lat="46.19101" lon="4.67115">
        <ele>467</ele>
        <time>2012-11-11T11:19:04Z</time>
      </trkpt>
      <trkpt lat="46.19106" lon="4.6712">
        <ele>467</ele>
        <time>2012-11-11T11:19:11Z</time>
      </trkpt>
      <trkpt lat="46.19106" lon="4.67121">
        <ele>467</ele>
        <time>2012-11-11T11:19:13Z</time>
      </trkpt>
      <trkpt lat="46.19108" lon="4.67125">
        <ele>467</ele>
        <time>2012-11-11T11:19:16Z</time>
      </trkpt>
      <trkpt lat="46.19113" lon="4.67132">
        <ele>468</ele>
        <time>2012-11-11T11:19:21Z</time>
      </trkpt>
      <trkpt lat="46.19116" lon="4.67136">
        <ele>468</ele>
        <time>2012-11-11T11:19:24Z</time>
      </trkpt>
      <trkpt lat="46.19122" lon="4.6714">
        <ele>468</ele>
        <time>2012-11-11T11:19:31Z</time>
      </trkpt>
      <trkpt lat="46.19126" lon="4.67141">
        <ele>469</ele>
        <time>2012-11-11T11:19:37Z</time>
      </trkpt>
      <trkpt lat="46.1913" lon="4.6714">
        <ele>469</ele>
        <time>2012-11-11T11:19:46Z</time>
      </trkpt>
      <trkpt lat="46.19136" lon="4.67127">
        <ele>469</ele>
        <time>2012-11-11T11:19:54Z</time>
      </trkpt>
      <trkpt lat="46.19141" lon="4.6712">
        <ele>469</ele>
        <time>2012-11-11T11:19:59Z</time>
      </trkpt>
      <trkpt lat="46.19144" lon="4.67116">
        <ele>469</ele>
        <time>2012-11-11T11:20:02Z</time>
      </trkpt>
      <trkpt lat="46.19157" lon="4.67109">
        <ele>470</ele>
        <time>2012-11-11T11:20:10Z</time>
      </trkpt>
      <trkpt lat="46.19171" lon="4.67108">
        <ele>474</ele>
        <time>2012-11-11T11:20:19Z</time>
      </trkpt>
      <trkpt lat="46.19176" lon="4.67107">
        <ele>474</ele>
        <time>2012-11-11T11:20:22Z</time>
      </trkpt>
      <trkpt lat="46.19183" lon="4.67101">
        <ele>474</ele>
        <time>2012-11-11T11:20:27Z</time>
      </trkpt>
      <trkpt lat="46.19197" lon="4.67085">
        <ele>475</ele>
        <time>2012-11-11T11:20:37Z</time>
      </trkpt>
      <trkpt lat="46.19207" lon="4.67081">
        <ele>474</ele>
        <time>2012-11-11T11:20:43Z</time>
      </trkpt>
      <trkpt lat="46.1921" lon="4.6708">
        <ele>475</ele>
        <time>2012-11-11T11:20:45Z</time>
      </trkpt>
      <trkpt lat="46.19222" lon="4.67079">
        <ele>476</ele>
        <time>2012-11-11T11:20:52Z</time>
      </trkpt>
      <trkpt lat="46.19232" lon="4.67078">
        <ele>477</ele>
        <time>2012-11-11T11:21:00Z</time>
      </trkpt>
      <trkpt lat="46.1924" lon="4.6708">
        <ele>478</ele>
        <time>2012-11-11T11:21:06Z</time>
      </trkpt>
      <trkpt lat="46.19243" lon="4.67081">
        <ele>478</ele>
        <time>2012-11-11T11:21:08Z</time>
      </trkpt>
      <trkpt lat="46.19249" lon="4.67083">
        <ele>480</ele>
        <time>2012-11-11T11:21:13Z</time>
      </trkpt>
      <trkpt lat="46.19261" lon="4.67082">
        <ele>481</ele>
        <time>2012-11-11T11:21:22Z</time>
      </trkpt>
      <trkpt lat="46.19269" lon="4.67075">
        <ele>481</ele>
        <time>2012-11-11T11:21:29Z</time>
      </trkpt>
      <trkpt lat="46.19276" lon="4.6707">
        <ele>481</ele>
        <time>2012-11-11T11:21:35Z</time>
      </trkpt>
      <trkpt lat="46.19277" lon="4.6707">
        <ele>481</ele>
        <time>2012-11-11T11:21:36Z</time>
      </trkpt>
      <trkpt lat="46.19285" lon="4.67063">
        <ele>482</ele>
        <time>2012-11-11T11:21:43Z</time>
      </trkpt>
      <trkpt lat="46.19293" lon="4.67054">
        <ele>482</ele>
        <time>2012-11-11T11:21:51Z</time>
      </trkpt>
      <trkpt lat="46.19302" lon="4.67045">
        <ele>482</ele>
        <time>2012-11-11T11:21:58Z</time>
      </trkpt>
      <trkpt lat="46.19306" lon="4.67039">
        <ele>483</ele>
        <time>2012-11-11T11:22:02Z</time>
      </trkpt>
      <trkpt lat="46.19312" lon="4.67033">
        <ele>483</ele>
        <time>2012-11-11T11:22:06Z</time>
      </trkpt>
      <trkpt lat="46.1932" lon="4.67024">
        <ele>484</ele>
        <time>2012-11-11T11:22:13Z</time>
      </trkpt>
      <trkpt lat="46.19329" lon="4.67014">
        <ele>485</ele>
        <time>2012-11-11T11:22:22Z</time>
      </trkpt>
      <trkpt lat="46.19336" lon="4.67008">
        <ele>487</ele>
        <time>2012-11-11T11:22:28Z</time>
      </trkpt>
      <trkpt lat="46.19338" lon="4.67004">
        <ele>487</ele>
        <time>2012-11-11T11:22:31Z</time>
      </trkpt>
      <trkpt lat="46.19346" lon="4.66995">
        <ele>488</ele>
        <time>2012-11-11T11:22:39Z</time>
      </trkpt>
      <trkpt lat="46.19355" lon="4.66984">
        <ele>489</ele>
        <time>2012-11-11T11:22:48Z</time>
      </trkpt>
      <trkpt lat="46.19363" lon="4.66975">
        <ele>490</ele>
        <time>2012-11-11T11:22:55Z</time>
      </trkpt>
      <trkpt lat="46.19366" lon="4.66972">
        <ele>490</ele>
        <time>2012-11-11T11:22:57Z</time>
      </trkpt>
      <trkpt lat="46.19368" lon="4.66971">
        <ele>490</ele>
        <time>2012-11-11T11:22:58Z</time>
      </trkpt>
      <trkpt lat="46.19374" lon="4.66972">
        <ele>490</ele>
        <time>2012-11-11T11:23:01Z</time>
      </trkpt>
      <trkpt lat="46.19378" lon="4.66974">
        <ele>490</ele>
        <time>2012-11-11T11:23:03Z</time>
      </trkpt>
      <trkpt lat="46.19389" lon="4.66982">
        <ele>490</ele>
        <time>2012-11-11T11:23:08Z</time>
      </trkpt>
      <trkpt lat="46.19396" lon="4.66987">
        <ele>491</ele>
        <time>2012-11-11T11:23:11Z</time>
      </trkpt>
      <trkpt lat="46.19409" lon="4.66993">
        <ele>491</ele>
        <time>2012-11-11T11:23:15Z</time>
      </trkpt>
      <trkpt lat="46.19433" lon="4.66997">
        <ele>492</ele>
        <time>2012-11-11T11:23:20Z</time>
      </trkpt>
      <trkpt lat="46.19452" lon="4.66991">
        <ele>493</ele>
        <time>2012-11-11T11:23:24Z</time>
      </trkpt>
      <trkpt lat="46.1946" lon="4.6699">
        <ele>493</ele>
        <time>2012-11-11T11:23:26Z</time>
      </trkpt>
      <trkpt lat="46.19465" lon="4.66991">
        <ele>493</ele>
        <time>2012-11-11T11:23:27Z</time>
      </trkpt>
      <trkpt lat="46.1947" lon="4.66992">
        <ele>493</ele>
        <time>2012-11-11T11:23:28Z</time>
      </trkpt>
      <trkpt lat="46.195" lon="4.67002">
        <ele>490</ele>
        <time>2012-11-11T11:23:34Z</time>
      </trkpt>
      <trkpt lat="46.19506" lon="4.67002">
        <ele>490</ele>
        <time>2012-11-11T11:23:35Z</time>
      </trkpt>
      <trkpt lat="46.19519" lon="4.67011">
        <ele>490</ele>
        <time>2012-11-11T11:23:38Z</time>
      </trkpt>
      <trkpt lat="46.19527" lon="4.67023">
        <ele>490</ele>
        <time>2012-11-11T11:23:40Z</time>
      </trkpt>
      <trkpt lat="46.19536" lon="4.67037">
        <ele>490</ele>
        <time>2012-11-11T11:23:42Z</time>
      </trkpt>
      <trkpt lat="46.19539" lon="4.67045">
        <ele>490</ele>
        <time>2012-11-11T11:23:43Z</time>
      </trkpt>
      <trkpt lat="46.19552" lon="4.67078">
        <ele>490</ele>
        <time>2012-11-11T11:23:47Z</time>
      </trkpt>
      <trkpt lat="46.19555" lon="4.67086">
        <ele>487</ele>
        <time>2012-11-11T11:23:48Z</time>
      </trkpt>
      <trkpt lat="46.19558" lon="4.67094">
        <ele>487</ele>
        <time>2012-11-11T11:23:49Z</time>
      </trkpt>
      <trkpt lat="46.19573" lon="4.67137">
        <ele>486</ele>
        <time>2012-11-11T11:23:55Z</time>
      </trkpt>
      <trkpt lat="46.19583" lon="4.67174">
        <ele>486</ele>
        <time>2012-11-11T11:24:01Z</time>
      </trkpt>
      <trkpt lat="46.19584" lon="4.67181">
        <ele>487</ele>
        <time>2012-11-11T11:24:02Z</time>
      </trkpt>
      <trkpt lat="46.19585" lon="4.67188">
        <ele>487</ele>
        <time>2012-11-11T11:24:03Z</time>
      </trkpt>
      <trkpt lat="46.19586" lon="4.67195">
        <ele>486</ele>
        <time>2012-11-11T11:24:04Z</time>
      </trkpt>
      <trkpt lat="46.1959" lon="4.67216">
        <ele>486</ele>
        <time>2012-11-11T11:24:08Z</time>
      </trkpt>
      <trkpt lat="46.19591" lon="4.67238">
        <ele>485</ele>
        <time>2012-11-11T11:24:13Z</time>
      </trkpt>
      <trkpt lat="46.19592" lon="4.67241">
        <ele>485</ele>
        <time>2012-11-11T11:24:14Z</time>
      </trkpt>
      <trkpt lat="46.19594" lon="4.67244">
        <ele>485</ele>
        <time>2012-11-11T11:24:15Z</time>
      </trkpt>
      <trkpt lat="46.19599" lon="4.67251">
        <ele>480</ele>
        <time>2012-11-11T11:24:17Z</time>
      </trkpt>
      <trkpt lat="46.19613" lon="4.67254">
        <ele>478</ele>
        <time>2012-11-11T11:24:20Z</time>
      </trkpt>
      <trkpt lat="46.19628" lon="4.67245">
        <ele>484</ele>
        <time>2012-11-11T11:24:23Z</time>
      </trkpt>
      <trkpt lat="46.19634" lon="4.67242">
        <ele>484</ele>
        <time>2012-11-11T11:24:24Z</time>
      </trkpt>
      <trkpt lat="46.19664" lon="4.67229">
        <ele>483</ele>
        <time>2012-11-11T11:24:30Z</time>
      </trkpt>
      <trkpt lat="46.19696" lon="4.67215">
        <ele>482</ele>
        <time>2012-11-11T11:24:38Z</time>
      </trkpt>
      <trkpt lat="46.197" lon="4.67213">
        <ele>482</ele>
        <time>2012-11-11T11:24:39Z</time>
      </trkpt>
      <trkpt lat="46.19723" lon="4.67199">
        <ele>483</ele>
        <time>2012-11-11T11:24:45Z</time>
      </trkpt>
      <trkpt lat="46.19735" lon="4.67192">
        <ele>484</ele>
        <time>2012-11-11T11:24:48Z</time>
      </trkpt>
      <trkpt lat="46.19755" lon="4.67183">
        <ele>480</ele>
        <time>2012-11-11T11:24:52Z</time>
      </trkpt>
      <trkpt lat="46.19773" lon="4.67175">
        <ele>478</ele>
        <time>2012-11-11T11:24:55Z</time>
      </trkpt>
      <trkpt lat="46.19779" lon="4.67171">
        <ele>477</ele>
        <time>2012-11-11T11:24:56Z</time>
      </trkpt>
      <trkpt lat="46.19806" lon="4.67156">
        <ele>486</ele>
        <time>2012-11-11T11:25:00Z</time>
      </trkpt>
      <trkpt lat="46.1982" lon="4.67149">
        <ele>485</ele>
        <time>2012-11-11T11:25:02Z</time>
      </trkpt>
      <trkpt lat="46.19848" lon="4.67138">
        <ele>482</ele>
        <time>2012-11-11T11:25:06Z</time>
      </trkpt>
      <trkpt lat="46.19873" lon="4.67145">
        <ele>482</ele>
        <time>2012-11-11T11:25:09Z</time>
      </trkpt>
      <trkpt lat="46.19883" lon="4.67147">
        <ele>482</ele>
        <time>2012-11-11T11:25:10Z</time>
      </trkpt>
      <trkpt lat="46.19912" lon="4.67157">
        <ele>478</ele>
        <time>2012-11-11T11:25:13Z</time>
      </trkpt>
      <trkpt lat="46.19921" lon="4.67163">
        <ele>477</ele>
        <time>2012-11-11T11:25:14Z</time>
      </trkpt>
      <trkpt lat="46.19944" lon="4.67186">
        <ele>472</ele>
        <time>2012-11-11T11:25:17Z</time>
      </trkpt>
      <trkpt lat="46.19951" lon="4.67194">
        <ele>471</ele>
        <time>2012-11-11T11:25:18Z</time>
      </trkpt>
      <trkpt lat="46.1999" lon="4.67225">
        <ele>469</ele>
        <time>2012-11-11T11:25:23Z</time>
      </trkpt>
      <trkpt lat="46.19998" lon="4.6723">
        <ele>469</ele>
        <time>2012-11-11T11:25:24Z</time>
      </trkpt>
      <trkpt lat="46.20029" lon="4.67245">
        <ele>471</ele>
        <time>2012-11-11T11:25:28Z</time>
      </trkpt>
      <trkpt lat="46.20036" lon="4.67247">
        <ele>471</ele>
        <time>2012-11-11T11:25:29Z</time>
      </trkpt>
      <trkpt lat="46.2007" lon="4.67259">
        <ele>467</ele>
        <time>2012-11-11T11:25:34Z</time>
      </trkpt>
      <trkpt lat="46.20076" lon="4.67262">
        <ele>467</ele>
        <time>2012-11-11T11:25:35Z</time>
      </trkpt>
      <trkpt lat="46.201" lon="4.67272">
        <ele>466</ele>
        <time>2012-11-11T11:25:39Z</time>
      </trkpt>
      <trkpt lat="46.20105" lon="4.67276">
        <ele>465</ele>
        <time>2012-11-11T11:25:40Z</time>
      </trkpt>
      <trkpt lat="46.20118" lon="4.67302">
        <ele>464</ele>
        <time>2012-11-11T11:25:44Z</time>
      </trkpt>
      <trkpt lat="46.20119" lon="4.67319">
        <ele>463</ele>
        <time>2012-11-11T11:25:46Z</time>
      </trkpt>
      <trkpt lat="46.2012" lon="4.67327">
        <ele>463</ele>
        <time>2012-11-11T11:25:47Z</time>
      </trkpt>
      <trkpt lat="46.2012" lon="4.67343">
        <ele>463</ele>
        <time>2012-11-11T11:25:49Z</time>
      </trkpt>
      <trkpt lat="46.20125" lon="4.67384">
        <ele>463</ele>
        <time>2012-11-11T11:25:55Z</time>
      </trkpt>
      <trkpt lat="46.20131" lon="4.67411">
        <ele>463</ele>
        <time>2012-11-11T11:26:00Z</time>
      </trkpt>
      <trkpt lat="46.20136" lon="4.67422">
        <ele>464</ele>
        <time>2012-11-11T11:26:02Z</time>
      </trkpt>
      <trkpt lat="46.2014" lon="4.67434">
        <ele>464</ele>
        <time>2012-11-11T11:26:04Z</time>
      </trkpt>
      <trkpt lat="46.20154" lon="4.67469">
        <ele>464</ele>
        <time>2012-11-11T11:26:09Z</time>
      </trkpt>
      <trkpt lat="46.20159" lon="4.67486">
        <ele>465</ele>
        <time>2012-11-11T11:26:11Z</time>
      </trkpt>
      <trkpt lat="46.20166" lon="4.67515">
        <ele>465</ele>
        <time>2012-11-11T11:26:14Z</time>
      </trkpt>
      <trkpt lat="46.20173" lon="4.67544">
        <ele>465</ele>
        <time>2012-11-11T11:26:17Z</time>
      </trkpt>
      <trkpt lat="46.20186" lon="4.67603">
        <ele>466</ele>
        <time>2012-11-11T11:26:23Z</time>
      </trkpt>
      <trkpt lat="46.20195" lon="4.67653">
        <ele>466</ele>
        <time>2012-11-11T11:26:29Z</time>
      </trkpt>
      <trkpt lat="46.20197" lon="4.67662">
        <ele>465</ele>
        <time>2012-11-11T11:26:30Z</time>
      </trkpt>
      <trkpt lat="46.20206" lon="4.67696">
        <ele>462</ele>
        <time>2012-11-11T11:26:34Z</time>
      </trkpt>
      <trkpt lat="46.20209" lon="4.67703">
        <ele>462</ele>
        <time>2012-11-11T11:26:35Z</time>
      </trkpt>
      <trkpt lat="46.20212" lon="4.67711">
        <ele>462</ele>
        <time>2012-11-11T11:26:36Z</time>
      </trkpt>
      <trkpt lat="46.20216" lon="4.67717">
        <ele>462</ele>
        <time>2012-11-11T11:26:37Z</time>
      </trkpt>
      <trkpt lat="46.20224" lon="4.67727">
        <ele>462</ele>
        <time>2012-11-11T11:26:39Z</time>
      </trkpt>
      <trkpt lat="46.20241" lon="4.67747">
        <ele>464</ele>
        <time>2012-11-11T11:26:43Z</time>
      </trkpt>
      <trkpt lat="46.20254" lon="4.67763">
        <ele>464</ele>
        <time>2012-11-11T11:26:46Z</time>
      </trkpt>
      <trkpt lat="46.20272" lon="4.67783">
        <ele>462</ele>
        <time>2012-11-11T11:26:51Z</time>
      </trkpt>
      <trkpt lat="46.20276" lon="4.67787">
        <ele>462</ele>
        <time>2012-11-11T11:26:52Z</time>
      </trkpt>
      <trkpt lat="46.20299" lon="4.67805">
        <ele>461</ele>
        <time>2012-11-11T11:26:58Z</time>
      </trkpt>
      <trkpt lat="46.20308" lon="4.6781">
        <ele>462</ele>
        <time>2012-11-11T11:27:00Z</time>
      </trkpt>
      <trkpt lat="46.20322" lon="4.67819">
        <ele>462</ele>
        <time>2012-11-11T11:27:03Z</time>
      </trkpt>
      <trkpt lat="46.20327" lon="4.67821">
        <ele>461</ele>
        <time>2012-11-11T11:27:04Z</time>
      </trkpt>
      <trkpt lat="46.20344" lon="4.67828">
        <ele>464</ele>
        <time>2012-11-11T11:27:07Z</time>
      </trkpt>
      <trkpt lat="46.20355" lon="4.67837">
        <ele>462</ele>
        <time>2012-11-11T11:27:09Z</time>
      </trkpt>
      <trkpt lat="46.2037" lon="4.67862">
        <ele>463</ele>
        <time>2012-11-11T11:27:13Z</time>
      </trkpt>
      <trkpt lat="46.20373" lon="4.67868">
        <ele>462</ele>
        <time>2012-11-11T11:27:14Z</time>
      </trkpt>
      <trkpt lat="46.20383" lon="4.67897">
        <ele>462</ele>
        <time>2012-11-11T11:27:19Z</time>
      </trkpt>
      <trkpt lat="46.20391" lon="4.67916">
        <ele>463</ele>
        <time>2012-11-11T11:27:23Z</time>
      </trkpt>
      <trkpt lat="46.20394" lon="4.67924">
        <ele>459</ele>
        <time>2012-11-11T11:27:25Z</time>
      </trkpt>
      <trkpt lat="46.204" lon="4.67946">
        <ele>458</ele>
        <time>2012-11-11T11:27:31Z</time>
      </trkpt>
      <trkpt lat="46.20408" lon="4.67967">
        <ele>458</ele>
        <time>2012-11-11T11:27:36Z</time>
      </trkpt>
      <trkpt lat="46.20412" lon="4.67979">
        <ele>459</ele>
        <time>2012-11-11T11:27:39Z</time>
      </trkpt>
      <trkpt lat="46.20422" lon="4.68005">
        <ele>463</ele>
        <time>2012-11-11T11:27:47Z</time>
      </trkpt>
      <trkpt lat="46.20426" lon="4.68012">
        <ele>462</ele>
        <time>2012-11-11T11:27:49Z</time>
      </trkpt>
      <trkpt lat="46.20434" lon="4.68023">
        <ele>462</ele>
        <time>2012-11-11T11:27:53Z</time>
      </trkpt>
      <trkpt lat="46.20445" lon="4.68038">
        <ele>461</ele>
        <time>2012-11-11T11:27:59Z</time>
      </trkpt>
      <trkpt lat="46.20454" lon="4.68046">
        <ele>461</ele>
        <time>2012-11-11T11:28:03Z</time>
      </trkpt>
      <trkpt lat="46.20461" lon="4.68053">
        <ele>461</ele>
        <time>2012-11-11T11:28:06Z</time>
      </trkpt>
      <trkpt lat="46.20473" lon="4.68063">
        <ele>460</ele>
        <time>2012-11-11T11:28:11Z</time>
      </trkpt>
      <trkpt lat="46.20487" lon="4.68071">
        <ele>460</ele>
        <time>2012-11-11T11:28:15Z</time>
      </trkpt>
      <trkpt lat="46.20492" lon="4.68073">
        <ele>459</ele>
        <time>2012-11-11T11:28:16Z</time>
      </trkpt>
      <trkpt lat="46.20518" lon="4.68083">
        <ele>459</ele>
        <time>2012-11-11T11:28:20Z</time>
      </trkpt>
      <trkpt lat="46.20527" lon="4.68086">
        <ele>451</ele>
        <time>2012-11-11T11:28:21Z</time>
      </trkpt>
      <trkpt lat="46.20555" lon="4.68099">
        <ele>449</ele>
        <time>2012-11-11T11:28:24Z</time>
      </trkpt>
      <trkpt lat="46.20566" lon="4.68104">
        <ele>449</ele>
        <time>2012-11-11T11:28:25Z</time>
      </trkpt>
      <trkpt lat="46.2061" lon="4.68127">
        <ele>444</ele>
        <time>2012-11-11T11:28:29Z</time>
      </trkpt>
      <trkpt lat="46.2062" lon="4.68133">
        <ele>444</ele>
        <time>2012-11-11T11:28:30Z</time>
      </trkpt>
      <trkpt lat="46.20646" lon="4.68151">
        <ele>443</ele>
        <time>2012-11-11T11:28:33Z</time>
      </trkpt>
      <trkpt lat="46.20672" lon="4.6817">
        <ele>439</ele>
        <time>2012-11-11T11:28:36Z</time>
      </trkpt>
      <trkpt lat="46.2068" lon="4.68176">
        <ele>437</ele>
        <time>2012-11-11T11:28:37Z</time>
      </trkpt>
      <trkpt lat="46.20695" lon="4.68191">
        <ele>435</ele>
        <time>2012-11-11T11:28:39Z</time>
      </trkpt>
      <trkpt lat="46.20701" lon="4.68201">
        <ele>435</ele>
        <time>2012-11-11T11:28:40Z</time>
      </trkpt>
      <trkpt lat="46.20701" lon="4.68225">
        <ele>434</ele>
        <time>2012-11-11T11:28:42Z</time>
      </trkpt>
      <trkpt lat="46.20693" lon="4.68247">
        <ele>435</ele>
        <time>2012-11-11T11:28:44Z</time>
      </trkpt>
      <trkpt lat="46.20688" lon="4.68257">
        <ele>434</ele>
        <time>2012-11-11T11:28:45Z</time>
      </trkpt>
      <trkpt lat="46.20684" lon="4.68266">
        <ele>434</ele>
        <time>2012-11-11T11:28:46Z</time>
      </trkpt>
      <trkpt lat="46.2068" lon="4.68273">
        <ele>434</ele>
        <time>2012-11-11T11:28:47Z</time>
      </trkpt>
      <trkpt lat="46.20677" lon="4.68278">
        <ele>434</ele>
        <time>2012-11-11T11:28:48Z</time>
      </trkpt>
      <trkpt lat="46.2067" lon="4.68291">
        <ele>434</ele>
        <time>2012-11-11T11:28:52Z</time>
      </trkpt>
      <trkpt lat="46.20673" lon="4.68298">
        <ele>433</ele>
        <time>2012-11-11T11:28:55Z</time>
      </trkpt>
      <trkpt lat="46.2068" lon="4.68298">
        <ele>433</ele>
        <time>2012-11-11T11:28:58Z</time>
      </trkpt>
      <trkpt lat="46.20685" lon="4.68299">
        <ele>433</ele>
        <time>2012-11-11T11:29:00Z</time>
      </trkpt>
      <trkpt lat="46.20689" lon="4.68298">
        <ele>433</ele>
        <time>2012-11-11T11:29:02Z</time>
      </trkpt>
      <trkpt lat="46.20696" lon="4.68297">
        <ele>433</ele>
        <time>2012-11-11T11:29:06Z</time>
      </trkpt>
      <trkpt lat="46.2071" lon="4.68301">
        <ele>432</ele>
        <time>2012-11-11T11:29:12Z</time>
      </trkpt>
      <trkpt lat="46.20723" lon="4.68313">
        <ele>432</ele>
        <time>2012-11-11T11:29:17Z</time>
      </trkpt>
      <trkpt lat="46.20746" lon="4.68335">
        <ele>431</ele>
        <time>2012-11-11T11:29:23Z</time>
      </trkpt>
      <trkpt lat="46.20755" lon="4.68344">
        <ele>430</ele>
        <time>2012-11-11T11:29:25Z</time>
      </trkpt>
      <trkpt lat="46.20785" lon="4.68374">
        <ele>428</ele>
        <time>2012-11-11T11:29:31Z</time>
      </trkpt>
      <trkpt lat="46.20817" lon="4.68407">
        <ele>428</ele>
        <time>2012-11-11T11:29:37Z</time>
      </trkpt>
      <trkpt lat="46.20822" lon="4.68411">
        <ele>428</ele>
        <time>2012-11-11T11:29:38Z</time>
      </trkpt>
      <trkpt lat="46.2085" lon="4.68435">
        <ele>429</ele>
        <time>2012-11-11T11:29:44Z</time>
      </trkpt>
      <trkpt lat="46.20854" lon="4.68437">
        <ele>429</ele>
        <time>2012-11-11T11:29:45Z</time>
      </trkpt>
      <trkpt lat="46.20871" lon="4.68442">
        <ele>429</ele>
        <time>2012-11-11T11:29:49Z</time>
      </trkpt>
      <trkpt lat="46.20885" lon="4.68442">
        <ele>429</ele>
        <time>2012-11-11T11:29:52Z</time>
      </trkpt>
      <trkpt lat="46.20888" lon="4.68441">
        <ele>429</ele>
        <time>2012-11-11T11:29:53Z</time>
      </trkpt>
      <trkpt lat="46.20909" lon="4.68436">
        <ele>430</ele>
        <time>2012-11-11T11:29:59Z</time>
      </trkpt>
      <trkpt lat="46.20927" lon="4.68433">
        <ele>433</ele>
        <time>2012-11-11T11:30:05Z</time>
      </trkpt>
      <trkpt lat="46.20935" lon="4.68431">
        <ele>434</ele>
        <time>2012-11-11T11:30:08Z</time>
      </trkpt>
      <trkpt lat="46.20949" lon="4.68429">
        <ele>435</ele>
        <time>2012-11-11T11:30:14Z</time>
      </trkpt>
      <trkpt lat="46.20965" lon="4.68427">
        <ele>436</ele>
        <time>2012-11-11T11:30:22Z</time>
      </trkpt>
      <trkpt lat="46.20976" lon="4.68431">
        <ele>437</ele>
        <time>2012-11-11T11:30:29Z</time>
      </trkpt>
      <trkpt lat="46.20983" lon="4.68443">
        <ele>438</ele>
        <time>2012-11-11T11:30:35Z</time>
      </trkpt>
      <trkpt lat="46.20991" lon="4.68449">
        <ele>438</ele>
        <time>2012-11-11T11:30:42Z</time>
      </trkpt>
      <trkpt lat="46.20996" lon="4.68448">
        <ele>438</ele>
        <time>2012-11-11T11:30:45Z</time>
      </trkpt>
      <trkpt lat="46.20997" lon="4.68449">
        <ele>438</ele>
        <time>2012-11-11T11:30:46Z</time>
      </trkpt>
      <trkpt lat="46.20998" lon="4.68451">
        <ele>438</ele>
        <time>2012-11-11T11:30:47Z</time>
      </trkpt>
      <trkpt lat="46.21001" lon="4.6846">
        <ele>444</ele>
        <time>2012-11-11T11:30:53Z</time>
      </trkpt>
      <trkpt lat="46.21005" lon="4.68471">
        <ele>445</ele>
        <time>2012-11-11T11:31:00Z</time>
      </trkpt>
      <trkpt lat="46.21007" lon="4.68484">
        <ele>445</ele>
        <time>2012-11-11T11:31:06Z</time>
      </trkpt>
      <trkpt lat="46.21007" lon="4.68486">
        <ele>445</ele>
        <time>2012-11-11T11:31:07Z</time>
      </trkpt>
      <trkpt lat="46.2101" lon="4.68496">
        <ele>445</ele>
        <time>2012-11-11T11:31:13Z</time>
      </trkpt>
      <trkpt lat="46.2101" lon="4.68497">
        <ele>445</ele>
        <time>2012-11-11T11:31:14Z</time>
      </trkpt>
      <trkpt lat="46.21012" lon="4.68506">
        <ele>447</ele>
        <time>2012-11-11T11:31:20Z</time>
      </trkpt>
      <trkpt lat="46.21012" lon="4.68508">
        <ele>447</ele>
        <time>2012-11-11T11:31:21Z</time>
      </trkpt>
      <trkpt lat="46.21013" lon="4.68513">
        <ele>447</ele>
        <time>2012-11-11T11:31:24Z</time>
      </trkpt>
      <trkpt lat="46.21014" lon="4.68522">
        <ele>448</ele>
        <time>2012-11-11T11:31:30Z</time>
      </trkpt>
      <trkpt lat="46.21018" lon="4.68534">
        <ele>449</ele>
        <time>2012-11-11T11:31:38Z</time>
      </trkpt>
      <trkpt lat="46.2102" lon="4.68546">
        <ele>449</ele>
        <time>2012-11-11T11:31:45Z</time>
      </trkpt>
      <trkpt lat="46.21024" lon="4.68561">
        <ele>449</ele>
        <time>2012-11-11T11:31:53Z</time>
      </trkpt>
      <trkpt lat="46.21026" lon="4.68575">
        <ele>449</ele>
        <time>2012-11-11T11:32:01Z</time>
      </trkpt>
      <trkpt lat="46.21031" lon="4.68588">
        <ele>448</ele>
        <time>2012-11-11T11:32:08Z</time>
      </trkpt>
      <trkpt lat="46.21034" lon="4.68594">
        <ele>449</ele>
        <time>2012-11-11T11:32:12Z</time>
      </trkpt>
      <trkpt lat="46.21037" lon="4.68598">
        <ele>449</ele>
        <time>2012-11-11T11:32:14Z</time>
      </trkpt>
      <trkpt lat="46.21046" lon="4.68609">
        <ele>450</ele>
        <time>2012-11-11T11:32:21Z</time>
      </trkpt>
      <trkpt lat="46.21055" lon="4.68623">
        <ele>450</ele>
        <time>2012-11-11T11:32:29Z</time>
      </trkpt>
      <trkpt lat="46.2106" lon="4.68632">
        <ele>451</ele>
        <time>2012-11-11T11:32:33Z</time>
      </trkpt>
      <trkpt lat="46.21065" lon="4.6864">
        <ele>451</ele>
        <time>2012-11-11T11:32:36Z</time>
      </trkpt>
      <trkpt lat="46.21075" lon="4.68658">
        <ele>454</ele>
        <time>2012-11-11T11:32:43Z</time>
      </trkpt>
      <trkpt lat="46.21085" lon="4.68669">
        <ele>458</ele>
        <time>2012-11-11T11:32:49Z</time>
      </trkpt>
      <trkpt lat="46.21089" lon="4.68673">
        <ele>458</ele>
        <time>2012-11-11T11:32:51Z</time>
      </trkpt>
      <trkpt lat="46.21099" lon="4.68686">
        <ele>460</ele>
        <time>2012-11-11T11:32:58Z</time>
      </trkpt>
      <trkpt lat="46.21109" lon="4.68702">
        <ele>460</ele>
        <time>2012-11-11T11:33:06Z</time>
      </trkpt>
      <trkpt lat="46.21112" lon="4.68707">
        <ele>460</ele>
        <time>2012-11-11T11:33:08Z</time>
      </trkpt>
      <trkpt lat="46.21118" lon="4.68715">
        <ele>461</ele>
        <time>2012-11-11T11:33:12Z</time>
      </trkpt>
      <trkpt lat="46.21126" lon="4.68727">
        <ele>461</ele>
        <time>2012-11-11T11:33:18Z</time>
      </trkpt>
      <trkpt lat="46.21135" lon="4.6874">
        <ele>463</ele>
        <time>2012-11-11T11:33:26Z</time>
      </trkpt>
      <trkpt lat="46.21139" lon="4.68744">
        <ele>463</ele>
        <time>2012-11-11T11:33:29Z</time>
      </trkpt>
      <trkpt lat="46.21146" lon="4.68751">
        <ele>462</ele>
        <time>2012-11-11T11:33:34Z</time>
      </trkpt>
      <trkpt lat="46.21156" lon="4.6876">
        <ele>464</ele>
        <time>2012-11-11T11:33:41Z</time>
      </trkpt>
      <trkpt lat="46.21167" lon="4.68772">
        <ele>470</ele>
        <time>2012-11-11T11:33:50Z</time>
      </trkpt>
      <trkpt lat="46.21169" lon="4.68775">
        <ele>469</ele>
        <time>2012-11-11T11:33:51Z</time>
      </trkpt>
      <trkpt lat="46.21176" lon="4.68783">
        <ele>469</ele>
        <time>2012-11-11T11:33:55Z</time>
      </trkpt>
      <trkpt lat="46.21192" lon="4.68796">
        <ele>469</ele>
        <time>2012-11-11T11:34:03Z</time>
      </trkpt>
      <trkpt lat="46.212" lon="4.68801">
        <ele>469</ele>
        <time>2012-11-11T11:34:06Z</time>
      </trkpt>
      <trkpt lat="46.21218" lon="4.68811">
        <ele>470</ele>
        <time>2012-11-11T11:34:13Z</time>
      </trkpt>
      <trkpt lat="46.21234" lon="4.6882">
        <ele>471</ele>
        <time>2012-11-11T11:34:20Z</time>
      </trkpt>
      <trkpt lat="46.21253" lon="4.68827">
        <ele>472</ele>
        <time>2012-11-11T11:34:28Z</time>
      </trkpt>
      <trkpt lat="46.21262" lon="4.6884">
        <ele>472</ele>
        <time>2012-11-11T11:34:33Z</time>
      </trkpt>
      <trkpt lat="46.21264" lon="4.68844">
        <ele>471</ele>
        <time>2012-11-11T11:34:34Z</time>
      </trkpt>
      <trkpt lat="46.21272" lon="4.68863">
        <ele>471</ele>
        <time>2012-11-11T11:34:39Z</time>
      </trkpt>
      <trkpt lat="46.21279" lon="4.68891">
        <ele>471</ele>
        <time>2012-11-11T11:34:45Z</time>
      </trkpt>
      <trkpt lat="46.21279" lon="4.68895">
        <ele>471</ele>
        <time>2012-11-11T11:34:46Z</time>
      </trkpt>
      <trkpt lat="46.21283" lon="4.68922">
        <ele>472</ele>
        <time>2012-11-11T11:34:52Z</time>
      </trkpt>
      <trkpt lat="46.21284" lon="4.68947">
        <ele>473</ele>
        <time>2012-11-11T11:34:58Z</time>
      </trkpt>
      <trkpt lat="46.21283" lon="4.68968">
        <ele>474</ele>
        <time>2012-11-11T11:35:04Z</time>
      </trkpt>
      <trkpt lat="46.21287" lon="4.68989">
        <ele>474</ele>
        <time>2012-11-11T11:35:12Z</time>
      </trkpt>
      <trkpt lat="46.21288" lon="4.69">
        <ele>478</ele>
        <time>2012-11-11T11:35:17Z</time>
      </trkpt>
      <trkpt lat="46.21288" lon="4.69005">
        <ele>478</ele>
        <time>2012-11-11T11:35:19Z</time>
      </trkpt>
      <trkpt lat="46.21285" lon="4.69019">
        <ele>478</ele>
        <time>2012-11-11T11:35:25Z</time>
      </trkpt>
      <trkpt lat="46.21288" lon="4.69031">
        <ele>478</ele>
        <time>2012-11-11T11:35:31Z</time>
      </trkpt>
      <trkpt lat="46.21291" lon="4.69041">
        <ele>479</ele>
        <time>2012-11-11T11:35:36Z</time>
      </trkpt>
      <trkpt lat="46.21293" lon="4.6905">
        <ele>479</ele>
        <time>2012-11-11T11:35:40Z</time>
      </trkpt>
      <trkpt lat="46.21296" lon="4.69055">
        <ele>480</ele>
        <time>2012-11-11T11:35:43Z</time>
      </trkpt>
      <trkpt lat="46.21298" lon="4.69061">
        <ele>480</ele>
        <time>2012-11-11T11:35:48Z</time>
      </trkpt>
      <trkpt lat="46.21301" lon="4.69066">
        <ele>481</ele>
        <time>2012-11-11T11:35:56Z</time>
      </trkpt>
      <trkpt lat="46.21303" lon="4.69069">
        <ele>482</ele>
        <time>2012-11-11T11:36:04Z</time>
      </trkpt>
      <trkpt lat="46.21304" lon="4.69071">
        <ele>482</ele>
        <time>2012-11-11T11:36:06Z</time>
      </trkpt>
      <trkpt lat="46.21305" lon="4.69076">
        <ele>482</ele>
        <time>2012-11-11T11:36:10Z</time>
      </trkpt>
      <trkpt lat="46.21306" lon="4.69077">
        <ele>483</ele>
        <time>2012-11-11T11:36:11Z</time>
      </trkpt>
      <trkpt lat="46.21308" lon="4.69088">
        <ele>484</ele>
        <time>2012-11-11T11:36:18Z</time>
      </trkpt>
      <trkpt lat="46.21309" lon="4.69096">
        <ele>484</ele>
        <time>2012-11-11T11:36:23Z</time>
      </trkpt>
      <trkpt lat="46.2131" lon="4.69103">
        <ele>484</ele>
        <time>2012-11-11T11:36:28Z</time>
      </trkpt>
      <trkpt lat="46.21312" lon="4.69112">
        <ele>484</ele>
        <time>2012-11-11T11:36:35Z</time>
      </trkpt>
      <trkpt lat="46.21315" lon="4.69125">
        <ele>484</ele>
        <time>2012-11-11T11:36:44Z</time>
      </trkpt>
      <trkpt lat="46.21318" lon="4.69128">
        <ele>484</ele>
        <time>2012-11-11T11:36:48Z</time>
      </trkpt>
      <trkpt lat="46.21319" lon="4.6913">
        <ele>484</ele>
        <time>2012-11-11T11:36:51Z</time>
      </trkpt>
      <trkpt lat="46.21322" lon="4.6914">
        <ele>485</ele>
        <time>2012-11-11T11:36:59Z</time>
      </trkpt>
      <trkpt lat="46.21322" lon="4.69142">
        <ele>485</ele>
        <time>2012-11-11T11:37:00Z</time>
      </trkpt>
      <trkpt lat="46.21324" lon="4.6915">
        <ele>486</ele>
        <time>2012-11-11T11:37:07Z</time>
      </trkpt>
      <trkpt lat="46.21326" lon="4.69154">
        <ele>487</ele>
        <time>2012-11-11T11:37:13Z</time>
      </trkpt>
      <trkpt lat="46.21331" lon="4.69155">
        <ele>488</ele>
        <time>2012-11-11T11:37:20Z</time>
      </trkpt>
      <trkpt lat="46.21338" lon="4.69155">
        <ele>492</ele>
        <time>2012-11-11T11:37:28Z</time>
      </trkpt>
      <trkpt lat="46.21346" lon="4.69157">
        <ele>492</ele>
        <time>2012-11-11T11:37:36Z</time>
      </trkpt>
      <trkpt lat="46.21348" lon="4.69159">
        <ele>492</ele>
        <time>2012-11-11T11:37:41Z</time>
      </trkpt>
      <trkpt lat="46.21349" lon="4.6916">
        <ele>492</ele>
        <time>2012-11-11T11:37:48Z</time>
      </trkpt>
      <trkpt lat="46.2135" lon="4.69163">
        <ele>492</ele>
        <time>2012-11-11T11:37:50Z</time>
      </trkpt>
      <trkpt lat="46.21351" lon="4.69167">
        <ele>490</ele>
        <time>2012-11-11T11:37:52Z</time>
      </trkpt>
      <trkpt lat="46.21356" lon="4.69178">
        <ele>490</ele>
        <time>2012-11-11T11:37:57Z</time>
      </trkpt>
      <trkpt lat="46.21367" lon="4.69188">
        <ele>490</ele>
        <time>2012-11-11T11:38:03Z</time>
      </trkpt>
      <trkpt lat="46.21372" lon="4.69189">
        <ele>490</ele>
        <time>2012-11-11T11:38:05Z</time>
      </trkpt>
      <trkpt lat="46.21376" lon="4.69188">
        <ele>490</ele>
        <time>2012-11-11T11:38:07Z</time>
      </trkpt>
      <trkpt lat="46.21378" lon="4.69186">
        <ele>490</ele>
        <time>2012-11-11T11:38:08Z</time>
      </trkpt>
      <trkpt lat="46.21384" lon="4.69181">
        <ele>490</ele>
        <time>2012-11-11T11:38:11Z</time>
      </trkpt>
      <trkpt lat="46.21389" lon="4.69178">
        <ele>490</ele>
        <time>2012-11-11T11:38:13Z</time>
      </trkpt>
      <trkpt lat="46.21399" lon="4.69179">
        <ele>491</ele>
        <time>2012-11-11T11:38:17Z</time>
      </trkpt>
      <trkpt lat="46.21409" lon="4.69189">
        <ele>491</ele>
        <time>2012-11-11T11:38:21Z</time>
      </trkpt>
      <trkpt lat="46.21412" lon="4.69192">
        <ele>490</ele>
        <time>2012-11-11T11:38:22Z</time>
      </trkpt>
      <trkpt lat="46.21432" lon="4.69206">
        <ele>491</ele>
        <time>2012-11-11T11:38:28Z</time>
      </trkpt>
      <trkpt lat="46.21442" lon="4.69213">
        <ele>491</ele>
        <time>2012-11-11T11:38:32Z</time>
      </trkpt>
      <trkpt lat="46.21444" lon="4.69217">
        <ele>491</ele>
        <time>2012-11-11T11:38:33Z</time>
      </trkpt>
      <trkpt lat="46.2145" lon="4.69231">
        <ele>491</ele>
        <time>2012-11-11T11:38:38Z</time>
      </trkpt>
      <trkpt lat="46.21453" lon="4.69237">
        <ele>491</ele>
        <time>2012-11-11T11:38:41Z</time>
      </trkpt>
      <trkpt lat="46.21453" lon="4.69244">
        <ele>491</ele>
        <time>2012-11-11T11:38:44Z</time>
      </trkpt>
      <trkpt lat="46.21451" lon="4.69248">
        <ele>491</ele>
        <time>2012-11-11T11:38:46Z</time>
      </trkpt>
      <trkpt lat="46.21444" lon="4.69256">
        <ele>491</ele>
        <time>2012-11-11T11:38:50Z</time>
      </trkpt>
      <trkpt lat="46.21438" lon="4.69275">
        <ele>491</ele>
        <time>2012-11-11T11:38:55Z</time>
      </trkpt>
      <trkpt lat="46.21442" lon="4.69291">
        <ele>492</ele>
        <time>2012-11-11T11:39:01Z</time>
      </trkpt>
      <trkpt lat="46.21447" lon="4.69305">
        <ele>492</ele>
        <time>2012-11-11T11:39:07Z</time>
      </trkpt>
      <trkpt lat="46.21449" lon="4.69309">
        <ele>492</ele>
        <time>2012-11-11T11:39:09Z</time>
      </trkpt>
      <trkpt lat="46.21452" lon="4.6932">
        <ele>492</ele>
        <time>2012-11-11T11:39:15Z</time>
      </trkpt>
      <trkpt lat="46.21456" lon="4.69338">
        <ele>494</ele>
        <time>2012-11-11T11:39:23Z</time>
      </trkpt>
      <trkpt lat="46.21458" lon="4.69356">
        <ele>494</ele>
        <time>2012-11-11T11:39:31Z</time>
      </trkpt>
      <trkpt lat="46.21459" lon="4.69361">
        <ele>494</ele>
        <time>2012-11-11T11:39:34Z</time>
      </trkpt>
      <trkpt lat="46.21456" lon="4.69367">
        <ele>494</ele>
        <time>2012-11-11T11:39:36Z</time>
      </trkpt>
      <trkpt lat="46.21451" lon="4.69384">
        <ele>494</ele>
        <time>2012-11-11T11:39:40Z</time>
      </trkpt>
      <trkpt lat="46.21451" lon="4.694">
        <ele>494</ele>
        <time>2012-11-11T11:39:45Z</time>
      </trkpt>
      <trkpt lat="46.21454" lon="4.694">
        <ele>494</ele>
        <time>2012-11-11T11:39:48Z</time>
      </trkpt>
      <trkpt lat="46.21454" lon="4.694">
        <ele>494</ele>
        <time>2012-11-11T11:39:49Z</time>
      </trkpt>
      <trkpt lat="46.21458" lon="4.69394">
        <ele>494</ele>
        <time>2012-11-11T11:39:53Z</time>
      </trkpt>
      <trkpt lat="46.2146" lon="4.69393">
        <ele>495</ele>
        <time>2012-11-11T11:39:54Z</time>
      </trkpt>
      <trkpt lat="46.21466" lon="4.69388">
        <ele>495</ele>
        <time>2012-11-11T11:39:59Z</time>
      </trkpt>
      <trkpt lat="46.21469" lon="4.69387">
        <ele>495</ele>
        <time>2012-11-11T11:40:01Z</time>
      </trkpt>
      <trkpt lat="46.2148" lon="4.69387">
        <ele>496</ele>
        <time>2012-11-11T11:40:09Z</time>
      </trkpt>
      <trkpt lat="46.21487" lon="4.69386">
        <ele>496</ele>
        <time>2012-11-11T11:40:14Z</time>
      </trkpt>
      <trkpt lat="46.21491" lon="4.69386">
        <ele>497</ele>
        <time>2012-11-11T11:40:17Z</time>
      </trkpt>
      <trkpt lat="46.21493" lon="4.69386">
        <ele>497</ele>
        <time>2012-11-11T11:40:18Z</time>
      </trkpt>
      <trkpt lat="46.21498" lon="4.69378">
        <ele>497</ele>
        <time>2012-11-11T11:40:22Z</time>
      </trkpt>
      <trkpt lat="46.21499" lon="4.69375">
        <ele>497</ele>
        <time>2012-11-11T11:40:23Z</time>
      </trkpt>
      <trkpt lat="46.21506" lon="4.69366">
        <ele>499</ele>
        <time>2012-11-11T11:40:27Z</time>
      </trkpt>
      <trkpt lat="46.21515" lon="4.69367">
        <ele>499</ele>
        <time>2012-11-11T11:40:32Z</time>
      </trkpt>
      <trkpt lat="46.21516" lon="4.69368">
        <ele>499</ele>
        <time>2012-11-11T11:40:35Z</time>
      </trkpt>
      <trkpt lat="46.21516" lon="4.69368">
        <ele>499</ele>
        <time>2012-11-11T11:40:37Z</time>
      </trkpt>
      <trkpt lat="46.21519" lon="4.6937">
        <ele>499</ele>
        <time>2012-11-11T11:41:39Z</time>
      </trkpt>
      <trkpt lat="46.2152" lon="4.6937">
        <ele>499</ele>
        <time>2012-11-11T11:41:47Z</time>
      </trkpt>
      <trkpt lat="46.21519" lon="4.69369">
        <ele>499</ele>
        <time>2012-11-11T11:42:24Z</time>
      </trkpt>
      <trkpt lat="46.21526" lon="4.69366">
        <ele>499</ele>
        <time>2012-11-11T11:42:27Z</time>
      </trkpt>
      <trkpt lat="46.21538" lon="4.69361">
        <ele>498</ele>
        <time>2012-11-11T11:42:30Z</time>
      </trkpt>
      <trkpt lat="46.21543" lon="4.69361">
        <ele>498</ele>
        <time>2012-11-11T11:42:31Z</time>
      </trkpt>
      <trkpt lat="46.21548" lon="4.69362">
        <ele>498</ele>
        <time>2012-11-11T11:42:32Z</time>
      </trkpt>
      <trkpt lat="46.21559" lon="4.69363">
        <ele>498</ele>
        <time>2012-11-11T11:42:34Z</time>
      </trkpt>
      <trkpt lat="46.21571" lon="4.69365">
        <ele>497</ele>
        <time>2012-11-11T11:42:37Z</time>
      </trkpt>
      <trkpt lat="46.21586" lon="4.6937">
        <ele>495</ele>
        <time>2012-11-11T11:42:42Z</time>
      </trkpt>
      <trkpt lat="46.21589" lon="4.69371">
        <ele>495</ele>
        <time>2012-11-11T11:42:43Z</time>
      </trkpt>
      <trkpt lat="46.2161" lon="4.69378">
        <ele>495</ele>
        <time>2012-11-11T11:42:49Z</time>
      </trkpt>
      <trkpt lat="46.21618" lon="4.6938">
        <ele>495</ele>
        <time>2012-11-11T11:42:51Z</time>
      </trkpt>
      <trkpt lat="46.21623" lon="4.69382">
        <ele>495</ele>
        <time>2012-11-11T11:42:52Z</time>
      </trkpt>
      <trkpt lat="46.2163" lon="4.69386">
        <ele>495</ele>
        <time>2012-11-11T11:42:54Z</time>
      </trkpt>
      <trkpt lat="46.21659" lon="4.69398">
        <ele>495</ele>
        <time>2012-11-11T11:43:01Z</time>
      </trkpt>
      <trkpt lat="46.21663" lon="4.69402">
        <ele>495</ele>
        <time>2012-11-11T11:43:02Z</time>
      </trkpt>
      <trkpt lat="46.21674" lon="4.69417">
        <ele>494</ele>
        <time>2012-11-11T11:43:06Z</time>
      </trkpt>
      <trkpt lat="46.21686" lon="4.69416">
        <ele>491</ele>
        <time>2012-11-11T11:43:10Z</time>
      </trkpt>
      <trkpt lat="46.2169" lon="4.69414">
        <ele>490</ele>
        <time>2012-11-11T11:43:11Z</time>
      </trkpt>
      <trkpt lat="46.21701" lon="4.69409">
        <ele>488</ele>
        <time>2012-11-11T11:43:14Z</time>
      </trkpt>
      <trkpt lat="46.21706" lon="4.69423">
        <ele>490</ele>
        <time>2012-11-11T11:43:17Z</time>
      </trkpt>
      <trkpt lat="46.21712" lon="4.6944">
        <ele>489</ele>
        <time>2012-11-11T11:43:20Z</time>
      </trkpt>
      <trkpt lat="46.21714" lon="4.69446">
        <ele>489</ele>
        <time>2012-11-11T11:43:21Z</time>
      </trkpt>
      <trkpt lat="46.21727" lon="4.69473">
        <ele>489</ele>
        <time>2012-11-11T11:43:27Z</time>
      </trkpt>
      <trkpt lat="46.21734" lon="4.69486">
        <ele>488</ele>
        <time>2012-11-11T11:43:30Z</time>
      </trkpt>
      <trkpt lat="46.21736" lon="4.69491">
        <ele>488</ele>
        <time>2012-11-11T11:43:31Z</time>
      </trkpt>
      <trkpt lat="46.21738" lon="4.69497">
        <ele>488</ele>
        <time>2012-11-11T11:43:32Z</time>
      </trkpt>
      <trkpt lat="46.21746" lon="4.69517">
        <ele>486</ele>
        <time>2012-11-11T11:43:35Z</time>
      </trkpt>
      <trkpt lat="46.21751" lon="4.69529">
        <ele>480</ele>
        <time>2012-11-11T11:43:37Z</time>
      </trkpt>
      <trkpt lat="46.21754" lon="4.69531">
        <ele>480</ele>
        <time>2012-11-11T11:43:38Z</time>
      </trkpt>
      <trkpt lat="46.21759" lon="4.69529">
        <ele>480</ele>
        <time>2012-11-11T11:43:40Z</time>
      </trkpt>
      <trkpt lat="46.21769" lon="4.69528">
        <ele>479</ele>
        <time>2012-11-11T11:43:44Z</time>
      </trkpt>
      <trkpt lat="46.2177" lon="4.69532">
        <ele>479</ele>
        <time>2012-11-11T11:43:46Z</time>
      </trkpt>
      <trkpt lat="46.21773" lon="4.6954">
        <ele>478</ele>
        <time>2012-11-11T11:43:50Z</time>
      </trkpt>
      <trkpt lat="46.21775" lon="4.69543">
        <ele>478</ele>
        <time>2012-11-11T11:43:55Z</time>
      </trkpt>
      <trkpt lat="46.21776" lon="4.6955">
        <ele>478</ele>
        <time>2012-11-11T11:44:07Z</time>
      </trkpt>
      <trkpt lat="46.21778" lon="4.69552">
        <ele>477</ele>
        <time>2012-11-11T11:44:09Z</time>
      </trkpt>
      <trkpt lat="46.21783" lon="4.69551">
        <ele>477</ele>
        <time>2012-11-11T11:44:12Z</time>
      </trkpt>
      <trkpt lat="46.21788" lon="4.69552">
        <ele>476</ele>
        <time>2012-11-11T11:44:14Z</time>
      </trkpt>
      <trkpt lat="46.21795" lon="4.69555">
        <ele>476</ele>
        <time>2012-11-11T11:44:17Z</time>
      </trkpt>
      <trkpt lat="46.218" lon="4.69555">
        <ele>475</ele>
        <time>2012-11-11T11:44:20Z</time>
      </trkpt>
      <trkpt lat="46.21801" lon="4.69558">
        <ele>475</ele>
        <time>2012-11-11T11:44:21Z</time>
      </trkpt>
      <trkpt lat="46.21809" lon="4.69572">
        <ele>473</ele>
        <time>2012-11-11T11:44:24Z</time>
      </trkpt>
      <trkpt lat="46.21811" lon="4.69576">
        <ele>473</ele>
        <time>2012-11-11T11:44:25Z</time>
      </trkpt>
      <trkpt lat="46.21817" lon="4.69584">
        <ele>470</ele>
        <time>2012-11-11T11:44:27Z</time>
      </trkpt>
      <trkpt lat="46.21826" lon="4.69597">
        <ele>470</ele>
        <time>2012-11-11T11:44:29Z</time>
      </trkpt>
      <trkpt lat="46.21832" lon="4.6961">
        <ele>471</ele>
        <time>2012-11-11T11:44:31Z</time>
      </trkpt>
      <trkpt lat="46.21835" lon="4.6962">
        <ele>466</ele>
        <time>2012-11-11T11:44:33Z</time>
      </trkpt>
      <trkpt lat="46.21839" lon="4.69635">
        <ele>466</ele>
        <time>2012-11-11T11:44:37Z</time>
      </trkpt>
      <trkpt lat="46.2184" lon="4.69636">
        <ele>466</ele>
        <time>2012-11-11T11:44:38Z</time>
      </trkpt>
      <trkpt lat="46.21848" lon="4.69637">
        <ele>466</ele>
        <time>2012-11-11T11:44:42Z</time>
      </trkpt>
      <trkpt lat="46.21853" lon="4.69636">
        <ele>466</ele>
        <time>2012-11-11T11:44:47Z</time>
      </trkpt>
      <trkpt lat="46.21855" lon="4.69636">
        <ele>466</ele>
        <time>2012-11-11T11:44:54Z</time>
      </trkpt>
      <trkpt lat="46.21858" lon="4.69635">
        <ele>466</ele>
        <time>2012-11-11T11:44:55Z</time>
      </trkpt>
      <trkpt lat="46.21862" lon="4.69633">
        <ele>466</ele>
        <time>2012-11-11T11:44:56Z</time>
      </trkpt>
      <trkpt lat="46.21867" lon="4.69633">
        <ele>466</ele>
        <time>2012-11-11T11:44:57Z</time>
      </trkpt>
      <trkpt lat="46.21885" lon="4.69632">
        <ele>465</ele>
        <time>2012-11-11T11:45:00Z</time>
      </trkpt>
      <trkpt lat="46.21892" lon="4.69633">
        <ele>465</ele>
        <time>2012-11-11T11:45:01Z</time>
      </trkpt>
      <trkpt lat="46.2191" lon="4.69636">
        <ele>465</ele>
        <time>2012-11-11T11:45:04Z</time>
      </trkpt>
      <trkpt lat="46.21932" lon="4.6964">
        <ele>463</ele>
        <time>2012-11-11T11:45:08Z</time>
      </trkpt>
      <trkpt lat="46.21938" lon="4.6964">
        <ele>463</ele>
        <time>2012-11-11T11:45:09Z</time>
      </trkpt>
      <trkpt lat="46.21942" lon="4.69641">
        <ele>463</ele>
        <time>2012-11-11T11:45:10Z</time>
      </trkpt>
      <trkpt lat="46.21969" lon="4.69641">
        <ele>463</ele>
        <time>2012-11-11T11:45:15Z</time>
      </trkpt>
      <trkpt lat="46.21984" lon="4.69642">
        <ele>464</ele>
        <time>2012-11-11T11:45:18Z</time>
      </trkpt>
      <trkpt lat="46.21997" lon="4.69643">
        <ele>464</ele>
        <time>2012-11-11T11:45:21Z</time>
      </trkpt>
      <trkpt lat="46.22008" lon="4.69645">
        <ele>463</ele>
        <time>2012-11-11T11:45:24Z</time>
      </trkpt>
      <trkpt lat="46.22015" lon="4.69646">
        <ele>462</ele>
        <time>2012-11-11T11:45:26Z</time>
      </trkpt>
      <trkpt lat="46.22037" lon="4.69649">
        <ele>461</ele>
        <time>2012-11-11T11:45:33Z</time>
      </trkpt>
      <trkpt lat="46.22045" lon="4.6965">
        <ele>461</ele>
        <time>2012-11-11T11:45:35Z</time>
      </trkpt>
      <trkpt lat="46.22058" lon="4.69652">
        <ele>461</ele>
        <time>2012-11-11T11:45:38Z</time>
      </trkpt>
      <trkpt lat="46.2206" lon="4.69654">
        <ele>461</ele>
        <time>2012-11-11T11:45:39Z</time>
      </trkpt>
      <trkpt lat="46.22062" lon="4.69662">
        <ele>461</ele>
        <time>2012-11-11T11:45:41Z</time>
      </trkpt>
      <trkpt lat="46.2206" lon="4.69675">
        <ele>468</ele>
        <time>2012-11-11T11:45:45Z</time>
      </trkpt>
      <trkpt lat="46.22059" lon="4.69678">
        <ele>468</ele>
        <time>2012-11-11T11:45:46Z</time>
      </trkpt>
      <trkpt lat="46.22056" lon="4.69685">
        <ele>469</ele>
        <time>2012-11-11T11:45:49Z</time>
      </trkpt>
      <trkpt lat="46.22051" lon="4.69695">
        <ele>469</ele>
        <time>2012-11-11T11:45:53Z</time>
      </trkpt>
      <trkpt lat="46.22047" lon="4.69711">
        <ele>470</ele>
        <time>2012-11-11T11:46:00Z</time>
      </trkpt>
      <trkpt lat="46.22047" lon="4.69713">
        <ele>470</ele>
        <time>2012-11-11T11:46:01Z</time>
      </trkpt>
      <trkpt lat="46.2205" lon="4.69721">
        <ele>470</ele>
        <time>2012-11-11T11:46:04Z</time>
      </trkpt>
      <trkpt lat="46.22054" lon="4.69733">
        <ele>471</ele>
        <time>2012-11-11T11:46:07Z</time>
      </trkpt>
      <trkpt lat="46.22054" lon="4.69737">
        <ele>471</ele>
        <time>2012-11-11T11:46:08Z</time>
      </trkpt>
      <trkpt lat="46.22047" lon="4.6975">
        <ele>474</ele>
        <time>2012-11-11T11:46:12Z</time>
      </trkpt>
      <trkpt lat="46.2204" lon="4.69761">
        <ele>474</ele>
        <time>2012-11-11T11:46:17Z</time>
      </trkpt>
      <trkpt lat="46.2204" lon="4.69764">
        <ele>474</ele>
        <time>2012-11-11T11:46:18Z</time>
      </trkpt>
      <trkpt lat="46.22039" lon="4.69778">
        <ele>475</ele>
        <time>2012-11-11T11:46:23Z</time>
      </trkpt>
      <trkpt lat="46.22039" lon="4.69796">
        <ele>475</ele>
        <time>2012-11-11T11:46:30Z</time>
      </trkpt>
      <trkpt lat="46.22043" lon="4.69809">
        <ele>475</ele>
        <time>2012-11-11T11:46:36Z</time>
      </trkpt>
      <trkpt lat="46.22045" lon="4.69822">
        <ele>475</ele>
        <time>2012-11-11T11:46:42Z</time>
      </trkpt>
      <trkpt lat="46.22046" lon="4.6983">
        <ele>475</ele>
        <time>2012-11-11T11:46:46Z</time>
      </trkpt>
      <trkpt lat="46.22048" lon="4.69839">
        <ele>477</ele>
        <time>2012-11-11T11:46:50Z</time>
      </trkpt>
      <trkpt lat="46.22051" lon="4.69854">
        <ele>477</ele>
        <time>2012-11-11T11:46:55Z</time>
      </trkpt>
      <trkpt lat="46.22054" lon="4.69869">
        <ele>478</ele>
        <time>2012-11-11T11:47:01Z</time>
      </trkpt>
      <trkpt lat="46.22057" lon="4.69879">
        <ele>478</ele>
        <time>2012-11-11T11:47:06Z</time>
      </trkpt>
      <trkpt lat="46.22057" lon="4.69883">
        <ele>478</ele>
        <time>2012-11-11T11:47:08Z</time>
      </trkpt>
      <trkpt lat="46.22061" lon="4.69897">
        <ele>479</ele>
        <time>2012-11-11T11:47:15Z</time>
      </trkpt>
      <trkpt lat="46.22064" lon="4.6991">
        <ele>480</ele>
        <time>2012-11-11T11:47:23Z</time>
      </trkpt>
      <trkpt lat="46.22068" lon="4.69925">
        <ele>482</ele>
        <time>2012-11-11T11:47:32Z</time>
      </trkpt>
      <trkpt lat="46.22069" lon="4.69928">
        <ele>482</ele>
        <time>2012-11-11T11:47:34Z</time>
      </trkpt>
      <trkpt lat="46.22072" lon="4.69938">
        <ele>482</ele>
        <time>2012-11-11T11:47:39Z</time>
      </trkpt>
      <trkpt lat="46.22075" lon="4.69949">
        <ele>482</ele>
        <time>2012-11-11T11:47:45Z</time>
      </trkpt>
      <trkpt lat="46.22078" lon="4.69958">
        <ele>483</ele>
        <time>2012-11-11T11:47:52Z</time>
      </trkpt>
      <trkpt lat="46.22081" lon="4.69972">
        <ele>484</ele>
        <time>2012-11-11T11:48:01Z</time>
      </trkpt>
      <trkpt lat="46.22082" lon="4.69977">
        <ele>485</ele>
        <time>2012-11-11T11:48:04Z</time>
      </trkpt>
      <trkpt lat="46.22083" lon="4.69981">
        <ele>485</ele>
        <time>2012-11-11T11:48:07Z</time>
      </trkpt>
      <trkpt lat="46.22084" lon="4.69982">
        <ele>488</ele>
        <time>2012-11-11T11:48:08Z</time>
      </trkpt>
      <trkpt lat="46.22087" lon="4.69993">
        <ele>489</ele>
        <time>2012-11-11T11:48:15Z</time>
      </trkpt>
      <trkpt lat="46.22091" lon="4.70007">
        <ele>492</ele>
        <time>2012-11-11T11:48:23Z</time>
      </trkpt>
      <trkpt lat="46.22095" lon="4.7002">
        <ele>493</ele>
        <time>2012-11-11T11:48:31Z</time>
      </trkpt>
      <trkpt lat="46.22097" lon="4.70025">
        <ele>493</ele>
        <time>2012-11-11T11:48:34Z</time>
      </trkpt>
      <trkpt lat="46.221" lon="4.70035">
        <ele>494</ele>
        <time>2012-11-11T11:48:40Z</time>
      </trkpt>
      <trkpt lat="46.22105" lon="4.70047">
        <ele>494</ele>
        <time>2012-11-11T11:48:48Z</time>
      </trkpt>
      <trkpt lat="46.22108" lon="4.70061">
        <ele>495</ele>
        <time>2012-11-11T11:48:56Z</time>
      </trkpt>
      <trkpt lat="46.2211" lon="4.70069">
        <ele>495</ele>
        <time>2012-11-11T11:49:00Z</time>
      </trkpt>
      <trkpt lat="46.22111" lon="4.70073">
        <ele>495</ele>
        <time>2012-11-11T11:49:02Z</time>
      </trkpt>
      <trkpt lat="46.22113" lon="4.70078">
        <ele>495</ele>
        <time>2012-11-11T11:49:05Z</time>
      </trkpt>
      <trkpt lat="46.22115" lon="4.70088">
        <ele>497</ele>
        <time>2012-11-11T11:49:11Z</time>
      </trkpt>
      <trkpt lat="46.22115" lon="4.70089">
        <ele>497</ele>
        <time>2012-11-11T11:49:12Z</time>
      </trkpt>
      <trkpt lat="46.22119" lon="4.70101">
        <ele>498</ele>
        <time>2012-11-11T11:49:20Z</time>
      </trkpt>
      <trkpt lat="46.22125" lon="4.70114">
        <ele>498</ele>
        <time>2012-11-11T11:49:28Z</time>
      </trkpt>
      <trkpt lat="46.22129" lon="4.70119">
        <ele>498</ele>
        <time>2012-11-11T11:49:32Z</time>
      </trkpt>
      <trkpt lat="46.22132" lon="4.70122">
        <ele>499</ele>
        <time>2012-11-11T11:49:35Z</time>
      </trkpt>
      <trkpt lat="46.22139" lon="4.70127">
        <ele>499</ele>
        <time>2012-11-11T11:49:41Z</time>
      </trkpt>
      <trkpt lat="46.22147" lon="4.70135">
        <ele>500</ele>
        <time>2012-11-11T11:49:48Z</time>
      </trkpt>
      <trkpt lat="46.22156" lon="4.70149">
        <ele>502</ele>
        <time>2012-11-11T11:49:55Z</time>
      </trkpt>
      <trkpt lat="46.22166" lon="4.70164">
        <ele>505</ele>
        <time>2012-11-11T11:50:01Z</time>
      </trkpt>
      <trkpt lat="46.22181" lon="4.70186">
        <ele>504</ele>
        <time>2012-11-11T11:50:10Z</time>
      </trkpt>
      <trkpt lat="46.22199" lon="4.70199">
        <ele>504</ele>
        <time>2012-11-11T11:50:17Z</time>
      </trkpt>
      <trkpt lat="46.22209" lon="4.70207">
        <ele>504</ele>
        <time>2012-11-11T11:50:22Z</time>
      </trkpt>
      <trkpt lat="46.22213" lon="4.70211">
        <ele>504</ele>
        <time>2012-11-11T11:50:24Z</time>
      </trkpt>
      <trkpt lat="46.22216" lon="4.70212">
        <ele>504</ele>
        <time>2012-11-11T11:50:26Z</time>
      </trkpt>
      <trkpt lat="46.22217" lon="4.70213">
        <ele>504</ele>
        <time>2012-11-11T11:50:40Z</time>
      </trkpt>
      <trkpt lat="46.22222" lon="4.70222">
        <ele>504</ele>
        <time>2012-11-11T11:51:59Z</time>
      </trkpt>
      <trkpt lat="46.22234" lon="4.70239">
        <ele>504</ele>
        <time>2012-11-11T11:52:04Z</time>
      </trkpt>
      <trkpt lat="46.2224" lon="4.70245">
        <ele>504</ele>
        <time>2012-11-11T11:52:06Z</time>
      </trkpt>
      <trkpt lat="46.22246" lon="4.70249">
        <ele>505</ele>
        <time>2012-11-11T11:52:08Z</time>
      </trkpt>
      <trkpt lat="46.22265" lon="4.7025">
        <ele>501</ele>
        <time>2012-11-11T11:52:13Z</time>
      </trkpt>
      <trkpt lat="46.22275" lon="4.70253">
        <ele>498</ele>
        <time>2012-11-11T11:52:16Z</time>
      </trkpt>
      <trkpt lat="46.22278" lon="4.70255">
        <ele>497</ele>
        <time>2012-11-11T11:52:17Z</time>
      </trkpt>
      <trkpt lat="46.2229" lon="4.70258">
        <ele>496</ele>
        <time>2012-11-11T11:52:21Z</time>
      </trkpt>
      <trkpt lat="46.22297" lon="4.70262">
        <ele>495</ele>
        <time>2012-11-11T11:52:26Z</time>
      </trkpt>
      <trkpt lat="46.22298" lon="4.70267">
        <ele>495</ele>
        <time>2012-11-11T11:52:33Z</time>
      </trkpt>
      <trkpt lat="46.22305" lon="4.70272">
        <ele>494</ele>
        <time>2012-11-11T11:52:37Z</time>
      </trkpt>
      <trkpt lat="46.22305" lon="4.70274">
        <ele>494</ele>
        <time>2012-11-11T11:52:38Z</time>
      </trkpt>
      <trkpt lat="46.22305" lon="4.70277">
        <ele>494</ele>
        <time>2012-11-11T11:52:39Z</time>
      </trkpt>
      <trkpt lat="46.22301" lon="4.70283">
        <ele>494</ele>
        <time>2012-11-11T11:52:42Z</time>
      </trkpt>
      <trkpt lat="46.22298" lon="4.70287">
        <ele>494</ele>
        <time>2012-11-11T11:52:44Z</time>
      </trkpt>
      <trkpt lat="46.22291" lon="4.70298">
        <ele>494</ele>
        <time>2012-11-11T11:52:47Z</time>
      </trkpt>
      <trkpt lat="46.22282" lon="4.70312">
        <ele>494</ele>
        <time>2012-11-11T11:52:50Z</time>
      </trkpt>
      <trkpt lat="46.22274" lon="4.70323">
        <ele>494</ele>
        <time>2012-11-11T11:52:52Z</time>
      </trkpt>
      <trkpt lat="46.22255" lon="4.70352">
        <ele>488</ele>
        <time>2012-11-11T11:52:57Z</time>
      </trkpt>
      <trkpt lat="46.22243" lon="4.7038">
        <ele>484</ele>
        <time>2012-11-11T11:53:01Z</time>
      </trkpt>
      <trkpt lat="46.2224" lon="4.70387">
        <ele>483</ele>
        <time>2012-11-11T11:53:02Z</time>
      </trkpt>
      <trkpt lat="46.22239" lon="4.70402">
        <ele>481</ele>
        <time>2012-11-11T11:53:04Z</time>
      </trkpt>
      <trkpt lat="46.22246" lon="4.70425">
        <ele>476</ele>
        <time>2012-11-11T11:53:07Z</time>
      </trkpt>
      <trkpt lat="46.22257" lon="4.70431">
        <ele>475</ele>
        <time>2012-11-11T11:53:10Z</time>
      </trkpt>
      <trkpt lat="46.22261" lon="4.70433">
        <ele>475</ele>
        <time>2012-11-11T11:53:11Z</time>
      </trkpt>
      <trkpt lat="46.22265" lon="4.70436">
        <ele>474</ele>
        <time>2012-11-11T11:53:12Z</time>
      </trkpt>
      <trkpt lat="46.22273" lon="4.70441">
        <ele>473</ele>
        <time>2012-11-11T11:53:14Z</time>
      </trkpt>
      <trkpt lat="46.22277" lon="4.70445">
        <ele>473</ele>
        <time>2012-11-11T11:53:15Z</time>
      </trkpt>
      <trkpt lat="46.22288" lon="4.70458">
        <ele>471</ele>
        <time>2012-11-11T11:53:18Z</time>
      </trkpt>
      <trkpt lat="46.22292" lon="4.70468">
        <ele>471</ele>
        <time>2012-11-11T11:53:20Z</time>
      </trkpt>
      <trkpt lat="46.22294" lon="4.70472">
        <ele>470</ele>
        <time>2012-11-11T11:53:21Z</time>
      </trkpt>
      <trkpt lat="46.22301" lon="4.7048">
        <ele>469</ele>
        <time>2012-11-11T11:53:24Z</time>
      </trkpt>
      <trkpt lat="46.22304" lon="4.7048">
        <ele>469</ele>
        <time>2012-11-11T11:53:25Z</time>
      </trkpt>
      <trkpt lat="46.22313" lon="4.70467">
        <ele>469</ele>
        <time>2012-11-11T11:53:29Z</time>
      </trkpt>
      <trkpt lat="46.22316" lon="4.70461">
        <ele>469</ele>
        <time>2012-11-11T11:53:30Z</time>
      </trkpt>
      <trkpt lat="46.2232" lon="4.70455">
        <ele>470</ele>
        <time>2012-11-11T11:53:31Z</time>
      </trkpt>
      <trkpt lat="46.22325" lon="4.70443">
        <ele>470</ele>
        <time>2012-11-11T11:53:33Z</time>
      </trkpt>
      <trkpt lat="46.22339" lon="4.70415">
        <ele>468</ele>
        <time>2012-11-11T11:53:37Z</time>
      </trkpt>
      <trkpt lat="46.22342" lon="4.70407">
        <ele>466</ele>
        <time>2012-11-11T11:53:38Z</time>
      </trkpt>
      <trkpt lat="46.22346" lon="4.70399">
        <ele>465</ele>
        <time>2012-11-11T11:53:39Z</time>
      </trkpt>
      <trkpt lat="46.22349" lon="4.70392">
        <ele>465</ele>
        <time>2012-11-11T11:53:40Z</time>
      </trkpt>
      <trkpt lat="46.22359" lon="4.70381">
        <ele>464</ele>
        <time>2012-11-11T11:53:42Z</time>
      </trkpt>
      <trkpt lat="46.22371" lon="4.70364">
        <ele>463</ele>
        <time>2012-11-11T11:53:45Z</time>
      </trkpt>
      <trkpt lat="46.22381" lon="4.70346">
        <ele>463</ele>
        <time>2012-11-11T11:53:47Z</time>
      </trkpt>
      <trkpt lat="46.22396" lon="4.70329">
        <ele>467</ele>
        <time>2012-11-11T11:53:50Z</time>
      </trkpt>
      <trkpt lat="46.22402" lon="4.70325">
        <ele>465</ele>
        <time>2012-11-11T11:53:51Z</time>
      </trkpt>
      <trkpt lat="46.22414" lon="4.7032">
        <ele>464</ele>
        <time>2012-11-11T11:53:53Z</time>
      </trkpt>
      <trkpt lat="46.22431" lon="4.70313">
        <ele>448</ele>
        <time>2012-11-11T11:53:56Z</time>
      </trkpt>
      <trkpt lat="46.22435" lon="4.70311">
        <ele>447</ele>
        <time>2012-11-11T11:53:57Z</time>
      </trkpt>
      <trkpt lat="46.22448" lon="4.70299">
        <ele>445</ele>
        <time>2012-11-11T11:54:01Z</time>
      </trkpt>
      <trkpt lat="46.22463" lon="4.70278">
        <ele>443</ele>
        <time>2012-11-11T11:54:06Z</time>
      </trkpt>
      <trkpt lat="46.22482" lon="4.70245">
        <ele>443</ele>
        <time>2012-11-11T11:54:12Z</time>
      </trkpt>
      <trkpt lat="46.22487" lon="4.70234">
        <ele>443</ele>
        <time>2012-11-11T11:54:15Z</time>
      </trkpt>
      <trkpt lat="46.22488" lon="4.70233">
        <ele>443</ele>
        <time>2012-11-11T11:54:16Z</time>
      </trkpt>
      <trkpt lat="46.22491" lon="4.70239">
        <ele>441</ele>
        <time>2012-11-11T11:54:19Z</time>
      </trkpt>
      <trkpt lat="46.22496" lon="4.70243">
        <ele>438</ele>
        <time>2012-11-11T11:54:22Z</time>
      </trkpt>
      <trkpt lat="46.22503" lon="4.7023">
        <ele>425</ele>
        <time>2012-11-11T11:54:25Z</time>
      </trkpt>
      <trkpt lat="46.22505" lon="4.70224">
        <ele>424</ele>
        <time>2012-11-11T11:54:26Z</time>
      </trkpt>
      <trkpt lat="46.22508" lon="4.70217">
        <ele>423</ele>
        <time>2012-11-11T11:54:27Z</time>
      </trkpt>
      <trkpt lat="46.2251" lon="4.70211">
        <ele>423</ele>
        <time>2012-11-11T11:54:28Z</time>
      </trkpt>
      <trkpt lat="46.22512" lon="4.70203">
        <ele>423</ele>
        <time>2012-11-11T11:54:29Z</time>
      </trkpt>
      <trkpt lat="46.22513" lon="4.70197">
        <ele>423</ele>
        <time>2012-11-11T11:54:30Z</time>
      </trkpt>
      <trkpt lat="46.22516" lon="4.70182">
        <ele>424</ele>
        <time>2012-11-11T11:54:33Z</time>
      </trkpt>
      <trkpt lat="46.2252" lon="4.70186">
        <ele>423</ele>
        <time>2012-11-11T11:54:35Z</time>
      </trkpt>
      <trkpt lat="46.22521" lon="4.70192">
        <ele>422</ele>
        <time>2012-11-11T11:54:36Z</time>
      </trkpt>
      <trkpt lat="46.22522" lon="4.70199">
        <ele>421</ele>
        <time>2012-11-11T11:54:37Z</time>
      </trkpt>
      <trkpt lat="46.22524" lon="4.70212">
        <ele>421</ele>
        <time>2012-11-11T11:54:39Z</time>
      </trkpt>
      <trkpt lat="46.22526" lon="4.7024">
        <ele>422</ele>
        <time>2012-11-11T11:54:44Z</time>
      </trkpt>
      <trkpt lat="46.22531" lon="4.70242">
        <ele>420</ele>
        <time>2012-11-11T11:54:46Z</time>
      </trkpt>
      <trkpt lat="46.22534" lon="4.70239">
        <ele>419</ele>
        <time>2012-11-11T11:54:47Z</time>
      </trkpt>
      <trkpt lat="46.22538" lon="4.70229">
        <ele>418</ele>
        <time>2012-11-11T11:54:49Z</time>
      </trkpt>
      <trkpt lat="46.2254" lon="4.70225">
        <ele>418</ele>
        <time>2012-11-11T11:54:50Z</time>
      </trkpt>
      <trkpt lat="46.22554" lon="4.70203">
        <ele>415</ele>
        <time>2012-11-11T11:54:56Z</time>
      </trkpt>
      <trkpt lat="46.22563" lon="4.70184">
        <ele>413</ele>
        <time>2012-11-11T11:55:00Z</time>
      </trkpt>
      <trkpt lat="46.22571" lon="4.70177">
        <ele>410</ele>
        <time>2012-11-11T11:55:03Z</time>
      </trkpt>
      <trkpt lat="46.22574" lon="4.70189">
        <ele>411</ele>
        <time>2012-11-11T11:55:05Z</time>
      </trkpt>
      <trkpt lat="46.22576" lon="4.70196">
        <ele>412</ele>
        <time>2012-11-11T11:55:06Z</time>
      </trkpt>
      <trkpt lat="46.22577" lon="4.70202">
        <ele>412</ele>
        <time>2012-11-11T11:55:07Z</time>
      </trkpt>
      <trkpt lat="46.22578" lon="4.70209">
        <ele>412</ele>
        <time>2012-11-11T11:55:08Z</time>
      </trkpt>
      <trkpt lat="46.22579" lon="4.70229">
        <ele>409</ele>
        <time>2012-11-11T11:55:11Z</time>
      </trkpt>
      <trkpt lat="46.22577" lon="4.70245">
        <ele>405</ele>
        <time>2012-11-11T11:55:14Z</time>
      </trkpt>
      <trkpt lat="46.22577" lon="4.70254">
        <ele>402</ele>
        <time>2012-11-11T11:55:16Z</time>
      </trkpt>
      <trkpt lat="46.22577" lon="4.70263">
        <ele>403</ele>
        <time>2012-11-11T11:55:18Z</time>
      </trkpt>
      <trkpt lat="46.22576" lon="4.70268">
        <ele>404</ele>
        <time>2012-11-11T11:55:19Z</time>
      </trkpt>
      <trkpt lat="46.22561" lon="4.70291">
        <ele>404</ele>
        <time>2012-11-11T11:55:23Z</time>
      </trkpt>
      <trkpt lat="46.22545" lon="4.70308">
        <ele>405</ele>
        <time>2012-11-11T11:55:26Z</time>
      </trkpt>
      <trkpt lat="46.22537" lon="4.70321">
        <ele>406</ele>
        <time>2012-11-11T11:55:28Z</time>
      </trkpt>
      <trkpt lat="46.22531" lon="4.70333">
        <ele>407</ele>
        <time>2012-11-11T11:55:30Z</time>
      </trkpt>
      <trkpt lat="46.22527" lon="4.70339">
        <ele>397</ele>
        <time>2012-11-11T11:55:31Z</time>
      </trkpt>
      <trkpt lat="46.22522" lon="4.70351">
        <ele>397</ele>
        <time>2012-11-11T11:55:33Z</time>
      </trkpt>
      <trkpt lat="46.22509" lon="4.70379">
        <ele>393</ele>
        <time>2012-11-11T11:55:37Z</time>
      </trkpt>
      <trkpt lat="46.22503" lon="4.70394">
        <ele>392</ele>
        <time>2012-11-11T11:55:39Z</time>
      </trkpt>
      <trkpt lat="46.225" lon="4.70401">
        <ele>392</ele>
        <time>2012-11-11T11:55:40Z</time>
      </trkpt>
      <trkpt lat="46.22495" lon="4.70417">
        <ele>396</ele>
        <time>2012-11-11T11:55:42Z</time>
      </trkpt>
      <trkpt lat="46.22493" lon="4.70425">
        <ele>398</ele>
        <time>2012-11-11T11:55:43Z</time>
      </trkpt>
      <trkpt lat="46.22484" lon="4.7046">
        <ele>403</ele>
        <time>2012-11-11T11:55:47Z</time>
      </trkpt>
      <trkpt lat="46.22481" lon="4.70468">
        <ele>402</ele>
        <time>2012-11-11T11:55:48Z</time>
      </trkpt>
      <trkpt lat="46.22478" lon="4.70477">
        <ele>402</ele>
        <time>2012-11-11T11:55:49Z</time>
      </trkpt>
      <trkpt lat="46.22472" lon="4.705">
        <ele>401</ele>
        <time>2012-11-11T11:55:52Z</time>
      </trkpt>
      <trkpt lat="46.22472" lon="4.70505">
        <ele>399</ele>
        <time>2012-11-11T11:55:53Z</time>
      </trkpt>
      <trkpt lat="46.22477" lon="4.7053">
        <ele>399</ele>
        <time>2012-11-11T11:55:57Z</time>
      </trkpt>
      <trkpt lat="46.22487" lon="4.70573">
        <ele>396</ele>
        <time>2012-11-11T11:56:04Z</time>
      </trkpt>
      <trkpt lat="46.22489" lon="4.70582">
        <ele>394</ele>
        <time>2012-11-11T11:56:06Z</time>
      </trkpt>
      <trkpt lat="46.22496" lon="4.70597">
        <ele>395</ele>
        <time>2012-11-11T11:56:10Z</time>
      </trkpt>
      <trkpt lat="46.22504" lon="4.70615">
        <ele>381</ele>
        <time>2012-11-11T11:56:16Z</time>
      </trkpt>
      <trkpt lat="46.22508" lon="4.70629">
        <ele>381</ele>
        <time>2012-11-11T11:56:19Z</time>
      </trkpt>
      <trkpt lat="46.22509" lon="4.70636">
        <ele>382</ele>
        <time>2012-11-11T11:56:20Z</time>
      </trkpt>
      <trkpt lat="46.22512" lon="4.70674">
        <ele>386</ele>
        <time>2012-11-11T11:56:25Z</time>
      </trkpt>
      <trkpt lat="46.22513" lon="4.70682">
        <ele>384</ele>
        <time>2012-11-11T11:56:26Z</time>
      </trkpt>
      <trkpt lat="46.22513" lon="4.7069">
        <ele>383</ele>
        <time>2012-11-11T11:56:27Z</time>
      </trkpt>
      <trkpt lat="46.22517" lon="4.70716">
        <ele>383</ele>
        <time>2012-11-11T11:56:30Z</time>
      </trkpt>
      <trkpt lat="46.22518" lon="4.7074">
        <ele>385</ele>
        <time>2012-11-11T11:56:33Z</time>
      </trkpt>
      <trkpt lat="46.22519" lon="4.70764">
        <ele>384</ele>
        <time>2012-11-11T11:56:36Z</time>
      </trkpt>
      <trkpt lat="46.2252" lon="4.70772">
        <ele>383</ele>
        <time>2012-11-11T11:56:37Z</time>
      </trkpt>
      <trkpt lat="46.22523" lon="4.70794">
        <ele>382</ele>
        <time>2012-11-11T11:56:40Z</time>
      </trkpt>
      <trkpt lat="46.22523" lon="4.70802">
        <ele>382</ele>
        <time>2012-11-11T11:56:41Z</time>
      </trkpt>
      <trkpt lat="46.22524" lon="4.70849">
        <ele>382</ele>
        <time>2012-11-11T11:56:47Z</time>
      </trkpt>
      <trkpt lat="46.2252" lon="4.70883">
        <ele>381</ele>
        <time>2012-11-11T11:56:52Z</time>
      </trkpt>
      <trkpt lat="46.22523" lon="4.70888">
        <ele>381</ele>
        <time>2012-11-11T11:56:55Z</time>
      </trkpt>
      <trkpt lat="46.22523" lon="4.7089">
        <ele>381</ele>
        <time>2012-11-11T11:57:03Z</time>
      </trkpt>
      <trkpt lat="46.22528" lon="4.70898">
        <ele>380</ele>
        <time>2012-11-11T11:57:21Z</time>
      </trkpt>
      <trkpt lat="46.22547" lon="4.70918">
        <ele>374</ele>
        <time>2012-11-11T11:57:27Z</time>
      </trkpt>
      <trkpt lat="46.2256" lon="4.70928">
        <ele>371</ele>
        <time>2012-11-11T11:57:30Z</time>
      </trkpt>
      <trkpt lat="46.22573" lon="4.70939">
        <ele>370</ele>
        <time>2012-11-11T11:57:33Z</time>
      </trkpt>
      <trkpt lat="46.2258" lon="4.70947">
        <ele>370</ele>
        <time>2012-11-11T11:57:35Z</time>
      </trkpt>
      <trkpt lat="46.22587" lon="4.70961">
        <ele>355</ele>
        <time>2012-11-11T11:57:37Z</time>
      </trkpt>
      <trkpt lat="46.22592" lon="4.70981">
        <ele>356</ele>
        <time>2012-11-11T11:57:39Z</time>
      </trkpt>
      <trkpt lat="46.22596" lon="4.71003">
        <ele>356</ele>
        <time>2012-11-11T11:57:41Z</time>
      </trkpt>
      <trkpt lat="46.22598" lon="4.71013">
        <ele>355</ele>
        <time>2012-11-11T11:57:42Z</time>
      </trkpt>
      <trkpt lat="46.22606" lon="4.71043">
        <ele>351</ele>
        <time>2012-11-11T11:57:45Z</time>
      </trkpt>
      <trkpt lat="46.2261" lon="4.71063">
        <ele>350</ele>
        <time>2012-11-11T11:57:47Z</time>
      </trkpt>
      <trkpt lat="46.22616" lon="4.7109">
        <ele>346</ele>
        <time>2012-11-11T11:57:50Z</time>
      </trkpt>
      <trkpt lat="46.22618" lon="4.7112">
        <ele>344</ele>
        <time>2012-11-11T11:57:53Z</time>
      </trkpt>
      <trkpt lat="46.22619" lon="4.71143">
        <ele>342</ele>
        <time>2012-11-11T11:57:55Z</time>
      </trkpt>
      <trkpt lat="46.22619" lon="4.71155">
        <ele>342</ele>
        <time>2012-11-11T11:57:56Z</time>
      </trkpt>
      <trkpt lat="46.22617" lon="4.71177">
        <ele>335</ele>
        <time>2012-11-11T11:57:58Z</time>
      </trkpt>
      <trkpt lat="46.22614" lon="4.71187">
        <ele>335</ele>
        <time>2012-11-11T11:57:59Z</time>
      </trkpt>
      <trkpt lat="46.22601" lon="4.71214">
        <ele>334</ele>
        <time>2012-11-11T11:58:02Z</time>
      </trkpt>
      <trkpt lat="46.22593" lon="4.71227">
        <ele>334</ele>
        <time>2012-11-11T11:58:04Z</time>
      </trkpt>
      <trkpt lat="46.22581" lon="4.71247">
        <ele>338</ele>
        <time>2012-11-11T11:58:07Z</time>
      </trkpt>
      <trkpt lat="46.22575" lon="4.71261">
        <ele>334</ele>
        <time>2012-11-11T11:58:09Z</time>
      </trkpt>
      <trkpt lat="46.22571" lon="4.71273">
        <ele>332</ele>
        <time>2012-11-11T11:58:11Z</time>
      </trkpt>
      <trkpt lat="46.22567" lon="4.71296">
        <ele>329</ele>
        <time>2012-11-11T11:58:16Z</time>
      </trkpt>
      <trkpt lat="46.22562" lon="4.71314">
        <ele>327</ele>
        <time>2012-11-11T11:58:21Z</time>
      </trkpt>
      <trkpt lat="46.22559" lon="4.71327">
        <ele>327</ele>
        <time>2012-11-11T11:58:24Z</time>
      </trkpt>
      <trkpt lat="46.22557" lon="4.71342">
        <ele>318</ele>
        <time>2012-11-11T11:58:27Z</time>
      </trkpt>
      <trkpt lat="46.22554" lon="4.71358">
        <ele>317</ele>
        <time>2012-11-11T11:58:30Z</time>
      </trkpt>
      <trkpt lat="46.22548" lon="4.71376">
        <ele>315</ele>
        <time>2012-11-11T11:58:33Z</time>
      </trkpt>
      <trkpt lat="46.22542" lon="4.7139">
        <ele>314</ele>
        <time>2012-11-11T11:58:35Z</time>
      </trkpt>
      <trkpt lat="46.22534" lon="4.71403">
        <ele>314</ele>
        <time>2012-11-11T11:58:37Z</time>
      </trkpt>
      <trkpt lat="46.22522" lon="4.7142">
        <ele>307</ele>
        <time>2012-11-11T11:58:40Z</time>
      </trkpt>
      <trkpt lat="46.22518" lon="4.71429">
        <ele>307</ele>
        <time>2012-11-11T11:58:42Z</time>
      </trkpt>
      <trkpt lat="46.2252" lon="4.71444">
        <ele>306</ele>
        <time>2012-11-11T11:58:45Z</time>
      </trkpt>
      <trkpt lat="46.22526" lon="4.71456">
        <ele>305</ele>
        <time>2012-11-11T11:58:47Z</time>
      </trkpt>
      <trkpt lat="46.22529" lon="4.71463">
        <ele>304</ele>
        <time>2012-11-11T11:58:48Z</time>
      </trkpt>
      <trkpt lat="46.22533" lon="4.71471">
        <ele>304</ele>
        <time>2012-11-11T11:58:49Z</time>
      </trkpt>
      <trkpt lat="46.22551" lon="4.71513">
        <ele>297</ele>
        <time>2012-11-11T11:58:54Z</time>
      </trkpt>
      <trkpt lat="46.22557" lon="4.7153">
        <ele>296</ele>
        <time>2012-11-11T11:58:56Z</time>
      </trkpt>
      <trkpt lat="46.22571" lon="4.71561">
        <ele>294</ele>
        <time>2012-11-11T11:59:00Z</time>
      </trkpt>
      <trkpt lat="46.22578" lon="4.71575">
        <ele>293</ele>
        <time>2012-11-11T11:59:02Z</time>
      </trkpt>
      <trkpt lat="46.22581" lon="4.71581">
        <ele>292</ele>
        <time>2012-11-11T11:59:03Z</time>
      </trkpt>
      <trkpt lat="46.22584" lon="4.716">
        <ele>287</ele>
        <time>2012-11-11T11:59:06Z</time>
      </trkpt>
      <trkpt lat="46.22581" lon="4.71611">
        <ele>289</ele>
        <time>2012-11-11T11:59:08Z</time>
      </trkpt>
      <trkpt lat="46.22578" lon="4.71617">
        <ele>289</ele>
        <time>2012-11-11T11:59:09Z</time>
      </trkpt>
      <trkpt lat="46.22576" lon="4.71623">
        <ele>289</ele>
        <time>2012-11-11T11:59:10Z</time>
      </trkpt>
      <trkpt lat="46.22559" lon="4.71645">
        <ele>288</ele>
        <time>2012-11-11T11:59:14Z</time>
      </trkpt>
      <trkpt lat="46.22556" lon="4.71649">
        <ele>288</ele>
        <time>2012-11-11T11:59:15Z</time>
      </trkpt>
      <trkpt lat="46.22546" lon="4.71663">
        <ele>287</ele>
        <time>2012-11-11T11:59:20Z</time>
      </trkpt>
      <trkpt lat="46.22551" lon="4.71667">
        <ele>284</ele>
        <time>2012-11-11T11:59:24Z</time>
      </trkpt>
      <trkpt lat="46.22553" lon="4.71667">
        <ele>284</ele>
        <time>2012-11-11T11:59:25Z</time>
      </trkpt>
      <trkpt lat="46.22564" lon="4.71667">
        <ele>284</ele>
        <time>2012-11-11T11:59:32Z</time>
      </trkpt>
      <trkpt lat="46.22569" lon="4.71667">
        <ele>284</ele>
        <time>2012-11-11T11:59:35Z</time>
      </trkpt>
      <trkpt lat="46.22575" lon="4.71666">
        <ele>287</ele>
        <time>2012-11-11T11:59:38Z</time>
      </trkpt>
      <trkpt lat="46.22592" lon="4.71662">
        <ele>284</ele>
        <time>2012-11-11T11:59:45Z</time>
      </trkpt>
      <trkpt lat="46.22606" lon="4.71658">
        <ele>283</ele>
        <time>2012-11-11T11:59:50Z</time>
      </trkpt>
      <trkpt lat="46.2261" lon="4.71659">
        <ele>282</ele>
        <time>2012-11-11T11:59:51Z</time>
      </trkpt>
      <trkpt lat="46.22625" lon="4.71659">
        <ele>280</ele>
        <time>2012-11-11T11:59:57Z</time>
      </trkpt>
      <trkpt lat="46.22642" lon="4.71654">
        <ele>278</ele>
        <time>2012-11-11T12:00:03Z</time>
      </trkpt>
      <trkpt lat="46.22645" lon="4.71653">
        <ele>278</ele>
        <time>2012-11-11T12:00:04Z</time>
      </trkpt>
      <trkpt lat="46.22658" lon="4.71647">
        <ele>277</ele>
        <time>2012-11-11T12:00:08Z</time>
      </trkpt>
      <trkpt lat="46.2268" lon="4.71632">
        <ele>266</ele>
        <time>2012-11-11T12:00:15Z</time>
      </trkpt>
      <trkpt lat="46.22695" lon="4.7162">
        <ele>265</ele>
        <time>2012-11-11T12:00:20Z</time>
      </trkpt>
      <trkpt lat="46.2271" lon="4.71608">
        <ele>263</ele>
        <time>2012-11-11T12:00:24Z</time>
      </trkpt>
      <trkpt lat="46.22718" lon="4.71603">
        <ele>262</ele>
        <time>2012-11-11T12:00:26Z</time>
      </trkpt>
      <trkpt lat="46.22739" lon="4.7159">
        <ele>259</ele>
        <time>2012-11-11T12:00:31Z</time>
      </trkpt>
      <trkpt lat="46.22745" lon="4.71586">
        <ele>258</ele>
        <time>2012-11-11T12:00:33Z</time>
      </trkpt>
      <trkpt lat="46.22755" lon="4.71579">
        <ele>255</ele>
        <time>2012-11-11T12:00:36Z</time>
      </trkpt>
      <trkpt lat="46.22779" lon="4.71564">
        <ele>250</ele>
        <time>2012-11-11T12:00:43Z</time>
      </trkpt>
      <trkpt lat="46.228" lon="4.71545">
        <ele>247</ele>
        <time>2012-11-11T12:00:49Z</time>
      </trkpt>
      <trkpt lat="46.22804" lon="4.7154">
        <ele>247</ele>
        <time>2012-11-11T12:00:50Z</time>
      </trkpt>
      <trkpt lat="46.22811" lon="4.71532">
        <ele>247</ele>
        <time>2012-11-11T12:00:52Z</time>
      </trkpt>
      <trkpt lat="46.22819" lon="4.71524">
        <ele>246</ele>
        <time>2012-11-11T12:00:54Z</time>
      </trkpt>
      <trkpt lat="46.2284" lon="4.71503">
        <ele>240</ele>
        <time>2012-11-11T12:00:59Z</time>
      </trkpt>
      <trkpt lat="46.2285" lon="4.71497">
        <ele>241</ele>
        <time>2012-11-11T12:01:01Z</time>
      </trkpt>
      <trkpt lat="46.22862" lon="4.71497">
        <ele>240</ele>
        <time>2012-11-11T12:01:03Z</time>
      </trkpt>
      <trkpt lat="46.22873" lon="4.71503">
        <ele>236</ele>
        <time>2012-11-11T12:01:05Z</time>
      </trkpt>
      <trkpt lat="46.22887" lon="4.7151">
        <ele>234</ele>
        <time>2012-11-11T12:01:07Z</time>
      </trkpt>
      <trkpt lat="46.2291" lon="4.7152">
        <ele>233</ele>
        <time>2012-11-11T12:01:10Z</time>
      </trkpt>
      <trkpt lat="46.2295" lon="4.71534">
        <ele>230</ele>
        <time>2012-11-11T12:01:15Z</time>
      </trkpt>
      <trkpt lat="46.2298" lon="4.71545">
        <ele>229</ele>
        <time>2012-11-11T12:01:19Z</time>
      </trkpt>
      <trkpt lat="46.22987" lon="4.71548">
        <ele>229</ele>
        <time>2012-11-11T12:01:20Z</time>
      </trkpt>
      <trkpt lat="46.23013" lon="4.71566">
        <ele>229</ele>
        <time>2012-11-11T12:01:25Z</time>
      </trkpt>
      <trkpt lat="46.23023" lon="4.71573">
        <ele>230</ele>
        <time>2012-11-11T12:01:27Z</time>
      </trkpt>
      <trkpt lat="46.23028" lon="4.71576">
        <ele>230</ele>
        <time>2012-11-11T12:01:28Z</time>
      </trkpt>
      <trkpt lat="46.23041" lon="4.71586">
        <ele>230</ele>
        <time>2012-11-11T12:01:31Z</time>
      </trkpt>
      <trkpt lat="46.23059" lon="4.71597">
        <ele>231</ele>
        <time>2012-11-11T12:01:35Z</time>
      </trkpt>
      <trkpt lat="46.23061" lon="4.71602">
        <ele>231</ele>
        <time>2012-11-11T12:01:36Z</time>
      </trkpt>
      <trkpt lat="46.23076" lon="4.71622">
        <ele>231</ele>
        <time>2012-11-11T12:01:42Z</time>
      </trkpt>
      <trkpt lat="46.23087" lon="4.71634">
        <ele>236</ele>
        <time>2012-11-11T12:01:47Z</time>
      </trkpt>
      <trkpt lat="46.23094" lon="4.71646">
        <ele>236</ele>
        <time>2012-11-11T12:01:52Z</time>
      </trkpt>
      <trkpt lat="46.23097" lon="4.71646">
        <ele>236</ele>
        <time>2012-11-11T12:01:53Z</time>
      </trkpt>
      <trkpt lat="46.23107" lon="4.71642">
        <ele>237</ele>
        <time>2012-11-11T12:01:57Z</time>
      </trkpt>
      <trkpt lat="46.2312" lon="4.71644">
        <ele>237</ele>
        <time>2012-11-11T12:02:02Z</time>
      </trkpt>
      <trkpt lat="46.23122" lon="4.71645">
        <ele>238</ele>
        <time>2012-11-11T12:02:03Z</time>
      </trkpt>
      <trkpt lat="46.23134" lon="4.71654">
        <ele>238</ele>
        <time>2012-11-11T12:02:09Z</time>
      </trkpt>
      <trkpt lat="46.23147" lon="4.71663">
        <ele>240</ele>
        <time>2012-11-11T12:02:16Z</time>
      </trkpt>
      <trkpt lat="46.23154" lon="4.71668">
        <ele>241</ele>
        <time>2012-11-11T12:02:20Z</time>
      </trkpt>
      <trkpt lat="46.23161" lon="4.71672">
        <ele>241</ele>
        <time>2012-11-11T12:02:24Z</time>
      </trkpt>
      <trkpt lat="46.23172" lon="4.7168">
        <ele>244</ele>
        <time>2012-11-11T12:02:30Z</time>
      </trkpt>
      <trkpt lat="46.23186" lon="4.71691">
        <ele>245</ele>
        <time>2012-11-11T12:02:37Z</time>
      </trkpt>
      <trkpt lat="46.232" lon="4.71703">
        <ele>246</ele>
        <time>2012-11-11T12:02:44Z</time>
      </trkpt>
      <trkpt lat="46.23212" lon="4.71701">
        <ele>247</ele>
        <time>2012-11-11T12:02:51Z</time>
      </trkpt>
      <trkpt lat="46.23218" lon="4.71693">
        <ele>247</ele>
        <time>2012-11-11T12:02:56Z</time>
      </trkpt>
      <trkpt lat="46.2322" lon="4.71688">
        <ele>247</ele>
        <time>2012-11-11T12:02:58Z</time>
      </trkpt>
      <trkpt lat="46.23225" lon="4.71677">
        <ele>247</ele>
        <time>2012-11-11T12:03:04Z</time>
      </trkpt>
      <trkpt lat="46.23231" lon="4.71667">
        <ele>247</ele>
        <time>2012-11-11T12:03:10Z</time>
      </trkpt>
      <trkpt lat="46.23236" lon="4.71655">
        <ele>248</ele>
        <time>2012-11-11T12:03:18Z</time>
      </trkpt>
      <trkpt lat="46.23239" lon="4.7165">
        <ele>248</ele>
        <time>2012-11-11T12:03:21Z</time>
      </trkpt>
      <trkpt lat="46.23244" lon="4.71641">
        <ele>248</ele>
        <time>2012-11-11T12:03:26Z</time>
      </trkpt>
      <trkpt lat="46.23251" lon="4.71632">
        <ele>252</ele>
        <time>2012-11-11T12:03:32Z</time>
      </trkpt>
      <trkpt lat="46.2325" lon="4.71624">
        <ele>252</ele>
        <time>2012-11-11T12:03:37Z</time>
      </trkpt>
      <trkpt lat="46.23255" lon="4.71617">
        <ele>252</ele>
        <time>2012-11-11T12:03:41Z</time>
      </trkpt>
      <trkpt lat="46.23259" lon="4.71612">
        <ele>252</ele>
        <time>2012-11-11T12:03:44Z</time>
      </trkpt>
      <trkpt lat="46.23262" lon="4.71606">
        <ele>252</ele>
        <time>2012-11-11T12:03:47Z</time>
      </trkpt>
      <trkpt lat="46.23273" lon="4.71587">
        <ele>252</ele>
        <time>2012-11-11T12:03:56Z</time>
      </trkpt>
      <trkpt lat="46.23282" lon="4.7157">
        <ele>254</ele>
        <time>2012-11-11T12:04:04Z</time>
      </trkpt>
      <trkpt lat="46.23287" lon="4.71561">
        <ele>254</ele>
        <time>2012-11-11T12:04:10Z</time>
      </trkpt>
      <trkpt lat="46.23292" lon="4.7155">
        <ele>254</ele>
        <time>2012-11-11T12:04:16Z</time>
      </trkpt>
      <trkpt lat="46.233" lon="4.71533">
        <ele>255</ele>
        <time>2012-11-11T12:04:24Z</time>
      </trkpt>
      <trkpt lat="46.23302" lon="4.71528">
        <ele>255</ele>
        <time>2012-11-11T12:04:26Z</time>
      </trkpt>
      <trkpt lat="46.23304" lon="4.7152">
        <ele>255</ele>
        <time>2012-11-11T12:04:29Z</time>
      </trkpt>
      <trkpt lat="46.23314" lon="4.71506">
        <ele>256</ele>
        <time>2012-11-11T12:04:36Z</time>
      </trkpt>
      <trkpt lat="46.23325" lon="4.71486">
        <ele>256</ele>
        <time>2012-11-11T12:04:44Z</time>
      </trkpt>
      <trkpt lat="46.23338" lon="4.71463">
        <ele>259</ele>
        <time>2012-11-11T12:04:53Z</time>
      </trkpt>
      <trkpt lat="46.23348" lon="4.71444">
        <ele>259</ele>
        <time>2012-11-11T12:04:59Z</time>
      </trkpt>
      <trkpt lat="46.23362" lon="4.71421">
        <ele>259</ele>
        <time>2012-11-11T12:05:07Z</time>
      </trkpt>
      <trkpt lat="46.23372" lon="4.71403">
        <ele>259</ele>
        <time>2012-11-11T12:05:13Z</time>
      </trkpt>
      <trkpt lat="46.23376" lon="4.71397">
        <ele>259</ele>
        <time>2012-11-11T12:05:15Z</time>
      </trkpt>
      <trkpt lat="46.23386" lon="4.71379">
        <ele>259</ele>
        <time>2012-11-11T12:05:22Z</time>
      </trkpt>
      <trkpt lat="46.23396" lon="4.7136">
        <ele>260</ele>
        <time>2012-11-11T12:05:29Z</time>
      </trkpt>
    </trkseg>
  </trk>
</gpx>